<?xml version="1.0" encoding="UTF-8" standalone="no" ?>
<gpx xmlns="http://www.topografix.com/GPX/1/1" xmlns:xsi="http://www.w3.org/2001/XMLSchema-instance" xsi:schemaLocation="http://www.topografix.com/GPX/1/1 http://www.topografix.com/GPX/1/1/gpx.xsd" version="1.1" creator="VisuGPX - https://www.visugpx.com">
  <metadata>
    <name>Marche matinale 2019010801</name>
    <desc><![CDATA[Marche de 11 Kms autour de Campagnan vent froid 5° ...]]></desc>
  </metadata>
  <trk>
    <name><![CDATA[20190108112642-vE6A7]]></name>
    <trkseg>
      <trkpt lat="43.5338" lon="3.50203">
        <ele>43.7</ele>
        <time>2019-01-08T07:50:52Z</time>
      </trkpt>
      <trkpt lat="43.53383" lon="3.50201">
        <ele>43.7</ele>
        <time>2019-01-08T07:50:54Z</time>
      </trkpt>
      <trkpt lat="43.53386" lon="3.50201">
        <ele>43.7</ele>
        <time>2019-01-08T07:50:57Z</time>
      </trkpt>
      <trkpt lat="43.5339" lon="3.50201">
        <ele>43.7</ele>
        <time>2019-01-08T07:50:59Z</time>
      </trkpt>
      <trkpt lat="43.53393" lon="3.50201">
        <ele>43.7</ele>
        <time>2019-01-08T07:51:01Z</time>
      </trkpt>
      <trkpt lat="43.53396" lon="3.50203">
        <ele>43.8</ele>
        <time>2019-01-08T07:51:07Z</time>
      </trkpt>
      <trkpt lat="43.53397" lon="3.50207">
        <ele>44</ele>
        <time>2019-01-08T07:51:10Z</time>
      </trkpt>
      <trkpt lat="43.53399" lon="3.5021">
        <ele>44.1</ele>
        <time>2019-01-08T07:51:12Z</time>
      </trkpt>
      <trkpt lat="43.53401" lon="3.50215">
        <ele>44.3</ele>
        <time>2019-01-08T07:51:15Z</time>
      </trkpt>
      <trkpt lat="43.53403" lon="3.50219">
        <ele>44.4</ele>
        <time>2019-01-08T07:51:18Z</time>
      </trkpt>
      <trkpt lat="43.53405" lon="3.50222">
        <ele>44.6</ele>
        <time>2019-01-08T07:51:20Z</time>
      </trkpt>
      <trkpt lat="43.53407" lon="3.50226">
        <ele>44.7</ele>
        <time>2019-01-08T07:51:22Z</time>
      </trkpt>
      <trkpt lat="43.53408" lon="3.50231">
        <ele>44.8</ele>
        <time>2019-01-08T07:51:25Z</time>
      </trkpt>
      <trkpt lat="43.53408" lon="3.50235">
        <ele>44.9</ele>
        <time>2019-01-08T07:51:28Z</time>
      </trkpt>
      <trkpt lat="43.53409" lon="3.50239">
        <ele>45.1</ele>
        <time>2019-01-08T07:51:30Z</time>
      </trkpt>
      <trkpt lat="43.53411" lon="3.50243">
        <ele>45.2</ele>
        <time>2019-01-08T07:51:32Z</time>
      </trkpt>
      <trkpt lat="43.53411" lon="3.50247">
        <ele>45.3</ele>
        <time>2019-01-08T07:51:34Z</time>
      </trkpt>
      <trkpt lat="43.53412" lon="3.50251">
        <ele>45.4</ele>
        <time>2019-01-08T07:51:36Z</time>
      </trkpt>
      <trkpt lat="43.53414" lon="3.50255">
        <ele>45.5</ele>
        <time>2019-01-08T07:51:38Z</time>
      </trkpt>
      <trkpt lat="43.53416" lon="3.50259">
        <ele>45.7</ele>
        <time>2019-01-08T07:51:41Z</time>
      </trkpt>
      <trkpt lat="43.53417" lon="3.50265">
        <ele>46</ele>
        <time>2019-01-08T07:51:44Z</time>
      </trkpt>
      <trkpt lat="43.53419" lon="3.50268">
        <ele>46.1</ele>
        <time>2019-01-08T07:51:46Z</time>
      </trkpt>
      <trkpt lat="43.53421" lon="3.50272">
        <ele>46.4</ele>
        <time>2019-01-08T07:51:49Z</time>
      </trkpt>
      <trkpt lat="43.53422" lon="3.50276">
        <ele>46.6</ele>
        <time>2019-01-08T07:51:51Z</time>
      </trkpt>
      <trkpt lat="43.53424" lon="3.5028">
        <ele>46.7</ele>
        <time>2019-01-08T07:51:53Z</time>
      </trkpt>
      <trkpt lat="43.53427" lon="3.50281">
        <ele>47</ele>
        <time>2019-01-08T07:51:55Z</time>
      </trkpt>
      <trkpt lat="43.5343" lon="3.50281">
        <ele>47</ele>
        <time>2019-01-08T07:51:58Z</time>
      </trkpt>
      <trkpt lat="43.53433" lon="3.5028">
        <ele>47</ele>
        <time>2019-01-08T07:52:00Z</time>
      </trkpt>
      <trkpt lat="43.53437" lon="3.50279">
        <ele>46.9</ele>
        <time>2019-01-08T07:52:03Z</time>
      </trkpt>
      <trkpt lat="43.5344" lon="3.50278">
        <ele>46.8</ele>
        <time>2019-01-08T07:52:05Z</time>
      </trkpt>
      <trkpt lat="43.53443" lon="3.50276">
        <ele>46.7</ele>
        <time>2019-01-08T07:52:08Z</time>
      </trkpt>
      <trkpt lat="43.53446" lon="3.50273">
        <ele>46.7</ele>
        <time>2019-01-08T07:52:11Z</time>
      </trkpt>
      <trkpt lat="43.5345" lon="3.50271">
        <ele>46.7</ele>
        <time>2019-01-08T07:52:14Z</time>
      </trkpt>
      <trkpt lat="43.53453" lon="3.5027">
        <ele>46.8</ele>
        <time>2019-01-08T07:52:16Z</time>
      </trkpt>
      <trkpt lat="43.53456" lon="3.50267">
        <ele>46.8</ele>
        <time>2019-01-08T07:52:19Z</time>
      </trkpt>
      <trkpt lat="43.53458" lon="3.50265">
        <ele>46.9</ele>
        <time>2019-01-08T07:52:22Z</time>
      </trkpt>
      <trkpt lat="43.53461" lon="3.50263">
        <ele>46.9</ele>
        <time>2019-01-08T07:52:25Z</time>
      </trkpt>
      <trkpt lat="43.53464" lon="3.5026">
        <ele>47</ele>
        <time>2019-01-08T07:52:28Z</time>
      </trkpt>
      <trkpt lat="43.53467" lon="3.50259">
        <ele>47.1</ele>
        <time>2019-01-08T07:52:30Z</time>
      </trkpt>
      <trkpt lat="43.53469" lon="3.50257">
        <ele>47.1</ele>
        <time>2019-01-08T07:52:32Z</time>
      </trkpt>
      <trkpt lat="43.53473" lon="3.50254">
        <ele>47.3</ele>
        <time>2019-01-08T07:52:35Z</time>
      </trkpt>
      <trkpt lat="43.53476" lon="3.50252">
        <ele>47.4</ele>
        <time>2019-01-08T07:52:38Z</time>
      </trkpt>
      <trkpt lat="43.53479" lon="3.5025">
        <ele>47.5</ele>
        <time>2019-01-08T07:52:41Z</time>
      </trkpt>
      <trkpt lat="43.53483" lon="3.50248">
        <ele>47.7</ele>
        <time>2019-01-08T07:52:44Z</time>
      </trkpt>
      <trkpt lat="43.53486" lon="3.50246">
        <ele>48</ele>
        <time>2019-01-08T07:52:47Z</time>
      </trkpt>
      <trkpt lat="43.53489" lon="3.50243">
        <ele>48</ele>
        <time>2019-01-08T07:52:50Z</time>
      </trkpt>
      <trkpt lat="43.53492" lon="3.50241">
        <ele>48.1</ele>
        <time>2019-01-08T07:52:52Z</time>
      </trkpt>
      <trkpt lat="43.53494" lon="3.50238">
        <ele>48.3</ele>
        <time>2019-01-08T07:52:54Z</time>
      </trkpt>
      <trkpt lat="43.53496" lon="3.50236">
        <ele>48.5</ele>
        <time>2019-01-08T07:52:56Z</time>
      </trkpt>
      <trkpt lat="43.53499" lon="3.50233">
        <ele>48.6</ele>
        <time>2019-01-08T07:52:58Z</time>
      </trkpt>
      <trkpt lat="43.535" lon="3.50231">
        <ele>48.8</ele>
        <time>2019-01-08T07:53:00Z</time>
      </trkpt>
      <trkpt lat="43.53503" lon="3.50228">
        <ele>48.9</ele>
        <time>2019-01-08T07:53:02Z</time>
      </trkpt>
      <trkpt lat="43.53505" lon="3.50226">
        <ele>48.9</ele>
        <time>2019-01-08T07:53:04Z</time>
      </trkpt>
      <trkpt lat="43.53508" lon="3.50222">
        <ele>48.9</ele>
        <time>2019-01-08T07:53:07Z</time>
      </trkpt>
      <trkpt lat="43.5351" lon="3.5022">
        <ele>48.9</ele>
        <time>2019-01-08T07:53:09Z</time>
      </trkpt>
      <trkpt lat="43.53512" lon="3.50218">
        <ele>48.9</ele>
        <time>2019-01-08T07:53:11Z</time>
      </trkpt>
      <trkpt lat="43.53514" lon="3.50215">
        <ele>49</ele>
        <time>2019-01-08T07:53:13Z</time>
      </trkpt>
      <trkpt lat="43.53517" lon="3.50213">
        <ele>49</ele>
        <time>2019-01-08T07:53:15Z</time>
      </trkpt>
      <trkpt lat="43.5352" lon="3.5021">
        <ele>49</ele>
        <time>2019-01-08T07:53:18Z</time>
      </trkpt>
      <trkpt lat="43.53522" lon="3.50207">
        <ele>49</ele>
        <time>2019-01-08T07:53:20Z</time>
      </trkpt>
      <trkpt lat="43.53524" lon="3.50205">
        <ele>49</ele>
        <time>2019-01-08T07:53:22Z</time>
      </trkpt>
      <trkpt lat="43.53527" lon="3.50202">
        <ele>49.1</ele>
        <time>2019-01-08T07:53:25Z</time>
      </trkpt>
      <trkpt lat="43.53529" lon="3.502">
        <ele>49.1</ele>
        <time>2019-01-08T07:53:27Z</time>
      </trkpt>
      <trkpt lat="43.53532" lon="3.50198">
        <ele>49.2</ele>
        <time>2019-01-08T07:53:29Z</time>
      </trkpt>
      <trkpt lat="43.53534" lon="3.50195">
        <ele>49.3</ele>
        <time>2019-01-08T07:53:31Z</time>
      </trkpt>
      <trkpt lat="43.53536" lon="3.50192">
        <ele>49.5</ele>
        <time>2019-01-08T07:53:33Z</time>
      </trkpt>
      <trkpt lat="43.53538" lon="3.50189">
        <ele>49.6</ele>
        <time>2019-01-08T07:53:35Z</time>
      </trkpt>
      <trkpt lat="43.53541" lon="3.50186">
        <ele>49.8</ele>
        <time>2019-01-08T07:53:38Z</time>
      </trkpt>
      <trkpt lat="43.53544" lon="3.50183">
        <ele>49.9</ele>
        <time>2019-01-08T07:53:41Z</time>
      </trkpt>
      <trkpt lat="43.53546" lon="3.5018">
        <ele>49.8</ele>
        <time>2019-01-08T07:53:44Z</time>
      </trkpt>
      <trkpt lat="43.53549" lon="3.50176">
        <ele>49.6</ele>
        <time>2019-01-08T07:53:47Z</time>
      </trkpt>
      <trkpt lat="43.53552" lon="3.50172">
        <ele>49.6</ele>
        <time>2019-01-08T07:53:50Z</time>
      </trkpt>
      <trkpt lat="43.53554" lon="3.50169">
        <ele>49.7</ele>
        <time>2019-01-08T07:53:53Z</time>
      </trkpt>
      <trkpt lat="43.53555" lon="3.50165">
        <ele>49.7</ele>
        <time>2019-01-08T07:53:55Z</time>
      </trkpt>
      <trkpt lat="43.53557" lon="3.50161">
        <ele>49.8</ele>
        <time>2019-01-08T07:53:57Z</time>
      </trkpt>
      <trkpt lat="43.53558" lon="3.50158">
        <ele>49.8</ele>
        <time>2019-01-08T07:53:59Z</time>
      </trkpt>
      <trkpt lat="43.5356" lon="3.50155">
        <ele>49.7</ele>
        <time>2019-01-08T07:54:01Z</time>
      </trkpt>
      <trkpt lat="43.53562" lon="3.50151">
        <ele>49.6</ele>
        <time>2019-01-08T07:54:03Z</time>
      </trkpt>
      <trkpt lat="43.53564" lon="3.50148">
        <ele>49.5</ele>
        <time>2019-01-08T07:54:05Z</time>
      </trkpt>
      <trkpt lat="43.53566" lon="3.50144">
        <ele>49.5</ele>
        <time>2019-01-08T07:54:07Z</time>
      </trkpt>
      <trkpt lat="43.53568" lon="3.50141">
        <ele>49.5</ele>
        <time>2019-01-08T07:54:09Z</time>
      </trkpt>
      <trkpt lat="43.53569" lon="3.50137">
        <ele>49.3</ele>
        <time>2019-01-08T07:54:11Z</time>
      </trkpt>
      <trkpt lat="43.53571" lon="3.50134">
        <ele>49</ele>
        <time>2019-01-08T07:54:13Z</time>
      </trkpt>
      <trkpt lat="43.53572" lon="3.50131">
        <ele>48.7</ele>
        <time>2019-01-08T07:54:15Z</time>
      </trkpt>
      <trkpt lat="43.53574" lon="3.50127">
        <ele>48.7</ele>
        <time>2019-01-08T07:54:17Z</time>
      </trkpt>
      <trkpt lat="43.53576" lon="3.50123">
        <ele>48.6</ele>
        <time>2019-01-08T07:54:20Z</time>
      </trkpt>
      <trkpt lat="43.53578" lon="3.5012">
        <ele>48.5</ele>
        <time>2019-01-08T07:54:22Z</time>
      </trkpt>
      <trkpt lat="43.5358" lon="3.50117">
        <ele>48.4</ele>
        <time>2019-01-08T07:54:24Z</time>
      </trkpt>
      <trkpt lat="43.53582" lon="3.50113">
        <ele>48.3</ele>
        <time>2019-01-08T07:54:27Z</time>
      </trkpt>
      <trkpt lat="43.53585" lon="3.50109">
        <ele>48.2</ele>
        <time>2019-01-08T07:54:30Z</time>
      </trkpt>
      <trkpt lat="43.53587" lon="3.50104">
        <ele>48.1</ele>
        <time>2019-01-08T07:54:33Z</time>
      </trkpt>
      <trkpt lat="43.5359" lon="3.50102">
        <ele>48</ele>
        <time>2019-01-08T07:54:36Z</time>
      </trkpt>
      <trkpt lat="43.53593" lon="3.50099">
        <ele>47.9</ele>
        <time>2019-01-08T07:54:38Z</time>
      </trkpt>
      <trkpt lat="43.53595" lon="3.50097">
        <ele>47.8</ele>
        <time>2019-01-08T07:54:40Z</time>
      </trkpt>
      <trkpt lat="43.53598" lon="3.50094">
        <ele>47.7</ele>
        <time>2019-01-08T07:54:43Z</time>
      </trkpt>
      <trkpt lat="43.53601" lon="3.5009">
        <ele>47.7</ele>
        <time>2019-01-08T07:54:46Z</time>
      </trkpt>
      <trkpt lat="43.53604" lon="3.50087">
        <ele>47.7</ele>
        <time>2019-01-08T07:54:48Z</time>
      </trkpt>
      <trkpt lat="43.53606" lon="3.50084">
        <ele>47.6</ele>
        <time>2019-01-08T07:54:50Z</time>
      </trkpt>
      <trkpt lat="43.53608" lon="3.50082">
        <ele>47.6</ele>
        <time>2019-01-08T07:54:52Z</time>
      </trkpt>
      <trkpt lat="43.53611" lon="3.50079">
        <ele>47.6</ele>
        <time>2019-01-08T07:54:54Z</time>
      </trkpt>
      <trkpt lat="43.53614" lon="3.50076">
        <ele>47.6</ele>
        <time>2019-01-08T07:54:56Z</time>
      </trkpt>
      <trkpt lat="43.53616" lon="3.50073">
        <ele>47.8</ele>
        <time>2019-01-08T07:54:58Z</time>
      </trkpt>
      <trkpt lat="43.53619" lon="3.50071">
        <ele>47.7</ele>
        <time>2019-01-08T07:55:00Z</time>
      </trkpt>
      <trkpt lat="43.53623" lon="3.50067">
        <ele>47.7</ele>
        <time>2019-01-08T07:55:03Z</time>
      </trkpt>
      <trkpt lat="43.53626" lon="3.50066">
        <ele>47.7</ele>
        <time>2019-01-08T07:55:05Z</time>
      </trkpt>
      <trkpt lat="43.53628" lon="3.50062">
        <ele>47.7</ele>
        <time>2019-01-08T07:55:09Z</time>
      </trkpt>
      <trkpt lat="43.53631" lon="3.50059">
        <ele>47.7</ele>
        <time>2019-01-08T07:55:11Z</time>
      </trkpt>
      <trkpt lat="43.53633" lon="3.50056">
        <ele>47.7</ele>
        <time>2019-01-08T07:55:13Z</time>
      </trkpt>
      <trkpt lat="43.53635" lon="3.50052">
        <ele>47.7</ele>
        <time>2019-01-08T07:55:15Z</time>
      </trkpt>
      <trkpt lat="43.53637" lon="3.5005">
        <ele>47.8</ele>
        <time>2019-01-08T07:55:17Z</time>
      </trkpt>
      <trkpt lat="43.5364" lon="3.50048">
        <ele>47.9</ele>
        <time>2019-01-08T07:55:19Z</time>
      </trkpt>
      <trkpt lat="43.53643" lon="3.50046">
        <ele>48</ele>
        <time>2019-01-08T07:55:21Z</time>
      </trkpt>
      <trkpt lat="43.53646" lon="3.50043">
        <ele>48.2</ele>
        <time>2019-01-08T07:55:23Z</time>
      </trkpt>
      <trkpt lat="43.53648" lon="3.50041">
        <ele>48.3</ele>
        <time>2019-01-08T07:55:25Z</time>
      </trkpt>
      <trkpt lat="43.53651" lon="3.50038">
        <ele>48.5</ele>
        <time>2019-01-08T07:55:27Z</time>
      </trkpt>
      <trkpt lat="43.53654" lon="3.50036">
        <ele>48.6</ele>
        <time>2019-01-08T07:55:29Z</time>
      </trkpt>
      <trkpt lat="43.53656" lon="3.50034">
        <ele>48.8</ele>
        <time>2019-01-08T07:55:31Z</time>
      </trkpt>
      <trkpt lat="43.53659" lon="3.50032">
        <ele>48.9</ele>
        <time>2019-01-08T07:55:33Z</time>
      </trkpt>
      <trkpt lat="43.53662" lon="3.50031">
        <ele>49.1</ele>
        <time>2019-01-08T07:55:35Z</time>
      </trkpt>
      <trkpt lat="43.53665" lon="3.5003">
        <ele>49.3</ele>
        <time>2019-01-08T07:55:37Z</time>
      </trkpt>
      <trkpt lat="43.53668" lon="3.50028">
        <ele>49.4</ele>
        <time>2019-01-08T07:55:39Z</time>
      </trkpt>
      <trkpt lat="43.53671" lon="3.50025">
        <ele>49.5</ele>
        <time>2019-01-08T07:55:42Z</time>
      </trkpt>
      <trkpt lat="43.53673" lon="3.50021">
        <ele>49.6</ele>
        <time>2019-01-08T07:55:45Z</time>
      </trkpt>
      <trkpt lat="43.53675" lon="3.50017">
        <ele>49.7</ele>
        <time>2019-01-08T07:55:48Z</time>
      </trkpt>
      <trkpt lat="43.53677" lon="3.50014">
        <ele>49.7</ele>
        <time>2019-01-08T07:55:50Z</time>
      </trkpt>
      <trkpt lat="43.5368" lon="3.5001">
        <ele>49.8</ele>
        <time>2019-01-08T07:55:52Z</time>
      </trkpt>
      <trkpt lat="43.53682" lon="3.50007">
        <ele>49.8</ele>
        <time>2019-01-08T07:55:54Z</time>
      </trkpt>
      <trkpt lat="43.53684" lon="3.50004">
        <ele>49.8</ele>
        <time>2019-01-08T07:55:57Z</time>
      </trkpt>
      <trkpt lat="43.53688" lon="3.50001">
        <ele>49.9</ele>
        <time>2019-01-08T07:56:00Z</time>
      </trkpt>
      <trkpt lat="43.53692" lon="3.49999">
        <ele>50</ele>
        <time>2019-01-08T07:56:03Z</time>
      </trkpt>
      <trkpt lat="43.53695" lon="3.49996">
        <ele>50.1</ele>
        <time>2019-01-08T07:56:06Z</time>
      </trkpt>
      <trkpt lat="43.53698" lon="3.49993">
        <ele>50.3</ele>
        <time>2019-01-08T07:56:08Z</time>
      </trkpt>
      <trkpt lat="43.537" lon="3.49991">
        <ele>50.4</ele>
        <time>2019-01-08T07:56:10Z</time>
      </trkpt>
      <trkpt lat="43.53702" lon="3.49989">
        <ele>50.6</ele>
        <time>2019-01-08T07:56:12Z</time>
      </trkpt>
      <trkpt lat="43.53705" lon="3.49986">
        <ele>50.8</ele>
        <time>2019-01-08T07:56:14Z</time>
      </trkpt>
      <trkpt lat="43.53707" lon="3.49984">
        <ele>51</ele>
        <time>2019-01-08T07:56:16Z</time>
      </trkpt>
      <trkpt lat="43.53709" lon="3.49981">
        <ele>51.2</ele>
        <time>2019-01-08T07:56:19Z</time>
      </trkpt>
      <trkpt lat="43.53713" lon="3.49979">
        <ele>51.5</ele>
        <time>2019-01-08T07:56:22Z</time>
      </trkpt>
      <trkpt lat="43.53714" lon="3.49976">
        <ele>51.6</ele>
        <time>2019-01-08T07:56:24Z</time>
      </trkpt>
      <trkpt lat="43.53717" lon="3.49972">
        <ele>51.9</ele>
        <time>2019-01-08T07:56:27Z</time>
      </trkpt>
      <trkpt lat="43.53719" lon="3.49969">
        <ele>52</ele>
        <time>2019-01-08T07:56:29Z</time>
      </trkpt>
      <trkpt lat="43.53721" lon="3.49966">
        <ele>52.3</ele>
        <time>2019-01-08T07:56:31Z</time>
      </trkpt>
      <trkpt lat="43.53723" lon="3.49962">
        <ele>52.6</ele>
        <time>2019-01-08T07:56:34Z</time>
      </trkpt>
      <trkpt lat="43.53724" lon="3.49958">
        <ele>52.7</ele>
        <time>2019-01-08T07:56:37Z</time>
      </trkpt>
      <trkpt lat="43.53726" lon="3.49954">
        <ele>52.8</ele>
        <time>2019-01-08T07:56:40Z</time>
      </trkpt>
      <trkpt lat="43.53728" lon="3.4995">
        <ele>52.9</ele>
        <time>2019-01-08T07:56:43Z</time>
      </trkpt>
      <trkpt lat="43.5373" lon="3.49946">
        <ele>53.1</ele>
        <time>2019-01-08T07:56:45Z</time>
      </trkpt>
      <trkpt lat="43.53732" lon="3.49942">
        <ele>53.2</ele>
        <time>2019-01-08T07:56:48Z</time>
      </trkpt>
      <trkpt lat="43.53734" lon="3.49937">
        <ele>53.3</ele>
        <time>2019-01-08T07:56:50Z</time>
      </trkpt>
      <trkpt lat="43.53735" lon="3.49933">
        <ele>53.3</ele>
        <time>2019-01-08T07:56:52Z</time>
      </trkpt>
      <trkpt lat="43.53738" lon="3.49929">
        <ele>53.4</ele>
        <time>2019-01-08T07:56:54Z</time>
      </trkpt>
      <trkpt lat="43.5374" lon="3.49926">
        <ele>53.5</ele>
        <time>2019-01-08T07:56:56Z</time>
      </trkpt>
      <trkpt lat="43.53742" lon="3.49922">
        <ele>53.5</ele>
        <time>2019-01-08T07:56:59Z</time>
      </trkpt>
      <trkpt lat="43.53743" lon="3.49918">
        <ele>53.7</ele>
        <time>2019-01-08T07:57:01Z</time>
      </trkpt>
      <trkpt lat="43.53743" lon="3.49913">
        <ele>53.4</ele>
        <time>2019-01-08T07:57:04Z</time>
      </trkpt>
      <trkpt lat="43.53742" lon="3.49907">
        <ele>53.1</ele>
        <time>2019-01-08T07:57:07Z</time>
      </trkpt>
      <trkpt lat="43.5374" lon="3.49903">
        <ele>52.8</ele>
        <time>2019-01-08T07:57:10Z</time>
      </trkpt>
      <trkpt lat="43.53736" lon="3.499">
        <ele>52.5</ele>
        <time>2019-01-08T07:57:12Z</time>
      </trkpt>
      <trkpt lat="43.53734" lon="3.49898">
        <ele>52.4</ele>
        <time>2019-01-08T07:57:14Z</time>
      </trkpt>
      <trkpt lat="43.53734" lon="3.49893">
        <ele>52.3</ele>
        <time>2019-01-08T07:57:17Z</time>
      </trkpt>
      <trkpt lat="43.53736" lon="3.49889">
        <ele>52.4</ele>
        <time>2019-01-08T07:57:20Z</time>
      </trkpt>
      <trkpt lat="43.53737" lon="3.49885">
        <ele>52.4</ele>
        <time>2019-01-08T07:57:22Z</time>
      </trkpt>
      <trkpt lat="43.53739" lon="3.4988">
        <ele>52.5</ele>
        <time>2019-01-08T07:57:25Z</time>
      </trkpt>
      <trkpt lat="43.53739" lon="3.49876">
        <ele>52.6</ele>
        <time>2019-01-08T07:57:27Z</time>
      </trkpt>
      <trkpt lat="43.53741" lon="3.49872">
        <ele>52.6</ele>
        <time>2019-01-08T07:57:30Z</time>
      </trkpt>
      <trkpt lat="43.53742" lon="3.49866">
        <ele>52.6</ele>
        <time>2019-01-08T07:57:33Z</time>
      </trkpt>
      <trkpt lat="43.53742" lon="3.49861">
        <ele>52.6</ele>
        <time>2019-01-08T07:57:35Z</time>
      </trkpt>
      <trkpt lat="43.53743" lon="3.49857">
        <ele>52.6</ele>
        <time>2019-01-08T07:57:37Z</time>
      </trkpt>
      <trkpt lat="43.53745" lon="3.49854">
        <ele>52.6</ele>
        <time>2019-01-08T07:57:39Z</time>
      </trkpt>
      <trkpt lat="43.53747" lon="3.49849">
        <ele>52.6</ele>
        <time>2019-01-08T07:57:41Z</time>
      </trkpt>
      <trkpt lat="43.53748" lon="3.49845">
        <ele>52.6</ele>
        <time>2019-01-08T07:57:43Z</time>
      </trkpt>
      <trkpt lat="43.53747" lon="3.4984">
        <ele>52.1</ele>
        <time>2019-01-08T07:57:45Z</time>
      </trkpt>
      <trkpt lat="43.53746" lon="3.49836">
        <ele>51.8</ele>
        <time>2019-01-08T07:57:47Z</time>
      </trkpt>
      <trkpt lat="43.53745" lon="3.49832">
        <ele>51.4</ele>
        <time>2019-01-08T07:57:50Z</time>
      </trkpt>
      <trkpt lat="43.53747" lon="3.49828">
        <ele>51.1</ele>
        <time>2019-01-08T07:57:52Z</time>
      </trkpt>
      <trkpt lat="43.53749" lon="3.49824">
        <ele>51.2</ele>
        <time>2019-01-08T07:57:54Z</time>
      </trkpt>
      <trkpt lat="43.53751" lon="3.49821">
        <ele>50.9</ele>
        <time>2019-01-08T07:57:56Z</time>
      </trkpt>
      <trkpt lat="43.53754" lon="3.49817">
        <ele>50.7</ele>
        <time>2019-01-08T07:57:59Z</time>
      </trkpt>
      <trkpt lat="43.53758" lon="3.49815">
        <ele>50.5</ele>
        <time>2019-01-08T07:58:01Z</time>
      </trkpt>
      <trkpt lat="43.53762" lon="3.49813">
        <ele>50.3</ele>
        <time>2019-01-08T07:58:03Z</time>
      </trkpt>
      <trkpt lat="43.53764" lon="3.4981">
        <ele>50.1</ele>
        <time>2019-01-08T07:58:05Z</time>
      </trkpt>
      <trkpt lat="43.53767" lon="3.49807">
        <ele>50.1</ele>
        <time>2019-01-08T07:58:07Z</time>
      </trkpt>
      <trkpt lat="43.5377" lon="3.49803">
        <ele>49.9</ele>
        <time>2019-01-08T07:58:09Z</time>
      </trkpt>
      <trkpt lat="43.53772" lon="3.49799">
        <ele>49.7</ele>
        <time>2019-01-08T07:58:11Z</time>
      </trkpt>
      <trkpt lat="43.53774" lon="3.49795">
        <ele>49.4</ele>
        <time>2019-01-08T07:58:13Z</time>
      </trkpt>
      <trkpt lat="43.53776" lon="3.49792">
        <ele>49.3</ele>
        <time>2019-01-08T07:58:15Z</time>
      </trkpt>
      <trkpt lat="43.53777" lon="3.49789">
        <ele>49.3</ele>
        <time>2019-01-08T07:58:17Z</time>
      </trkpt>
      <trkpt lat="43.53776" lon="3.49785">
        <ele>49.2</ele>
        <time>2019-01-08T07:58:20Z</time>
      </trkpt>
      <trkpt lat="43.53774" lon="3.49783">
        <ele>49.1</ele>
        <time>2019-01-08T07:58:22Z</time>
      </trkpt>
      <trkpt lat="43.53772" lon="3.49779">
        <ele>49</ele>
        <time>2019-01-08T07:58:25Z</time>
      </trkpt>
      <trkpt lat="43.53773" lon="3.49774">
        <ele>48.9</ele>
        <time>2019-01-08T07:58:28Z</time>
      </trkpt>
      <trkpt lat="43.53775" lon="3.4977">
        <ele>48.7</ele>
        <time>2019-01-08T07:58:30Z</time>
      </trkpt>
      <trkpt lat="43.53778" lon="3.49768">
        <ele>48.6</ele>
        <time>2019-01-08T07:58:32Z</time>
      </trkpt>
      <trkpt lat="43.53779" lon="3.49763">
        <ele>48.4</ele>
        <time>2019-01-08T07:58:34Z</time>
      </trkpt>
      <trkpt lat="43.53779" lon="3.49757">
        <ele>48.3</ele>
        <time>2019-01-08T07:58:36Z</time>
      </trkpt>
      <trkpt lat="43.53782" lon="3.49754">
        <ele>48.2</ele>
        <time>2019-01-08T07:58:39Z</time>
      </trkpt>
      <trkpt lat="43.53783" lon="3.4975">
        <ele>48.1</ele>
        <time>2019-01-08T07:58:41Z</time>
      </trkpt>
      <trkpt lat="43.53784" lon="3.49746">
        <ele>47.7</ele>
        <time>2019-01-08T07:58:42Z</time>
      </trkpt>
      <trkpt lat="43.53785" lon="3.49741">
        <ele>47.4</ele>
        <time>2019-01-08T07:58:44Z</time>
      </trkpt>
      <trkpt lat="43.53785" lon="3.49738">
        <ele>47.2</ele>
        <time>2019-01-08T07:58:47Z</time>
      </trkpt>
      <trkpt lat="43.53787" lon="3.49733">
        <ele>46.5</ele>
        <time>2019-01-08T07:58:51Z</time>
      </trkpt>
      <trkpt lat="43.53786" lon="3.49729">
        <ele>46.3</ele>
        <time>2019-01-08T07:58:54Z</time>
      </trkpt>
      <trkpt lat="43.5379" lon="3.49727">
        <ele>45.9</ele>
        <time>2019-01-08T07:58:58Z</time>
      </trkpt>
      <trkpt lat="43.53793" lon="3.49724">
        <ele>45.6</ele>
        <time>2019-01-08T07:59:00Z</time>
      </trkpt>
      <trkpt lat="43.53797" lon="3.49721">
        <ele>45.3</ele>
        <time>2019-01-08T07:59:02Z</time>
      </trkpt>
      <trkpt lat="43.538" lon="3.49719">
        <ele>45</ele>
        <time>2019-01-08T07:59:04Z</time>
      </trkpt>
      <trkpt lat="43.53802" lon="3.49715">
        <ele>44.6</ele>
        <time>2019-01-08T07:59:06Z</time>
      </trkpt>
      <trkpt lat="43.53804" lon="3.49712">
        <ele>44.3</ele>
        <time>2019-01-08T07:59:08Z</time>
      </trkpt>
      <trkpt lat="43.53808" lon="3.49709">
        <ele>44</ele>
        <time>2019-01-08T07:59:10Z</time>
      </trkpt>
      <trkpt lat="43.5381" lon="3.49705">
        <ele>43.9</ele>
        <time>2019-01-08T07:59:12Z</time>
      </trkpt>
      <trkpt lat="43.53813" lon="3.49701">
        <ele>43.7</ele>
        <time>2019-01-08T07:59:14Z</time>
      </trkpt>
      <trkpt lat="43.53816" lon="3.49698">
        <ele>43.6</ele>
        <time>2019-01-08T07:59:16Z</time>
      </trkpt>
      <trkpt lat="43.53819" lon="3.49695">
        <ele>43.5</ele>
        <time>2019-01-08T07:59:18Z</time>
      </trkpt>
      <trkpt lat="43.53822" lon="3.49693">
        <ele>43.2</ele>
        <time>2019-01-08T07:59:21Z</time>
      </trkpt>
      <trkpt lat="43.53825" lon="3.49691">
        <ele>43</ele>
        <time>2019-01-08T07:59:23Z</time>
      </trkpt>
      <trkpt lat="43.53827" lon="3.49689">
        <ele>42.9</ele>
        <time>2019-01-08T07:59:25Z</time>
      </trkpt>
      <trkpt lat="43.53829" lon="3.49686">
        <ele>42.8</ele>
        <time>2019-01-08T07:59:27Z</time>
      </trkpt>
      <trkpt lat="43.53829" lon="3.4968">
        <ele>42.6</ele>
        <time>2019-01-08T07:59:30Z</time>
      </trkpt>
      <trkpt lat="43.53829" lon="3.49676">
        <ele>42.4</ele>
        <time>2019-01-08T07:59:32Z</time>
      </trkpt>
      <trkpt lat="43.5383" lon="3.49671">
        <ele>42.1</ele>
        <time>2019-01-08T07:59:35Z</time>
      </trkpt>
      <trkpt lat="43.53829" lon="3.49666">
        <ele>42</ele>
        <time>2019-01-08T07:59:37Z</time>
      </trkpt>
      <trkpt lat="43.5383" lon="3.49662">
        <ele>41.8</ele>
        <time>2019-01-08T07:59:39Z</time>
      </trkpt>
      <trkpt lat="43.53829" lon="3.49658">
        <ele>41.6</ele>
        <time>2019-01-08T07:59:41Z</time>
      </trkpt>
      <trkpt lat="43.53827" lon="3.49655">
        <ele>41.4</ele>
        <time>2019-01-08T07:59:43Z</time>
      </trkpt>
      <trkpt lat="43.53827" lon="3.49651">
        <ele>41.2</ele>
        <time>2019-01-08T07:59:46Z</time>
      </trkpt>
      <trkpt lat="43.5383" lon="3.49648">
        <ele>41.1</ele>
        <time>2019-01-08T07:59:49Z</time>
      </trkpt>
      <trkpt lat="43.53833" lon="3.49646">
        <ele>40.9</ele>
        <time>2019-01-08T07:59:51Z</time>
      </trkpt>
      <trkpt lat="43.53835" lon="3.49643">
        <ele>40.8</ele>
        <time>2019-01-08T07:59:53Z</time>
      </trkpt>
      <trkpt lat="43.53838" lon="3.4964">
        <ele>40.6</ele>
        <time>2019-01-08T07:59:56Z</time>
      </trkpt>
      <trkpt lat="43.53841" lon="3.49637">
        <ele>40.5</ele>
        <time>2019-01-08T07:59:58Z</time>
      </trkpt>
      <trkpt lat="43.53843" lon="3.49634">
        <ele>40.3</ele>
        <time>2019-01-08T08:00:00Z</time>
      </trkpt>
      <trkpt lat="43.53845" lon="3.49631">
        <ele>40.1</ele>
        <time>2019-01-08T08:00:02Z</time>
      </trkpt>
      <trkpt lat="43.53847" lon="3.49628">
        <ele>40</ele>
        <time>2019-01-08T08:00:04Z</time>
      </trkpt>
      <trkpt lat="43.53849" lon="3.49624">
        <ele>39.7</ele>
        <time>2019-01-08T08:00:07Z</time>
      </trkpt>
      <trkpt lat="43.53852" lon="3.4962">
        <ele>39.5</ele>
        <time>2019-01-08T08:00:09Z</time>
      </trkpt>
      <trkpt lat="43.53854" lon="3.49617">
        <ele>39.4</ele>
        <time>2019-01-08T08:00:11Z</time>
      </trkpt>
      <trkpt lat="43.53858" lon="3.49616">
        <ele>39.2</ele>
        <time>2019-01-08T08:00:13Z</time>
      </trkpt>
      <trkpt lat="43.53861" lon="3.49614">
        <ele>39.1</ele>
        <time>2019-01-08T08:00:15Z</time>
      </trkpt>
      <trkpt lat="43.53864" lon="3.49612">
        <ele>39.1</ele>
        <time>2019-01-08T08:00:17Z</time>
      </trkpt>
      <trkpt lat="43.53868" lon="3.49609">
        <ele>39</ele>
        <time>2019-01-08T08:00:19Z</time>
      </trkpt>
      <trkpt lat="43.53871" lon="3.49606">
        <ele>38.9</ele>
        <time>2019-01-08T08:00:21Z</time>
      </trkpt>
      <trkpt lat="43.53873" lon="3.49604">
        <ele>38.9</ele>
        <time>2019-01-08T08:00:23Z</time>
      </trkpt>
      <trkpt lat="43.53876" lon="3.496">
        <ele>38.8</ele>
        <time>2019-01-08T08:00:26Z</time>
      </trkpt>
      <trkpt lat="43.53878" lon="3.49596">
        <ele>38.7</ele>
        <time>2019-01-08T08:00:29Z</time>
      </trkpt>
      <trkpt lat="43.53881" lon="3.49592">
        <ele>38.7</ele>
        <time>2019-01-08T08:00:32Z</time>
      </trkpt>
      <trkpt lat="43.53883" lon="3.4959">
        <ele>38.6</ele>
        <time>2019-01-08T08:00:34Z</time>
      </trkpt>
      <trkpt lat="43.53885" lon="3.49587">
        <ele>38.5</ele>
        <time>2019-01-08T08:00:36Z</time>
      </trkpt>
      <trkpt lat="43.53887" lon="3.49585">
        <ele>38.5</ele>
        <time>2019-01-08T08:00:38Z</time>
      </trkpt>
      <trkpt lat="43.5389" lon="3.49582">
        <ele>38.4</ele>
        <time>2019-01-08T08:00:41Z</time>
      </trkpt>
      <trkpt lat="43.53893" lon="3.4958">
        <ele>38.3</ele>
        <time>2019-01-08T08:00:44Z</time>
      </trkpt>
      <trkpt lat="43.53896" lon="3.49579">
        <ele>38.2</ele>
        <time>2019-01-08T08:00:46Z</time>
      </trkpt>
      <trkpt lat="43.53899" lon="3.49577">
        <ele>38.2</ele>
        <time>2019-01-08T08:00:48Z</time>
      </trkpt>
      <trkpt lat="43.53901" lon="3.49574">
        <ele>38.1</ele>
        <time>2019-01-08T08:00:50Z</time>
      </trkpt>
      <trkpt lat="43.53904" lon="3.49572">
        <ele>38</ele>
        <time>2019-01-08T08:00:52Z</time>
      </trkpt>
      <trkpt lat="43.53906" lon="3.49568">
        <ele>37.9</ele>
        <time>2019-01-08T08:00:54Z</time>
      </trkpt>
      <trkpt lat="43.53909" lon="3.49566">
        <ele>37.9</ele>
        <time>2019-01-08T08:00:56Z</time>
      </trkpt>
      <trkpt lat="43.53911" lon="3.49563">
        <ele>37.8</ele>
        <time>2019-01-08T08:00:58Z</time>
      </trkpt>
      <trkpt lat="43.53913" lon="3.49561">
        <ele>37.7</ele>
        <time>2019-01-08T08:01:00Z</time>
      </trkpt>
      <trkpt lat="43.53916" lon="3.49558">
        <ele>37.7</ele>
        <time>2019-01-08T08:01:02Z</time>
      </trkpt>
      <trkpt lat="43.53919" lon="3.49556">
        <ele>37.6</ele>
        <time>2019-01-08T08:01:05Z</time>
      </trkpt>
      <trkpt lat="43.53922" lon="3.49552">
        <ele>37.5</ele>
        <time>2019-01-08T08:01:08Z</time>
      </trkpt>
      <trkpt lat="43.53925" lon="3.49549">
        <ele>37.4</ele>
        <time>2019-01-08T08:01:11Z</time>
      </trkpt>
      <trkpt lat="43.53928" lon="3.49547">
        <ele>37.3</ele>
        <time>2019-01-08T08:01:14Z</time>
      </trkpt>
      <trkpt lat="43.5393" lon="3.49544">
        <ele>37.2</ele>
        <time>2019-01-08T08:01:16Z</time>
      </trkpt>
      <trkpt lat="43.53933" lon="3.49541">
        <ele>37.1</ele>
        <time>2019-01-08T08:01:18Z</time>
      </trkpt>
      <trkpt lat="43.53936" lon="3.49539">
        <ele>37</ele>
        <time>2019-01-08T08:01:20Z</time>
      </trkpt>
      <trkpt lat="43.53938" lon="3.49536">
        <ele>36.9</ele>
        <time>2019-01-08T08:01:22Z</time>
      </trkpt>
      <trkpt lat="43.5394" lon="3.49534">
        <ele>36.8</ele>
        <time>2019-01-08T08:01:24Z</time>
      </trkpt>
      <trkpt lat="43.53942" lon="3.49531">
        <ele>36.7</ele>
        <time>2019-01-08T08:01:26Z</time>
      </trkpt>
      <trkpt lat="43.53945" lon="3.49529">
        <ele>36.6</ele>
        <time>2019-01-08T08:01:28Z</time>
      </trkpt>
      <trkpt lat="43.53948" lon="3.49527">
        <ele>36.5</ele>
        <time>2019-01-08T08:01:30Z</time>
      </trkpt>
      <trkpt lat="43.53951" lon="3.49523">
        <ele>36.4</ele>
        <time>2019-01-08T08:01:33Z</time>
      </trkpt>
      <trkpt lat="43.53954" lon="3.4952">
        <ele>36.3</ele>
        <time>2019-01-08T08:01:35Z</time>
      </trkpt>
      <trkpt lat="43.53956" lon="3.49517">
        <ele>36.2</ele>
        <time>2019-01-08T08:01:37Z</time>
      </trkpt>
      <trkpt lat="43.53959" lon="3.49515">
        <ele>36.1</ele>
        <time>2019-01-08T08:01:39Z</time>
      </trkpt>
      <trkpt lat="43.53961" lon="3.49514">
        <ele>36.1</ele>
        <time>2019-01-08T08:01:41Z</time>
      </trkpt>
      <trkpt lat="43.53964" lon="3.49511">
        <ele>36</ele>
        <time>2019-01-08T08:01:43Z</time>
      </trkpt>
      <trkpt lat="43.53968" lon="3.49509">
        <ele>35.9</ele>
        <time>2019-01-08T08:01:46Z</time>
      </trkpt>
      <trkpt lat="43.5397" lon="3.49508">
        <ele>35.9</ele>
        <time>2019-01-08T08:01:48Z</time>
      </trkpt>
      <trkpt lat="43.53973" lon="3.49505">
        <ele>35.8</ele>
        <time>2019-01-08T08:01:50Z</time>
      </trkpt>
      <trkpt lat="43.53976" lon="3.49502">
        <ele>35.7</ele>
        <time>2019-01-08T08:01:52Z</time>
      </trkpt>
      <trkpt lat="43.53978" lon="3.495">
        <ele>35.7</ele>
        <time>2019-01-08T08:01:54Z</time>
      </trkpt>
      <trkpt lat="43.53981" lon="3.49497">
        <ele>35.6</ele>
        <time>2019-01-08T08:01:56Z</time>
      </trkpt>
      <trkpt lat="43.53983" lon="3.49494">
        <ele>35.5</ele>
        <time>2019-01-08T08:01:58Z</time>
      </trkpt>
      <trkpt lat="43.53986" lon="3.49492">
        <ele>35.5</ele>
        <time>2019-01-08T08:02:00Z</time>
      </trkpt>
      <trkpt lat="43.53989" lon="3.49491">
        <ele>35.4</ele>
        <time>2019-01-08T08:02:02Z</time>
      </trkpt>
      <trkpt lat="43.53991" lon="3.49488">
        <ele>35.3</ele>
        <time>2019-01-08T08:02:04Z</time>
      </trkpt>
      <trkpt lat="43.53993" lon="3.49486">
        <ele>35.3</ele>
        <time>2019-01-08T08:02:06Z</time>
      </trkpt>
      <trkpt lat="43.53997" lon="3.49484">
        <ele>35.2</ele>
        <time>2019-01-08T08:02:09Z</time>
      </trkpt>
      <trkpt lat="43.54" lon="3.49481">
        <ele>35.1</ele>
        <time>2019-01-08T08:02:12Z</time>
      </trkpt>
      <trkpt lat="43.54003" lon="3.49479">
        <ele>35</ele>
        <time>2019-01-08T08:02:14Z</time>
      </trkpt>
      <trkpt lat="43.54006" lon="3.49477">
        <ele>35</ele>
        <time>2019-01-08T08:02:16Z</time>
      </trkpt>
      <trkpt lat="43.54008" lon="3.49475">
        <ele>34.6</ele>
        <time>2019-01-08T08:02:18Z</time>
      </trkpt>
      <trkpt lat="43.54011" lon="3.49473">
        <ele>34.4</ele>
        <time>2019-01-08T08:02:20Z</time>
      </trkpt>
      <trkpt lat="43.54014" lon="3.4947">
        <ele>34.3</ele>
        <time>2019-01-08T08:02:22Z</time>
      </trkpt>
      <trkpt lat="43.54017" lon="3.49467">
        <ele>34.1</ele>
        <time>2019-01-08T08:02:24Z</time>
      </trkpt>
      <trkpt lat="43.54019" lon="3.49465">
        <ele>34</ele>
        <time>2019-01-08T08:02:26Z</time>
      </trkpt>
      <trkpt lat="43.54022" lon="3.49462">
        <ele>33.9</ele>
        <time>2019-01-08T08:02:28Z</time>
      </trkpt>
      <trkpt lat="43.54025" lon="3.49459">
        <ele>33.7</ele>
        <time>2019-01-08T08:02:31Z</time>
      </trkpt>
      <trkpt lat="43.54028" lon="3.49457">
        <ele>33.6</ele>
        <time>2019-01-08T08:02:33Z</time>
      </trkpt>
      <trkpt lat="43.5403" lon="3.49455">
        <ele>33.5</ele>
        <time>2019-01-08T08:02:35Z</time>
      </trkpt>
      <trkpt lat="43.54033" lon="3.49452">
        <ele>33.4</ele>
        <time>2019-01-08T08:02:37Z</time>
      </trkpt>
      <trkpt lat="43.54036" lon="3.49449">
        <ele>33.3</ele>
        <time>2019-01-08T08:02:39Z</time>
      </trkpt>
      <trkpt lat="43.54039" lon="3.49447">
        <ele>33.2</ele>
        <time>2019-01-08T08:02:41Z</time>
      </trkpt>
      <trkpt lat="43.54042" lon="3.49445">
        <ele>33.1</ele>
        <time>2019-01-08T08:02:43Z</time>
      </trkpt>
      <trkpt lat="43.54045" lon="3.49443">
        <ele>33</ele>
        <time>2019-01-08T08:02:45Z</time>
      </trkpt>
      <trkpt lat="43.54047" lon="3.49442">
        <ele>32.9</ele>
        <time>2019-01-08T08:02:47Z</time>
      </trkpt>
      <trkpt lat="43.5405" lon="3.49441">
        <ele>32.9</ele>
        <time>2019-01-08T08:02:49Z</time>
      </trkpt>
      <trkpt lat="43.54054" lon="3.4944">
        <ele>32.8</ele>
        <time>2019-01-08T08:02:52Z</time>
      </trkpt>
      <trkpt lat="43.54057" lon="3.49439">
        <ele>32.7</ele>
        <time>2019-01-08T08:02:54Z</time>
      </trkpt>
      <trkpt lat="43.5406" lon="3.49438">
        <ele>32.7</ele>
        <time>2019-01-08T08:02:56Z</time>
      </trkpt>
      <trkpt lat="43.54063" lon="3.49437">
        <ele>32.7</ele>
        <time>2019-01-08T08:02:58Z</time>
      </trkpt>
      <trkpt lat="43.54066" lon="3.49436">
        <ele>32.7</ele>
        <time>2019-01-08T08:03:00Z</time>
      </trkpt>
      <trkpt lat="43.54069" lon="3.49435">
        <ele>32.7</ele>
        <time>2019-01-08T08:03:02Z</time>
      </trkpt>
      <trkpt lat="43.54072" lon="3.49434">
        <ele>32.6</ele>
        <time>2019-01-08T08:03:04Z</time>
      </trkpt>
      <trkpt lat="43.54075" lon="3.49433">
        <ele>32.6</ele>
        <time>2019-01-08T08:03:06Z</time>
      </trkpt>
      <trkpt lat="43.54078" lon="3.49432">
        <ele>32.6</ele>
        <time>2019-01-08T08:03:08Z</time>
      </trkpt>
      <trkpt lat="43.54082" lon="3.4943">
        <ele>32.6</ele>
        <time>2019-01-08T08:03:11Z</time>
      </trkpt>
      <trkpt lat="43.54085" lon="3.49429">
        <ele>32.5</ele>
        <time>2019-01-08T08:03:13Z</time>
      </trkpt>
      <trkpt lat="43.54088" lon="3.49428">
        <ele>32.4</ele>
        <time>2019-01-08T08:03:15Z</time>
      </trkpt>
      <trkpt lat="43.5409" lon="3.49427">
        <ele>32.3</ele>
        <time>2019-01-08T08:03:17Z</time>
      </trkpt>
      <trkpt lat="43.54094" lon="3.49426">
        <ele>32.2</ele>
        <time>2019-01-08T08:03:19Z</time>
      </trkpt>
      <trkpt lat="43.54097" lon="3.49425">
        <ele>32.1</ele>
        <time>2019-01-08T08:03:21Z</time>
      </trkpt>
      <trkpt lat="43.541" lon="3.49423">
        <ele>32</ele>
        <time>2019-01-08T08:03:24Z</time>
      </trkpt>
      <trkpt lat="43.54104" lon="3.49422">
        <ele>31.9</ele>
        <time>2019-01-08T08:03:27Z</time>
      </trkpt>
      <trkpt lat="43.54107" lon="3.49421">
        <ele>31.8</ele>
        <time>2019-01-08T08:03:29Z</time>
      </trkpt>
      <trkpt lat="43.5411" lon="3.4942">
        <ele>31.8</ele>
        <time>2019-01-08T08:03:31Z</time>
      </trkpt>
      <trkpt lat="43.54113" lon="3.49419">
        <ele>31.8</ele>
        <time>2019-01-08T08:03:33Z</time>
      </trkpt>
      <trkpt lat="43.54116" lon="3.49418">
        <ele>31.7</ele>
        <time>2019-01-08T08:03:35Z</time>
      </trkpt>
      <trkpt lat="43.54119" lon="3.49417">
        <ele>31.7</ele>
        <time>2019-01-08T08:03:37Z</time>
      </trkpt>
      <trkpt lat="43.54122" lon="3.49416">
        <ele>31.7</ele>
        <time>2019-01-08T08:03:39Z</time>
      </trkpt>
      <trkpt lat="43.54125" lon="3.49414">
        <ele>31.7</ele>
        <time>2019-01-08T08:03:41Z</time>
      </trkpt>
      <trkpt lat="43.54129" lon="3.49412">
        <ele>31.8</ele>
        <time>2019-01-08T08:03:44Z</time>
      </trkpt>
      <trkpt lat="43.54132" lon="3.49412">
        <ele>31.8</ele>
        <time>2019-01-08T08:03:46Z</time>
      </trkpt>
      <trkpt lat="43.54135" lon="3.4941">
        <ele>31.8</ele>
        <time>2019-01-08T08:03:49Z</time>
      </trkpt>
      <trkpt lat="43.54139" lon="3.49408">
        <ele>31.9</ele>
        <time>2019-01-08T08:03:52Z</time>
      </trkpt>
      <trkpt lat="43.54142" lon="3.49407">
        <ele>31.9</ele>
        <time>2019-01-08T08:03:54Z</time>
      </trkpt>
      <trkpt lat="43.54145" lon="3.49407">
        <ele>32</ele>
        <time>2019-01-08T08:03:56Z</time>
      </trkpt>
      <trkpt lat="43.54148" lon="3.49407">
        <ele>32.1</ele>
        <time>2019-01-08T08:03:58Z</time>
      </trkpt>
      <trkpt lat="43.54152" lon="3.49405">
        <ele>32.2</ele>
        <time>2019-01-08T08:04:01Z</time>
      </trkpt>
      <trkpt lat="43.54154" lon="3.49404">
        <ele>32.2</ele>
        <time>2019-01-08T08:04:03Z</time>
      </trkpt>
      <trkpt lat="43.54157" lon="3.49403">
        <ele>32.3</ele>
        <time>2019-01-08T08:04:05Z</time>
      </trkpt>
      <trkpt lat="43.5416" lon="3.49403">
        <ele>32.4</ele>
        <time>2019-01-08T08:04:07Z</time>
      </trkpt>
      <trkpt lat="43.54163" lon="3.49403">
        <ele>32.4</ele>
        <time>2019-01-08T08:04:09Z</time>
      </trkpt>
      <trkpt lat="43.54167" lon="3.49403">
        <ele>32.5</ele>
        <time>2019-01-08T08:04:11Z</time>
      </trkpt>
      <trkpt lat="43.5417" lon="3.49402">
        <ele>32.5</ele>
        <time>2019-01-08T08:04:13Z</time>
      </trkpt>
      <trkpt lat="43.54173" lon="3.49402">
        <ele>32.6</ele>
        <time>2019-01-08T08:04:15Z</time>
      </trkpt>
      <trkpt lat="43.54177" lon="3.49401">
        <ele>32.6</ele>
        <time>2019-01-08T08:04:17Z</time>
      </trkpt>
      <trkpt lat="43.5418" lon="3.494">
        <ele>32.6</ele>
        <time>2019-01-08T08:04:19Z</time>
      </trkpt>
      <trkpt lat="43.54183" lon="3.494">
        <ele>32.6</ele>
        <time>2019-01-08T08:04:21Z</time>
      </trkpt>
      <trkpt lat="43.54186" lon="3.494">
        <ele>32.6</ele>
        <time>2019-01-08T08:04:23Z</time>
      </trkpt>
      <trkpt lat="43.5419" lon="3.49399">
        <ele>32.6</ele>
        <time>2019-01-08T08:04:25Z</time>
      </trkpt>
      <trkpt lat="43.54193" lon="3.49399">
        <ele>32.6</ele>
        <time>2019-01-08T08:04:27Z</time>
      </trkpt>
      <trkpt lat="43.54196" lon="3.49398">
        <ele>32.6</ele>
        <time>2019-01-08T08:04:29Z</time>
      </trkpt>
      <trkpt lat="43.542" lon="3.49397">
        <ele>32.6</ele>
        <time>2019-01-08T08:04:31Z</time>
      </trkpt>
      <trkpt lat="43.54203" lon="3.49396">
        <ele>32.6</ele>
        <time>2019-01-08T08:04:33Z</time>
      </trkpt>
      <trkpt lat="43.54205" lon="3.49396">
        <ele>32.6</ele>
        <time>2019-01-08T08:04:35Z</time>
      </trkpt>
      <trkpt lat="43.54209" lon="3.49395">
        <ele>32.6</ele>
        <time>2019-01-08T08:04:39Z</time>
      </trkpt>
      <trkpt lat="43.54212" lon="3.49395">
        <ele>32.6</ele>
        <time>2019-01-08T08:04:42Z</time>
      </trkpt>
      <trkpt lat="43.54215" lon="3.49394">
        <ele>32.6</ele>
        <time>2019-01-08T08:04:45Z</time>
      </trkpt>
      <trkpt lat="43.54219" lon="3.49393">
        <ele>32.6</ele>
        <time>2019-01-08T08:04:48Z</time>
      </trkpt>
      <trkpt lat="43.54222" lon="3.49394">
        <ele>32.6</ele>
        <time>2019-01-08T08:04:50Z</time>
      </trkpt>
      <trkpt lat="43.54226" lon="3.49395">
        <ele>32.6</ele>
        <time>2019-01-08T08:04:52Z</time>
      </trkpt>
      <trkpt lat="43.54229" lon="3.49395">
        <ele>32.6</ele>
        <time>2019-01-08T08:04:54Z</time>
      </trkpt>
      <trkpt lat="43.54232" lon="3.49394">
        <ele>32.6</ele>
        <time>2019-01-08T08:04:56Z</time>
      </trkpt>
      <trkpt lat="43.54236" lon="3.49395">
        <ele>32.6</ele>
        <time>2019-01-08T08:04:59Z</time>
      </trkpt>
      <trkpt lat="43.54238" lon="3.49398">
        <ele>32.6</ele>
        <time>2019-01-08T08:05:01Z</time>
      </trkpt>
      <trkpt lat="43.54238" lon="3.49403">
        <ele>32.9</ele>
        <time>2019-01-08T08:05:04Z</time>
      </trkpt>
      <trkpt lat="43.5424" lon="3.49407">
        <ele>33.1</ele>
        <time>2019-01-08T08:05:07Z</time>
      </trkpt>
      <trkpt lat="43.54241" lon="3.49411">
        <ele>33.4</ele>
        <time>2019-01-08T08:05:10Z</time>
      </trkpt>
      <trkpt lat="43.54242" lon="3.49416">
        <ele>33.7</ele>
        <time>2019-01-08T08:05:13Z</time>
      </trkpt>
      <trkpt lat="43.54244" lon="3.49419">
        <ele>34</ele>
        <time>2019-01-08T08:05:16Z</time>
      </trkpt>
      <trkpt lat="43.54246" lon="3.49423">
        <ele>34.3</ele>
        <time>2019-01-08T08:05:19Z</time>
      </trkpt>
      <trkpt lat="43.54247" lon="3.49427">
        <ele>34.5</ele>
        <time>2019-01-08T08:05:22Z</time>
      </trkpt>
      <trkpt lat="43.54248" lon="3.49431">
        <ele>34.7</ele>
        <time>2019-01-08T08:05:24Z</time>
      </trkpt>
      <trkpt lat="43.5425" lon="3.49436">
        <ele>34.9</ele>
        <time>2019-01-08T08:05:27Z</time>
      </trkpt>
      <trkpt lat="43.54251" lon="3.49441">
        <ele>35.1</ele>
        <time>2019-01-08T08:05:30Z</time>
      </trkpt>
      <trkpt lat="43.54253" lon="3.49445">
        <ele>35.3</ele>
        <time>2019-01-08T08:05:33Z</time>
      </trkpt>
      <trkpt lat="43.54255" lon="3.4945">
        <ele>35.5</ele>
        <time>2019-01-08T08:05:36Z</time>
      </trkpt>
      <trkpt lat="43.54256" lon="3.49454">
        <ele>35.7</ele>
        <time>2019-01-08T08:05:39Z</time>
      </trkpt>
      <trkpt lat="43.54256" lon="3.49459">
        <ele>35.9</ele>
        <time>2019-01-08T08:05:42Z</time>
      </trkpt>
      <trkpt lat="43.54254" lon="3.49463">
        <ele>36.1</ele>
        <time>2019-01-08T08:05:44Z</time>
      </trkpt>
      <trkpt lat="43.54253" lon="3.49468">
        <ele>36.3</ele>
        <time>2019-01-08T08:05:47Z</time>
      </trkpt>
      <trkpt lat="43.54251" lon="3.49472">
        <ele>36.5</ele>
        <time>2019-01-08T08:05:49Z</time>
      </trkpt>
      <trkpt lat="43.5425" lon="3.49476">
        <ele>36.7</ele>
        <time>2019-01-08T08:05:52Z</time>
      </trkpt>
      <trkpt lat="43.54249" lon="3.49481">
        <ele>37</ele>
        <time>2019-01-08T08:05:55Z</time>
      </trkpt>
      <trkpt lat="43.54248" lon="3.49485">
        <ele>37.2</ele>
        <time>2019-01-08T08:05:57Z</time>
      </trkpt>
      <trkpt lat="43.54247" lon="3.49488">
        <ele>37.4</ele>
        <time>2019-01-08T08:05:59Z</time>
      </trkpt>
      <trkpt lat="43.54245" lon="3.49492">
        <ele>37.7</ele>
        <time>2019-01-08T08:06:01Z</time>
      </trkpt>
      <trkpt lat="43.54244" lon="3.49497">
        <ele>37.9</ele>
        <time>2019-01-08T08:06:03Z</time>
      </trkpt>
      <trkpt lat="43.54244" lon="3.495">
        <ele>38.2</ele>
        <time>2019-01-08T08:06:05Z</time>
      </trkpt>
      <trkpt lat="43.54244" lon="3.49504">
        <ele>38.6</ele>
        <time>2019-01-08T08:06:07Z</time>
      </trkpt>
      <trkpt lat="43.54243" lon="3.4951">
        <ele>38.9</ele>
        <time>2019-01-08T08:06:10Z</time>
      </trkpt>
      <trkpt lat="43.54242" lon="3.49514">
        <ele>39.2</ele>
        <time>2019-01-08T08:06:13Z</time>
      </trkpt>
      <trkpt lat="43.54241" lon="3.49518">
        <ele>39.5</ele>
        <time>2019-01-08T08:06:16Z</time>
      </trkpt>
      <trkpt lat="43.54241" lon="3.49524">
        <ele>39.8</ele>
        <time>2019-01-08T08:06:19Z</time>
      </trkpt>
      <trkpt lat="43.54241" lon="3.49528">
        <ele>40.1</ele>
        <time>2019-01-08T08:06:21Z</time>
      </trkpt>
      <trkpt lat="43.5424" lon="3.49531">
        <ele>40.4</ele>
        <time>2019-01-08T08:06:23Z</time>
      </trkpt>
      <trkpt lat="43.54241" lon="3.49536">
        <ele>40.7</ele>
        <time>2019-01-08T08:06:26Z</time>
      </trkpt>
      <trkpt lat="43.5424" lon="3.49542">
        <ele>41.4</ele>
        <time>2019-01-08T08:06:29Z</time>
      </trkpt>
      <trkpt lat="43.54241" lon="3.49545">
        <ele>41.4</ele>
        <time>2019-01-08T08:06:31Z</time>
      </trkpt>
      <trkpt lat="43.54241" lon="3.4955">
        <ele>42.1</ele>
        <time>2019-01-08T08:06:34Z</time>
      </trkpt>
      <trkpt lat="43.5424" lon="3.49555">
        <ele>42.4</ele>
        <time>2019-01-08T08:06:37Z</time>
      </trkpt>
      <trkpt lat="43.54238" lon="3.4956">
        <ele>42.7</ele>
        <time>2019-01-08T08:06:40Z</time>
      </trkpt>
      <trkpt lat="43.54237" lon="3.49564">
        <ele>43.1</ele>
        <time>2019-01-08T08:06:43Z</time>
      </trkpt>
      <trkpt lat="43.54236" lon="3.49568">
        <ele>43.3</ele>
        <time>2019-01-08T08:06:45Z</time>
      </trkpt>
      <trkpt lat="43.54235" lon="3.49573">
        <ele>43.7</ele>
        <time>2019-01-08T08:06:48Z</time>
      </trkpt>
      <trkpt lat="43.54234" lon="3.49578">
        <ele>44</ele>
        <time>2019-01-08T08:06:51Z</time>
      </trkpt>
      <trkpt lat="43.54233" lon="3.49583">
        <ele>44.4</ele>
        <time>2019-01-08T08:06:54Z</time>
      </trkpt>
      <trkpt lat="43.54234" lon="3.49586">
        <ele>44.8</ele>
        <time>2019-01-08T08:06:57Z</time>
      </trkpt>
      <trkpt lat="43.54234" lon="3.49582">
        <ele>44.4</ele>
        <time>2019-01-08T08:07:00Z</time>
      </trkpt>
      <trkpt lat="43.54234" lon="3.49579">
        <ele>44</ele>
        <time>2019-01-08T08:07:02Z</time>
      </trkpt>
      <trkpt lat="43.54235" lon="3.49574">
        <ele>43.7</ele>
        <time>2019-01-08T08:07:05Z</time>
      </trkpt>
      <trkpt lat="43.54236" lon="3.4957">
        <ele>43.3</ele>
        <time>2019-01-08T08:07:08Z</time>
      </trkpt>
      <trkpt lat="43.54237" lon="3.49566">
        <ele>43.1</ele>
        <time>2019-01-08T08:07:12Z</time>
      </trkpt>
      <trkpt lat="43.54239" lon="3.49562">
        <ele>42.8</ele>
        <time>2019-01-08T08:07:15Z</time>
      </trkpt>
      <trkpt lat="43.54239" lon="3.49557">
        <ele>42.4</ele>
        <time>2019-01-08T08:07:18Z</time>
      </trkpt>
      <trkpt lat="43.54239" lon="3.49553">
        <ele>42</ele>
        <time>2019-01-08T08:07:21Z</time>
      </trkpt>
      <trkpt lat="43.54239" lon="3.49548">
        <ele>41.6</ele>
        <time>2019-01-08T08:07:24Z</time>
      </trkpt>
      <trkpt lat="43.54239" lon="3.49544">
        <ele>41.3</ele>
        <time>2019-01-08T08:07:26Z</time>
      </trkpt>
      <trkpt lat="43.54239" lon="3.4954">
        <ele>41</ele>
        <time>2019-01-08T08:07:28Z</time>
      </trkpt>
      <trkpt lat="43.54238" lon="3.49536">
        <ele>40.7</ele>
        <time>2019-01-08T08:07:30Z</time>
      </trkpt>
      <trkpt lat="43.54239" lon="3.49532">
        <ele>40.4</ele>
        <time>2019-01-08T08:07:32Z</time>
      </trkpt>
      <trkpt lat="43.54239" lon="3.49528">
        <ele>40.1</ele>
        <time>2019-01-08T08:07:34Z</time>
      </trkpt>
      <trkpt lat="43.5424" lon="3.49523">
        <ele>39.8</ele>
        <time>2019-01-08T08:07:37Z</time>
      </trkpt>
      <trkpt lat="43.5424" lon="3.49518">
        <ele>39.5</ele>
        <time>2019-01-08T08:07:40Z</time>
      </trkpt>
      <trkpt lat="43.54241" lon="3.49514">
        <ele>39.2</ele>
        <time>2019-01-08T08:07:42Z</time>
      </trkpt>
      <trkpt lat="43.54242" lon="3.49509">
        <ele>38.8</ele>
        <time>2019-01-08T08:07:45Z</time>
      </trkpt>
      <trkpt lat="43.54243" lon="3.49505">
        <ele>38.6</ele>
        <time>2019-01-08T08:07:47Z</time>
      </trkpt>
      <trkpt lat="43.54244" lon="3.49501">
        <ele>38.2</ele>
        <time>2019-01-08T08:07:49Z</time>
      </trkpt>
      <trkpt lat="43.54244" lon="3.49497">
        <ele>37.9</ele>
        <time>2019-01-08T08:07:51Z</time>
      </trkpt>
      <trkpt lat="43.54245" lon="3.49493">
        <ele>37.7</ele>
        <time>2019-01-08T08:07:53Z</time>
      </trkpt>
      <trkpt lat="43.54247" lon="3.49488">
        <ele>37.4</ele>
        <time>2019-01-08T08:07:56Z</time>
      </trkpt>
      <trkpt lat="43.54248" lon="3.49483">
        <ele>37.1</ele>
        <time>2019-01-08T08:07:59Z</time>
      </trkpt>
      <trkpt lat="43.54249" lon="3.49479">
        <ele>36.9</ele>
        <time>2019-01-08T08:08:02Z</time>
      </trkpt>
      <trkpt lat="43.54251" lon="3.49474">
        <ele>36.7</ele>
        <time>2019-01-08T08:08:05Z</time>
      </trkpt>
      <trkpt lat="43.54252" lon="3.4947">
        <ele>36.5</ele>
        <time>2019-01-08T08:08:07Z</time>
      </trkpt>
      <trkpt lat="43.54253" lon="3.49467">
        <ele>36.3</ele>
        <time>2019-01-08T08:08:09Z</time>
      </trkpt>
      <trkpt lat="43.54254" lon="3.49462">
        <ele>36</ele>
        <time>2019-01-08T08:08:11Z</time>
      </trkpt>
      <trkpt lat="43.54253" lon="3.49458">
        <ele>35.8</ele>
        <time>2019-01-08T08:08:13Z</time>
      </trkpt>
      <trkpt lat="43.54252" lon="3.49455">
        <ele>35.6</ele>
        <time>2019-01-08T08:08:15Z</time>
      </trkpt>
      <trkpt lat="43.54251" lon="3.49451">
        <ele>35.4</ele>
        <time>2019-01-08T08:08:17Z</time>
      </trkpt>
      <trkpt lat="43.5425" lon="3.49445">
        <ele>35.2</ele>
        <time>2019-01-08T08:08:20Z</time>
      </trkpt>
      <trkpt lat="43.5425" lon="3.49441">
        <ele>35.1</ele>
        <time>2019-01-08T08:08:22Z</time>
      </trkpt>
      <trkpt lat="43.5425" lon="3.49438">
        <ele>34.9</ele>
        <time>2019-01-08T08:08:24Z</time>
      </trkpt>
      <trkpt lat="43.54249" lon="3.49434">
        <ele>34.7</ele>
        <time>2019-01-08T08:08:26Z</time>
      </trkpt>
      <trkpt lat="43.54249" lon="3.4943">
        <ele>34.5</ele>
        <time>2019-01-08T08:08:28Z</time>
      </trkpt>
      <trkpt lat="43.54248" lon="3.49426">
        <ele>34.4</ele>
        <time>2019-01-08T08:08:30Z</time>
      </trkpt>
      <trkpt lat="43.54248" lon="3.49422">
        <ele>34.2</ele>
        <time>2019-01-08T08:08:32Z</time>
      </trkpt>
      <trkpt lat="43.54247" lon="3.49418">
        <ele>34</ele>
        <time>2019-01-08T08:08:34Z</time>
      </trkpt>
      <trkpt lat="43.54246" lon="3.49414">
        <ele>33.7</ele>
        <time>2019-01-08T08:08:36Z</time>
      </trkpt>
      <trkpt lat="43.54245" lon="3.49409">
        <ele>33.4</ele>
        <time>2019-01-08T08:08:39Z</time>
      </trkpt>
      <trkpt lat="43.54244" lon="3.49405">
        <ele>33.1</ele>
        <time>2019-01-08T08:08:41Z</time>
      </trkpt>
      <trkpt lat="43.54244" lon="3.49402">
        <ele>32.9</ele>
        <time>2019-01-08T08:08:43Z</time>
      </trkpt>
      <trkpt lat="43.54243" lon="3.49398">
        <ele>32.6</ele>
        <time>2019-01-08T08:08:45Z</time>
      </trkpt>
      <trkpt lat="43.54243" lon="3.49394">
        <ele>32.6</ele>
        <time>2019-01-08T08:08:48Z</time>
      </trkpt>
      <trkpt lat="43.54245" lon="3.49391">
        <ele>32.7</ele>
        <time>2019-01-08T08:08:52Z</time>
      </trkpt>
      <trkpt lat="43.54248" lon="3.4939">
        <ele>32.7</ele>
        <time>2019-01-08T08:08:54Z</time>
      </trkpt>
      <trkpt lat="43.54251" lon="3.4939">
        <ele>32.8</ele>
        <time>2019-01-08T08:08:56Z</time>
      </trkpt>
      <trkpt lat="43.54254" lon="3.49389">
        <ele>32.9</ele>
        <time>2019-01-08T08:08:58Z</time>
      </trkpt>
      <trkpt lat="43.54257" lon="3.49388">
        <ele>32.9</ele>
        <time>2019-01-08T08:09:00Z</time>
      </trkpt>
      <trkpt lat="43.54261" lon="3.49387">
        <ele>33</ele>
        <time>2019-01-08T08:09:02Z</time>
      </trkpt>
      <trkpt lat="43.54264" lon="3.49386">
        <ele>33.1</ele>
        <time>2019-01-08T08:09:04Z</time>
      </trkpt>
      <trkpt lat="43.54267" lon="3.49385">
        <ele>33.2</ele>
        <time>2019-01-08T08:09:06Z</time>
      </trkpt>
      <trkpt lat="43.5427" lon="3.49384">
        <ele>33.3</ele>
        <time>2019-01-08T08:09:08Z</time>
      </trkpt>
      <trkpt lat="43.54274" lon="3.49384">
        <ele>33.3</ele>
        <time>2019-01-08T08:09:10Z</time>
      </trkpt>
      <trkpt lat="43.54278" lon="3.49383">
        <ele>33.4</ele>
        <time>2019-01-08T08:09:13Z</time>
      </trkpt>
      <trkpt lat="43.5428" lon="3.49383">
        <ele>33.4</ele>
        <time>2019-01-08T08:09:15Z</time>
      </trkpt>
      <trkpt lat="43.54283" lon="3.49383">
        <ele>33.5</ele>
        <time>2019-01-08T08:09:17Z</time>
      </trkpt>
      <trkpt lat="43.54286" lon="3.49383">
        <ele>33.5</ele>
        <time>2019-01-08T08:09:19Z</time>
      </trkpt>
      <trkpt lat="43.54289" lon="3.49383">
        <ele>33.5</ele>
        <time>2019-01-08T08:09:21Z</time>
      </trkpt>
      <trkpt lat="43.54292" lon="3.49382">
        <ele>33.5</ele>
        <time>2019-01-08T08:09:23Z</time>
      </trkpt>
      <trkpt lat="43.54295" lon="3.49382">
        <ele>33.5</ele>
        <time>2019-01-08T08:09:25Z</time>
      </trkpt>
      <trkpt lat="43.54298" lon="3.49382">
        <ele>33.5</ele>
        <time>2019-01-08T08:09:27Z</time>
      </trkpt>
      <trkpt lat="43.54301" lon="3.49381">
        <ele>33.6</ele>
        <time>2019-01-08T08:09:29Z</time>
      </trkpt>
      <trkpt lat="43.54304" lon="3.4938">
        <ele>33.6</ele>
        <time>2019-01-08T08:09:32Z</time>
      </trkpt>
      <trkpt lat="43.54308" lon="3.49378">
        <ele>33.6</ele>
        <time>2019-01-08T08:09:35Z</time>
      </trkpt>
      <trkpt lat="43.54312" lon="3.49377">
        <ele>33.7</ele>
        <time>2019-01-08T08:09:37Z</time>
      </trkpt>
      <trkpt lat="43.54314" lon="3.49377">
        <ele>33.7</ele>
        <time>2019-01-08T08:09:39Z</time>
      </trkpt>
      <trkpt lat="43.54317" lon="3.49377">
        <ele>33.8</ele>
        <time>2019-01-08T08:09:47Z</time>
      </trkpt>
      <trkpt lat="43.5432" lon="3.49376">
        <ele>33.8</ele>
        <time>2019-01-08T08:09:49Z</time>
      </trkpt>
      <trkpt lat="43.54324" lon="3.49375">
        <ele>33.9</ele>
        <time>2019-01-08T08:09:51Z</time>
      </trkpt>
      <trkpt lat="43.54327" lon="3.49374">
        <ele>33.9</ele>
        <time>2019-01-08T08:09:53Z</time>
      </trkpt>
      <trkpt lat="43.54331" lon="3.49373">
        <ele>34</ele>
        <time>2019-01-08T08:09:55Z</time>
      </trkpt>
      <trkpt lat="43.54335" lon="3.49372">
        <ele>34.1</ele>
        <time>2019-01-08T08:09:57Z</time>
      </trkpt>
      <trkpt lat="43.54339" lon="3.49372">
        <ele>34.2</ele>
        <time>2019-01-08T08:09:59Z</time>
      </trkpt>
      <trkpt lat="43.54342" lon="3.49371">
        <ele>34.2</ele>
        <time>2019-01-08T08:10:01Z</time>
      </trkpt>
      <trkpt lat="43.54345" lon="3.49371">
        <ele>34.3</ele>
        <time>2019-01-08T08:10:03Z</time>
      </trkpt>
      <trkpt lat="43.54348" lon="3.49372">
        <ele>34.3</ele>
        <time>2019-01-08T08:10:05Z</time>
      </trkpt>
      <trkpt lat="43.54352" lon="3.49371">
        <ele>34.3</ele>
        <time>2019-01-08T08:10:08Z</time>
      </trkpt>
      <trkpt lat="43.54355" lon="3.49372">
        <ele>34.4</ele>
        <time>2019-01-08T08:10:10Z</time>
      </trkpt>
      <trkpt lat="43.54358" lon="3.49371">
        <ele>34.4</ele>
        <time>2019-01-08T08:10:12Z</time>
      </trkpt>
      <trkpt lat="43.54361" lon="3.49371">
        <ele>34.4</ele>
        <time>2019-01-08T08:10:14Z</time>
      </trkpt>
      <trkpt lat="43.54364" lon="3.49371">
        <ele>34.4</ele>
        <time>2019-01-08T08:10:16Z</time>
      </trkpt>
      <trkpt lat="43.54367" lon="3.49372">
        <ele>34.4</ele>
        <time>2019-01-08T08:10:18Z</time>
      </trkpt>
      <trkpt lat="43.54367" lon="3.49377">
        <ele>34.4</ele>
        <time>2019-01-08T08:10:21Z</time>
      </trkpt>
      <trkpt lat="43.54365" lon="3.49374">
        <ele>34.5</ele>
        <time>2019-01-08T08:10:25Z</time>
      </trkpt>
      <trkpt lat="43.54365" lon="3.49369">
        <ele>34.5</ele>
        <time>2019-01-08T08:10:27Z</time>
      </trkpt>
      <trkpt lat="43.54367" lon="3.49366">
        <ele>34.5</ele>
        <time>2019-01-08T08:10:30Z</time>
      </trkpt>
      <trkpt lat="43.54371" lon="3.49367">
        <ele>34.5</ele>
        <time>2019-01-08T08:10:32Z</time>
      </trkpt>
      <trkpt lat="43.54374" lon="3.49367">
        <ele>34.5</ele>
        <time>2019-01-08T08:10:34Z</time>
      </trkpt>
      <trkpt lat="43.54378" lon="3.49367">
        <ele>34.5</ele>
        <time>2019-01-08T08:10:36Z</time>
      </trkpt>
      <trkpt lat="43.54381" lon="3.49367">
        <ele>34.5</ele>
        <time>2019-01-08T08:10:38Z</time>
      </trkpt>
      <trkpt lat="43.54384" lon="3.49367">
        <ele>34.5</ele>
        <time>2019-01-08T08:10:40Z</time>
      </trkpt>
      <trkpt lat="43.54388" lon="3.49367">
        <ele>34.5</ele>
        <time>2019-01-08T08:10:43Z</time>
      </trkpt>
      <trkpt lat="43.54392" lon="3.49367">
        <ele>34.5</ele>
        <time>2019-01-08T08:10:46Z</time>
      </trkpt>
      <trkpt lat="43.54396" lon="3.49366">
        <ele>34.5</ele>
        <time>2019-01-08T08:10:49Z</time>
      </trkpt>
      <trkpt lat="43.544" lon="3.49366">
        <ele>34.5</ele>
        <time>2019-01-08T08:10:51Z</time>
      </trkpt>
      <trkpt lat="43.54404" lon="3.49367">
        <ele>34.5</ele>
        <time>2019-01-08T08:10:54Z</time>
      </trkpt>
      <trkpt lat="43.54407" lon="3.49367">
        <ele>34.5</ele>
        <time>2019-01-08T08:10:56Z</time>
      </trkpt>
      <trkpt lat="43.54409" lon="3.49366">
        <ele>34.5</ele>
        <time>2019-01-08T08:10:58Z</time>
      </trkpt>
      <trkpt lat="43.54413" lon="3.49367">
        <ele>34.5</ele>
        <time>2019-01-08T08:11:01Z</time>
      </trkpt>
      <trkpt lat="43.54416" lon="3.49367">
        <ele>34.6</ele>
        <time>2019-01-08T08:11:03Z</time>
      </trkpt>
      <trkpt lat="43.5442" lon="3.49367">
        <ele>34.6</ele>
        <time>2019-01-08T08:11:05Z</time>
      </trkpt>
      <trkpt lat="43.54424" lon="3.49367">
        <ele>34.6</ele>
        <time>2019-01-08T08:11:07Z</time>
      </trkpt>
      <trkpt lat="43.54426" lon="3.49368">
        <ele>34.7</ele>
        <time>2019-01-08T08:11:09Z</time>
      </trkpt>
      <trkpt lat="43.54429" lon="3.49369">
        <ele>34.7</ele>
        <time>2019-01-08T08:11:11Z</time>
      </trkpt>
      <trkpt lat="43.54433" lon="3.49369">
        <ele>34.8</ele>
        <time>2019-01-08T08:11:13Z</time>
      </trkpt>
      <trkpt lat="43.54435" lon="3.4937">
        <ele>34.9</ele>
        <time>2019-01-08T08:11:15Z</time>
      </trkpt>
      <trkpt lat="43.54439" lon="3.49372">
        <ele>34.9</ele>
        <time>2019-01-08T08:11:18Z</time>
      </trkpt>
      <trkpt lat="43.54442" lon="3.49373">
        <ele>35</ele>
        <time>2019-01-08T08:11:20Z</time>
      </trkpt>
      <trkpt lat="43.54445" lon="3.49374">
        <ele>35</ele>
        <time>2019-01-08T08:11:22Z</time>
      </trkpt>
      <trkpt lat="43.54448" lon="3.49374">
        <ele>35.1</ele>
        <time>2019-01-08T08:11:24Z</time>
      </trkpt>
      <trkpt lat="43.54452" lon="3.49376">
        <ele>35.1</ele>
        <time>2019-01-08T08:11:27Z</time>
      </trkpt>
      <trkpt lat="43.54455" lon="3.49376">
        <ele>35.2</ele>
        <time>2019-01-08T08:11:29Z</time>
      </trkpt>
      <trkpt lat="43.54457" lon="3.49379">
        <ele>35.2</ele>
        <time>2019-01-08T08:11:32Z</time>
      </trkpt>
      <trkpt lat="43.54461" lon="3.49381">
        <ele>35.3</ele>
        <time>2019-01-08T08:11:35Z</time>
      </trkpt>
      <trkpt lat="43.54464" lon="3.49382">
        <ele>35.3</ele>
        <time>2019-01-08T08:11:37Z</time>
      </trkpt>
      <trkpt lat="43.54467" lon="3.49383">
        <ele>35.4</ele>
        <time>2019-01-08T08:11:39Z</time>
      </trkpt>
      <trkpt lat="43.5447" lon="3.49384">
        <ele>35.4</ele>
        <time>2019-01-08T08:11:41Z</time>
      </trkpt>
      <trkpt lat="43.54474" lon="3.49385">
        <ele>35.5</ele>
        <time>2019-01-08T08:11:43Z</time>
      </trkpt>
      <trkpt lat="43.54477" lon="3.49386">
        <ele>35.5</ele>
        <time>2019-01-08T08:11:45Z</time>
      </trkpt>
      <trkpt lat="43.54481" lon="3.49387">
        <ele>35.5</ele>
        <time>2019-01-08T08:11:48Z</time>
      </trkpt>
      <trkpt lat="43.54485" lon="3.49387">
        <ele>35.6</ele>
        <time>2019-01-08T08:11:50Z</time>
      </trkpt>
      <trkpt lat="43.54489" lon="3.49388">
        <ele>35.7</ele>
        <time>2019-01-08T08:11:52Z</time>
      </trkpt>
      <trkpt lat="43.54492" lon="3.49388">
        <ele>35.7</ele>
        <time>2019-01-08T08:11:54Z</time>
      </trkpt>
      <trkpt lat="43.54496" lon="3.49389">
        <ele>35.8</ele>
        <time>2019-01-08T08:11:56Z</time>
      </trkpt>
      <trkpt lat="43.545" lon="3.49388">
        <ele>35.9</ele>
        <time>2019-01-08T08:11:58Z</time>
      </trkpt>
      <trkpt lat="43.54503" lon="3.49389">
        <ele>35.9</ele>
        <time>2019-01-08T08:12:01Z</time>
      </trkpt>
      <trkpt lat="43.54507" lon="3.4939">
        <ele>36</ele>
        <time>2019-01-08T08:12:04Z</time>
      </trkpt>
      <trkpt lat="43.5451" lon="3.4939">
        <ele>36</ele>
        <time>2019-01-08T08:12:06Z</time>
      </trkpt>
      <trkpt lat="43.54514" lon="3.4939">
        <ele>36.1</ele>
        <time>2019-01-08T08:12:09Z</time>
      </trkpt>
      <trkpt lat="43.54518" lon="3.49391">
        <ele>36.2</ele>
        <time>2019-01-08T08:12:11Z</time>
      </trkpt>
      <trkpt lat="43.5452" lon="3.49391">
        <ele>36.2</ele>
        <time>2019-01-08T08:12:13Z</time>
      </trkpt>
      <trkpt lat="43.54523" lon="3.49394">
        <ele>36.2</ele>
        <time>2019-01-08T08:12:16Z</time>
      </trkpt>
      <trkpt lat="43.54526" lon="3.49395">
        <ele>36.3</ele>
        <time>2019-01-08T08:12:18Z</time>
      </trkpt>
      <trkpt lat="43.54529" lon="3.49395">
        <ele>36.3</ele>
        <time>2019-01-08T08:12:20Z</time>
      </trkpt>
      <trkpt lat="43.54533" lon="3.49395">
        <ele>36.4</ele>
        <time>2019-01-08T08:12:22Z</time>
      </trkpt>
      <trkpt lat="43.54536" lon="3.49395">
        <ele>36.4</ele>
        <time>2019-01-08T08:12:24Z</time>
      </trkpt>
      <trkpt lat="43.54541" lon="3.49396">
        <ele>36.5</ele>
        <time>2019-01-08T08:12:26Z</time>
      </trkpt>
      <trkpt lat="43.54544" lon="3.49397">
        <ele>36.5</ele>
        <time>2019-01-08T08:12:28Z</time>
      </trkpt>
      <trkpt lat="43.54548" lon="3.49398">
        <ele>36.6</ele>
        <time>2019-01-08T08:12:31Z</time>
      </trkpt>
      <trkpt lat="43.54552" lon="3.49398">
        <ele>36.7</ele>
        <time>2019-01-08T08:12:33Z</time>
      </trkpt>
      <trkpt lat="43.54555" lon="3.49398">
        <ele>36.8</ele>
        <time>2019-01-08T08:12:35Z</time>
      </trkpt>
      <trkpt lat="43.54559" lon="3.49399">
        <ele>36.9</ele>
        <time>2019-01-08T08:12:38Z</time>
      </trkpt>
      <trkpt lat="43.54561" lon="3.49403">
        <ele>37</ele>
        <time>2019-01-08T08:12:42Z</time>
      </trkpt>
      <trkpt lat="43.5456" lon="3.49408">
        <ele>37</ele>
        <time>2019-01-08T08:12:45Z</time>
      </trkpt>
      <trkpt lat="43.54559" lon="3.49411">
        <ele>37.4</ele>
        <time>2019-01-08T08:12:47Z</time>
      </trkpt>
      <trkpt lat="43.54559" lon="3.49415">
        <ele>37.9</ele>
        <time>2019-01-08T08:12:52Z</time>
      </trkpt>
      <trkpt lat="43.5456" lon="3.49419">
        <ele>38.3</ele>
        <time>2019-01-08T08:12:57Z</time>
      </trkpt>
      <trkpt lat="43.54559" lon="3.49424">
        <ele>38.8</ele>
        <time>2019-01-08T08:13:01Z</time>
      </trkpt>
      <trkpt lat="43.54558" lon="3.49427">
        <ele>39.3</ele>
        <time>2019-01-08T08:13:04Z</time>
      </trkpt>
      <trkpt lat="43.54556" lon="3.49431">
        <ele>39.8</ele>
        <time>2019-01-08T08:13:09Z</time>
      </trkpt>
      <trkpt lat="43.54554" lon="3.49435">
        <ele>40.3</ele>
        <time>2019-01-08T08:13:12Z</time>
      </trkpt>
      <trkpt lat="43.54553" lon="3.49441">
        <ele>40.9</ele>
        <time>2019-01-08T08:13:15Z</time>
      </trkpt>
      <trkpt lat="43.54555" lon="3.49444">
        <ele>41.4</ele>
        <time>2019-01-08T08:13:19Z</time>
      </trkpt>
      <trkpt lat="43.54557" lon="3.49446">
        <ele>41.3</ele>
        <time>2019-01-08T08:13:22Z</time>
      </trkpt>
      <trkpt lat="43.5456" lon="3.49449">
        <ele>41.8</ele>
        <time>2019-01-08T08:13:25Z</time>
      </trkpt>
      <trkpt lat="43.54557" lon="3.49452">
        <ele>42.5</ele>
        <time>2019-01-08T08:13:34Z</time>
      </trkpt>
      <trkpt lat="43.54554" lon="3.49455">
        <ele>42.6</ele>
        <time>2019-01-08T08:13:37Z</time>
      </trkpt>
      <trkpt lat="43.54552" lon="3.49459">
        <ele>43.3</ele>
        <time>2019-01-08T08:13:40Z</time>
      </trkpt>
      <trkpt lat="43.54552" lon="3.49463">
        <ele>44</ele>
        <time>2019-01-08T08:13:43Z</time>
      </trkpt>
      <trkpt lat="43.54551" lon="3.49467">
        <ele>44.6</ele>
        <time>2019-01-08T08:13:47Z</time>
      </trkpt>
      <trkpt lat="43.54551" lon="3.49472">
        <ele>45.3</ele>
        <time>2019-01-08T08:13:50Z</time>
      </trkpt>
      <trkpt lat="43.54549" lon="3.49476">
        <ele>46</ele>
        <time>2019-01-08T08:13:55Z</time>
      </trkpt>
      <trkpt lat="43.54548" lon="3.4948">
        <ele>46.6</ele>
        <time>2019-01-08T08:14:00Z</time>
      </trkpt>
      <trkpt lat="43.54548" lon="3.49484">
        <ele>47.3</ele>
        <time>2019-01-08T08:14:04Z</time>
      </trkpt>
      <trkpt lat="43.5455" lon="3.49487">
        <ele>47.9</ele>
        <time>2019-01-08T08:14:10Z</time>
      </trkpt>
      <trkpt lat="43.54549" lon="3.49491">
        <ele>48.6</ele>
        <time>2019-01-08T08:14:14Z</time>
      </trkpt>
      <trkpt lat="43.5455" lon="3.49495">
        <ele>49.2</ele>
        <time>2019-01-08T08:14:18Z</time>
      </trkpt>
      <trkpt lat="43.54551" lon="3.495">
        <ele>50</ele>
        <time>2019-01-08T08:14:21Z</time>
      </trkpt>
      <trkpt lat="43.54552" lon="3.49503">
        <ele>50.7</ele>
        <time>2019-01-08T08:14:24Z</time>
      </trkpt>
      <trkpt lat="43.54554" lon="3.49508">
        <ele>51.4</ele>
        <time>2019-01-08T08:14:34Z</time>
      </trkpt>
      <trkpt lat="43.54555" lon="3.49512">
        <ele>52.2</ele>
        <time>2019-01-08T08:14:37Z</time>
      </trkpt>
      <trkpt lat="43.54554" lon="3.49516">
        <ele>52.9</ele>
        <time>2019-01-08T08:14:41Z</time>
      </trkpt>
      <trkpt lat="43.54551" lon="3.49518">
        <ele>53</ele>
        <time>2019-01-08T08:14:45Z</time>
      </trkpt>
      <trkpt lat="43.54548" lon="3.49516">
        <ele>53.1</ele>
        <time>2019-01-08T08:14:49Z</time>
      </trkpt>
      <trkpt lat="43.54546" lon="3.49516">
        <ele>53.1</ele>
        <time>2019-01-08T08:14:53Z</time>
      </trkpt>
      <trkpt lat="43.54543" lon="3.49519">
        <ele>53.2</ele>
        <time>2019-01-08T08:14:57Z</time>
      </trkpt>
      <trkpt lat="43.54542" lon="3.49523">
        <ele>53.9</ele>
        <time>2019-01-08T08:15:00Z</time>
      </trkpt>
      <trkpt lat="43.5454" lon="3.49526">
        <ele>54.6</ele>
        <time>2019-01-08T08:15:04Z</time>
      </trkpt>
      <trkpt lat="43.54539" lon="3.49529">
        <ele>55.2</ele>
        <time>2019-01-08T08:15:07Z</time>
      </trkpt>
      <trkpt lat="43.54537" lon="3.49532">
        <ele>55.2</ele>
        <time>2019-01-08T08:15:12Z</time>
      </trkpt>
      <trkpt lat="43.54533" lon="3.49533">
        <ele>55.9</ele>
        <time>2019-01-08T08:15:17Z</time>
      </trkpt>
      <trkpt lat="43.54531" lon="3.49535">
        <ele>55.9</ele>
        <time>2019-01-08T08:15:20Z</time>
      </trkpt>
      <trkpt lat="43.54531" lon="3.49539">
        <ele>56.5</ele>
        <time>2019-01-08T08:15:24Z</time>
      </trkpt>
      <trkpt lat="43.54533" lon="3.49542">
        <ele>57.2</ele>
        <time>2019-01-08T08:15:27Z</time>
      </trkpt>
      <trkpt lat="43.54535" lon="3.49545">
        <ele>57.2</ele>
        <time>2019-01-08T08:15:29Z</time>
      </trkpt>
      <trkpt lat="43.54536" lon="3.49549">
        <ele>57.9</ele>
        <time>2019-01-08T08:15:32Z</time>
      </trkpt>
      <trkpt lat="43.54537" lon="3.49553">
        <ele>58.7</ele>
        <time>2019-01-08T08:15:38Z</time>
      </trkpt>
      <trkpt lat="43.54539" lon="3.49557">
        <ele>59.4</ele>
        <time>2019-01-08T08:15:42Z</time>
      </trkpt>
      <trkpt lat="43.5454" lon="3.4956">
        <ele>60.2</ele>
        <time>2019-01-08T08:15:45Z</time>
      </trkpt>
      <trkpt lat="43.54541" lon="3.49564">
        <ele>60.9</ele>
        <time>2019-01-08T08:15:48Z</time>
      </trkpt>
      <trkpt lat="43.54543" lon="3.49567">
        <ele>60.9</ele>
        <time>2019-01-08T08:15:51Z</time>
      </trkpt>
      <trkpt lat="43.54546" lon="3.49568">
        <ele>61.7</ele>
        <time>2019-01-08T08:15:55Z</time>
      </trkpt>
      <trkpt lat="43.5455" lon="3.49569">
        <ele>61.7</ele>
        <time>2019-01-08T08:16:02Z</time>
      </trkpt>
      <trkpt lat="43.54552" lon="3.49569">
        <ele>61.8</ele>
        <time>2019-01-08T08:16:04Z</time>
      </trkpt>
      <trkpt lat="43.54556" lon="3.49569">
        <ele>61.8</ele>
        <time>2019-01-08T08:16:07Z</time>
      </trkpt>
      <trkpt lat="43.5456" lon="3.4957">
        <ele>61.8</ele>
        <time>2019-01-08T08:16:11Z</time>
      </trkpt>
      <trkpt lat="43.54563" lon="3.4957">
        <ele>61.8</ele>
        <time>2019-01-08T08:16:13Z</time>
      </trkpt>
      <trkpt lat="43.54568" lon="3.49568">
        <ele>61.7</ele>
        <time>2019-01-08T08:16:16Z</time>
      </trkpt>
      <trkpt lat="43.54571" lon="3.49567">
        <ele>61.7</ele>
        <time>2019-01-08T08:16:18Z</time>
      </trkpt>
      <trkpt lat="43.54573" lon="3.49566">
        <ele>61</ele>
        <time>2019-01-08T08:16:20Z</time>
      </trkpt>
      <trkpt lat="43.54576" lon="3.49564">
        <ele>60.9</ele>
        <time>2019-01-08T08:16:22Z</time>
      </trkpt>
      <trkpt lat="43.54579" lon="3.49563">
        <ele>60.8</ele>
        <time>2019-01-08T08:16:24Z</time>
      </trkpt>
      <trkpt lat="43.54582" lon="3.49563">
        <ele>59.9</ele>
        <time>2019-01-08T08:16:27Z</time>
      </trkpt>
      <trkpt lat="43.54586" lon="3.49563">
        <ele>59.8</ele>
        <time>2019-01-08T08:16:30Z</time>
      </trkpt>
      <trkpt lat="43.54588" lon="3.49564">
        <ele>60.5</ele>
        <time>2019-01-08T08:16:32Z</time>
      </trkpt>
      <trkpt lat="43.54592" lon="3.49566">
        <ele>60.3</ele>
        <time>2019-01-08T08:16:35Z</time>
      </trkpt>
      <trkpt lat="43.54595" lon="3.49566">
        <ele>60.1</ele>
        <time>2019-01-08T08:16:37Z</time>
      </trkpt>
      <trkpt lat="43.54598" lon="3.49567">
        <ele>60</ele>
        <time>2019-01-08T08:16:39Z</time>
      </trkpt>
      <trkpt lat="43.54601" lon="3.49567">
        <ele>59.7</ele>
        <time>2019-01-08T08:16:43Z</time>
      </trkpt>
      <trkpt lat="43.54604" lon="3.49566">
        <ele>59.4</ele>
        <time>2019-01-08T08:16:47Z</time>
      </trkpt>
      <trkpt lat="43.54608" lon="3.49566">
        <ele>59.1</ele>
        <time>2019-01-08T08:16:51Z</time>
      </trkpt>
      <trkpt lat="43.54611" lon="3.49566">
        <ele>58.8</ele>
        <time>2019-01-08T08:16:53Z</time>
      </trkpt>
      <trkpt lat="43.54614" lon="3.49567">
        <ele>58.5</ele>
        <time>2019-01-08T08:16:55Z</time>
      </trkpt>
      <trkpt lat="43.54618" lon="3.49568">
        <ele>58.9</ele>
        <time>2019-01-08T08:16:57Z</time>
      </trkpt>
      <trkpt lat="43.54621" lon="3.49569">
        <ele>58.5</ele>
        <time>2019-01-08T08:17:00Z</time>
      </trkpt>
      <trkpt lat="43.54624" lon="3.4957">
        <ele>58.1</ele>
        <time>2019-01-08T08:17:03Z</time>
      </trkpt>
      <trkpt lat="43.54628" lon="3.49572">
        <ele>58.5</ele>
        <time>2019-01-08T08:17:06Z</time>
      </trkpt>
      <trkpt lat="43.5463" lon="3.49573">
        <ele>58.1</ele>
        <time>2019-01-08T08:17:08Z</time>
      </trkpt>
      <trkpt lat="43.54633" lon="3.49577">
        <ele>58.4</ele>
        <time>2019-01-08T08:17:11Z</time>
      </trkpt>
      <trkpt lat="43.54635" lon="3.4958">
        <ele>57.9</ele>
        <time>2019-01-08T08:17:15Z</time>
      </trkpt>
      <trkpt lat="43.54637" lon="3.49582">
        <ele>58.2</ele>
        <time>2019-01-08T08:17:18Z</time>
      </trkpt>
      <trkpt lat="43.5464" lon="3.49584">
        <ele>58.5</ele>
        <time>2019-01-08T08:17:21Z</time>
      </trkpt>
      <trkpt lat="43.54641" lon="3.49588">
        <ele>59.2</ele>
        <time>2019-01-08T08:17:23Z</time>
      </trkpt>
      <trkpt lat="43.54642" lon="3.49592">
        <ele>59.2</ele>
        <time>2019-01-08T08:17:25Z</time>
      </trkpt>
      <trkpt lat="43.54644" lon="3.49596">
        <ele>59.4</ele>
        <time>2019-01-08T08:17:28Z</time>
      </trkpt>
      <trkpt lat="43.54646" lon="3.496">
        <ele>60.1</ele>
        <time>2019-01-08T08:17:30Z</time>
      </trkpt>
      <trkpt lat="43.54649" lon="3.49601">
        <ele>60.3</ele>
        <time>2019-01-08T08:17:33Z</time>
      </trkpt>
      <trkpt lat="43.54652" lon="3.49602">
        <ele>59.7</ele>
        <time>2019-01-08T08:17:36Z</time>
      </trkpt>
      <trkpt lat="43.54655" lon="3.49601">
        <ele>59.2</ele>
        <time>2019-01-08T08:17:39Z</time>
      </trkpt>
      <trkpt lat="43.54657" lon="3.49605">
        <ele>58.6</ele>
        <time>2019-01-08T08:17:43Z</time>
      </trkpt>
      <trkpt lat="43.5466" lon="3.49608">
        <ele>58.7</ele>
        <time>2019-01-08T08:17:46Z</time>
      </trkpt>
      <trkpt lat="43.54662" lon="3.4961">
        <ele>58.6</ele>
        <time>2019-01-08T08:17:49Z</time>
      </trkpt>
      <trkpt lat="43.54666" lon="3.49611">
        <ele>57.9</ele>
        <time>2019-01-08T08:17:52Z</time>
      </trkpt>
      <trkpt lat="43.54668" lon="3.49615">
        <ele>58.4</ele>
        <time>2019-01-08T08:17:55Z</time>
      </trkpt>
      <trkpt lat="43.54668" lon="3.49619">
        <ele>58.1</ele>
        <time>2019-01-08T08:17:58Z</time>
      </trkpt>
      <trkpt lat="43.5467" lon="3.49623">
        <ele>58.6</ele>
        <time>2019-01-08T08:18:02Z</time>
      </trkpt>
      <trkpt lat="43.54671" lon="3.49627">
        <ele>58.6</ele>
        <time>2019-01-08T08:18:05Z</time>
      </trkpt>
      <trkpt lat="43.54671" lon="3.49632">
        <ele>59.6</ele>
        <time>2019-01-08T08:18:08Z</time>
      </trkpt>
      <trkpt lat="43.54672" lon="3.49637">
        <ele>59.2</ele>
        <time>2019-01-08T08:18:11Z</time>
      </trkpt>
      <trkpt lat="43.54672" lon="3.49641">
        <ele>59.6</ele>
        <time>2019-01-08T08:18:14Z</time>
      </trkpt>
      <trkpt lat="43.54672" lon="3.49646">
        <ele>60.1</ele>
        <time>2019-01-08T08:18:17Z</time>
      </trkpt>
      <trkpt lat="43.54671" lon="3.4965">
        <ele>60.4</ele>
        <time>2019-01-08T08:18:18Z</time>
      </trkpt>
      <trkpt lat="43.54671" lon="3.49656">
        <ele>60.7</ele>
        <time>2019-01-08T08:18:20Z</time>
      </trkpt>
      <trkpt lat="43.54672" lon="3.49661">
        <ele>61</ele>
        <time>2019-01-08T08:18:22Z</time>
      </trkpt>
      <trkpt lat="43.54672" lon="3.49665">
        <ele>61.2</ele>
        <time>2019-01-08T08:18:24Z</time>
      </trkpt>
      <trkpt lat="43.54672" lon="3.4967">
        <ele>61.4</ele>
        <time>2019-01-08T08:18:26Z</time>
      </trkpt>
      <trkpt lat="43.54671" lon="3.49675">
        <ele>62.9</ele>
        <time>2019-01-08T08:18:29Z</time>
      </trkpt>
      <trkpt lat="43.5467" lon="3.49679">
        <ele>63.1</ele>
        <time>2019-01-08T08:18:32Z</time>
      </trkpt>
      <trkpt lat="43.54668" lon="3.49683">
        <ele>64.3</ele>
        <time>2019-01-08T08:18:35Z</time>
      </trkpt>
      <trkpt lat="43.54666" lon="3.49687">
        <ele>64.5</ele>
        <time>2019-01-08T08:18:38Z</time>
      </trkpt>
      <trkpt lat="43.54665" lon="3.49691">
        <ele>65.5</ele>
        <time>2019-01-08T08:18:40Z</time>
      </trkpt>
      <trkpt lat="43.54663" lon="3.49694">
        <ele>65.7</ele>
        <time>2019-01-08T08:18:42Z</time>
      </trkpt>
      <trkpt lat="43.54661" lon="3.49698">
        <ele>66.7</ele>
        <time>2019-01-08T08:18:44Z</time>
      </trkpt>
      <trkpt lat="43.5466" lon="3.49703">
        <ele>66.9</ele>
        <time>2019-01-08T08:18:47Z</time>
      </trkpt>
      <trkpt lat="43.54658" lon="3.49705">
        <ele>67.8</ele>
        <time>2019-01-08T08:18:49Z</time>
      </trkpt>
      <trkpt lat="43.54655" lon="3.49707">
        <ele>68.6</ele>
        <time>2019-01-08T08:18:52Z</time>
      </trkpt>
      <trkpt lat="43.54653" lon="3.49712">
        <ele>68.7</ele>
        <time>2019-01-08T08:18:55Z</time>
      </trkpt>
      <trkpt lat="43.54652" lon="3.49715">
        <ele>69.5</ele>
        <time>2019-01-08T08:18:57Z</time>
      </trkpt>
      <trkpt lat="43.5465" lon="3.49719">
        <ele>69.5</ele>
        <time>2019-01-08T08:19:00Z</time>
      </trkpt>
      <trkpt lat="43.54648" lon="3.49723">
        <ele>70.3</ele>
        <time>2019-01-08T08:19:03Z</time>
      </trkpt>
      <trkpt lat="43.54645" lon="3.49726">
        <ele>71</ele>
        <time>2019-01-08T08:19:06Z</time>
      </trkpt>
      <trkpt lat="43.54642" lon="3.49728">
        <ele>71.9</ele>
        <time>2019-01-08T08:19:08Z</time>
      </trkpt>
      <trkpt lat="43.54639" lon="3.49728">
        <ele>72.6</ele>
        <time>2019-01-08T08:19:10Z</time>
      </trkpt>
      <trkpt lat="43.54637" lon="3.49731">
        <ele>73.3</ele>
        <time>2019-01-08T08:19:13Z</time>
      </trkpt>
      <trkpt lat="43.54635" lon="3.49734">
        <ele>73.3</ele>
        <time>2019-01-08T08:19:15Z</time>
      </trkpt>
      <trkpt lat="43.54634" lon="3.49738">
        <ele>74</ele>
        <time>2019-01-08T08:19:18Z</time>
      </trkpt>
      <trkpt lat="43.54631" lon="3.49742">
        <ele>73.9</ele>
        <time>2019-01-08T08:19:21Z</time>
      </trkpt>
      <trkpt lat="43.54629" lon="3.49744">
        <ele>74.4</ele>
        <time>2019-01-08T08:19:23Z</time>
      </trkpt>
      <trkpt lat="43.54626" lon="3.49748">
        <ele>74.9</ele>
        <time>2019-01-08T08:19:27Z</time>
      </trkpt>
      <trkpt lat="43.54625" lon="3.49752">
        <ele>74.8</ele>
        <time>2019-01-08T08:19:29Z</time>
      </trkpt>
      <trkpt lat="43.54623" lon="3.49757">
        <ele>75.3</ele>
        <time>2019-01-08T08:19:32Z</time>
      </trkpt>
      <trkpt lat="43.5462" lon="3.4976">
        <ele>75.9</ele>
        <time>2019-01-08T08:19:35Z</time>
      </trkpt>
      <trkpt lat="43.54617" lon="3.49763">
        <ele>76.4</ele>
        <time>2019-01-08T08:19:38Z</time>
      </trkpt>
      <trkpt lat="43.54615" lon="3.49765">
        <ele>76.8</ele>
        <time>2019-01-08T08:19:40Z</time>
      </trkpt>
      <trkpt lat="43.54612" lon="3.49767">
        <ele>77.5</ele>
        <time>2019-01-08T08:19:43Z</time>
      </trkpt>
      <trkpt lat="43.54609" lon="3.49768">
        <ele>78.1</ele>
        <time>2019-01-08T08:19:46Z</time>
      </trkpt>
      <trkpt lat="43.54605" lon="3.49771">
        <ele>78.4</ele>
        <time>2019-01-08T08:19:49Z</time>
      </trkpt>
      <trkpt lat="43.54603" lon="3.49773">
        <ele>78.7</ele>
        <time>2019-01-08T08:19:52Z</time>
      </trkpt>
      <trkpt lat="43.546" lon="3.49776">
        <ele>78.7</ele>
        <time>2019-01-08T08:19:54Z</time>
      </trkpt>
      <trkpt lat="43.54597" lon="3.49779">
        <ele>79.4</ele>
        <time>2019-01-08T08:19:56Z</time>
      </trkpt>
      <trkpt lat="43.54594" lon="3.49781">
        <ele>79.4</ele>
        <time>2019-01-08T08:19:58Z</time>
      </trkpt>
      <trkpt lat="43.5459" lon="3.49784">
        <ele>79.9</ele>
        <time>2019-01-08T08:20:01Z</time>
      </trkpt>
      <trkpt lat="43.54587" lon="3.49787">
        <ele>80</ele>
        <time>2019-01-08T08:20:03Z</time>
      </trkpt>
      <trkpt lat="43.54585" lon="3.4979">
        <ele>80</ele>
        <time>2019-01-08T08:20:06Z</time>
      </trkpt>
      <trkpt lat="43.54584" lon="3.49793">
        <ele>80.1</ele>
        <time>2019-01-08T08:20:08Z</time>
      </trkpt>
      <trkpt lat="43.54582" lon="3.49795">
        <ele>79.7</ele>
        <time>2019-01-08T08:20:10Z</time>
      </trkpt>
      <trkpt lat="43.54579" lon="3.49799">
        <ele>80.2</ele>
        <time>2019-01-08T08:20:13Z</time>
      </trkpt>
      <trkpt lat="43.54576" lon="3.49802">
        <ele>80.2</ele>
        <time>2019-01-08T08:20:16Z</time>
      </trkpt>
      <trkpt lat="43.54573" lon="3.49803">
        <ele>80.3</ele>
        <time>2019-01-08T08:20:19Z</time>
      </trkpt>
      <trkpt lat="43.5457" lon="3.49804">
        <ele>80.6</ele>
        <time>2019-01-08T08:20:21Z</time>
      </trkpt>
      <trkpt lat="43.54567" lon="3.49806">
        <ele>80.9</ele>
        <time>2019-01-08T08:20:24Z</time>
      </trkpt>
      <trkpt lat="43.54563" lon="3.49807">
        <ele>81.2</ele>
        <time>2019-01-08T08:20:28Z</time>
      </trkpt>
      <trkpt lat="43.5456" lon="3.49806">
        <ele>81.4</ele>
        <time>2019-01-08T08:20:31Z</time>
      </trkpt>
      <trkpt lat="43.54557" lon="3.49809">
        <ele>81.4</ele>
        <time>2019-01-08T08:20:34Z</time>
      </trkpt>
      <trkpt lat="43.54555" lon="3.49812">
        <ele>81.4</ele>
        <time>2019-01-08T08:20:36Z</time>
      </trkpt>
      <trkpt lat="43.54553" lon="3.49817">
        <ele>81.1</ele>
        <time>2019-01-08T08:20:39Z</time>
      </trkpt>
      <trkpt lat="43.54551" lon="3.4982">
        <ele>81.3</ele>
        <time>2019-01-08T08:20:41Z</time>
      </trkpt>
      <trkpt lat="43.54551" lon="3.49825">
        <ele>80.7</ele>
        <time>2019-01-08T08:20:45Z</time>
      </trkpt>
      <trkpt lat="43.54551" lon="3.4983">
        <ele>80.5</ele>
        <time>2019-01-08T08:20:48Z</time>
      </trkpt>
      <trkpt lat="43.5455" lon="3.49835">
        <ele>80.2</ele>
        <time>2019-01-08T08:20:51Z</time>
      </trkpt>
      <trkpt lat="43.54549" lon="3.4984">
        <ele>80.2</ele>
        <time>2019-01-08T08:20:54Z</time>
      </trkpt>
      <trkpt lat="43.54548" lon="3.49843">
        <ele>80</ele>
        <time>2019-01-08T08:20:56Z</time>
      </trkpt>
      <trkpt lat="43.54545" lon="3.49847">
        <ele>80</ele>
        <time>2019-01-08T08:21:00Z</time>
      </trkpt>
      <trkpt lat="43.54543" lon="3.4985">
        <ele>80.2</ele>
        <time>2019-01-08T08:21:03Z</time>
      </trkpt>
      <trkpt lat="43.54541" lon="3.49848">
        <ele>80.5</ele>
        <time>2019-01-08T08:21:07Z</time>
      </trkpt>
      <trkpt lat="43.54537" lon="3.49849">
        <ele>80.7</ele>
        <time>2019-01-08T08:21:11Z</time>
      </trkpt>
      <trkpt lat="43.54535" lon="3.49852">
        <ele>80.5</ele>
        <time>2019-01-08T08:21:14Z</time>
      </trkpt>
      <trkpt lat="43.54532" lon="3.49854">
        <ele>80.8</ele>
        <time>2019-01-08T08:21:17Z</time>
      </trkpt>
      <trkpt lat="43.54529" lon="3.49855">
        <ele>80.9</ele>
        <time>2019-01-08T08:21:21Z</time>
      </trkpt>
      <trkpt lat="43.54526" lon="3.49858">
        <ele>81.2</ele>
        <time>2019-01-08T08:21:25Z</time>
      </trkpt>
      <trkpt lat="43.54524" lon="3.49861">
        <ele>81.4</ele>
        <time>2019-01-08T08:21:28Z</time>
      </trkpt>
      <trkpt lat="43.54522" lon="3.49865">
        <ele>81.4</ele>
        <time>2019-01-08T08:21:31Z</time>
      </trkpt>
      <trkpt lat="43.54519" lon="3.49867">
        <ele>81.6</ele>
        <time>2019-01-08T08:21:34Z</time>
      </trkpt>
      <trkpt lat="43.54519" lon="3.49871">
        <ele>81.8</ele>
        <time>2019-01-08T08:21:37Z</time>
      </trkpt>
      <trkpt lat="43.54519" lon="3.49874">
        <ele>81.5</ele>
        <time>2019-01-08T08:21:41Z</time>
      </trkpt>
      <trkpt lat="43.54517" lon="3.49876">
        <ele>81.8</ele>
        <time>2019-01-08T08:21:45Z</time>
      </trkpt>
      <trkpt lat="43.54514" lon="3.49875">
        <ele>82</ele>
        <time>2019-01-08T08:21:48Z</time>
      </trkpt>
      <trkpt lat="43.54511" lon="3.49874">
        <ele>82.2</ele>
        <time>2019-01-08T08:21:51Z</time>
      </trkpt>
      <trkpt lat="43.54507" lon="3.49874">
        <ele>82.4</ele>
        <time>2019-01-08T08:21:54Z</time>
      </trkpt>
      <trkpt lat="43.54504" lon="3.49873">
        <ele>82.6</ele>
        <time>2019-01-08T08:21:57Z</time>
      </trkpt>
      <trkpt lat="43.54501" lon="3.49872">
        <ele>82.7</ele>
        <time>2019-01-08T08:22:01Z</time>
      </trkpt>
      <trkpt lat="43.54498" lon="3.49873">
        <ele>82.8</ele>
        <time>2019-01-08T08:22:06Z</time>
      </trkpt>
      <trkpt lat="43.54495" lon="3.49875">
        <ele>82.9</ele>
        <time>2019-01-08T08:22:09Z</time>
      </trkpt>
      <trkpt lat="43.54492" lon="3.49872">
        <ele>83</ele>
        <time>2019-01-08T08:22:13Z</time>
      </trkpt>
      <trkpt lat="43.54489" lon="3.49873">
        <ele>83.1</ele>
        <time>2019-01-08T08:22:18Z</time>
      </trkpt>
      <trkpt lat="43.54485" lon="3.49874">
        <ele>83.2</ele>
        <time>2019-01-08T08:22:21Z</time>
      </trkpt>
      <trkpt lat="43.54482" lon="3.49875">
        <ele>83.3</ele>
        <time>2019-01-08T08:22:24Z</time>
      </trkpt>
      <trkpt lat="43.54479" lon="3.49876">
        <ele>83.4</ele>
        <time>2019-01-08T08:22:27Z</time>
      </trkpt>
      <trkpt lat="43.54476" lon="3.49876">
        <ele>83.6</ele>
        <time>2019-01-08T08:22:31Z</time>
      </trkpt>
      <trkpt lat="43.54474" lon="3.49876">
        <ele>83.8</ele>
        <time>2019-01-08T08:22:33Z</time>
      </trkpt>
      <trkpt lat="43.5447" lon="3.49877">
        <ele>84</ele>
        <time>2019-01-08T08:22:36Z</time>
      </trkpt>
      <trkpt lat="43.54465" lon="3.49877">
        <ele>84.3</ele>
        <time>2019-01-08T08:22:39Z</time>
      </trkpt>
      <trkpt lat="43.54462" lon="3.49877">
        <ele>84.4</ele>
        <time>2019-01-08T08:22:41Z</time>
      </trkpt>
      <trkpt lat="43.54459" lon="3.49875">
        <ele>84.3</ele>
        <time>2019-01-08T08:22:44Z</time>
      </trkpt>
      <trkpt lat="43.54455" lon="3.49873">
        <ele>84.4</ele>
        <time>2019-01-08T08:22:47Z</time>
      </trkpt>
      <trkpt lat="43.54452" lon="3.49874">
        <ele>84.4</ele>
        <time>2019-01-08T08:22:52Z</time>
      </trkpt>
      <trkpt lat="43.54449" lon="3.49873">
        <ele>84.5</ele>
        <time>2019-01-08T08:22:59Z</time>
      </trkpt>
      <trkpt lat="43.54446" lon="3.49873">
        <ele>84.6</ele>
        <time>2019-01-08T08:23:03Z</time>
      </trkpt>
      <trkpt lat="43.54442" lon="3.49873">
        <ele>84.7</ele>
        <time>2019-01-08T08:23:06Z</time>
      </trkpt>
      <trkpt lat="43.54439" lon="3.49874">
        <ele>84.8</ele>
        <time>2019-01-08T08:23:09Z</time>
      </trkpt>
      <trkpt lat="43.54436" lon="3.49875">
        <ele>85</ele>
        <time>2019-01-08T08:23:13Z</time>
      </trkpt>
      <trkpt lat="43.54434" lon="3.49876">
        <ele>85.1</ele>
        <time>2019-01-08T08:23:15Z</time>
      </trkpt>
      <trkpt lat="43.54431" lon="3.49877">
        <ele>85.5</ele>
        <time>2019-01-08T08:23:22Z</time>
      </trkpt>
      <trkpt lat="43.54428" lon="3.49881">
        <ele>85.9</ele>
        <time>2019-01-08T08:23:25Z</time>
      </trkpt>
      <trkpt lat="43.54425" lon="3.49884">
        <ele>86.2</ele>
        <time>2019-01-08T08:23:28Z</time>
      </trkpt>
      <trkpt lat="43.54422" lon="3.49886">
        <ele>86.8</ele>
        <time>2019-01-08T08:23:30Z</time>
      </trkpt>
      <trkpt lat="43.54418" lon="3.49888">
        <ele>87.2</ele>
        <time>2019-01-08T08:23:32Z</time>
      </trkpt>
      <trkpt lat="43.54415" lon="3.4989">
        <ele>87.8</ele>
        <time>2019-01-08T08:23:34Z</time>
      </trkpt>
      <trkpt lat="43.54411" lon="3.4989">
        <ele>88.1</ele>
        <time>2019-01-08T08:23:36Z</time>
      </trkpt>
      <trkpt lat="43.54408" lon="3.49892">
        <ele>88.4</ele>
        <time>2019-01-08T08:23:39Z</time>
      </trkpt>
      <trkpt lat="43.54405" lon="3.49895">
        <ele>89</ele>
        <time>2019-01-08T08:23:42Z</time>
      </trkpt>
      <trkpt lat="43.54401" lon="3.49896">
        <ele>89.2</ele>
        <time>2019-01-08T08:23:44Z</time>
      </trkpt>
      <trkpt lat="43.54398" lon="3.49897">
        <ele>89.4</ele>
        <time>2019-01-08T08:23:46Z</time>
      </trkpt>
      <trkpt lat="43.54395" lon="3.49899">
        <ele>89.9</ele>
        <time>2019-01-08T08:23:48Z</time>
      </trkpt>
      <trkpt lat="43.54392" lon="3.499">
        <ele>89.9</ele>
        <time>2019-01-08T08:23:50Z</time>
      </trkpt>
      <trkpt lat="43.54389" lon="3.49903">
        <ele>90.5</ele>
        <time>2019-01-08T08:23:53Z</time>
      </trkpt>
      <trkpt lat="43.54387" lon="3.49906">
        <ele>91</ele>
        <time>2019-01-08T08:23:56Z</time>
      </trkpt>
      <trkpt lat="43.54385" lon="3.49909">
        <ele>91</ele>
        <time>2019-01-08T08:23:59Z</time>
      </trkpt>
      <trkpt lat="43.54383" lon="3.49912">
        <ele>91.5</ele>
        <time>2019-01-08T08:24:02Z</time>
      </trkpt>
      <trkpt lat="43.54381" lon="3.49914">
        <ele>91.5</ele>
        <time>2019-01-08T08:24:05Z</time>
      </trkpt>
      <trkpt lat="43.54377" lon="3.49916">
        <ele>92</ele>
        <time>2019-01-08T08:24:08Z</time>
      </trkpt>
      <trkpt lat="43.54375" lon="3.49917">
        <ele>91.9</ele>
        <time>2019-01-08T08:24:10Z</time>
      </trkpt>
      <trkpt lat="43.54371" lon="3.49919">
        <ele>91.9</ele>
        <time>2019-01-08T08:24:12Z</time>
      </trkpt>
      <trkpt lat="43.54368" lon="3.4992">
        <ele>92.4</ele>
        <time>2019-01-08T08:24:14Z</time>
      </trkpt>
      <trkpt lat="43.54365" lon="3.49922">
        <ele>92.4</ele>
        <time>2019-01-08T08:24:16Z</time>
      </trkpt>
      <trkpt lat="43.54363" lon="3.49924">
        <ele>92.9</ele>
        <time>2019-01-08T08:24:18Z</time>
      </trkpt>
      <trkpt lat="43.54359" lon="3.49926">
        <ele>92.8</ele>
        <time>2019-01-08T08:24:21Z</time>
      </trkpt>
      <trkpt lat="43.54357" lon="3.4993">
        <ele>93.4</ele>
        <time>2019-01-08T08:24:24Z</time>
      </trkpt>
      <trkpt lat="43.54354" lon="3.49933">
        <ele>93.9</ele>
        <time>2019-01-08T08:24:27Z</time>
      </trkpt>
      <trkpt lat="43.54351" lon="3.49934">
        <ele>93.9</ele>
        <time>2019-01-08T08:24:29Z</time>
      </trkpt>
      <trkpt lat="43.54348" lon="3.49935">
        <ele>93.8</ele>
        <time>2019-01-08T08:24:31Z</time>
      </trkpt>
      <trkpt lat="43.54345" lon="3.49936">
        <ele>93.6</ele>
        <time>2019-01-08T08:24:34Z</time>
      </trkpt>
      <trkpt lat="43.54342" lon="3.49938">
        <ele>94.1</ele>
        <time>2019-01-08T08:24:38Z</time>
      </trkpt>
      <trkpt lat="43.5434" lon="3.4994">
        <ele>93.8</ele>
        <time>2019-01-08T08:24:40Z</time>
      </trkpt>
      <trkpt lat="43.54338" lon="3.49943">
        <ele>94.2</ele>
        <time>2019-01-08T08:24:43Z</time>
      </trkpt>
      <trkpt lat="43.54335" lon="3.49946">
        <ele>94.7</ele>
        <time>2019-01-08T08:24:45Z</time>
      </trkpt>
      <trkpt lat="43.54333" lon="3.49951">
        <ele>95.4</ele>
        <time>2019-01-08T08:24:47Z</time>
      </trkpt>
      <trkpt lat="43.54332" lon="3.49955">
        <ele>95.8</ele>
        <time>2019-01-08T08:24:49Z</time>
      </trkpt>
      <trkpt lat="43.54332" lon="3.4996">
        <ele>96.4</ele>
        <time>2019-01-08T08:24:51Z</time>
      </trkpt>
      <trkpt lat="43.54332" lon="3.49964">
        <ele>97</ele>
        <time>2019-01-08T08:24:53Z</time>
      </trkpt>
      <trkpt lat="43.54331" lon="3.49968">
        <ele>97.4</ele>
        <time>2019-01-08T08:24:55Z</time>
      </trkpt>
      <trkpt lat="43.54331" lon="3.49973">
        <ele>97.8</ele>
        <time>2019-01-08T08:24:57Z</time>
      </trkpt>
      <trkpt lat="43.54329" lon="3.49977">
        <ele>98.1</ele>
        <time>2019-01-08T08:24:59Z</time>
      </trkpt>
      <trkpt lat="43.54328" lon="3.49981">
        <ele>98.4</ele>
        <time>2019-01-08T08:25:01Z</time>
      </trkpt>
      <trkpt lat="43.54327" lon="3.49985">
        <ele>98.6</ele>
        <time>2019-01-08T08:25:03Z</time>
      </trkpt>
      <trkpt lat="43.54328" lon="3.4999">
        <ele>98.9</ele>
        <time>2019-01-08T08:25:06Z</time>
      </trkpt>
      <trkpt lat="43.54328" lon="3.49994">
        <ele>99.1</ele>
        <time>2019-01-08T08:25:08Z</time>
      </trkpt>
      <trkpt lat="43.54328" lon="3.49999">
        <ele>99.4</ele>
        <time>2019-01-08T08:25:11Z</time>
      </trkpt>
      <trkpt lat="43.54329" lon="3.50003">
        <ele>99.7</ele>
        <time>2019-01-08T08:25:13Z</time>
      </trkpt>
      <trkpt lat="43.54329" lon="3.50007">
        <ele>99.9</ele>
        <time>2019-01-08T08:25:15Z</time>
      </trkpt>
      <trkpt lat="43.5433" lon="3.5001">
        <ele>100.1</ele>
        <time>2019-01-08T08:25:17Z</time>
      </trkpt>
      <trkpt lat="43.54332" lon="3.50014">
        <ele>100.3</ele>
        <time>2019-01-08T08:25:19Z</time>
      </trkpt>
      <trkpt lat="43.54333" lon="3.50018">
        <ele>100.5</ele>
        <time>2019-01-08T08:25:21Z</time>
      </trkpt>
      <trkpt lat="43.54334" lon="3.50023">
        <ele>100.6</ele>
        <time>2019-01-08T08:25:23Z</time>
      </trkpt>
      <trkpt lat="43.54335" lon="3.50027">
        <ele>100.8</ele>
        <time>2019-01-08T08:25:25Z</time>
      </trkpt>
      <trkpt lat="43.54336" lon="3.50032">
        <ele>100.9</ele>
        <time>2019-01-08T08:25:28Z</time>
      </trkpt>
      <trkpt lat="43.54337" lon="3.50036">
        <ele>101.1</ele>
        <time>2019-01-08T08:25:30Z</time>
      </trkpt>
      <trkpt lat="43.54339" lon="3.50039">
        <ele>101</ele>
        <time>2019-01-08T08:25:32Z</time>
      </trkpt>
      <trkpt lat="43.54341" lon="3.50043">
        <ele>101.2</ele>
        <time>2019-01-08T08:25:35Z</time>
      </trkpt>
      <trkpt lat="43.54343" lon="3.50046">
        <ele>101.2</ele>
        <time>2019-01-08T08:25:37Z</time>
      </trkpt>
      <trkpt lat="43.54345" lon="3.50051">
        <ele>101.3</ele>
        <time>2019-01-08T08:25:40Z</time>
      </trkpt>
      <trkpt lat="43.54346" lon="3.50055">
        <ele>101.4</ele>
        <time>2019-01-08T08:25:42Z</time>
      </trkpt>
      <trkpt lat="43.54348" lon="3.50058">
        <ele>101.4</ele>
        <time>2019-01-08T08:25:44Z</time>
      </trkpt>
      <trkpt lat="43.54348" lon="3.50063">
        <ele>101.3</ele>
        <time>2019-01-08T08:25:47Z</time>
      </trkpt>
      <trkpt lat="43.54347" lon="3.50066">
        <ele>101.4</ele>
        <time>2019-01-08T08:25:49Z</time>
      </trkpt>
      <trkpt lat="43.54344" lon="3.5007">
        <ele>101.5</ele>
        <time>2019-01-08T08:25:51Z</time>
      </trkpt>
      <trkpt lat="43.54342" lon="3.50073">
        <ele>101.5</ele>
        <time>2019-01-08T08:25:53Z</time>
      </trkpt>
      <trkpt lat="43.54339" lon="3.50076">
        <ele>101.5</ele>
        <time>2019-01-08T08:25:56Z</time>
      </trkpt>
      <trkpt lat="43.54336" lon="3.50078">
        <ele>101.7</ele>
        <time>2019-01-08T08:25:59Z</time>
      </trkpt>
      <trkpt lat="43.54332" lon="3.50079">
        <ele>101.7</ele>
        <time>2019-01-08T08:26:02Z</time>
      </trkpt>
      <trkpt lat="43.54329" lon="3.5008">
        <ele>101.9</ele>
        <time>2019-01-08T08:26:05Z</time>
      </trkpt>
      <trkpt lat="43.54326" lon="3.50084">
        <ele>101.8</ele>
        <time>2019-01-08T08:26:08Z</time>
      </trkpt>
      <trkpt lat="43.54324" lon="3.50087">
        <ele>101.8</ele>
        <time>2019-01-08T08:26:10Z</time>
      </trkpt>
      <trkpt lat="43.54322" lon="3.50089">
        <ele>101.9</ele>
        <time>2019-01-08T08:26:12Z</time>
      </trkpt>
      <trkpt lat="43.54319" lon="3.50092">
        <ele>101.8</ele>
        <time>2019-01-08T08:26:14Z</time>
      </trkpt>
      <trkpt lat="43.54317" lon="3.50095">
        <ele>101.8</ele>
        <time>2019-01-08T08:26:16Z</time>
      </trkpt>
      <trkpt lat="43.54314" lon="3.50097">
        <ele>101.7</ele>
        <time>2019-01-08T08:26:18Z</time>
      </trkpt>
      <trkpt lat="43.54311" lon="3.50099">
        <ele>101.8</ele>
        <time>2019-01-08T08:26:20Z</time>
      </trkpt>
      <trkpt lat="43.54308" lon="3.50099">
        <ele>101.8</ele>
        <time>2019-01-08T08:26:23Z</time>
      </trkpt>
      <trkpt lat="43.54304" lon="3.50103">
        <ele>101.9</ele>
        <time>2019-01-08T08:26:26Z</time>
      </trkpt>
      <trkpt lat="43.54301" lon="3.50105">
        <ele>101.9</ele>
        <time>2019-01-08T08:26:29Z</time>
      </trkpt>
      <trkpt lat="43.54299" lon="3.50107">
        <ele>102.1</ele>
        <time>2019-01-08T08:26:31Z</time>
      </trkpt>
      <trkpt lat="43.54295" lon="3.50108">
        <ele>102.1</ele>
        <time>2019-01-08T08:26:33Z</time>
      </trkpt>
      <trkpt lat="43.54292" lon="3.5011">
        <ele>102.3</ele>
        <time>2019-01-08T08:26:36Z</time>
      </trkpt>
      <trkpt lat="43.54288" lon="3.50111">
        <ele>102.6</ele>
        <time>2019-01-08T08:26:39Z</time>
      </trkpt>
      <trkpt lat="43.54285" lon="3.50113">
        <ele>102.6</ele>
        <time>2019-01-08T08:26:42Z</time>
      </trkpt>
      <trkpt lat="43.54283" lon="3.50114">
        <ele>102.6</ele>
        <time>2019-01-08T08:26:45Z</time>
      </trkpt>
      <trkpt lat="43.5428" lon="3.50115">
        <ele>102.8</ele>
        <time>2019-01-08T08:26:48Z</time>
      </trkpt>
      <trkpt lat="43.54277" lon="3.50117">
        <ele>102.8</ele>
        <time>2019-01-08T08:26:52Z</time>
      </trkpt>
      <trkpt lat="43.54274" lon="3.50119">
        <ele>103</ele>
        <time>2019-01-08T08:26:55Z</time>
      </trkpt>
      <trkpt lat="43.54271" lon="3.50121">
        <ele>103</ele>
        <time>2019-01-08T08:26:57Z</time>
      </trkpt>
      <trkpt lat="43.54269" lon="3.50124">
        <ele>103.2</ele>
        <time>2019-01-08T08:27:00Z</time>
      </trkpt>
      <trkpt lat="43.54266" lon="3.50129">
        <ele>103.2</ele>
        <time>2019-01-08T08:27:03Z</time>
      </trkpt>
      <trkpt lat="43.54264" lon="3.50133">
        <ele>103.1</ele>
        <time>2019-01-08T08:27:06Z</time>
      </trkpt>
      <trkpt lat="43.54262" lon="3.50135">
        <ele>103.2</ele>
        <time>2019-01-08T08:27:08Z</time>
      </trkpt>
      <trkpt lat="43.5426" lon="3.50137">
        <ele>103.4</ele>
        <time>2019-01-08T08:27:10Z</time>
      </trkpt>
      <trkpt lat="43.54257" lon="3.5014">
        <ele>103.4</ele>
        <time>2019-01-08T08:27:13Z</time>
      </trkpt>
      <trkpt lat="43.54255" lon="3.50143">
        <ele>103.3</ele>
        <time>2019-01-08T08:27:15Z</time>
      </trkpt>
      <trkpt lat="43.54253" lon="3.50147">
        <ele>103.4</ele>
        <time>2019-01-08T08:27:18Z</time>
      </trkpt>
      <trkpt lat="43.5425" lon="3.5015">
        <ele>103.6</ele>
        <time>2019-01-08T08:27:21Z</time>
      </trkpt>
      <trkpt lat="43.54247" lon="3.50153">
        <ele>103.6</ele>
        <time>2019-01-08T08:27:24Z</time>
      </trkpt>
      <trkpt lat="43.54244" lon="3.50155">
        <ele>103.7</ele>
        <time>2019-01-08T08:27:26Z</time>
      </trkpt>
      <trkpt lat="43.54242" lon="3.50159">
        <ele>103.8</ele>
        <time>2019-01-08T08:27:28Z</time>
      </trkpt>
      <trkpt lat="43.5424" lon="3.50162">
        <ele>103.7</ele>
        <time>2019-01-08T08:27:30Z</time>
      </trkpt>
      <trkpt lat="43.54238" lon="3.50165">
        <ele>103.8</ele>
        <time>2019-01-08T08:27:32Z</time>
      </trkpt>
      <trkpt lat="43.54234" lon="3.50168">
        <ele>103.9</ele>
        <time>2019-01-08T08:27:34Z</time>
      </trkpt>
      <trkpt lat="43.54231" lon="3.50169">
        <ele>104</ele>
        <time>2019-01-08T08:27:36Z</time>
      </trkpt>
      <trkpt lat="43.54228" lon="3.50172">
        <ele>104</ele>
        <time>2019-01-08T08:27:39Z</time>
      </trkpt>
      <trkpt lat="43.54226" lon="3.50175">
        <ele>104</ele>
        <time>2019-01-08T08:27:42Z</time>
      </trkpt>
      <trkpt lat="43.54223" lon="3.50179">
        <ele>104</ele>
        <time>2019-01-08T08:27:45Z</time>
      </trkpt>
      <trkpt lat="43.5422" lon="3.50183">
        <ele>104</ele>
        <time>2019-01-08T08:27:48Z</time>
      </trkpt>
      <trkpt lat="43.54218" lon="3.50186">
        <ele>104</ele>
        <time>2019-01-08T08:27:50Z</time>
      </trkpt>
      <trkpt lat="43.54215" lon="3.5019">
        <ele>103.9</ele>
        <time>2019-01-08T08:27:53Z</time>
      </trkpt>
      <trkpt lat="43.54213" lon="3.50193">
        <ele>103.9</ele>
        <time>2019-01-08T08:27:55Z</time>
      </trkpt>
      <trkpt lat="43.54211" lon="3.50196">
        <ele>103.9</ele>
        <time>2019-01-08T08:27:57Z</time>
      </trkpt>
      <trkpt lat="43.54209" lon="3.50199">
        <ele>103.9</ele>
        <time>2019-01-08T08:27:59Z</time>
      </trkpt>
      <trkpt lat="43.54206" lon="3.50203">
        <ele>103.9</ele>
        <time>2019-01-08T08:28:02Z</time>
      </trkpt>
      <trkpt lat="43.54205" lon="3.50206">
        <ele>103.8</ele>
        <time>2019-01-08T08:28:04Z</time>
      </trkpt>
      <trkpt lat="43.54202" lon="3.50209">
        <ele>103.8</ele>
        <time>2019-01-08T08:28:06Z</time>
      </trkpt>
      <trkpt lat="43.542" lon="3.50213">
        <ele>103.8</ele>
        <time>2019-01-08T08:28:09Z</time>
      </trkpt>
      <trkpt lat="43.54198" lon="3.50216">
        <ele>103.7</ele>
        <time>2019-01-08T08:28:11Z</time>
      </trkpt>
      <trkpt lat="43.54196" lon="3.50218">
        <ele>103.7</ele>
        <time>2019-01-08T08:28:13Z</time>
      </trkpt>
      <trkpt lat="43.54194" lon="3.50221">
        <ele>103.7</ele>
        <time>2019-01-08T08:28:15Z</time>
      </trkpt>
      <trkpt lat="43.5419" lon="3.50224">
        <ele>103.7</ele>
        <time>2019-01-08T08:28:18Z</time>
      </trkpt>
      <trkpt lat="43.54188" lon="3.50226">
        <ele>103.8</ele>
        <time>2019-01-08T08:28:20Z</time>
      </trkpt>
      <trkpt lat="43.54186" lon="3.50228">
        <ele>103.8</ele>
        <time>2019-01-08T08:28:22Z</time>
      </trkpt>
      <trkpt lat="43.54184" lon="3.50233">
        <ele>103.8</ele>
        <time>2019-01-08T08:28:25Z</time>
      </trkpt>
      <trkpt lat="43.54183" lon="3.50237">
        <ele>103.8</ele>
        <time>2019-01-08T08:28:27Z</time>
      </trkpt>
      <trkpt lat="43.54184" lon="3.50241">
        <ele>103.7</ele>
        <time>2019-01-08T08:28:29Z</time>
      </trkpt>
      <trkpt lat="43.54184" lon="3.50245">
        <ele>103.7</ele>
        <time>2019-01-08T08:28:31Z</time>
      </trkpt>
      <trkpt lat="43.54185" lon="3.5025">
        <ele>103.7</ele>
        <time>2019-01-08T08:28:33Z</time>
      </trkpt>
      <trkpt lat="43.54184" lon="3.50255">
        <ele>103.7</ele>
        <time>2019-01-08T08:28:35Z</time>
      </trkpt>
      <trkpt lat="43.54183" lon="3.5026">
        <ele>103.7</ele>
        <time>2019-01-08T08:28:37Z</time>
      </trkpt>
      <trkpt lat="43.54184" lon="3.50264">
        <ele>103.7</ele>
        <time>2019-01-08T08:28:39Z</time>
      </trkpt>
      <trkpt lat="43.54184" lon="3.50268">
        <ele>103.7</ele>
        <time>2019-01-08T08:28:41Z</time>
      </trkpt>
      <trkpt lat="43.54185" lon="3.50272">
        <ele>103.8</ele>
        <time>2019-01-08T08:28:43Z</time>
      </trkpt>
      <trkpt lat="43.54186" lon="3.50277">
        <ele>103.9</ele>
        <time>2019-01-08T08:28:46Z</time>
      </trkpt>
      <trkpt lat="43.54188" lon="3.5028">
        <ele>103.9</ele>
        <time>2019-01-08T08:28:48Z</time>
      </trkpt>
      <trkpt lat="43.5419" lon="3.50283">
        <ele>103.9</ele>
        <time>2019-01-08T08:28:51Z</time>
      </trkpt>
      <trkpt lat="43.54194" lon="3.50286">
        <ele>104</ele>
        <time>2019-01-08T08:28:54Z</time>
      </trkpt>
      <trkpt lat="43.54195" lon="3.50291">
        <ele>104.1</ele>
        <time>2019-01-08T08:28:57Z</time>
      </trkpt>
      <trkpt lat="43.54197" lon="3.50295">
        <ele>104.2</ele>
        <time>2019-01-08T08:29:00Z</time>
      </trkpt>
      <trkpt lat="43.54197" lon="3.50299">
        <ele>104.3</ele>
        <time>2019-01-08T08:29:02Z</time>
      </trkpt>
      <trkpt lat="43.54197" lon="3.50303">
        <ele>104.4</ele>
        <time>2019-01-08T08:29:04Z</time>
      </trkpt>
      <trkpt lat="43.54196" lon="3.50307">
        <ele>104.4</ele>
        <time>2019-01-08T08:29:06Z</time>
      </trkpt>
      <trkpt lat="43.54194" lon="3.50311">
        <ele>104.6</ele>
        <time>2019-01-08T08:29:08Z</time>
      </trkpt>
      <trkpt lat="43.54192" lon="3.50315">
        <ele>104.8</ele>
        <time>2019-01-08T08:29:11Z</time>
      </trkpt>
      <trkpt lat="43.5419" lon="3.50317">
        <ele>104.8</ele>
        <time>2019-01-08T08:29:13Z</time>
      </trkpt>
      <trkpt lat="43.54187" lon="3.50319">
        <ele>105.1</ele>
        <time>2019-01-08T08:29:15Z</time>
      </trkpt>
      <trkpt lat="43.54185" lon="3.50321">
        <ele>105.2</ele>
        <time>2019-01-08T08:29:17Z</time>
      </trkpt>
      <trkpt lat="43.54182" lon="3.50325">
        <ele>105.6</ele>
        <time>2019-01-08T08:29:20Z</time>
      </trkpt>
      <trkpt lat="43.54179" lon="3.50328">
        <ele>105.9</ele>
        <time>2019-01-08T08:29:23Z</time>
      </trkpt>
      <trkpt lat="43.54177" lon="3.50331">
        <ele>106.3</ele>
        <time>2019-01-08T08:29:25Z</time>
      </trkpt>
      <trkpt lat="43.54176" lon="3.50335">
        <ele>106.3</ele>
        <time>2019-01-08T08:29:27Z</time>
      </trkpt>
      <trkpt lat="43.54174" lon="3.50339">
        <ele>106.7</ele>
        <time>2019-01-08T08:29:30Z</time>
      </trkpt>
      <trkpt lat="43.54172" lon="3.50342">
        <ele>107.1</ele>
        <time>2019-01-08T08:29:32Z</time>
      </trkpt>
      <trkpt lat="43.5417" lon="3.50345">
        <ele>107.5</ele>
        <time>2019-01-08T08:29:34Z</time>
      </trkpt>
      <trkpt lat="43.54167" lon="3.50347">
        <ele>107.6</ele>
        <time>2019-01-08T08:29:37Z</time>
      </trkpt>
      <trkpt lat="43.54163" lon="3.50348">
        <ele>107.7</ele>
        <time>2019-01-08T08:29:40Z</time>
      </trkpt>
      <trkpt lat="43.5416" lon="3.50347">
        <ele>107.7</ele>
        <time>2019-01-08T08:29:43Z</time>
      </trkpt>
      <trkpt lat="43.54156" lon="3.50346">
        <ele>107.8</ele>
        <time>2019-01-08T08:29:46Z</time>
      </trkpt>
      <trkpt lat="43.54153" lon="3.50343">
        <ele>107.7</ele>
        <time>2019-01-08T08:29:49Z</time>
      </trkpt>
      <trkpt lat="43.54151" lon="3.50341">
        <ele>107.8</ele>
        <time>2019-01-08T08:29:51Z</time>
      </trkpt>
      <trkpt lat="43.54149" lon="3.50338">
        <ele>107.7</ele>
        <time>2019-01-08T08:29:53Z</time>
      </trkpt>
      <trkpt lat="43.54146" lon="3.50335">
        <ele>107.5</ele>
        <time>2019-01-08T08:29:55Z</time>
      </trkpt>
      <trkpt lat="43.54144" lon="3.50332">
        <ele>107.6</ele>
        <time>2019-01-08T08:29:57Z</time>
      </trkpt>
      <trkpt lat="43.54142" lon="3.50328">
        <ele>107.6</ele>
        <time>2019-01-08T08:30:00Z</time>
      </trkpt>
      <trkpt lat="43.54139" lon="3.50326">
        <ele>107.5</ele>
        <time>2019-01-08T08:30:02Z</time>
      </trkpt>
      <trkpt lat="43.54136" lon="3.50326">
        <ele>107.6</ele>
        <time>2019-01-08T08:30:05Z</time>
      </trkpt>
      <trkpt lat="43.54133" lon="3.50327">
        <ele>107.8</ele>
        <time>2019-01-08T08:30:07Z</time>
      </trkpt>
      <trkpt lat="43.54131" lon="3.5033">
        <ele>107.8</ele>
        <time>2019-01-08T08:30:09Z</time>
      </trkpt>
      <trkpt lat="43.54129" lon="3.50334">
        <ele>108</ele>
        <time>2019-01-08T08:30:12Z</time>
      </trkpt>
      <trkpt lat="43.54128" lon="3.50338">
        <ele>108.3</ele>
        <time>2019-01-08T08:30:14Z</time>
      </trkpt>
      <trkpt lat="43.54128" lon="3.50342">
        <ele>108.5</ele>
        <time>2019-01-08T08:30:16Z</time>
      </trkpt>
      <trkpt lat="43.54127" lon="3.50348">
        <ele>108.7</ele>
        <time>2019-01-08T08:30:19Z</time>
      </trkpt>
      <trkpt lat="43.54126" lon="3.50353">
        <ele>109.2</ele>
        <time>2019-01-08T08:30:22Z</time>
      </trkpt>
      <trkpt lat="43.54126" lon="3.50357">
        <ele>109.5</ele>
        <time>2019-01-08T08:30:24Z</time>
      </trkpt>
      <trkpt lat="43.54126" lon="3.50362">
        <ele>109.8</ele>
        <time>2019-01-08T08:30:27Z</time>
      </trkpt>
      <trkpt lat="43.54126" lon="3.50367">
        <ele>110.2</ele>
        <time>2019-01-08T08:30:30Z</time>
      </trkpt>
      <trkpt lat="43.54126" lon="3.50371">
        <ele>110.5</ele>
        <time>2019-01-08T08:30:33Z</time>
      </trkpt>
      <trkpt lat="43.54127" lon="3.50375">
        <ele>110.8</ele>
        <time>2019-01-08T08:30:35Z</time>
      </trkpt>
      <trkpt lat="43.54127" lon="3.50379">
        <ele>110.9</ele>
        <time>2019-01-08T08:30:38Z</time>
      </trkpt>
      <trkpt lat="43.54128" lon="3.50383">
        <ele>111.2</ele>
        <time>2019-01-08T08:30:40Z</time>
      </trkpt>
      <trkpt lat="43.54129" lon="3.50387">
        <ele>111.4</ele>
        <time>2019-01-08T08:30:42Z</time>
      </trkpt>
      <trkpt lat="43.54131" lon="3.50391">
        <ele>111.3</ele>
        <time>2019-01-08T08:30:45Z</time>
      </trkpt>
      <trkpt lat="43.54132" lon="3.50395">
        <ele>111.5</ele>
        <time>2019-01-08T08:30:47Z</time>
      </trkpt>
      <trkpt lat="43.54131" lon="3.50399">
        <ele>111.7</ele>
        <time>2019-01-08T08:30:49Z</time>
      </trkpt>
      <trkpt lat="43.5413" lon="3.50404">
        <ele>111.9</ele>
        <time>2019-01-08T08:30:52Z</time>
      </trkpt>
      <trkpt lat="43.54129" lon="3.50408">
        <ele>112.2</ele>
        <time>2019-01-08T08:30:55Z</time>
      </trkpt>
      <trkpt lat="43.54129" lon="3.50412">
        <ele>112.2</ele>
        <time>2019-01-08T08:30:58Z</time>
      </trkpt>
      <trkpt lat="43.5413" lon="3.50416">
        <ele>112.3</ele>
        <time>2019-01-08T08:31:01Z</time>
      </trkpt>
      <trkpt lat="43.54132" lon="3.50419">
        <ele>112.4</ele>
        <time>2019-01-08T08:31:03Z</time>
      </trkpt>
      <trkpt lat="43.54136" lon="3.50421">
        <ele>112.5</ele>
        <time>2019-01-08T08:31:06Z</time>
      </trkpt>
      <trkpt lat="43.54138" lon="3.50424">
        <ele>112.4</ele>
        <time>2019-01-08T08:31:09Z</time>
      </trkpt>
      <trkpt lat="43.54141" lon="3.50428">
        <ele>112.4</ele>
        <time>2019-01-08T08:31:12Z</time>
      </trkpt>
      <trkpt lat="43.54143" lon="3.5043">
        <ele>112.3</ele>
        <time>2019-01-08T08:31:15Z</time>
      </trkpt>
      <trkpt lat="43.54147" lon="3.5043">
        <ele>112.2</ele>
        <time>2019-01-08T08:31:18Z</time>
      </trkpt>
      <trkpt lat="43.5415" lon="3.50432">
        <ele>112.1</ele>
        <time>2019-01-08T08:31:21Z</time>
      </trkpt>
      <trkpt lat="43.54153" lon="3.50433">
        <ele>111.9</ele>
        <time>2019-01-08T08:31:24Z</time>
      </trkpt>
      <trkpt lat="43.54157" lon="3.50433">
        <ele>111.7</ele>
        <time>2019-01-08T08:31:27Z</time>
      </trkpt>
      <trkpt lat="43.54161" lon="3.50434">
        <ele>111.6</ele>
        <time>2019-01-08T08:31:30Z</time>
      </trkpt>
      <trkpt lat="43.54164" lon="3.50434">
        <ele>111.3</ele>
        <time>2019-01-08T08:31:32Z</time>
      </trkpt>
      <trkpt lat="43.54166" lon="3.50435">
        <ele>111.1</ele>
        <time>2019-01-08T08:31:34Z</time>
      </trkpt>
      <trkpt lat="43.54169" lon="3.50437">
        <ele>110.8</ele>
        <time>2019-01-08T08:31:36Z</time>
      </trkpt>
      <trkpt lat="43.54172" lon="3.50438">
        <ele>110.4</ele>
        <time>2019-01-08T08:31:38Z</time>
      </trkpt>
      <trkpt lat="43.54175" lon="3.5044">
        <ele>110</ele>
        <time>2019-01-08T08:31:40Z</time>
      </trkpt>
      <trkpt lat="43.54178" lon="3.50443">
        <ele>109.6</ele>
        <time>2019-01-08T08:31:42Z</time>
      </trkpt>
      <trkpt lat="43.5418" lon="3.50446">
        <ele>109.2</ele>
        <time>2019-01-08T08:31:44Z</time>
      </trkpt>
      <trkpt lat="43.54183" lon="3.50448">
        <ele>109.1</ele>
        <time>2019-01-08T08:31:46Z</time>
      </trkpt>
      <trkpt lat="43.54185" lon="3.5045">
        <ele>108.6</ele>
        <time>2019-01-08T08:31:48Z</time>
      </trkpt>
      <trkpt lat="43.54188" lon="3.50452">
        <ele>108</ele>
        <time>2019-01-08T08:31:50Z</time>
      </trkpt>
      <trkpt lat="43.5419" lon="3.50454">
        <ele>107.5</ele>
        <time>2019-01-08T08:31:52Z</time>
      </trkpt>
      <trkpt lat="43.54193" lon="3.50456">
        <ele>106.7</ele>
        <time>2019-01-08T08:31:54Z</time>
      </trkpt>
      <trkpt lat="43.54196" lon="3.50459">
        <ele>106.1</ele>
        <time>2019-01-08T08:31:57Z</time>
      </trkpt>
      <trkpt lat="43.54198" lon="3.50462">
        <ele>105.9</ele>
        <time>2019-01-08T08:31:59Z</time>
      </trkpt>
      <trkpt lat="43.54198" lon="3.50466">
        <ele>105.6</ele>
        <time>2019-01-08T08:32:01Z</time>
      </trkpt>
      <trkpt lat="43.54197" lon="3.5047">
        <ele>105.4</ele>
        <time>2019-01-08T08:32:04Z</time>
      </trkpt>
      <trkpt lat="43.54196" lon="3.50474">
        <ele>105.1</ele>
        <time>2019-01-08T08:32:07Z</time>
      </trkpt>
      <trkpt lat="43.54198" lon="3.50478">
        <ele>104.9</ele>
        <time>2019-01-08T08:32:13Z</time>
      </trkpt>
      <trkpt lat="43.542" lon="3.50482">
        <ele>104</ele>
        <time>2019-01-08T08:32:15Z</time>
      </trkpt>
      <trkpt lat="43.54199" lon="3.50486">
        <ele>103.7</ele>
        <time>2019-01-08T08:32:17Z</time>
      </trkpt>
      <trkpt lat="43.54198" lon="3.50491">
        <ele>103.9</ele>
        <time>2019-01-08T08:32:20Z</time>
      </trkpt>
      <trkpt lat="43.54197" lon="3.50494">
        <ele>103.5</ele>
        <time>2019-01-08T08:32:22Z</time>
      </trkpt>
      <trkpt lat="43.54195" lon="3.50498">
        <ele>103.7</ele>
        <time>2019-01-08T08:32:25Z</time>
      </trkpt>
      <trkpt lat="43.54193" lon="3.50503">
        <ele>103.4</ele>
        <time>2019-01-08T08:32:28Z</time>
      </trkpt>
      <trkpt lat="43.54193" lon="3.50508">
        <ele>103</ele>
        <time>2019-01-08T08:32:31Z</time>
      </trkpt>
      <trkpt lat="43.54192" lon="3.50512">
        <ele>103.4</ele>
        <time>2019-01-08T08:32:33Z</time>
      </trkpt>
      <trkpt lat="43.5419" lon="3.50515">
        <ele>103.4</ele>
        <time>2019-01-08T08:32:36Z</time>
      </trkpt>
      <trkpt lat="43.54187" lon="3.50518">
        <ele>103.7</ele>
        <time>2019-01-08T08:32:39Z</time>
      </trkpt>
      <trkpt lat="43.54184" lon="3.5052">
        <ele>104.1</ele>
        <time>2019-01-08T08:32:41Z</time>
      </trkpt>
      <trkpt lat="43.54182" lon="3.50523">
        <ele>104.7</ele>
        <time>2019-01-08T08:32:43Z</time>
      </trkpt>
      <trkpt lat="43.54181" lon="3.50527">
        <ele>104.5</ele>
        <time>2019-01-08T08:32:45Z</time>
      </trkpt>
      <trkpt lat="43.54179" lon="3.50531">
        <ele>105</ele>
        <time>2019-01-08T08:32:47Z</time>
      </trkpt>
      <trkpt lat="43.54178" lon="3.50536">
        <ele>104.8</ele>
        <time>2019-01-08T08:32:50Z</time>
      </trkpt>
      <trkpt lat="43.54176" lon="3.50541">
        <ele>105.3</ele>
        <time>2019-01-08T08:32:53Z</time>
      </trkpt>
      <trkpt lat="43.54174" lon="3.50544">
        <ele>105.1</ele>
        <time>2019-01-08T08:32:55Z</time>
      </trkpt>
      <trkpt lat="43.54172" lon="3.50547">
        <ele>105.6</ele>
        <time>2019-01-08T08:32:59Z</time>
      </trkpt>
      <trkpt lat="43.54169" lon="3.50549">
        <ele>106.3</ele>
        <time>2019-01-08T08:33:02Z</time>
      </trkpt>
      <trkpt lat="43.54165" lon="3.50552">
        <ele>106.8</ele>
        <time>2019-01-08T08:33:05Z</time>
      </trkpt>
      <trkpt lat="43.54163" lon="3.50556">
        <ele>107.3</ele>
        <time>2019-01-08T08:33:07Z</time>
      </trkpt>
      <trkpt lat="43.54161" lon="3.5056">
        <ele>107.8</ele>
        <time>2019-01-08T08:33:09Z</time>
      </trkpt>
      <trkpt lat="43.5416" lon="3.50564">
        <ele>107.6</ele>
        <time>2019-01-08T08:33:11Z</time>
      </trkpt>
      <trkpt lat="43.54159" lon="3.50569">
        <ele>107.4</ele>
        <time>2019-01-08T08:33:13Z</time>
      </trkpt>
      <trkpt lat="43.54158" lon="3.50573">
        <ele>107.2</ele>
        <time>2019-01-08T08:33:15Z</time>
      </trkpt>
      <trkpt lat="43.54157" lon="3.50577">
        <ele>107.5</ele>
        <time>2019-01-08T08:33:18Z</time>
      </trkpt>
      <trkpt lat="43.54154" lon="3.50581">
        <ele>107.7</ele>
        <time>2019-01-08T08:33:21Z</time>
      </trkpt>
      <trkpt lat="43.54151" lon="3.50582">
        <ele>108.2</ele>
        <time>2019-01-08T08:33:24Z</time>
      </trkpt>
      <trkpt lat="43.54149" lon="3.50586">
        <ele>108.4</ele>
        <time>2019-01-08T08:33:27Z</time>
      </trkpt>
      <trkpt lat="43.54147" lon="3.50589">
        <ele>108.1</ele>
        <time>2019-01-08T08:33:29Z</time>
      </trkpt>
      <trkpt lat="43.54145" lon="3.50593">
        <ele>108.2</ele>
        <time>2019-01-08T08:33:32Z</time>
      </trkpt>
      <trkpt lat="43.54143" lon="3.50596">
        <ele>108.2</ele>
        <time>2019-01-08T08:33:35Z</time>
      </trkpt>
      <trkpt lat="43.5414" lon="3.50599">
        <ele>108.3</ele>
        <time>2019-01-08T08:33:38Z</time>
      </trkpt>
      <trkpt lat="43.54137" lon="3.50603">
        <ele>108.5</ele>
        <time>2019-01-08T08:33:41Z</time>
      </trkpt>
      <trkpt lat="43.54135" lon="3.50606">
        <ele>108.7</ele>
        <time>2019-01-08T08:33:43Z</time>
      </trkpt>
      <trkpt lat="43.54132" lon="3.5061">
        <ele>108.8</ele>
        <time>2019-01-08T08:33:46Z</time>
      </trkpt>
      <trkpt lat="43.5413" lon="3.50614">
        <ele>109.2</ele>
        <time>2019-01-08T08:33:48Z</time>
      </trkpt>
      <trkpt lat="43.54126" lon="3.50616">
        <ele>109.3</ele>
        <time>2019-01-08T08:33:51Z</time>
      </trkpt>
      <trkpt lat="43.54124" lon="3.5062">
        <ele>109.5</ele>
        <time>2019-01-08T08:33:54Z</time>
      </trkpt>
      <trkpt lat="43.54122" lon="3.50624">
        <ele>109.3</ele>
        <time>2019-01-08T08:33:57Z</time>
      </trkpt>
      <trkpt lat="43.5412" lon="3.50629">
        <ele>109.3</ele>
        <time>2019-01-08T08:34:00Z</time>
      </trkpt>
      <trkpt lat="43.54118" lon="3.50633">
        <ele>109.1</ele>
        <time>2019-01-08T08:34:02Z</time>
      </trkpt>
      <trkpt lat="43.54116" lon="3.50637">
        <ele>109.2</ele>
        <time>2019-01-08T08:34:05Z</time>
      </trkpt>
      <trkpt lat="43.54114" lon="3.5064">
        <ele>109.3</ele>
        <time>2019-01-08T08:34:08Z</time>
      </trkpt>
      <trkpt lat="43.54111" lon="3.50643">
        <ele>109.7</ele>
        <time>2019-01-08T08:34:11Z</time>
      </trkpt>
      <trkpt lat="43.54109" lon="3.50647">
        <ele>109.5</ele>
        <time>2019-01-08T08:34:14Z</time>
      </trkpt>
      <trkpt lat="43.54107" lon="3.5065">
        <ele>109.7</ele>
        <time>2019-01-08T08:34:16Z</time>
      </trkpt>
      <trkpt lat="43.54105" lon="3.50654">
        <ele>110</ele>
        <time>2019-01-08T08:34:19Z</time>
      </trkpt>
      <trkpt lat="43.54102" lon="3.50658">
        <ele>110.2</ele>
        <time>2019-01-08T08:34:22Z</time>
      </trkpt>
      <trkpt lat="43.541" lon="3.50662">
        <ele>110</ele>
        <time>2019-01-08T08:34:24Z</time>
      </trkpt>
      <trkpt lat="43.54098" lon="3.50666">
        <ele>110</ele>
        <time>2019-01-08T08:34:27Z</time>
      </trkpt>
      <trkpt lat="43.54096" lon="3.50669">
        <ele>110.3</ele>
        <time>2019-01-08T08:34:30Z</time>
      </trkpt>
      <trkpt lat="43.54093" lon="3.50672">
        <ele>110</ele>
        <time>2019-01-08T08:34:32Z</time>
      </trkpt>
      <trkpt lat="43.54091" lon="3.50675">
        <ele>109.9</ele>
        <time>2019-01-08T08:34:34Z</time>
      </trkpt>
      <trkpt lat="43.54089" lon="3.50678">
        <ele>110.1</ele>
        <time>2019-01-08T08:34:37Z</time>
      </trkpt>
      <trkpt lat="43.54091" lon="3.50681">
        <ele>109.6</ele>
        <time>2019-01-08T08:34:42Z</time>
      </trkpt>
      <trkpt lat="43.54091" lon="3.50686">
        <ele>109.4</ele>
        <time>2019-01-08T08:34:45Z</time>
      </trkpt>
      <trkpt lat="43.54091" lon="3.5069">
        <ele>109.1</ele>
        <time>2019-01-08T08:34:48Z</time>
      </trkpt>
      <trkpt lat="43.54091" lon="3.50694">
        <ele>108.9</ele>
        <time>2019-01-08T08:34:51Z</time>
      </trkpt>
      <trkpt lat="43.54091" lon="3.50698">
        <ele>108.6</ele>
        <time>2019-01-08T08:34:54Z</time>
      </trkpt>
      <trkpt lat="43.5409" lon="3.50703">
        <ele>108.4</ele>
        <time>2019-01-08T08:34:57Z</time>
      </trkpt>
      <trkpt lat="43.5409" lon="3.50708">
        <ele>108.1</ele>
        <time>2019-01-08T08:34:59Z</time>
      </trkpt>
      <trkpt lat="43.54088" lon="3.50711">
        <ele>108.2</ele>
        <time>2019-01-08T08:35:01Z</time>
      </trkpt>
      <trkpt lat="43.54087" lon="3.50715">
        <ele>107.9</ele>
        <time>2019-01-08T08:35:04Z</time>
      </trkpt>
      <trkpt lat="43.54085" lon="3.50719">
        <ele>108</ele>
        <time>2019-01-08T08:35:06Z</time>
      </trkpt>
      <trkpt lat="43.54084" lon="3.50724">
        <ele>107.7</ele>
        <time>2019-01-08T08:35:09Z</time>
      </trkpt>
      <trkpt lat="43.54083" lon="3.50729">
        <ele>107.7</ele>
        <time>2019-01-08T08:35:12Z</time>
      </trkpt>
      <trkpt lat="43.54083" lon="3.50732">
        <ele>107.4</ele>
        <time>2019-01-08T08:35:14Z</time>
      </trkpt>
      <trkpt lat="43.54082" lon="3.50737">
        <ele>107.1</ele>
        <time>2019-01-08T08:35:16Z</time>
      </trkpt>
      <trkpt lat="43.54081" lon="3.5074">
        <ele>106.8</ele>
        <time>2019-01-08T08:35:18Z</time>
      </trkpt>
      <trkpt lat="43.5408" lon="3.50744">
        <ele>106.5</ele>
        <time>2019-01-08T08:35:20Z</time>
      </trkpt>
      <trkpt lat="43.5408" lon="3.50748">
        <ele>106.5</ele>
        <time>2019-01-08T08:35:22Z</time>
      </trkpt>
      <trkpt lat="43.5408" lon="3.50752">
        <ele>106.2</ele>
        <time>2019-01-08T08:35:24Z</time>
      </trkpt>
      <trkpt lat="43.5408" lon="3.50757">
        <ele>105.8</ele>
        <time>2019-01-08T08:35:27Z</time>
      </trkpt>
      <trkpt lat="43.5408" lon="3.50762">
        <ele>105.5</ele>
        <time>2019-01-08T08:35:30Z</time>
      </trkpt>
      <trkpt lat="43.5408" lon="3.50766">
        <ele>105.1</ele>
        <time>2019-01-08T08:35:32Z</time>
      </trkpt>
      <trkpt lat="43.5408" lon="3.50771">
        <ele>104.7</ele>
        <time>2019-01-08T08:35:35Z</time>
      </trkpt>
      <trkpt lat="43.5408" lon="3.50777">
        <ele>104.3</ele>
        <time>2019-01-08T08:35:38Z</time>
      </trkpt>
      <trkpt lat="43.54079" lon="3.5078">
        <ele>103.9</ele>
        <time>2019-01-08T08:35:40Z</time>
      </trkpt>
      <trkpt lat="43.54079" lon="3.50785">
        <ele>103.5</ele>
        <time>2019-01-08T08:35:43Z</time>
      </trkpt>
      <trkpt lat="43.54079" lon="3.5079">
        <ele>103.1</ele>
        <time>2019-01-08T08:35:46Z</time>
      </trkpt>
      <trkpt lat="43.54079" lon="3.50793">
        <ele>102.7</ele>
        <time>2019-01-08T08:35:49Z</time>
      </trkpt>
      <trkpt lat="43.5408" lon="3.50797">
        <ele>102.2</ele>
        <time>2019-01-08T08:35:52Z</time>
      </trkpt>
      <trkpt lat="43.5408" lon="3.50802">
        <ele>101.7</ele>
        <time>2019-01-08T08:35:55Z</time>
      </trkpt>
      <trkpt lat="43.5408" lon="3.50806">
        <ele>101.2</ele>
        <time>2019-01-08T08:35:58Z</time>
      </trkpt>
      <trkpt lat="43.54081" lon="3.5081">
        <ele>100.1</ele>
        <time>2019-01-08T08:36:00Z</time>
      </trkpt>
      <trkpt lat="43.54082" lon="3.50814">
        <ele>99.5</ele>
        <time>2019-01-08T08:36:02Z</time>
      </trkpt>
      <trkpt lat="43.54083" lon="3.50819">
        <ele>98.9</ele>
        <time>2019-01-08T08:36:05Z</time>
      </trkpt>
      <trkpt lat="43.54084" lon="3.50824">
        <ele>97.8</ele>
        <time>2019-01-08T08:36:08Z</time>
      </trkpt>
      <trkpt lat="43.54084" lon="3.50828">
        <ele>97.2</ele>
        <time>2019-01-08T08:36:10Z</time>
      </trkpt>
      <trkpt lat="43.54084" lon="3.50832">
        <ele>96.6</ele>
        <time>2019-01-08T08:36:12Z</time>
      </trkpt>
      <trkpt lat="43.54084" lon="3.50837">
        <ele>96</ele>
        <time>2019-01-08T08:36:15Z</time>
      </trkpt>
      <trkpt lat="43.54083" lon="3.50842">
        <ele>95.9</ele>
        <time>2019-01-08T08:36:18Z</time>
      </trkpt>
      <trkpt lat="43.54084" lon="3.50846">
        <ele>94.1</ele>
        <time>2019-01-08T08:36:21Z</time>
      </trkpt>
      <trkpt lat="43.54085" lon="3.50851">
        <ele>93.5</ele>
        <time>2019-01-08T08:36:23Z</time>
      </trkpt>
      <trkpt lat="43.54085" lon="3.50855">
        <ele>92.9</ele>
        <time>2019-01-08T08:36:25Z</time>
      </trkpt>
      <trkpt lat="43.54085" lon="3.50859">
        <ele>92.3</ele>
        <time>2019-01-08T08:36:28Z</time>
      </trkpt>
      <trkpt lat="43.54086" lon="3.50865">
        <ele>91.7</ele>
        <time>2019-01-08T08:36:31Z</time>
      </trkpt>
      <trkpt lat="43.54087" lon="3.50869">
        <ele>90.7</ele>
        <time>2019-01-08T08:36:34Z</time>
      </trkpt>
      <trkpt lat="43.54087" lon="3.50873">
        <ele>90.2</ele>
        <time>2019-01-08T08:36:39Z</time>
      </trkpt>
      <trkpt lat="43.54086" lon="3.50877">
        <ele>90.2</ele>
        <time>2019-01-08T08:36:46Z</time>
      </trkpt>
      <trkpt lat="43.54087" lon="3.50881">
        <ele>89.3</ele>
        <time>2019-01-08T08:36:50Z</time>
      </trkpt>
      <trkpt lat="43.54089" lon="3.50885">
        <ele>88.8</ele>
        <time>2019-01-08T08:36:53Z</time>
      </trkpt>
      <trkpt lat="43.54089" lon="3.50889">
        <ele>88.8</ele>
        <time>2019-01-08T08:36:56Z</time>
      </trkpt>
      <trkpt lat="43.54091" lon="3.50893">
        <ele>87.5</ele>
        <time>2019-01-08T08:37:00Z</time>
      </trkpt>
      <trkpt lat="43.54093" lon="3.50897">
        <ele>87</ele>
        <time>2019-01-08T08:37:03Z</time>
      </trkpt>
      <trkpt lat="43.54095" lon="3.50901">
        <ele>86.7</ele>
        <time>2019-01-08T08:37:06Z</time>
      </trkpt>
      <trkpt lat="43.54097" lon="3.50904">
        <ele>85.9</ele>
        <time>2019-01-08T08:37:09Z</time>
      </trkpt>
      <trkpt lat="43.54099" lon="3.50908">
        <ele>85.5</ele>
        <time>2019-01-08T08:37:13Z</time>
      </trkpt>
      <trkpt lat="43.541" lon="3.50911">
        <ele>84.8</ele>
        <time>2019-01-08T08:37:16Z</time>
      </trkpt>
      <trkpt lat="43.54101" lon="3.50915">
        <ele>84.5</ele>
        <time>2019-01-08T08:37:19Z</time>
      </trkpt>
      <trkpt lat="43.54101" lon="3.50919">
        <ele>84.2</ele>
        <time>2019-01-08T08:37:24Z</time>
      </trkpt>
      <trkpt lat="43.54102" lon="3.50923">
        <ele>84.2</ele>
        <time>2019-01-08T08:37:28Z</time>
      </trkpt>
      <trkpt lat="43.54103" lon="3.50926">
        <ele>83.6</ele>
        <time>2019-01-08T08:37:31Z</time>
      </trkpt>
      <trkpt lat="43.54106" lon="3.50929">
        <ele>83</ele>
        <time>2019-01-08T08:37:35Z</time>
      </trkpt>
      <trkpt lat="43.54109" lon="3.50931">
        <ele>82.6</ele>
        <time>2019-01-08T08:37:39Z</time>
      </trkpt>
      <trkpt lat="43.54112" lon="3.50933">
        <ele>82.1</ele>
        <time>2019-01-08T08:37:43Z</time>
      </trkpt>
      <trkpt lat="43.54112" lon="3.50936">
        <ele>81.9</ele>
        <time>2019-01-08T08:37:46Z</time>
      </trkpt>
      <trkpt lat="43.54112" lon="3.5094">
        <ele>81.9</ele>
        <time>2019-01-08T08:37:49Z</time>
      </trkpt>
      <trkpt lat="43.54112" lon="3.50944">
        <ele>81.8</ele>
        <time>2019-01-08T08:37:52Z</time>
      </trkpt>
      <trkpt lat="43.54114" lon="3.50948">
        <ele>81.6</ele>
        <time>2019-01-08T08:37:55Z</time>
      </trkpt>
      <trkpt lat="43.54117" lon="3.5095">
        <ele>81.1</ele>
        <time>2019-01-08T08:37:58Z</time>
      </trkpt>
      <trkpt lat="43.5412" lon="3.50951">
        <ele>80.7</ele>
        <time>2019-01-08T08:38:01Z</time>
      </trkpt>
      <trkpt lat="43.54123" lon="3.50947">
        <ele>80.5</ele>
        <time>2019-01-08T08:38:05Z</time>
      </trkpt>
      <trkpt lat="43.54125" lon="3.50945">
        <ele>80.2</ele>
        <time>2019-01-08T08:38:08Z</time>
      </trkpt>
      <trkpt lat="43.54128" lon="3.50947">
        <ele>79.8</ele>
        <time>2019-01-08T08:38:12Z</time>
      </trkpt>
      <trkpt lat="43.54128" lon="3.50951">
        <ele>79.6</ele>
        <time>2019-01-08T08:38:15Z</time>
      </trkpt>
      <trkpt lat="43.54127" lon="3.50955">
        <ele>79.5</ele>
        <time>2019-01-08T08:38:18Z</time>
      </trkpt>
      <trkpt lat="43.54125" lon="3.50958">
        <ele>79.7</ele>
        <time>2019-01-08T08:38:21Z</time>
      </trkpt>
      <trkpt lat="43.54123" lon="3.5096">
        <ele>80.1</ele>
        <time>2019-01-08T08:38:23Z</time>
      </trkpt>
      <trkpt lat="43.5412" lon="3.50962">
        <ele>80.3</ele>
        <time>2019-01-08T08:38:26Z</time>
      </trkpt>
      <trkpt lat="43.54117" lon="3.50965">
        <ele>80.6</ele>
        <time>2019-01-08T08:38:29Z</time>
      </trkpt>
      <trkpt lat="43.54114" lon="3.50967">
        <ele>81</ele>
        <time>2019-01-08T08:38:32Z</time>
      </trkpt>
      <trkpt lat="43.54111" lon="3.50969">
        <ele>81.3</ele>
        <time>2019-01-08T08:38:35Z</time>
      </trkpt>
      <trkpt lat="43.54107" lon="3.50971">
        <ele>81.6</ele>
        <time>2019-01-08T08:38:38Z</time>
      </trkpt>
      <trkpt lat="43.54104" lon="3.50973">
        <ele>82.1</ele>
        <time>2019-01-08T08:38:41Z</time>
      </trkpt>
      <trkpt lat="43.541" lon="3.50976">
        <ele>82.5</ele>
        <time>2019-01-08T08:38:44Z</time>
      </trkpt>
      <trkpt lat="43.54098" lon="3.50978">
        <ele>82.8</ele>
        <time>2019-01-08T08:38:46Z</time>
      </trkpt>
      <trkpt lat="43.54095" lon="3.50981">
        <ele>83</ele>
        <time>2019-01-08T08:38:48Z</time>
      </trkpt>
      <trkpt lat="43.54092" lon="3.50983">
        <ele>83.3</ele>
        <time>2019-01-08T08:38:50Z</time>
      </trkpt>
      <trkpt lat="43.54089" lon="3.50983">
        <ele>83.5</ele>
        <time>2019-01-08T08:38:52Z</time>
      </trkpt>
      <trkpt lat="43.54085" lon="3.50984">
        <ele>83.7</ele>
        <time>2019-01-08T08:38:55Z</time>
      </trkpt>
      <trkpt lat="43.54082" lon="3.50985">
        <ele>83.9</ele>
        <time>2019-01-08T08:38:57Z</time>
      </trkpt>
      <trkpt lat="43.54078" lon="3.50987">
        <ele>84.1</ele>
        <time>2019-01-08T08:39:00Z</time>
      </trkpt>
      <trkpt lat="43.54075" lon="3.50988">
        <ele>84.3</ele>
        <time>2019-01-08T08:39:02Z</time>
      </trkpt>
      <trkpt lat="43.54072" lon="3.5099">
        <ele>84.5</ele>
        <time>2019-01-08T08:39:04Z</time>
      </trkpt>
      <trkpt lat="43.54068" lon="3.50991">
        <ele>84.6</ele>
        <time>2019-01-08T08:39:07Z</time>
      </trkpt>
      <trkpt lat="43.54065" lon="3.50992">
        <ele>84.8</ele>
        <time>2019-01-08T08:39:10Z</time>
      </trkpt>
      <trkpt lat="43.54062" lon="3.50993">
        <ele>85</ele>
        <time>2019-01-08T08:39:12Z</time>
      </trkpt>
      <trkpt lat="43.54059" lon="3.50994">
        <ele>85.1</ele>
        <time>2019-01-08T08:39:14Z</time>
      </trkpt>
      <trkpt lat="43.54055" lon="3.50994">
        <ele>85.3</ele>
        <time>2019-01-08T08:39:17Z</time>
      </trkpt>
      <trkpt lat="43.54052" lon="3.50994">
        <ele>85.4</ele>
        <time>2019-01-08T08:39:19Z</time>
      </trkpt>
      <trkpt lat="43.54049" lon="3.50995">
        <ele>85.5</ele>
        <time>2019-01-08T08:39:22Z</time>
      </trkpt>
      <trkpt lat="43.54045" lon="3.50995">
        <ele>85.6</ele>
        <time>2019-01-08T08:39:25Z</time>
      </trkpt>
      <trkpt lat="43.54042" lon="3.50994">
        <ele>85.8</ele>
        <time>2019-01-08T08:39:28Z</time>
      </trkpt>
      <trkpt lat="43.54039" lon="3.50994">
        <ele>85.9</ele>
        <time>2019-01-08T08:39:31Z</time>
      </trkpt>
      <trkpt lat="43.54035" lon="3.50994">
        <ele>86.1</ele>
        <time>2019-01-08T08:39:34Z</time>
      </trkpt>
      <trkpt lat="43.54032" lon="3.50994">
        <ele>86.3</ele>
        <time>2019-01-08T08:39:36Z</time>
      </trkpt>
      <trkpt lat="43.54029" lon="3.50995">
        <ele>86.4</ele>
        <time>2019-01-08T08:39:38Z</time>
      </trkpt>
      <trkpt lat="43.54026" lon="3.50996">
        <ele>86.6</ele>
        <time>2019-01-08T08:39:40Z</time>
      </trkpt>
      <trkpt lat="43.54023" lon="3.50996">
        <ele>86.8</ele>
        <time>2019-01-08T08:39:42Z</time>
      </trkpt>
      <trkpt lat="43.5402" lon="3.50997">
        <ele>87</ele>
        <time>2019-01-08T08:39:45Z</time>
      </trkpt>
      <trkpt lat="43.54016" lon="3.50999">
        <ele>87.3</ele>
        <time>2019-01-08T08:39:48Z</time>
      </trkpt>
      <trkpt lat="43.54013" lon="3.51001">
        <ele>87.6</ele>
        <time>2019-01-08T08:39:51Z</time>
      </trkpt>
      <trkpt lat="43.54009" lon="3.51002">
        <ele>87.9</ele>
        <time>2019-01-08T08:39:54Z</time>
      </trkpt>
      <trkpt lat="43.54006" lon="3.51003">
        <ele>88.1</ele>
        <time>2019-01-08T08:39:57Z</time>
      </trkpt>
      <trkpt lat="43.54003" lon="3.51004">
        <ele>88.4</ele>
        <time>2019-01-08T08:39:59Z</time>
      </trkpt>
      <trkpt lat="43.54" lon="3.51006">
        <ele>88.7</ele>
        <time>2019-01-08T08:40:01Z</time>
      </trkpt>
      <trkpt lat="43.53997" lon="3.51007">
        <ele>88.9</ele>
        <time>2019-01-08T08:40:03Z</time>
      </trkpt>
      <trkpt lat="43.53994" lon="3.51008">
        <ele>89.1</ele>
        <time>2019-01-08T08:40:05Z</time>
      </trkpt>
      <trkpt lat="43.53991" lon="3.51009">
        <ele>89.3</ele>
        <time>2019-01-08T08:40:07Z</time>
      </trkpt>
      <trkpt lat="43.53988" lon="3.51011">
        <ele>89.5</ele>
        <time>2019-01-08T08:40:09Z</time>
      </trkpt>
      <trkpt lat="43.53984" lon="3.51012">
        <ele>89.8</ele>
        <time>2019-01-08T08:40:12Z</time>
      </trkpt>
      <trkpt lat="43.53981" lon="3.51014">
        <ele>90</ele>
        <time>2019-01-08T08:40:14Z</time>
      </trkpt>
      <trkpt lat="43.53979" lon="3.51016">
        <ele>90.2</ele>
        <time>2019-01-08T08:40:16Z</time>
      </trkpt>
      <trkpt lat="43.53976" lon="3.51017">
        <ele>90.6</ele>
        <time>2019-01-08T08:40:18Z</time>
      </trkpt>
      <trkpt lat="43.53973" lon="3.51019">
        <ele>90.9</ele>
        <time>2019-01-08T08:40:20Z</time>
      </trkpt>
      <trkpt lat="43.53969" lon="3.51019">
        <ele>91.2</ele>
        <time>2019-01-08T08:40:23Z</time>
      </trkpt>
      <trkpt lat="43.53966" lon="3.5102">
        <ele>91.4</ele>
        <time>2019-01-08T08:40:25Z</time>
      </trkpt>
      <trkpt lat="43.53963" lon="3.5102">
        <ele>91.6</ele>
        <time>2019-01-08T08:40:27Z</time>
      </trkpt>
      <trkpt lat="43.53961" lon="3.51021">
        <ele>91.8</ele>
        <time>2019-01-08T08:40:29Z</time>
      </trkpt>
      <trkpt lat="43.53958" lon="3.51021">
        <ele>92.1</ele>
        <time>2019-01-08T08:40:31Z</time>
      </trkpt>
      <trkpt lat="43.53955" lon="3.51022">
        <ele>92.3</ele>
        <time>2019-01-08T08:40:33Z</time>
      </trkpt>
      <trkpt lat="43.53951" lon="3.51025">
        <ele>92.6</ele>
        <time>2019-01-08T08:40:36Z</time>
      </trkpt>
      <trkpt lat="43.53948" lon="3.51026">
        <ele>92.8</ele>
        <time>2019-01-08T08:40:38Z</time>
      </trkpt>
      <trkpt lat="43.53946" lon="3.51028">
        <ele>93</ele>
        <time>2019-01-08T08:40:40Z</time>
      </trkpt>
      <trkpt lat="43.53943" lon="3.51029">
        <ele>93.2</ele>
        <time>2019-01-08T08:40:43Z</time>
      </trkpt>
      <trkpt lat="43.53939" lon="3.51033">
        <ele>93.5</ele>
        <time>2019-01-08T08:40:46Z</time>
      </trkpt>
      <trkpt lat="43.53936" lon="3.51036">
        <ele>93.7</ele>
        <time>2019-01-08T08:40:49Z</time>
      </trkpt>
      <trkpt lat="43.53933" lon="3.51039">
        <ele>93.9</ele>
        <time>2019-01-08T08:40:52Z</time>
      </trkpt>
      <trkpt lat="43.53929" lon="3.51041">
        <ele>94.1</ele>
        <time>2019-01-08T08:40:55Z</time>
      </trkpt>
      <trkpt lat="43.53927" lon="3.51043">
        <ele>94.2</ele>
        <time>2019-01-08T08:40:57Z</time>
      </trkpt>
      <trkpt lat="43.53924" lon="3.51045">
        <ele>94.4</ele>
        <time>2019-01-08T08:40:59Z</time>
      </trkpt>
      <trkpt lat="43.53921" lon="3.51047">
        <ele>94.6</ele>
        <time>2019-01-08T08:41:02Z</time>
      </trkpt>
      <trkpt lat="43.53919" lon="3.5105">
        <ele>94.8</ele>
        <time>2019-01-08T08:41:04Z</time>
      </trkpt>
      <trkpt lat="43.53915" lon="3.51052">
        <ele>95.2</ele>
        <time>2019-01-08T08:41:07Z</time>
      </trkpt>
      <trkpt lat="43.53912" lon="3.51054">
        <ele>95.4</ele>
        <time>2019-01-08T08:41:09Z</time>
      </trkpt>
      <trkpt lat="43.5391" lon="3.51058">
        <ele>95.6</ele>
        <time>2019-01-08T08:41:12Z</time>
      </trkpt>
      <trkpt lat="43.53907" lon="3.51061">
        <ele>95.8</ele>
        <time>2019-01-08T08:41:15Z</time>
      </trkpt>
      <trkpt lat="43.53904" lon="3.51064">
        <ele>96</ele>
        <time>2019-01-08T08:41:17Z</time>
      </trkpt>
      <trkpt lat="43.53902" lon="3.51066">
        <ele>96.2</ele>
        <time>2019-01-08T08:41:19Z</time>
      </trkpt>
      <trkpt lat="43.53898" lon="3.51069">
        <ele>96.5</ele>
        <time>2019-01-08T08:41:22Z</time>
      </trkpt>
      <trkpt lat="43.53896" lon="3.51072">
        <ele>96.6</ele>
        <time>2019-01-08T08:41:24Z</time>
      </trkpt>
      <trkpt lat="43.53894" lon="3.51074">
        <ele>96.8</ele>
        <time>2019-01-08T08:41:26Z</time>
      </trkpt>
      <trkpt lat="43.53891" lon="3.51077">
        <ele>97</ele>
        <time>2019-01-08T08:41:28Z</time>
      </trkpt>
      <trkpt lat="43.53889" lon="3.5108">
        <ele>97.2</ele>
        <time>2019-01-08T08:41:30Z</time>
      </trkpt>
      <trkpt lat="43.53886" lon="3.51084">
        <ele>97.4</ele>
        <time>2019-01-08T08:41:33Z</time>
      </trkpt>
      <trkpt lat="43.53883" lon="3.51086">
        <ele>97.6</ele>
        <time>2019-01-08T08:41:35Z</time>
      </trkpt>
      <trkpt lat="43.53881" lon="3.51089">
        <ele>97.7</ele>
        <time>2019-01-08T08:41:37Z</time>
      </trkpt>
      <trkpt lat="43.53878" lon="3.51092">
        <ele>97.9</ele>
        <time>2019-01-08T08:41:39Z</time>
      </trkpt>
      <trkpt lat="43.53875" lon="3.51095">
        <ele>98.1</ele>
        <time>2019-01-08T08:41:42Z</time>
      </trkpt>
      <trkpt lat="43.53873" lon="3.51097">
        <ele>98.2</ele>
        <time>2019-01-08T08:41:44Z</time>
      </trkpt>
      <trkpt lat="43.5387" lon="3.51099">
        <ele>98.4</ele>
        <time>2019-01-08T08:41:46Z</time>
      </trkpt>
      <trkpt lat="43.53867" lon="3.51102">
        <ele>98.5</ele>
        <time>2019-01-08T08:41:48Z</time>
      </trkpt>
      <trkpt lat="43.53864" lon="3.51105">
        <ele>98.7</ele>
        <time>2019-01-08T08:41:50Z</time>
      </trkpt>
      <trkpt lat="43.53862" lon="3.51108">
        <ele>98.8</ele>
        <time>2019-01-08T08:41:52Z</time>
      </trkpt>
      <trkpt lat="43.53859" lon="3.51111">
        <ele>99</ele>
        <time>2019-01-08T08:41:55Z</time>
      </trkpt>
      <trkpt lat="43.53857" lon="3.51113">
        <ele>99.1</ele>
        <time>2019-01-08T08:41:57Z</time>
      </trkpt>
      <trkpt lat="43.53854" lon="3.51116">
        <ele>99.2</ele>
        <time>2019-01-08T08:41:59Z</time>
      </trkpt>
      <trkpt lat="43.53852" lon="3.51119">
        <ele>99.3</ele>
        <time>2019-01-08T08:42:01Z</time>
      </trkpt>
      <trkpt lat="43.5385" lon="3.51122">
        <ele>99.5</ele>
        <time>2019-01-08T08:42:04Z</time>
      </trkpt>
      <trkpt lat="43.53847" lon="3.51126">
        <ele>99.6</ele>
        <time>2019-01-08T08:42:07Z</time>
      </trkpt>
      <trkpt lat="43.53845" lon="3.51129">
        <ele>99.8</ele>
        <time>2019-01-08T08:42:09Z</time>
      </trkpt>
      <trkpt lat="43.53843" lon="3.51132">
        <ele>99.9</ele>
        <time>2019-01-08T08:42:11Z</time>
      </trkpt>
      <trkpt lat="43.53841" lon="3.51135">
        <ele>100</ele>
        <time>2019-01-08T08:42:13Z</time>
      </trkpt>
      <trkpt lat="43.53838" lon="3.51139">
        <ele>100.1</ele>
        <time>2019-01-08T08:42:16Z</time>
      </trkpt>
      <trkpt lat="43.53835" lon="3.51142">
        <ele>100.3</ele>
        <time>2019-01-08T08:42:18Z</time>
      </trkpt>
      <trkpt lat="43.53832" lon="3.51145">
        <ele>100.4</ele>
        <time>2019-01-08T08:42:20Z</time>
      </trkpt>
      <trkpt lat="43.53829" lon="3.51147">
        <ele>100.5</ele>
        <time>2019-01-08T08:42:22Z</time>
      </trkpt>
      <trkpt lat="43.53827" lon="3.5115">
        <ele>100.6</ele>
        <time>2019-01-08T08:42:24Z</time>
      </trkpt>
      <trkpt lat="43.53823" lon="3.51152">
        <ele>100.8</ele>
        <time>2019-01-08T08:42:27Z</time>
      </trkpt>
      <trkpt lat="43.5382" lon="3.51154">
        <ele>100.9</ele>
        <time>2019-01-08T08:42:29Z</time>
      </trkpt>
      <trkpt lat="43.53817" lon="3.51157">
        <ele>101</ele>
        <time>2019-01-08T08:42:31Z</time>
      </trkpt>
      <trkpt lat="43.53815" lon="3.5116">
        <ele>101.1</ele>
        <time>2019-01-08T08:42:33Z</time>
      </trkpt>
      <trkpt lat="43.53812" lon="3.51162">
        <ele>101.2</ele>
        <time>2019-01-08T08:42:35Z</time>
      </trkpt>
      <trkpt lat="43.53809" lon="3.51164">
        <ele>101.2</ele>
        <time>2019-01-08T08:42:37Z</time>
      </trkpt>
      <trkpt lat="43.53807" lon="3.51167">
        <ele>101.3</ele>
        <time>2019-01-08T08:42:39Z</time>
      </trkpt>
      <trkpt lat="43.53804" lon="3.5117">
        <ele>101.4</ele>
        <time>2019-01-08T08:42:42Z</time>
      </trkpt>
      <trkpt lat="43.53801" lon="3.51173">
        <ele>101.4</ele>
        <time>2019-01-08T08:42:45Z</time>
      </trkpt>
      <trkpt lat="43.53798" lon="3.51177">
        <ele>101.5</ele>
        <time>2019-01-08T08:42:48Z</time>
      </trkpt>
      <trkpt lat="43.53796" lon="3.5118">
        <ele>101.6</ele>
        <time>2019-01-08T08:42:50Z</time>
      </trkpt>
      <trkpt lat="43.53794" lon="3.51182">
        <ele>101.6</ele>
        <time>2019-01-08T08:42:52Z</time>
      </trkpt>
      <trkpt lat="43.53792" lon="3.51185">
        <ele>101.7</ele>
        <time>2019-01-08T08:42:54Z</time>
      </trkpt>
      <trkpt lat="43.5379" lon="3.51187">
        <ele>101.7</ele>
        <time>2019-01-08T08:42:56Z</time>
      </trkpt>
      <trkpt lat="43.53787" lon="3.5119">
        <ele>101.8</ele>
        <time>2019-01-08T08:42:58Z</time>
      </trkpt>
      <trkpt lat="43.53785" lon="3.51193">
        <ele>101.9</ele>
        <time>2019-01-08T08:43:00Z</time>
      </trkpt>
      <trkpt lat="43.53783" lon="3.51196">
        <ele>101.9</ele>
        <time>2019-01-08T08:43:02Z</time>
      </trkpt>
      <trkpt lat="43.5378" lon="3.51198">
        <ele>102</ele>
        <time>2019-01-08T08:43:04Z</time>
      </trkpt>
      <trkpt lat="43.53778" lon="3.512">
        <ele>102</ele>
        <time>2019-01-08T08:43:06Z</time>
      </trkpt>
      <trkpt lat="43.53776" lon="3.51202">
        <ele>102.1</ele>
        <time>2019-01-08T08:43:08Z</time>
      </trkpt>
      <trkpt lat="43.53773" lon="3.51205">
        <ele>102.1</ele>
        <time>2019-01-08T08:43:10Z</time>
      </trkpt>
      <trkpt lat="43.53771" lon="3.51206">
        <ele>102.2</ele>
        <time>2019-01-08T08:43:12Z</time>
      </trkpt>
      <trkpt lat="43.53769" lon="3.51209">
        <ele>102.2</ele>
        <time>2019-01-08T08:43:14Z</time>
      </trkpt>
      <trkpt lat="43.53765" lon="3.51212">
        <ele>102.3</ele>
        <time>2019-01-08T08:43:17Z</time>
      </trkpt>
      <trkpt lat="43.53763" lon="3.51214">
        <ele>102.3</ele>
        <time>2019-01-08T08:43:19Z</time>
      </trkpt>
      <trkpt lat="43.5376" lon="3.51216">
        <ele>102.4</ele>
        <time>2019-01-08T08:43:21Z</time>
      </trkpt>
      <trkpt lat="43.53758" lon="3.51218">
        <ele>102.5</ele>
        <time>2019-01-08T08:43:23Z</time>
      </trkpt>
      <trkpt lat="43.53755" lon="3.5122">
        <ele>102.5</ele>
        <time>2019-01-08T08:43:26Z</time>
      </trkpt>
      <trkpt lat="43.53751" lon="3.51222">
        <ele>102.6</ele>
        <time>2019-01-08T08:43:29Z</time>
      </trkpt>
      <trkpt lat="43.53748" lon="3.51224">
        <ele>102.6</ele>
        <time>2019-01-08T08:43:31Z</time>
      </trkpt>
      <trkpt lat="43.53746" lon="3.51227">
        <ele>102.7</ele>
        <time>2019-01-08T08:43:33Z</time>
      </trkpt>
      <trkpt lat="43.53743" lon="3.51229">
        <ele>102.7</ele>
        <time>2019-01-08T08:43:35Z</time>
      </trkpt>
      <trkpt lat="43.5374" lon="3.51231">
        <ele>102.8</ele>
        <time>2019-01-08T08:43:37Z</time>
      </trkpt>
      <trkpt lat="43.53737" lon="3.51233">
        <ele>102.8</ele>
        <time>2019-01-08T08:43:39Z</time>
      </trkpt>
      <trkpt lat="43.53735" lon="3.51234">
        <ele>102.9</ele>
        <time>2019-01-08T08:43:41Z</time>
      </trkpt>
      <trkpt lat="43.53732" lon="3.51237">
        <ele>102.9</ele>
        <time>2019-01-08T08:43:43Z</time>
      </trkpt>
      <trkpt lat="43.53729" lon="3.51239">
        <ele>103</ele>
        <time>2019-01-08T08:43:45Z</time>
      </trkpt>
      <trkpt lat="43.53726" lon="3.51241">
        <ele>103</ele>
        <time>2019-01-08T08:43:47Z</time>
      </trkpt>
      <trkpt lat="43.53724" lon="3.51244">
        <ele>103.1</ele>
        <time>2019-01-08T08:43:50Z</time>
      </trkpt>
      <trkpt lat="43.5372" lon="3.51247">
        <ele>103.2</ele>
        <time>2019-01-08T08:43:53Z</time>
      </trkpt>
      <trkpt lat="43.53717" lon="3.51248">
        <ele>103.2</ele>
        <time>2019-01-08T08:43:55Z</time>
      </trkpt>
      <trkpt lat="43.53714" lon="3.51251">
        <ele>103.3</ele>
        <time>2019-01-08T08:43:58Z</time>
      </trkpt>
      <trkpt lat="43.53711" lon="3.51254">
        <ele>103.3</ele>
        <time>2019-01-08T08:44:01Z</time>
      </trkpt>
      <trkpt lat="43.53709" lon="3.51255">
        <ele>103.3</ele>
        <time>2019-01-08T08:44:03Z</time>
      </trkpt>
      <trkpt lat="43.53706" lon="3.51256">
        <ele>103.4</ele>
        <time>2019-01-08T08:44:05Z</time>
      </trkpt>
      <trkpt lat="43.53704" lon="3.51258">
        <ele>103.4</ele>
        <time>2019-01-08T08:44:07Z</time>
      </trkpt>
      <trkpt lat="43.53701" lon="3.51261">
        <ele>103.5</ele>
        <time>2019-01-08T08:44:10Z</time>
      </trkpt>
      <trkpt lat="43.53699" lon="3.51265">
        <ele>103.5</ele>
        <time>2019-01-08T08:44:13Z</time>
      </trkpt>
      <trkpt lat="43.53701" lon="3.51269">
        <ele>103.5</ele>
        <time>2019-01-08T08:44:15Z</time>
      </trkpt>
      <trkpt lat="43.53703" lon="3.51272">
        <ele>103.5</ele>
        <time>2019-01-08T08:44:17Z</time>
      </trkpt>
      <trkpt lat="43.53705" lon="3.51275">
        <ele>103.5</ele>
        <time>2019-01-08T08:44:19Z</time>
      </trkpt>
      <trkpt lat="43.53708" lon="3.51277">
        <ele>103.5</ele>
        <time>2019-01-08T08:44:21Z</time>
      </trkpt>
      <trkpt lat="43.53711" lon="3.51279">
        <ele>103.5</ele>
        <time>2019-01-08T08:44:25Z</time>
      </trkpt>
      <trkpt lat="43.53714" lon="3.51282">
        <ele>103.5</ele>
        <time>2019-01-08T08:44:28Z</time>
      </trkpt>
      <trkpt lat="43.53717" lon="3.51284">
        <ele>103.5</ele>
        <time>2019-01-08T08:44:30Z</time>
      </trkpt>
      <trkpt lat="43.53719" lon="3.51286">
        <ele>103.5</ele>
        <time>2019-01-08T08:44:32Z</time>
      </trkpt>
      <trkpt lat="43.53722" lon="3.51288">
        <ele>103.5</ele>
        <time>2019-01-08T08:44:34Z</time>
      </trkpt>
      <trkpt lat="43.53726" lon="3.51289">
        <ele>103.6</ele>
        <time>2019-01-08T08:44:37Z</time>
      </trkpt>
      <trkpt lat="43.53728" lon="3.51291">
        <ele>103.7</ele>
        <time>2019-01-08T08:44:39Z</time>
      </trkpt>
      <trkpt lat="43.53731" lon="3.51293">
        <ele>103.7</ele>
        <time>2019-01-08T08:44:41Z</time>
      </trkpt>
      <trkpt lat="43.53734" lon="3.51295">
        <ele>103.8</ele>
        <time>2019-01-08T08:44:44Z</time>
      </trkpt>
      <trkpt lat="43.53737" lon="3.51296">
        <ele>103.9</ele>
        <time>2019-01-08T08:44:46Z</time>
      </trkpt>
      <trkpt lat="43.5374" lon="3.51297">
        <ele>104</ele>
        <time>2019-01-08T08:44:48Z</time>
      </trkpt>
      <trkpt lat="43.53743" lon="3.51298">
        <ele>104.1</ele>
        <time>2019-01-08T08:44:50Z</time>
      </trkpt>
      <trkpt lat="43.53747" lon="3.51299">
        <ele>104.2</ele>
        <time>2019-01-08T08:44:53Z</time>
      </trkpt>
      <trkpt lat="43.5375" lon="3.513">
        <ele>104.4</ele>
        <time>2019-01-08T08:44:56Z</time>
      </trkpt>
      <trkpt lat="43.53754" lon="3.51301">
        <ele>104.7</ele>
        <time>2019-01-08T08:44:59Z</time>
      </trkpt>
      <trkpt lat="43.53757" lon="3.51303">
        <ele>104.8</ele>
        <time>2019-01-08T08:45:02Z</time>
      </trkpt>
      <trkpt lat="43.53761" lon="3.51304">
        <ele>104.9</ele>
        <time>2019-01-08T08:45:05Z</time>
      </trkpt>
      <trkpt lat="43.53763" lon="3.51305">
        <ele>105.1</ele>
        <time>2019-01-08T08:45:07Z</time>
      </trkpt>
      <trkpt lat="43.53766" lon="3.51306">
        <ele>105</ele>
        <time>2019-01-08T08:45:09Z</time>
      </trkpt>
      <trkpt lat="43.5377" lon="3.51307">
        <ele>105.3</ele>
        <time>2019-01-08T08:45:12Z</time>
      </trkpt>
      <trkpt lat="43.53773" lon="3.51307">
        <ele>105.5</ele>
        <time>2019-01-08T08:45:14Z</time>
      </trkpt>
      <trkpt lat="43.53776" lon="3.51309">
        <ele>105.7</ele>
        <time>2019-01-08T08:45:16Z</time>
      </trkpt>
      <trkpt lat="43.53779" lon="3.5131">
        <ele>105.8</ele>
        <time>2019-01-08T08:45:18Z</time>
      </trkpt>
      <trkpt lat="43.53782" lon="3.51311">
        <ele>105.8</ele>
        <time>2019-01-08T08:45:20Z</time>
      </trkpt>
      <trkpt lat="43.53785" lon="3.51312">
        <ele>105.9</ele>
        <time>2019-01-08T08:45:22Z</time>
      </trkpt>
      <trkpt lat="43.53788" lon="3.51312">
        <ele>106.1</ele>
        <time>2019-01-08T08:45:24Z</time>
      </trkpt>
      <trkpt lat="43.53791" lon="3.51315">
        <ele>106.2</ele>
        <time>2019-01-08T08:45:27Z</time>
      </trkpt>
      <trkpt lat="43.53794" lon="3.51317">
        <ele>106.3</ele>
        <time>2019-01-08T08:45:30Z</time>
      </trkpt>
      <trkpt lat="43.53798" lon="3.51319">
        <ele>106.6</ele>
        <time>2019-01-08T08:45:33Z</time>
      </trkpt>
      <trkpt lat="43.53801" lon="3.5132">
        <ele>106.8</ele>
        <time>2019-01-08T08:45:36Z</time>
      </trkpt>
      <trkpt lat="43.53804" lon="3.51322">
        <ele>107</ele>
        <time>2019-01-08T08:45:38Z</time>
      </trkpt>
      <trkpt lat="43.53807" lon="3.51323">
        <ele>107.1</ele>
        <time>2019-01-08T08:45:40Z</time>
      </trkpt>
      <trkpt lat="43.5381" lon="3.51324">
        <ele>107.1</ele>
        <time>2019-01-08T08:45:42Z</time>
      </trkpt>
      <trkpt lat="43.53812" lon="3.51325">
        <ele>107.3</ele>
        <time>2019-01-08T08:45:44Z</time>
      </trkpt>
      <trkpt lat="43.53815" lon="3.51325">
        <ele>107.5</ele>
        <time>2019-01-08T08:45:46Z</time>
      </trkpt>
      <trkpt lat="43.53818" lon="3.51326">
        <ele>107.7</ele>
        <time>2019-01-08T08:45:48Z</time>
      </trkpt>
      <trkpt lat="43.53821" lon="3.51327">
        <ele>107.8</ele>
        <time>2019-01-08T08:45:50Z</time>
      </trkpt>
      <trkpt lat="43.53824" lon="3.51327">
        <ele>107.9</ele>
        <time>2019-01-08T08:45:52Z</time>
      </trkpt>
      <trkpt lat="43.53827" lon="3.51329">
        <ele>108.1</ele>
        <time>2019-01-08T08:45:55Z</time>
      </trkpt>
      <trkpt lat="43.5383" lon="3.5133">
        <ele>108.2</ele>
        <time>2019-01-08T08:45:57Z</time>
      </trkpt>
      <trkpt lat="43.53834" lon="3.51331">
        <ele>108.3</ele>
        <time>2019-01-08T08:46:00Z</time>
      </trkpt>
      <trkpt lat="43.53837" lon="3.51333">
        <ele>108.4</ele>
        <time>2019-01-08T08:46:03Z</time>
      </trkpt>
      <trkpt lat="43.5384" lon="3.51333">
        <ele>108.5</ele>
        <time>2019-01-08T08:46:06Z</time>
      </trkpt>
      <trkpt lat="43.53844" lon="3.51334">
        <ele>108.6</ele>
        <time>2019-01-08T08:46:09Z</time>
      </trkpt>
      <trkpt lat="43.53846" lon="3.51335">
        <ele>108.7</ele>
        <time>2019-01-08T08:46:11Z</time>
      </trkpt>
      <trkpt lat="43.53849" lon="3.51336">
        <ele>108.7</ele>
        <time>2019-01-08T08:46:13Z</time>
      </trkpt>
      <trkpt lat="43.53852" lon="3.51337">
        <ele>108.7</ele>
        <time>2019-01-08T08:46:15Z</time>
      </trkpt>
      <trkpt lat="43.53854" lon="3.51338">
        <ele>108.8</ele>
        <time>2019-01-08T08:46:18Z</time>
      </trkpt>
      <trkpt lat="43.53857" lon="3.51341">
        <ele>108.6</ele>
        <time>2019-01-08T08:46:21Z</time>
      </trkpt>
      <trkpt lat="43.5386" lon="3.51343">
        <ele>108.6</ele>
        <time>2019-01-08T08:46:24Z</time>
      </trkpt>
      <trkpt lat="43.53864" lon="3.51344">
        <ele>108.4</ele>
        <time>2019-01-08T08:46:27Z</time>
      </trkpt>
      <trkpt lat="43.53868" lon="3.51345">
        <ele>108.4</ele>
        <time>2019-01-08T08:46:29Z</time>
      </trkpt>
      <trkpt lat="43.53871" lon="3.51347">
        <ele>108.4</ele>
        <time>2019-01-08T08:46:31Z</time>
      </trkpt>
      <trkpt lat="43.53873" lon="3.51349">
        <ele>108.1</ele>
        <time>2019-01-08T08:46:33Z</time>
      </trkpt>
      <trkpt lat="43.53876" lon="3.5135">
        <ele>108.1</ele>
        <time>2019-01-08T08:46:35Z</time>
      </trkpt>
      <trkpt lat="43.53879" lon="3.51352">
        <ele>108</ele>
        <time>2019-01-08T08:46:38Z</time>
      </trkpt>
      <trkpt lat="43.53883" lon="3.51352">
        <ele>107.9</ele>
        <time>2019-01-08T08:46:41Z</time>
      </trkpt>
      <trkpt lat="43.53886" lon="3.51352">
        <ele>107.6</ele>
        <time>2019-01-08T08:46:44Z</time>
      </trkpt>
      <trkpt lat="43.53889" lon="3.51353">
        <ele>107.5</ele>
        <time>2019-01-08T08:46:47Z</time>
      </trkpt>
      <trkpt lat="43.53892" lon="3.51355">
        <ele>107.4</ele>
        <time>2019-01-08T08:46:50Z</time>
      </trkpt>
      <trkpt lat="43.53896" lon="3.51355">
        <ele>107.2</ele>
        <time>2019-01-08T08:46:53Z</time>
      </trkpt>
      <trkpt lat="43.53899" lon="3.51354">
        <ele>107.1</ele>
        <time>2019-01-08T08:46:56Z</time>
      </trkpt>
      <trkpt lat="43.53902" lon="3.51354">
        <ele>106.9</ele>
        <time>2019-01-08T08:46:59Z</time>
      </trkpt>
      <trkpt lat="43.53905" lon="3.51353">
        <ele>106.7</ele>
        <time>2019-01-08T08:47:02Z</time>
      </trkpt>
      <trkpt lat="43.53909" lon="3.51351">
        <ele>106.7</ele>
        <time>2019-01-08T08:47:05Z</time>
      </trkpt>
      <trkpt lat="43.53912" lon="3.51349">
        <ele>106.4</ele>
        <time>2019-01-08T08:47:08Z</time>
      </trkpt>
      <trkpt lat="43.53915" lon="3.51346">
        <ele>106.4</ele>
        <time>2019-01-08T08:47:11Z</time>
      </trkpt>
      <trkpt lat="43.53918" lon="3.51343">
        <ele>106.3</ele>
        <time>2019-01-08T08:47:14Z</time>
      </trkpt>
      <trkpt lat="43.53921" lon="3.51342">
        <ele>106</ele>
        <time>2019-01-08T08:47:16Z</time>
      </trkpt>
      <trkpt lat="43.53923" lon="3.5134">
        <ele>105.7</ele>
        <time>2019-01-08T08:47:18Z</time>
      </trkpt>
      <trkpt lat="43.53926" lon="3.51337">
        <ele>105.7</ele>
        <time>2019-01-08T08:47:20Z</time>
      </trkpt>
      <trkpt lat="43.53928" lon="3.51334">
        <ele>105.6</ele>
        <time>2019-01-08T08:47:23Z</time>
      </trkpt>
      <trkpt lat="43.53931" lon="3.51332">
        <ele>105.4</ele>
        <time>2019-01-08T08:47:25Z</time>
      </trkpt>
      <trkpt lat="43.53934" lon="3.5133">
        <ele>105.5</ele>
        <time>2019-01-08T08:47:27Z</time>
      </trkpt>
      <trkpt lat="43.53937" lon="3.51328">
        <ele>105.5</ele>
        <time>2019-01-08T08:47:29Z</time>
      </trkpt>
      <trkpt lat="43.5394" lon="3.51327">
        <ele>105.2</ele>
        <time>2019-01-08T08:47:31Z</time>
      </trkpt>
      <trkpt lat="43.53944" lon="3.51325">
        <ele>104.9</ele>
        <time>2019-01-08T08:47:34Z</time>
      </trkpt>
      <trkpt lat="43.53947" lon="3.51323">
        <ele>104.6</ele>
        <time>2019-01-08T08:47:37Z</time>
      </trkpt>
      <trkpt lat="43.5395" lon="3.51321">
        <ele>104.8</ele>
        <time>2019-01-08T08:47:39Z</time>
      </trkpt>
      <trkpt lat="43.53953" lon="3.51319">
        <ele>104.1</ele>
        <time>2019-01-08T08:47:42Z</time>
      </trkpt>
      <trkpt lat="43.53956" lon="3.51317">
        <ele>104</ele>
        <time>2019-01-08T08:47:45Z</time>
      </trkpt>
      <trkpt lat="43.53959" lon="3.51313">
        <ele>104.3</ele>
        <time>2019-01-08T08:47:48Z</time>
      </trkpt>
      <trkpt lat="43.53962" lon="3.5131">
        <ele>103.9</ele>
        <time>2019-01-08T08:47:50Z</time>
      </trkpt>
      <trkpt lat="43.53964" lon="3.51306">
        <ele>103.8</ele>
        <time>2019-01-08T08:47:53Z</time>
      </trkpt>
      <trkpt lat="43.53967" lon="3.51304">
        <ele>103.6</ele>
        <time>2019-01-08T08:47:55Z</time>
      </trkpt>
      <trkpt lat="43.53968" lon="3.513">
        <ele>103.3</ele>
        <time>2019-01-08T08:47:57Z</time>
      </trkpt>
      <trkpt lat="43.5397" lon="3.51297">
        <ele>103.3</ele>
        <time>2019-01-08T08:47:59Z</time>
      </trkpt>
      <trkpt lat="43.53972" lon="3.51294">
        <ele>103</ele>
        <time>2019-01-08T08:48:02Z</time>
      </trkpt>
      <trkpt lat="43.53975" lon="3.5129">
        <ele>102.7</ele>
        <time>2019-01-08T08:48:05Z</time>
      </trkpt>
      <trkpt lat="43.53976" lon="3.51287">
        <ele>103</ele>
        <time>2019-01-08T08:48:07Z</time>
      </trkpt>
      <trkpt lat="43.53978" lon="3.51281">
        <ele>103.3</ele>
        <time>2019-01-08T08:48:10Z</time>
      </trkpt>
      <trkpt lat="43.53979" lon="3.51277">
        <ele>103</ele>
        <time>2019-01-08T08:48:12Z</time>
      </trkpt>
      <trkpt lat="43.53981" lon="3.51272">
        <ele>103.3</ele>
        <time>2019-01-08T08:48:15Z</time>
      </trkpt>
      <trkpt lat="43.53982" lon="3.51269">
        <ele>103.1</ele>
        <time>2019-01-08T08:48:17Z</time>
      </trkpt>
      <trkpt lat="43.53983" lon="3.51265">
        <ele>103.4</ele>
        <time>2019-01-08T08:48:19Z</time>
      </trkpt>
      <trkpt lat="43.53984" lon="3.51261">
        <ele>103.2</ele>
        <time>2019-01-08T08:48:21Z</time>
      </trkpt>
      <trkpt lat="43.53985" lon="3.51257">
        <ele>103.4</ele>
        <time>2019-01-08T08:48:23Z</time>
      </trkpt>
      <trkpt lat="43.53986" lon="3.51253">
        <ele>103.6</ele>
        <time>2019-01-08T08:48:26Z</time>
      </trkpt>
      <trkpt lat="43.53987" lon="3.51249">
        <ele>103.4</ele>
        <time>2019-01-08T08:48:28Z</time>
      </trkpt>
      <trkpt lat="43.53989" lon="3.51246">
        <ele>103.4</ele>
        <time>2019-01-08T08:48:30Z</time>
      </trkpt>
      <trkpt lat="43.5399" lon="3.51242">
        <ele>103.6</ele>
        <time>2019-01-08T08:48:32Z</time>
      </trkpt>
      <trkpt lat="43.53991" lon="3.51238">
        <ele>103.3</ele>
        <time>2019-01-08T08:48:34Z</time>
      </trkpt>
      <trkpt lat="43.53992" lon="3.51234">
        <ele>103.4</ele>
        <time>2019-01-08T08:48:37Z</time>
      </trkpt>
      <trkpt lat="43.53995" lon="3.51231">
        <ele>103</ele>
        <time>2019-01-08T08:48:40Z</time>
      </trkpt>
      <trkpt lat="43.53997" lon="3.51226">
        <ele>102.6</ele>
        <time>2019-01-08T08:48:43Z</time>
      </trkpt>
      <trkpt lat="43.53998" lon="3.51222">
        <ele>102.7</ele>
        <time>2019-01-08T08:48:46Z</time>
      </trkpt>
      <trkpt lat="43.53999" lon="3.51218">
        <ele>102.3</ele>
        <time>2019-01-08T08:48:48Z</time>
      </trkpt>
      <trkpt lat="43.54001" lon="3.51215">
        <ele>102.3</ele>
        <time>2019-01-08T08:48:50Z</time>
      </trkpt>
      <trkpt lat="43.54002" lon="3.51211">
        <ele>102.3</ele>
        <time>2019-01-08T08:48:52Z</time>
      </trkpt>
      <trkpt lat="43.54004" lon="3.51207">
        <ele>101.8</ele>
        <time>2019-01-08T08:48:55Z</time>
      </trkpt>
      <trkpt lat="43.54006" lon="3.51202">
        <ele>101.3</ele>
        <time>2019-01-08T08:48:58Z</time>
      </trkpt>
      <trkpt lat="43.54007" lon="3.51198">
        <ele>101.3</ele>
        <time>2019-01-08T08:49:00Z</time>
      </trkpt>
      <trkpt lat="43.54009" lon="3.51195">
        <ele>100.8</ele>
        <time>2019-01-08T08:49:02Z</time>
      </trkpt>
      <trkpt lat="43.54011" lon="3.51192">
        <ele>100.7</ele>
        <time>2019-01-08T08:49:04Z</time>
      </trkpt>
      <trkpt lat="43.54014" lon="3.51189">
        <ele>100.1</ele>
        <time>2019-01-08T08:49:06Z</time>
      </trkpt>
      <trkpt lat="43.54016" lon="3.51185">
        <ele>99.6</ele>
        <time>2019-01-08T08:49:08Z</time>
      </trkpt>
      <trkpt lat="43.54017" lon="3.5118">
        <ele>99.4</ele>
        <time>2019-01-08T08:49:11Z</time>
      </trkpt>
      <trkpt lat="43.54017" lon="3.51176">
        <ele>99.3</ele>
        <time>2019-01-08T08:49:13Z</time>
      </trkpt>
      <trkpt lat="43.54018" lon="3.51171">
        <ele>99.2</ele>
        <time>2019-01-08T08:49:16Z</time>
      </trkpt>
      <trkpt lat="43.54018" lon="3.51167">
        <ele>99</ele>
        <time>2019-01-08T08:49:19Z</time>
      </trkpt>
      <trkpt lat="43.54018" lon="3.51163">
        <ele>98.4</ele>
        <time>2019-01-08T08:49:22Z</time>
      </trkpt>
      <trkpt lat="43.5402" lon="3.5116">
        <ele>98.4</ele>
        <time>2019-01-08T08:49:25Z</time>
      </trkpt>
      <trkpt lat="43.54023" lon="3.51158">
        <ele>97.7</ele>
        <time>2019-01-08T08:49:29Z</time>
      </trkpt>
      <trkpt lat="43.54026" lon="3.51155">
        <ele>97</ele>
        <time>2019-01-08T08:49:32Z</time>
      </trkpt>
      <trkpt lat="43.54029" lon="3.51151">
        <ele>96.4</ele>
        <time>2019-01-08T08:49:35Z</time>
      </trkpt>
      <trkpt lat="43.5403" lon="3.51147">
        <ele>96.3</ele>
        <time>2019-01-08T08:49:38Z</time>
      </trkpt>
      <trkpt lat="43.5403" lon="3.51141">
        <ele>96</ele>
        <time>2019-01-08T08:49:41Z</time>
      </trkpt>
      <trkpt lat="43.5403" lon="3.51137">
        <ele>95.8</ele>
        <time>2019-01-08T08:49:43Z</time>
      </trkpt>
      <trkpt lat="43.54031" lon="3.51132">
        <ele>95.1</ele>
        <time>2019-01-08T08:49:46Z</time>
      </trkpt>
      <trkpt lat="43.54032" lon="3.51128">
        <ele>94.9</ele>
        <time>2019-01-08T08:49:49Z</time>
      </trkpt>
      <trkpt lat="43.54033" lon="3.51123">
        <ele>94.7</ele>
        <time>2019-01-08T08:49:52Z</time>
      </trkpt>
      <trkpt lat="43.54035" lon="3.51118">
        <ele>93.9</ele>
        <time>2019-01-08T08:49:55Z</time>
      </trkpt>
      <trkpt lat="43.54037" lon="3.51114">
        <ele>93.7</ele>
        <time>2019-01-08T08:49:58Z</time>
      </trkpt>
      <trkpt lat="43.54037" lon="3.51109">
        <ele>93</ele>
        <time>2019-01-08T08:50:01Z</time>
      </trkpt>
      <trkpt lat="43.54037" lon="3.51103">
        <ele>92.6</ele>
        <time>2019-01-08T08:50:04Z</time>
      </trkpt>
      <trkpt lat="43.54037" lon="3.51099">
        <ele>92.8</ele>
        <time>2019-01-08T08:50:06Z</time>
      </trkpt>
      <trkpt lat="43.54036" lon="3.51095">
        <ele>92.8</ele>
        <time>2019-01-08T08:50:08Z</time>
      </trkpt>
      <trkpt lat="43.54035" lon="3.5109">
        <ele>92.2</ele>
        <time>2019-01-08T08:50:11Z</time>
      </trkpt>
      <trkpt lat="43.54033" lon="3.51086">
        <ele>92.7</ele>
        <time>2019-01-08T08:50:14Z</time>
      </trkpt>
      <trkpt lat="43.54031" lon="3.51083">
        <ele>92.4</ele>
        <time>2019-01-08T08:50:17Z</time>
      </trkpt>
      <trkpt lat="43.54032" lon="3.51079">
        <ele>92.1</ele>
        <time>2019-01-08T08:50:20Z</time>
      </trkpt>
      <trkpt lat="43.54034" lon="3.51082">
        <ele>91.9</ele>
        <time>2019-01-08T08:50:35Z</time>
      </trkpt>
      <trkpt lat="43.54037" lon="3.5108">
        <ele>91.6</ele>
        <time>2019-01-08T08:50:48Z</time>
      </trkpt>
      <trkpt lat="43.5404" lon="3.5108">
        <ele>91.1</ele>
        <time>2019-01-08T08:50:52Z</time>
      </trkpt>
      <trkpt lat="43.54043" lon="3.5108">
        <ele>90.2</ele>
        <time>2019-01-08T08:50:56Z</time>
      </trkpt>
      <trkpt lat="43.5404" lon="3.51081">
        <ele>90.7</ele>
        <time>2019-01-08T08:51:37Z</time>
      </trkpt>
      <trkpt lat="43.54041" lon="3.51085">
        <ele>91</ele>
        <time>2019-01-08T08:51:39Z</time>
      </trkpt>
      <trkpt lat="43.54043" lon="3.51089">
        <ele>90.8</ele>
        <time>2019-01-08T08:51:42Z</time>
      </trkpt>
      <trkpt lat="43.54044" lon="3.51093">
        <ele>91.1</ele>
        <time>2019-01-08T08:51:45Z</time>
      </trkpt>
      <trkpt lat="43.54044" lon="3.51097">
        <ele>91.4</ele>
        <time>2019-01-08T08:51:48Z</time>
      </trkpt>
      <trkpt lat="43.54043" lon="3.51102">
        <ele>91.6</ele>
        <time>2019-01-08T08:51:51Z</time>
      </trkpt>
      <trkpt lat="43.54041" lon="3.51106">
        <ele>92.3</ele>
        <time>2019-01-08T08:51:54Z</time>
      </trkpt>
      <trkpt lat="43.54039" lon="3.5111">
        <ele>93</ele>
        <time>2019-01-08T08:51:57Z</time>
      </trkpt>
      <trkpt lat="43.54037" lon="3.51114">
        <ele>93.2</ele>
        <time>2019-01-08T08:52:00Z</time>
      </trkpt>
      <trkpt lat="43.54035" lon="3.51117">
        <ele>93.9</ele>
        <time>2019-01-08T08:52:02Z</time>
      </trkpt>
      <trkpt lat="43.54034" lon="3.51121">
        <ele>94.1</ele>
        <time>2019-01-08T08:52:04Z</time>
      </trkpt>
      <trkpt lat="43.54033" lon="3.51125">
        <ele>94.8</ele>
        <time>2019-01-08T08:52:06Z</time>
      </trkpt>
      <trkpt lat="43.54033" lon="3.5113">
        <ele>95</ele>
        <time>2019-01-08T08:52:08Z</time>
      </trkpt>
      <trkpt lat="43.54033" lon="3.51134">
        <ele>95.2</ele>
        <time>2019-01-08T08:52:10Z</time>
      </trkpt>
      <trkpt lat="43.54033" lon="3.51139">
        <ele>95.3</ele>
        <time>2019-01-08T08:52:13Z</time>
      </trkpt>
      <trkpt lat="43.54031" lon="3.51144">
        <ele>95.5</ele>
        <time>2019-01-08T08:52:16Z</time>
      </trkpt>
      <trkpt lat="43.54029" lon="3.51149">
        <ele>96.2</ele>
        <time>2019-01-08T08:52:19Z</time>
      </trkpt>
      <trkpt lat="43.54027" lon="3.5115">
        <ele>96.7</ele>
        <time>2019-01-08T08:52:21Z</time>
      </trkpt>
      <trkpt lat="43.54024" lon="3.51152">
        <ele>96.9</ele>
        <time>2019-01-08T08:52:24Z</time>
      </trkpt>
      <trkpt lat="43.54022" lon="3.51156">
        <ele>97.6</ele>
        <time>2019-01-08T08:52:27Z</time>
      </trkpt>
      <trkpt lat="43.54023" lon="3.51161">
        <ele>97.7</ele>
        <time>2019-01-08T08:52:30Z</time>
      </trkpt>
      <trkpt lat="43.54023" lon="3.51165">
        <ele>97.8</ele>
        <time>2019-01-08T08:52:32Z</time>
      </trkpt>
      <trkpt lat="43.54024" lon="3.51169">
        <ele>97.9</ele>
        <time>2019-01-08T08:52:34Z</time>
      </trkpt>
      <trkpt lat="43.54023" lon="3.51174">
        <ele>98</ele>
        <time>2019-01-08T08:52:36Z</time>
      </trkpt>
      <trkpt lat="43.54022" lon="3.51178">
        <ele>98.1</ele>
        <time>2019-01-08T08:52:38Z</time>
      </trkpt>
      <trkpt lat="43.54021" lon="3.51181">
        <ele>98.8</ele>
        <time>2019-01-08T08:52:40Z</time>
      </trkpt>
      <trkpt lat="43.54019" lon="3.51183">
        <ele>98.8</ele>
        <time>2019-01-08T08:52:42Z</time>
      </trkpt>
      <trkpt lat="43.54017" lon="3.51186">
        <ele>99.4</ele>
        <time>2019-01-08T08:52:44Z</time>
      </trkpt>
      <trkpt lat="43.54015" lon="3.51188">
        <ele>100</ele>
        <time>2019-01-08T08:52:46Z</time>
      </trkpt>
      <trkpt lat="43.54012" lon="3.51192">
        <ele>100</ele>
        <time>2019-01-08T08:52:49Z</time>
      </trkpt>
      <trkpt lat="43.5401" lon="3.51196">
        <ele>100.6</ele>
        <time>2019-01-08T08:52:52Z</time>
      </trkpt>
      <trkpt lat="43.54008" lon="3.512">
        <ele>101.1</ele>
        <time>2019-01-08T08:52:55Z</time>
      </trkpt>
      <trkpt lat="43.54006" lon="3.51205">
        <ele>101.2</ele>
        <time>2019-01-08T08:52:58Z</time>
      </trkpt>
      <trkpt lat="43.54005" lon="3.51209">
        <ele>101.7</ele>
        <time>2019-01-08T08:53:01Z</time>
      </trkpt>
      <trkpt lat="43.54004" lon="3.51213">
        <ele>101.6</ele>
        <time>2019-01-08T08:53:03Z</time>
      </trkpt>
      <trkpt lat="43.54004" lon="3.51218">
        <ele>101.6</ele>
        <time>2019-01-08T08:53:06Z</time>
      </trkpt>
      <trkpt lat="43.54006" lon="3.51219">
        <ele>101</ele>
        <time>2019-01-08T08:53:10Z</time>
      </trkpt>
      <trkpt lat="43.54006" lon="3.51223">
        <ele>101</ele>
        <time>2019-01-08T08:53:17Z</time>
      </trkpt>
      <trkpt lat="43.54005" lon="3.51227">
        <ele>101.4</ele>
        <time>2019-01-08T08:53:20Z</time>
      </trkpt>
      <trkpt lat="43.54003" lon="3.51224">
        <ele>101.4</ele>
        <time>2019-01-08T08:54:14Z</time>
      </trkpt>
      <trkpt lat="43.54" lon="3.51226">
        <ele>101.9</ele>
        <time>2019-01-08T08:54:17Z</time>
      </trkpt>
      <trkpt lat="43.53998" lon="3.5123">
        <ele>102.3</ele>
        <time>2019-01-08T08:54:20Z</time>
      </trkpt>
      <trkpt lat="43.53997" lon="3.51234">
        <ele>102.2</ele>
        <time>2019-01-08T08:54:24Z</time>
      </trkpt>
      <trkpt lat="43.53996" lon="3.51238">
        <ele>102.6</ele>
        <time>2019-01-08T08:54:27Z</time>
      </trkpt>
      <trkpt lat="43.53994" lon="3.51243">
        <ele>102.4</ele>
        <time>2019-01-08T08:54:30Z</time>
      </trkpt>
      <trkpt lat="43.53992" lon="3.51247">
        <ele>102.7</ele>
        <time>2019-01-08T08:54:33Z</time>
      </trkpt>
      <trkpt lat="43.53992" lon="3.51252">
        <ele>102.5</ele>
        <time>2019-01-08T08:54:36Z</time>
      </trkpt>
      <trkpt lat="43.5399" lon="3.51256">
        <ele>102.3</ele>
        <time>2019-01-08T08:54:39Z</time>
      </trkpt>
      <trkpt lat="43.53989" lon="3.5126">
        <ele>102.5</ele>
        <time>2019-01-08T08:54:42Z</time>
      </trkpt>
      <trkpt lat="43.53988" lon="3.51263">
        <ele>102.2</ele>
        <time>2019-01-08T08:54:45Z</time>
      </trkpt>
      <trkpt lat="43.53986" lon="3.51267">
        <ele>102.4</ele>
        <time>2019-01-08T08:54:48Z</time>
      </trkpt>
      <trkpt lat="43.53983" lon="3.51271">
        <ele>102.5</ele>
        <time>2019-01-08T08:54:51Z</time>
      </trkpt>
      <trkpt lat="43.53981" lon="3.51275">
        <ele>102.5</ele>
        <time>2019-01-08T08:54:53Z</time>
      </trkpt>
      <trkpt lat="43.53979" lon="3.51279">
        <ele>102.7</ele>
        <time>2019-01-08T08:54:56Z</time>
      </trkpt>
      <trkpt lat="43.53977" lon="3.51282">
        <ele>103</ele>
        <time>2019-01-08T08:54:59Z</time>
      </trkpt>
      <trkpt lat="43.53975" lon="3.51286">
        <ele>102.7</ele>
        <time>2019-01-08T08:55:02Z</time>
      </trkpt>
      <trkpt lat="43.53972" lon="3.51291">
        <ele>103</ele>
        <time>2019-01-08T08:55:05Z</time>
      </trkpt>
      <trkpt lat="43.53971" lon="3.51295">
        <ele>103.3</ele>
        <time>2019-01-08T08:55:07Z</time>
      </trkpt>
      <trkpt lat="43.5397" lon="3.513">
        <ele>103</ele>
        <time>2019-01-08T08:55:09Z</time>
      </trkpt>
      <trkpt lat="43.5397" lon="3.51303">
        <ele>102.7</ele>
        <time>2019-01-08T08:55:12Z</time>
      </trkpt>
      <trkpt lat="43.53967" lon="3.51307">
        <ele>103</ele>
        <time>2019-01-08T08:55:18Z</time>
      </trkpt>
      <trkpt lat="43.53964" lon="3.51309">
        <ele>103.2</ele>
        <time>2019-01-08T08:55:20Z</time>
      </trkpt>
      <trkpt lat="43.53961" lon="3.51311">
        <ele>103.6</ele>
        <time>2019-01-08T08:55:22Z</time>
      </trkpt>
      <trkpt lat="43.53957" lon="3.51313">
        <ele>104</ele>
        <time>2019-01-08T08:55:25Z</time>
      </trkpt>
      <trkpt lat="43.53954" lon="3.51314">
        <ele>104</ele>
        <time>2019-01-08T08:55:27Z</time>
      </trkpt>
      <trkpt lat="43.53952" lon="3.51316">
        <ele>104.4</ele>
        <time>2019-01-08T08:55:29Z</time>
      </trkpt>
      <trkpt lat="43.53949" lon="3.51317">
        <ele>104.7</ele>
        <time>2019-01-08T08:55:31Z</time>
      </trkpt>
      <trkpt lat="43.53946" lon="3.51318">
        <ele>104.8</ele>
        <time>2019-01-08T08:55:33Z</time>
      </trkpt>
      <trkpt lat="43.53942" lon="3.51319">
        <ele>105.1</ele>
        <time>2019-01-08T08:55:36Z</time>
      </trkpt>
      <trkpt lat="43.53939" lon="3.5132">
        <ele>105.3</ele>
        <time>2019-01-08T08:55:39Z</time>
      </trkpt>
      <trkpt lat="43.53937" lon="3.51323">
        <ele>105.3</ele>
        <time>2019-01-08T08:55:42Z</time>
      </trkpt>
      <trkpt lat="43.53934" lon="3.51325">
        <ele>105.3</ele>
        <time>2019-01-08T08:55:44Z</time>
      </trkpt>
      <trkpt lat="43.53932" lon="3.51327">
        <ele>105.3</ele>
        <time>2019-01-08T08:55:46Z</time>
      </trkpt>
      <trkpt lat="43.53929" lon="3.51328">
        <ele>105.5</ele>
        <time>2019-01-08T08:55:48Z</time>
      </trkpt>
      <trkpt lat="43.53926" lon="3.5133">
        <ele>105.7</ele>
        <time>2019-01-08T08:55:50Z</time>
      </trkpt>
      <trkpt lat="43.53924" lon="3.51332">
        <ele>105.8</ele>
        <time>2019-01-08T08:55:52Z</time>
      </trkpt>
      <trkpt lat="43.53922" lon="3.51334">
        <ele>105.8</ele>
        <time>2019-01-08T08:55:54Z</time>
      </trkpt>
      <trkpt lat="43.53919" lon="3.51337">
        <ele>105.8</ele>
        <time>2019-01-08T08:55:57Z</time>
      </trkpt>
      <trkpt lat="43.53915" lon="3.51337">
        <ele>106.4</ele>
        <time>2019-01-08T08:56:04Z</time>
      </trkpt>
      <trkpt lat="43.53912" lon="3.51338">
        <ele>106.4</ele>
        <time>2019-01-08T08:56:06Z</time>
      </trkpt>
      <trkpt lat="43.5391" lon="3.51339">
        <ele>106.6</ele>
        <time>2019-01-08T08:56:08Z</time>
      </trkpt>
      <trkpt lat="43.53907" lon="3.51341">
        <ele>106.7</ele>
        <time>2019-01-08T08:56:10Z</time>
      </trkpt>
      <trkpt lat="43.53904" lon="3.51343">
        <ele>106.9</ele>
        <time>2019-01-08T08:56:12Z</time>
      </trkpt>
      <trkpt lat="43.53901" lon="3.51344">
        <ele>106.9</ele>
        <time>2019-01-08T08:56:15Z</time>
      </trkpt>
      <trkpt lat="43.53898" lon="3.51344">
        <ele>107.1</ele>
        <time>2019-01-08T08:56:18Z</time>
      </trkpt>
      <trkpt lat="43.53895" lon="3.51342">
        <ele>107.4</ele>
        <time>2019-01-08T08:56:22Z</time>
      </trkpt>
      <trkpt lat="43.53892" lon="3.51341">
        <ele>107.6</ele>
        <time>2019-01-08T08:56:25Z</time>
      </trkpt>
      <trkpt lat="43.53888" lon="3.51341">
        <ele>107.7</ele>
        <time>2019-01-08T08:56:28Z</time>
      </trkpt>
      <trkpt lat="43.53885" lon="3.51342">
        <ele>107.8</ele>
        <time>2019-01-08T08:56:32Z</time>
      </trkpt>
      <trkpt lat="43.53882" lon="3.51342">
        <ele>107.9</ele>
        <time>2019-01-08T08:56:35Z</time>
      </trkpt>
      <trkpt lat="43.53878" lon="3.5134">
        <ele>108</ele>
        <time>2019-01-08T08:56:38Z</time>
      </trkpt>
      <trkpt lat="43.53875" lon="3.5134">
        <ele>108</ele>
        <time>2019-01-08T08:56:40Z</time>
      </trkpt>
      <trkpt lat="43.53872" lon="3.51339">
        <ele>108.3</ele>
        <time>2019-01-08T08:56:42Z</time>
      </trkpt>
      <trkpt lat="43.53869" lon="3.5134">
        <ele>108.1</ele>
        <time>2019-01-08T08:56:45Z</time>
      </trkpt>
      <trkpt lat="43.53867" lon="3.51344">
        <ele>107.9</ele>
        <time>2019-01-08T08:56:48Z</time>
      </trkpt>
      <trkpt lat="43.53864" lon="3.51347">
        <ele>107.9</ele>
        <time>2019-01-08T08:56:54Z</time>
      </trkpt>
      <trkpt lat="43.53862" lon="3.5135">
        <ele>107.7</ele>
        <time>2019-01-08T08:57:01Z</time>
      </trkpt>
      <trkpt lat="43.53861" lon="3.51354">
        <ele>107.5</ele>
        <time>2019-01-08T08:57:03Z</time>
      </trkpt>
      <trkpt lat="43.5386" lon="3.51359">
        <ele>107.3</ele>
        <time>2019-01-08T08:57:06Z</time>
      </trkpt>
      <trkpt lat="43.53857" lon="3.51362">
        <ele>107.1</ele>
        <time>2019-01-08T08:57:09Z</time>
      </trkpt>
      <trkpt lat="43.53855" lon="3.51366">
        <ele>106.9</ele>
        <time>2019-01-08T08:57:12Z</time>
      </trkpt>
      <trkpt lat="43.53855" lon="3.5137">
        <ele>106.7</ele>
        <time>2019-01-08T08:57:15Z</time>
      </trkpt>
      <trkpt lat="43.53853" lon="3.51373">
        <ele>106.7</ele>
        <time>2019-01-08T08:57:18Z</time>
      </trkpt>
      <trkpt lat="43.5385" lon="3.51373">
        <ele>106.6</ele>
        <time>2019-01-08T08:57:20Z</time>
      </trkpt>
      <trkpt lat="43.53846" lon="3.51373">
        <ele>106.5</ele>
        <time>2019-01-08T08:57:23Z</time>
      </trkpt>
      <trkpt lat="43.53844" lon="3.51375">
        <ele>106.3</ele>
        <time>2019-01-08T08:57:26Z</time>
      </trkpt>
      <trkpt lat="43.53841" lon="3.51377">
        <ele>106.2</ele>
        <time>2019-01-08T08:57:30Z</time>
      </trkpt>
      <trkpt lat="43.53837" lon="3.51378">
        <ele>106</ele>
        <time>2019-01-08T08:57:33Z</time>
      </trkpt>
      <trkpt lat="43.53834" lon="3.51378">
        <ele>105.9</ele>
        <time>2019-01-08T08:57:35Z</time>
      </trkpt>
      <trkpt lat="43.53831" lon="3.51377">
        <ele>105.8</ele>
        <time>2019-01-08T08:57:38Z</time>
      </trkpt>
      <trkpt lat="43.53828" lon="3.51377">
        <ele>105.7</ele>
        <time>2019-01-08T08:57:41Z</time>
      </trkpt>
      <trkpt lat="43.53824" lon="3.51376">
        <ele>105.5</ele>
        <time>2019-01-08T08:57:47Z</time>
      </trkpt>
      <trkpt lat="43.5382" lon="3.51375">
        <ele>105.4</ele>
        <time>2019-01-08T08:57:50Z</time>
      </trkpt>
      <trkpt lat="43.53817" lon="3.51374">
        <ele>105.2</ele>
        <time>2019-01-08T08:57:53Z</time>
      </trkpt>
      <trkpt lat="43.53814" lon="3.51372">
        <ele>105.2</ele>
        <time>2019-01-08T08:57:56Z</time>
      </trkpt>
      <trkpt lat="43.53811" lon="3.51371">
        <ele>105</ele>
        <time>2019-01-08T08:57:58Z</time>
      </trkpt>
      <trkpt lat="43.53808" lon="3.51369">
        <ele>105</ele>
        <time>2019-01-08T08:58:01Z</time>
      </trkpt>
      <trkpt lat="43.53804" lon="3.51367">
        <ele>104.8</ele>
        <time>2019-01-08T08:58:04Z</time>
      </trkpt>
      <trkpt lat="43.53801" lon="3.51368">
        <ele>104.7</ele>
        <time>2019-01-08T08:58:07Z</time>
      </trkpt>
      <trkpt lat="43.53798" lon="3.51366">
        <ele>104.5</ele>
        <time>2019-01-08T08:58:14Z</time>
      </trkpt>
      <trkpt lat="43.53795" lon="3.51363">
        <ele>104.5</ele>
        <time>2019-01-08T08:58:17Z</time>
      </trkpt>
      <trkpt lat="43.53792" lon="3.51361">
        <ele>104.3</ele>
        <time>2019-01-08T08:58:20Z</time>
      </trkpt>
      <trkpt lat="43.53789" lon="3.5136">
        <ele>104.4</ele>
        <time>2019-01-08T08:58:24Z</time>
      </trkpt>
      <trkpt lat="43.53785" lon="3.51359">
        <ele>104.2</ele>
        <time>2019-01-08T08:58:27Z</time>
      </trkpt>
      <trkpt lat="43.53783" lon="3.5136">
        <ele>104.1</ele>
        <time>2019-01-08T08:58:30Z</time>
      </trkpt>
      <trkpt lat="43.53779" lon="3.51362">
        <ele>103.6</ele>
      </trkpt>
      <trkpt lat="43.53775" lon="3.51366">
        <ele>103.5</ele>
      </trkpt>
      <trkpt lat="43.5377" lon="3.51374">
        <ele>103.3</ele>
      </trkpt>
      <trkpt lat="43.53766" lon="3.51379">
        <ele>103</ele>
      </trkpt>
      <trkpt lat="43.53763" lon="3.51384">
        <ele>103</ele>
      </trkpt>
      <trkpt lat="43.53761" lon="3.5139">
        <ele>103</ele>
      </trkpt>
      <trkpt lat="43.53759" lon="3.51397">
        <ele>103</ele>
      </trkpt>
      <trkpt lat="43.53757" lon="3.51404">
        <ele>103</ele>
      </trkpt>
      <trkpt lat="43.53755" lon="3.51411">
        <ele>102</ele>
      </trkpt>
      <trkpt lat="43.53753" lon="3.51418">
        <ele>102</ele>
      </trkpt>
      <trkpt lat="43.53752" lon="3.51425">
        <ele>102</ele>
      </trkpt>
      <trkpt lat="43.53779" lon="3.51447">
        <ele>102</ele>
      </trkpt>
      <trkpt lat="43.53793" lon="3.51454">
        <ele>102</ele>
      </trkpt>
      <trkpt lat="43.53801" lon="3.51454">
        <ele>102</ele>
      </trkpt>
      <trkpt lat="43.53809" lon="3.51455">
        <ele>102</ele>
      </trkpt>
      <trkpt lat="43.53813" lon="3.51458">
        <ele>102</ele>
      </trkpt>
      <trkpt lat="43.53814" lon="3.51467">
        <ele>102</ele>
      </trkpt>
      <trkpt lat="43.53832" lon="3.51542">
        <ele>106</ele>
      </trkpt>
      <trkpt lat="43.53836" lon="3.51549">
        <ele>107</ele>
      </trkpt>
      <trkpt lat="43.53842" lon="3.51554">
        <ele>107.1</ele>
      </trkpt>
      <trkpt lat="43.53847" lon="3.51558">
        <ele>107</ele>
      </trkpt>
      <trkpt lat="43.53851" lon="3.51561">
        <ele>107</ele>
      </trkpt>
      <trkpt lat="43.53856" lon="3.51564">
        <ele>107</ele>
      </trkpt>
      <trkpt lat="43.53859" lon="3.51568">
        <ele>108</ele>
      </trkpt>
      <trkpt lat="43.53856" lon="3.51573">
        <ele>108</ele>
      </trkpt>
      <trkpt lat="43.53852" lon="3.51572">
        <ele>108</ele>
      </trkpt>
      <trkpt lat="43.53848" lon="3.51568">
        <ele>108</ele>
      </trkpt>
      <trkpt lat="43.53844" lon="3.51573">
        <ele>109</ele>
      </trkpt>
      <trkpt lat="43.53847" lon="3.51578">
        <ele>109</ele>
      </trkpt>
      <trkpt lat="43.5385" lon="3.51582">
        <ele>109</ele>
      </trkpt>
      <trkpt lat="43.53852" lon="3.51586">
        <ele>111</ele>
      </trkpt>
      <trkpt lat="43.53849" lon="3.51589">
        <ele>111</ele>
      </trkpt>
      <trkpt lat="43.53845" lon="3.51594">
        <ele>111</ele>
      </trkpt>
      <trkpt lat="43.53849" lon="3.51598">
        <ele>111</ele>
      </trkpt>
      <trkpt lat="43.53851" lon="3.51603">
        <ele>111</ele>
      </trkpt>
      <trkpt lat="43.53845" lon="3.51609">
        <ele>111</ele>
      </trkpt>
      <trkpt lat="43.53833" lon="3.51617">
        <ele>111</ele>
      </trkpt>
      <trkpt lat="43.53822" lon="3.51629">
        <ele>112</ele>
      </trkpt>
      <trkpt lat="43.53816" lon="3.51639">
        <ele>112</ele>
      </trkpt>
      <trkpt lat="43.53813" lon="3.51648">
        <ele>112</ele>
      </trkpt>
      <trkpt lat="43.53813" lon="3.51669">
        <ele>113</ele>
      </trkpt>
      <trkpt lat="43.5381" lon="3.51678">
        <ele>114</ele>
      </trkpt>
      <trkpt lat="43.53806" lon="3.51686">
        <ele>114</ele>
      </trkpt>
      <trkpt lat="43.53799" lon="3.51696">
        <ele>114</ele>
      </trkpt>
      <trkpt lat="43.53794" lon="3.51704">
        <ele>114.6</ele>
      </trkpt>
      <trkpt lat="43.53787" lon="3.51707">
        <ele>115</ele>
      </trkpt>
      <trkpt lat="43.5377" lon="3.51695">
        <ele>113.4</ele>
        <time>2019-01-08T09:05:16Z</time>
      </trkpt>
      <trkpt lat="43.53768" lon="3.51694">
        <ele>113.4</ele>
        <time>2019-01-08T09:05:25Z</time>
      </trkpt>
      <trkpt lat="43.53764" lon="3.51695">
        <ele>113.4</ele>
        <time>2019-01-08T09:05:27Z</time>
      </trkpt>
      <trkpt lat="43.53761" lon="3.51695">
        <ele>113.4</ele>
        <time>2019-01-08T09:05:29Z</time>
      </trkpt>
      <trkpt lat="43.53759" lon="3.51694">
        <ele>113.4</ele>
        <time>2019-01-08T09:05:31Z</time>
      </trkpt>
      <trkpt lat="43.53756" lon="3.51695">
        <ele>113.3</ele>
        <time>2019-01-08T09:05:34Z</time>
      </trkpt>
      <trkpt lat="43.53753" lon="3.51697">
        <ele>113.5</ele>
        <time>2019-01-08T09:05:37Z</time>
      </trkpt>
      <trkpt lat="43.5375" lon="3.517">
        <ele>113.4</ele>
        <time>2019-01-08T09:05:40Z</time>
      </trkpt>
      <trkpt lat="43.53747" lon="3.51701">
        <ele>113.5</ele>
        <time>2019-01-08T09:05:42Z</time>
      </trkpt>
      <trkpt lat="43.53744" lon="3.51704">
        <ele>113.4</ele>
        <time>2019-01-08T09:05:45Z</time>
      </trkpt>
      <trkpt lat="43.53741" lon="3.51706">
        <ele>113.6</ele>
        <time>2019-01-08T09:05:47Z</time>
      </trkpt>
      <trkpt lat="43.53739" lon="3.5171">
        <ele>113.9</ele>
        <time>2019-01-08T09:05:50Z</time>
      </trkpt>
      <trkpt lat="43.53737" lon="3.51714">
        <ele>114.2</ele>
        <time>2019-01-08T09:05:53Z</time>
      </trkpt>
      <trkpt lat="43.53734" lon="3.51717">
        <ele>114.4</ele>
        <time>2019-01-08T09:05:56Z</time>
      </trkpt>
      <trkpt lat="43.53731" lon="3.51721">
        <ele>114.2</ele>
        <time>2019-01-08T09:05:59Z</time>
      </trkpt>
      <trkpt lat="43.53728" lon="3.51724">
        <ele>114.5</ele>
        <time>2019-01-08T09:06:01Z</time>
      </trkpt>
      <trkpt lat="43.53725" lon="3.51726">
        <ele>114.7</ele>
        <time>2019-01-08T09:06:03Z</time>
      </trkpt>
      <trkpt lat="43.53723" lon="3.51728">
        <ele>114.7</ele>
        <time>2019-01-08T09:06:05Z</time>
      </trkpt>
      <trkpt lat="43.5372" lon="3.5173">
        <ele>114.5</ele>
        <time>2019-01-08T09:06:07Z</time>
      </trkpt>
      <trkpt lat="43.53717" lon="3.51731">
        <ele>114.7</ele>
        <time>2019-01-08T09:06:10Z</time>
      </trkpt>
      <trkpt lat="43.53714" lon="3.51733">
        <ele>114.5</ele>
        <time>2019-01-08T09:06:12Z</time>
      </trkpt>
      <trkpt lat="43.53712" lon="3.51734">
        <ele>114.3</ele>
        <time>2019-01-08T09:06:14Z</time>
      </trkpt>
      <trkpt lat="43.53709" lon="3.51735">
        <ele>114.5</ele>
        <time>2019-01-08T09:06:16Z</time>
      </trkpt>
      <trkpt lat="43.53706" lon="3.51737">
        <ele>114.3</ele>
        <time>2019-01-08T09:06:18Z</time>
      </trkpt>
      <trkpt lat="43.53703" lon="3.51739">
        <ele>114.5</ele>
        <time>2019-01-08T09:06:20Z</time>
      </trkpt>
      <trkpt lat="43.537" lon="3.5174">
        <ele>114.3</ele>
        <time>2019-01-08T09:06:22Z</time>
      </trkpt>
      <trkpt lat="43.53697" lon="3.51741">
        <ele>114</ele>
        <time>2019-01-08T09:06:25Z</time>
      </trkpt>
      <trkpt lat="43.53693" lon="3.51743">
        <ele>114.1</ele>
        <time>2019-01-08T09:06:28Z</time>
      </trkpt>
      <trkpt lat="43.5369" lon="3.51745">
        <ele>113.9</ele>
        <time>2019-01-08T09:06:30Z</time>
      </trkpt>
      <trkpt lat="43.53686" lon="3.51747">
        <ele>114</ele>
        <time>2019-01-08T09:06:33Z</time>
      </trkpt>
      <trkpt lat="43.53684" lon="3.51748">
        <ele>113.7</ele>
        <time>2019-01-08T09:06:35Z</time>
      </trkpt>
      <trkpt lat="43.5368" lon="3.5175">
        <ele>113.5</ele>
        <time>2019-01-08T09:06:38Z</time>
      </trkpt>
      <trkpt lat="43.53676" lon="3.51752">
        <ele>113.6</ele>
        <time>2019-01-08T09:06:41Z</time>
      </trkpt>
      <trkpt lat="43.53674" lon="3.51754">
        <ele>113.3</ele>
        <time>2019-01-08T09:06:43Z</time>
      </trkpt>
      <trkpt lat="43.53671" lon="3.51756">
        <ele>113.4</ele>
        <time>2019-01-08T09:06:45Z</time>
      </trkpt>
      <trkpt lat="43.53669" lon="3.51759">
        <ele>113.1</ele>
        <time>2019-01-08T09:06:47Z</time>
      </trkpt>
      <trkpt lat="43.53667" lon="3.51762">
        <ele>113.4</ele>
        <time>2019-01-08T09:06:49Z</time>
      </trkpt>
      <trkpt lat="43.53664" lon="3.51765">
        <ele>113.5</ele>
        <time>2019-01-08T09:06:52Z</time>
      </trkpt>
      <trkpt lat="43.53663" lon="3.51768">
        <ele>113.2</ele>
        <time>2019-01-08T09:06:55Z</time>
      </trkpt>
      <trkpt lat="43.5366" lon="3.51772">
        <ele>113.5</ele>
        <time>2019-01-08T09:06:58Z</time>
      </trkpt>
      <trkpt lat="43.53657" lon="3.51776">
        <ele>113.6</ele>
        <time>2019-01-08T09:07:01Z</time>
      </trkpt>
      <trkpt lat="43.53656" lon="3.51779">
        <ele>113.6</ele>
        <time>2019-01-08T09:07:03Z</time>
      </trkpt>
      <trkpt lat="43.53655" lon="3.51783">
        <ele>113.9</ele>
        <time>2019-01-08T09:07:05Z</time>
      </trkpt>
      <trkpt lat="43.53653" lon="3.51788">
        <ele>114</ele>
        <time>2019-01-08T09:07:08Z</time>
      </trkpt>
      <trkpt lat="43.53652" lon="3.51791">
        <ele>114.3</ele>
        <time>2019-01-08T09:07:10Z</time>
      </trkpt>
      <trkpt lat="43.53651" lon="3.51795">
        <ele>114.6</ele>
        <time>2019-01-08T09:07:12Z</time>
      </trkpt>
      <trkpt lat="43.5365" lon="3.51799">
        <ele>114.3</ele>
        <time>2019-01-08T09:07:15Z</time>
      </trkpt>
      <trkpt lat="43.53649" lon="3.51804">
        <ele>115</ele>
        <time>2019-01-08T09:07:18Z</time>
      </trkpt>
      <trkpt lat="43.53648" lon="3.51808">
        <ele>115.3</ele>
        <time>2019-01-08T09:07:21Z</time>
      </trkpt>
      <trkpt lat="43.53647" lon="3.51812">
        <ele>115.3</ele>
        <time>2019-01-08T09:07:25Z</time>
      </trkpt>
      <trkpt lat="43.53645" lon="3.51816">
        <ele>115.6</ele>
        <time>2019-01-08T09:07:29Z</time>
      </trkpt>
      <trkpt lat="43.53644" lon="3.5182">
        <ele>115.8</ele>
        <time>2019-01-08T09:07:31Z</time>
      </trkpt>
      <trkpt lat="43.53643" lon="3.51824">
        <ele>115.9</ele>
        <time>2019-01-08T09:07:34Z</time>
      </trkpt>
      <trkpt lat="43.53641" lon="3.51829">
        <ele>116.2</ele>
        <time>2019-01-08T09:07:37Z</time>
      </trkpt>
      <trkpt lat="43.53639" lon="3.51833">
        <ele>116.3</ele>
        <time>2019-01-08T09:07:39Z</time>
      </trkpt>
      <trkpt lat="43.53637" lon="3.51836">
        <ele>116.4</ele>
        <time>2019-01-08T09:07:41Z</time>
      </trkpt>
      <trkpt lat="43.53636" lon="3.5184">
        <ele>116.5</ele>
        <time>2019-01-08T09:07:43Z</time>
      </trkpt>
      <trkpt lat="43.53636" lon="3.51844">
        <ele>116.6</ele>
        <time>2019-01-08T09:07:45Z</time>
      </trkpt>
      <trkpt lat="43.53635" lon="3.51848">
        <ele>116.7</ele>
        <time>2019-01-08T09:07:47Z</time>
      </trkpt>
      <trkpt lat="43.53633" lon="3.51852">
        <ele>116.9</ele>
        <time>2019-01-08T09:07:49Z</time>
      </trkpt>
      <trkpt lat="43.53631" lon="3.51856">
        <ele>117.2</ele>
        <time>2019-01-08T09:07:51Z</time>
      </trkpt>
      <trkpt lat="43.53629" lon="3.5186">
        <ele>117.1</ele>
        <time>2019-01-08T09:07:53Z</time>
      </trkpt>
      <trkpt lat="43.53628" lon="3.51864">
        <ele>117.1</ele>
        <time>2019-01-08T09:07:55Z</time>
      </trkpt>
      <trkpt lat="43.53626" lon="3.51867">
        <ele>117.1</ele>
        <time>2019-01-08T09:07:57Z</time>
      </trkpt>
      <trkpt lat="43.53624" lon="3.51871">
        <ele>117.2</ele>
        <time>2019-01-08T09:07:59Z</time>
      </trkpt>
      <trkpt lat="43.53622" lon="3.51874">
        <ele>117.4</ele>
        <time>2019-01-08T09:08:01Z</time>
      </trkpt>
      <trkpt lat="43.5362" lon="3.51877">
        <ele>117.5</ele>
        <time>2019-01-08T09:08:03Z</time>
      </trkpt>
      <trkpt lat="43.53618" lon="3.5188">
        <ele>117.7</ele>
        <time>2019-01-08T09:08:05Z</time>
      </trkpt>
      <trkpt lat="43.53616" lon="3.51882">
        <ele>117.7</ele>
        <time>2019-01-08T09:08:07Z</time>
      </trkpt>
      <trkpt lat="43.53613" lon="3.51884">
        <ele>117.5</ele>
        <time>2019-01-08T09:08:09Z</time>
      </trkpt>
      <trkpt lat="43.5361" lon="3.51886">
        <ele>117.3</ele>
        <time>2019-01-08T09:08:12Z</time>
      </trkpt>
      <trkpt lat="43.53607" lon="3.51889">
        <ele>117.3</ele>
        <time>2019-01-08T09:08:14Z</time>
      </trkpt>
      <trkpt lat="43.53605" lon="3.51892">
        <ele>117.3</ele>
        <time>2019-01-08T09:08:16Z</time>
      </trkpt>
      <trkpt lat="43.53603" lon="3.51894">
        <ele>117.2</ele>
        <time>2019-01-08T09:08:18Z</time>
      </trkpt>
      <trkpt lat="43.53599" lon="3.51896">
        <ele>117.2</ele>
        <time>2019-01-08T09:08:21Z</time>
      </trkpt>
      <trkpt lat="43.53596" lon="3.51897">
        <ele>117.1</ele>
        <time>2019-01-08T09:08:23Z</time>
      </trkpt>
      <trkpt lat="43.53593" lon="3.51899">
        <ele>116.9</ele>
        <time>2019-01-08T09:08:25Z</time>
      </trkpt>
      <trkpt lat="43.53591" lon="3.51901">
        <ele>116.7</ele>
        <time>2019-01-08T09:08:27Z</time>
      </trkpt>
      <trkpt lat="43.53589" lon="3.51904">
        <ele>116.6</ele>
        <time>2019-01-08T09:08:29Z</time>
      </trkpt>
      <trkpt lat="43.53588" lon="3.51907">
        <ele>116.5</ele>
        <time>2019-01-08T09:08:31Z</time>
      </trkpt>
      <trkpt lat="43.53586" lon="3.51911">
        <ele>116.4</ele>
        <time>2019-01-08T09:08:33Z</time>
      </trkpt>
      <trkpt lat="43.53584" lon="3.51913">
        <ele>116.4</ele>
        <time>2019-01-08T09:08:35Z</time>
      </trkpt>
      <trkpt lat="43.53581" lon="3.51917">
        <ele>116.2</ele>
        <time>2019-01-08T09:08:38Z</time>
      </trkpt>
      <trkpt lat="43.53578" lon="3.51919">
        <ele>116.1</ele>
        <time>2019-01-08T09:08:40Z</time>
      </trkpt>
      <trkpt lat="43.53576" lon="3.51921">
        <ele>116</ele>
        <time>2019-01-08T09:08:42Z</time>
      </trkpt>
      <trkpt lat="43.53574" lon="3.51926">
        <ele>116.1</ele>
        <time>2019-01-08T09:08:45Z</time>
      </trkpt>
      <trkpt lat="43.53572" lon="3.51929">
        <ele>116.3</ele>
        <time>2019-01-08T09:08:48Z</time>
      </trkpt>
      <trkpt lat="43.5357" lon="3.51933">
        <ele>116.3</ele>
        <time>2019-01-08T09:08:51Z</time>
      </trkpt>
      <trkpt lat="43.53568" lon="3.51936">
        <ele>116.3</ele>
        <time>2019-01-08T09:08:53Z</time>
      </trkpt>
      <trkpt lat="43.53566" lon="3.51939">
        <ele>116.2</ele>
        <time>2019-01-08T09:08:55Z</time>
      </trkpt>
      <trkpt lat="43.53564" lon="3.51942">
        <ele>116.1</ele>
        <time>2019-01-08T09:08:57Z</time>
      </trkpt>
      <trkpt lat="43.53561" lon="3.51945">
        <ele>116</ele>
        <time>2019-01-08T09:09:00Z</time>
      </trkpt>
      <trkpt lat="43.53559" lon="3.51948">
        <ele>116.1</ele>
        <time>2019-01-08T09:09:02Z</time>
      </trkpt>
      <trkpt lat="43.53557" lon="3.51952">
        <ele>116.2</ele>
        <time>2019-01-08T09:09:05Z</time>
      </trkpt>
      <trkpt lat="43.53554" lon="3.51954">
        <ele>116.2</ele>
        <time>2019-01-08T09:09:07Z</time>
      </trkpt>
      <trkpt lat="43.53551" lon="3.51955">
        <ele>116.1</ele>
        <time>2019-01-08T09:09:09Z</time>
      </trkpt>
      <trkpt lat="43.53548" lon="3.51956">
        <ele>115.9</ele>
        <time>2019-01-08T09:09:12Z</time>
      </trkpt>
      <trkpt lat="43.53545" lon="3.51955">
        <ele>115.7</ele>
        <time>2019-01-08T09:09:15Z</time>
      </trkpt>
      <trkpt lat="43.53542" lon="3.51952">
        <ele>115.2</ele>
        <time>2019-01-08T09:09:18Z</time>
      </trkpt>
      <trkpt lat="43.53539" lon="3.51951">
        <ele>114.8</ele>
        <time>2019-01-08T09:09:20Z</time>
      </trkpt>
      <trkpt lat="43.53535" lon="3.51949">
        <ele>114.4</ele>
        <time>2019-01-08T09:09:22Z</time>
      </trkpt>
      <trkpt lat="43.53533" lon="3.51947">
        <ele>114</ele>
        <time>2019-01-08T09:09:24Z</time>
      </trkpt>
      <trkpt lat="43.5353" lon="3.51945">
        <ele>113.6</ele>
        <time>2019-01-08T09:09:26Z</time>
      </trkpt>
      <trkpt lat="43.53527" lon="3.51943">
        <ele>113.2</ele>
        <time>2019-01-08T09:09:28Z</time>
      </trkpt>
      <trkpt lat="43.53525" lon="3.51941">
        <ele>112.9</ele>
        <time>2019-01-08T09:09:30Z</time>
      </trkpt>
      <trkpt lat="43.53522" lon="3.51939">
        <ele>112.6</ele>
        <time>2019-01-08T09:09:33Z</time>
      </trkpt>
      <trkpt lat="43.53519" lon="3.51936">
        <ele>112.2</ele>
        <time>2019-01-08T09:09:36Z</time>
      </trkpt>
      <trkpt lat="43.53515" lon="3.51934">
        <ele>111.8</ele>
        <time>2019-01-08T09:09:39Z</time>
      </trkpt>
      <trkpt lat="43.53512" lon="3.51931">
        <ele>111.4</ele>
        <time>2019-01-08T09:09:42Z</time>
      </trkpt>
      <trkpt lat="43.53509" lon="3.5193">
        <ele>111</ele>
        <time>2019-01-08T09:09:45Z</time>
      </trkpt>
      <trkpt lat="43.53506" lon="3.5193">
        <ele>110.8</ele>
        <time>2019-01-08T09:09:47Z</time>
      </trkpt>
      <trkpt lat="43.53503" lon="3.51931">
        <ele>110.3</ele>
        <time>2019-01-08T09:09:49Z</time>
      </trkpt>
      <trkpt lat="43.535" lon="3.51933">
        <ele>109.9</ele>
        <time>2019-01-08T09:09:51Z</time>
      </trkpt>
      <trkpt lat="43.53498" lon="3.51935">
        <ele>109.6</ele>
        <time>2019-01-08T09:09:53Z</time>
      </trkpt>
      <trkpt lat="43.53494" lon="3.51937">
        <ele>109.3</ele>
        <time>2019-01-08T09:09:56Z</time>
      </trkpt>
      <trkpt lat="43.53491" lon="3.51939">
        <ele>109.2</ele>
        <time>2019-01-08T09:09:59Z</time>
      </trkpt>
      <trkpt lat="43.53488" lon="3.51939">
        <ele>109.2</ele>
        <time>2019-01-08T09:10:01Z</time>
      </trkpt>
      <trkpt lat="43.53485" lon="3.51939">
        <ele>109.1</ele>
        <time>2019-01-08T09:10:03Z</time>
      </trkpt>
      <trkpt lat="43.53481" lon="3.51938">
        <ele>108.7</ele>
        <time>2019-01-08T09:10:05Z</time>
      </trkpt>
      <trkpt lat="43.53478" lon="3.51936">
        <ele>108.4</ele>
        <time>2019-01-08T09:10:07Z</time>
      </trkpt>
      <trkpt lat="43.53476" lon="3.51934">
        <ele>108</ele>
        <time>2019-01-08T09:10:09Z</time>
      </trkpt>
      <trkpt lat="43.53472" lon="3.51933">
        <ele>107.6</ele>
        <time>2019-01-08T09:10:11Z</time>
      </trkpt>
      <trkpt lat="43.53469" lon="3.5193">
        <ele>107.1</ele>
        <time>2019-01-08T09:10:13Z</time>
      </trkpt>
      <trkpt lat="43.53466" lon="3.51928">
        <ele>106.5</ele>
        <time>2019-01-08T09:10:15Z</time>
      </trkpt>
      <trkpt lat="43.53463" lon="3.51927">
        <ele>106.1</ele>
        <time>2019-01-08T09:10:17Z</time>
      </trkpt>
      <trkpt lat="43.5346" lon="3.51926">
        <ele>105.7</ele>
        <time>2019-01-08T09:10:19Z</time>
      </trkpt>
      <trkpt lat="43.53456" lon="3.51926">
        <ele>105.1</ele>
        <time>2019-01-08T09:10:22Z</time>
      </trkpt>
      <trkpt lat="43.53453" lon="3.51927">
        <ele>104.8</ele>
        <time>2019-01-08T09:10:24Z</time>
      </trkpt>
      <trkpt lat="43.5345" lon="3.51928">
        <ele>104.5</ele>
        <time>2019-01-08T09:10:26Z</time>
      </trkpt>
      <trkpt lat="43.53448" lon="3.51932">
        <ele>104.3</ele>
        <time>2019-01-08T09:10:29Z</time>
      </trkpt>
      <trkpt lat="43.53445" lon="3.51934">
        <ele>104.2</ele>
        <time>2019-01-08T09:10:31Z</time>
      </trkpt>
      <trkpt lat="43.53443" lon="3.51937">
        <ele>104</ele>
        <time>2019-01-08T09:10:34Z</time>
      </trkpt>
      <trkpt lat="43.5344" lon="3.51939">
        <ele>103.9</ele>
        <time>2019-01-08T09:10:37Z</time>
      </trkpt>
      <trkpt lat="43.53437" lon="3.51941">
        <ele>103.8</ele>
        <time>2019-01-08T09:10:40Z</time>
      </trkpt>
      <trkpt lat="43.53435" lon="3.51945">
        <ele>103.7</ele>
        <time>2019-01-08T09:10:43Z</time>
      </trkpt>
      <trkpt lat="43.53433" lon="3.51949">
        <ele>103.6</ele>
        <time>2019-01-08T09:10:46Z</time>
      </trkpt>
      <trkpt lat="43.53431" lon="3.51952">
        <ele>103.6</ele>
        <time>2019-01-08T09:10:48Z</time>
      </trkpt>
      <trkpt lat="43.53429" lon="3.51955">
        <ele>103.6</ele>
        <time>2019-01-08T09:10:50Z</time>
      </trkpt>
      <trkpt lat="43.53428" lon="3.51959">
        <ele>103.6</ele>
        <time>2019-01-08T09:10:52Z</time>
      </trkpt>
      <trkpt lat="43.53426" lon="3.51962">
        <ele>103.6</ele>
        <time>2019-01-08T09:10:54Z</time>
      </trkpt>
      <trkpt lat="43.53424" lon="3.51966">
        <ele>103.6</ele>
        <time>2019-01-08T09:10:57Z</time>
      </trkpt>
      <trkpt lat="43.53422" lon="3.51968">
        <ele>103.6</ele>
        <time>2019-01-08T09:10:59Z</time>
      </trkpt>
      <trkpt lat="43.53419" lon="3.51971">
        <ele>103.5</ele>
        <time>2019-01-08T09:11:01Z</time>
      </trkpt>
      <trkpt lat="43.53417" lon="3.51973">
        <ele>103.5</ele>
        <time>2019-01-08T09:11:03Z</time>
      </trkpt>
      <trkpt lat="43.53414" lon="3.51977">
        <ele>103.5</ele>
        <time>2019-01-08T09:11:06Z</time>
      </trkpt>
      <trkpt lat="43.53412" lon="3.51981">
        <ele>103.6</ele>
        <time>2019-01-08T09:11:09Z</time>
      </trkpt>
      <trkpt lat="43.5341" lon="3.51984">
        <ele>103.7</ele>
        <time>2019-01-08T09:11:11Z</time>
      </trkpt>
      <trkpt lat="43.53408" lon="3.51988">
        <ele>103.6</ele>
        <time>2019-01-08T09:11:14Z</time>
      </trkpt>
      <trkpt lat="43.53406" lon="3.51992">
        <ele>103.6</ele>
        <time>2019-01-08T09:11:17Z</time>
      </trkpt>
      <trkpt lat="43.53403" lon="3.51996">
        <ele>103.7</ele>
        <time>2019-01-08T09:11:20Z</time>
      </trkpt>
      <trkpt lat="43.53401" lon="3.51999">
        <ele>103.8</ele>
        <time>2019-01-08T09:11:23Z</time>
      </trkpt>
      <trkpt lat="43.53398" lon="3.52002">
        <ele>103.8</ele>
        <time>2019-01-08T09:11:25Z</time>
      </trkpt>
      <trkpt lat="43.53396" lon="3.52004">
        <ele>103.8</ele>
        <time>2019-01-08T09:11:27Z</time>
      </trkpt>
      <trkpt lat="43.53394" lon="3.52007">
        <ele>103.8</ele>
        <time>2019-01-08T09:11:29Z</time>
      </trkpt>
      <trkpt lat="43.53391" lon="3.5201">
        <ele>103.7</ele>
        <time>2019-01-08T09:11:32Z</time>
      </trkpt>
      <trkpt lat="43.53389" lon="3.52013">
        <ele>103.6</ele>
        <time>2019-01-08T09:11:35Z</time>
      </trkpt>
      <trkpt lat="43.53386" lon="3.52017">
        <ele>103.6</ele>
        <time>2019-01-08T09:11:38Z</time>
      </trkpt>
      <trkpt lat="43.53382" lon="3.52019">
        <ele>103.6</ele>
        <time>2019-01-08T09:11:41Z</time>
      </trkpt>
      <trkpt lat="43.53379" lon="3.52019">
        <ele>103.5</ele>
        <time>2019-01-08T09:11:44Z</time>
      </trkpt>
      <trkpt lat="43.53376" lon="3.52017">
        <ele>103.3</ele>
        <time>2019-01-08T09:11:47Z</time>
      </trkpt>
      <trkpt lat="43.53372" lon="3.52014">
        <ele>103.2</ele>
        <time>2019-01-08T09:11:50Z</time>
      </trkpt>
      <trkpt lat="43.5337" lon="3.52012">
        <ele>103.2</ele>
        <time>2019-01-08T09:11:52Z</time>
      </trkpt>
      <trkpt lat="43.53367" lon="3.5201">
        <ele>103.1</ele>
        <time>2019-01-08T09:11:54Z</time>
      </trkpt>
      <trkpt lat="43.53364" lon="3.52008">
        <ele>102.8</ele>
        <time>2019-01-08T09:11:56Z</time>
      </trkpt>
      <trkpt lat="43.53361" lon="3.52006">
        <ele>102.6</ele>
        <time>2019-01-08T09:11:58Z</time>
      </trkpt>
      <trkpt lat="43.53358" lon="3.52004">
        <ele>102.5</ele>
        <time>2019-01-08T09:12:00Z</time>
      </trkpt>
      <trkpt lat="43.53355" lon="3.52002">
        <ele>102.3</ele>
        <time>2019-01-08T09:12:02Z</time>
      </trkpt>
      <trkpt lat="43.53353" lon="3.52">
        <ele>102</ele>
        <time>2019-01-08T09:12:04Z</time>
      </trkpt>
      <trkpt lat="43.5335" lon="3.51999">
        <ele>101.8</ele>
        <time>2019-01-08T09:12:06Z</time>
      </trkpt>
      <trkpt lat="43.53347" lon="3.51998">
        <ele>101.6</ele>
        <time>2019-01-08T09:12:08Z</time>
      </trkpt>
      <trkpt lat="43.53345" lon="3.51996">
        <ele>101.4</ele>
        <time>2019-01-08T09:12:10Z</time>
      </trkpt>
      <trkpt lat="43.53341" lon="3.51994">
        <ele>101.1</ele>
        <time>2019-01-08T09:12:13Z</time>
      </trkpt>
      <trkpt lat="43.53338" lon="3.51994">
        <ele>100.9</ele>
        <time>2019-01-08T09:12:15Z</time>
      </trkpt>
      <trkpt lat="43.53335" lon="3.51992">
        <ele>100.7</ele>
        <time>2019-01-08T09:12:17Z</time>
      </trkpt>
      <trkpt lat="43.53332" lon="3.51991">
        <ele>100.6</ele>
        <time>2019-01-08T09:12:19Z</time>
      </trkpt>
      <trkpt lat="43.53328" lon="3.51989">
        <ele>100.4</ele>
        <time>2019-01-08T09:12:22Z</time>
      </trkpt>
      <trkpt lat="43.53326" lon="3.51988">
        <ele>100.3</ele>
        <time>2019-01-08T09:12:24Z</time>
      </trkpt>
      <trkpt lat="43.53322" lon="3.51986">
        <ele>100.1</ele>
        <time>2019-01-08T09:12:27Z</time>
      </trkpt>
      <trkpt lat="43.5332" lon="3.51984">
        <ele>99.9</ele>
        <time>2019-01-08T09:12:29Z</time>
      </trkpt>
      <trkpt lat="43.53317" lon="3.51982">
        <ele>99.8</ele>
        <time>2019-01-08T09:12:31Z</time>
      </trkpt>
      <trkpt lat="43.53315" lon="3.51979">
        <ele>99.6</ele>
        <time>2019-01-08T09:12:33Z</time>
      </trkpt>
      <trkpt lat="43.53312" lon="3.51976">
        <ele>99.4</ele>
        <time>2019-01-08T09:12:36Z</time>
      </trkpt>
      <trkpt lat="43.5331" lon="3.51972">
        <ele>99.1</ele>
        <time>2019-01-08T09:12:39Z</time>
      </trkpt>
      <trkpt lat="43.53308" lon="3.51969">
        <ele>99</ele>
        <time>2019-01-08T09:12:41Z</time>
      </trkpt>
      <trkpt lat="43.53311" lon="3.5197">
        <ele>98.9</ele>
        <time>2019-01-08T09:12:48Z</time>
      </trkpt>
      <trkpt lat="43.53311" lon="3.51975">
        <ele>98.7</ele>
        <time>2019-01-08T09:12:50Z</time>
      </trkpt>
      <trkpt lat="43.53309" lon="3.51979">
        <ele>98.5</ele>
        <time>2019-01-08T09:12:53Z</time>
      </trkpt>
      <trkpt lat="43.53305" lon="3.51981">
        <ele>98.1</ele>
        <time>2019-01-08T09:12:56Z</time>
      </trkpt>
      <trkpt lat="43.53303" lon="3.51983">
        <ele>98.1</ele>
        <time>2019-01-08T09:12:58Z</time>
      </trkpt>
      <trkpt lat="43.533" lon="3.51985">
        <ele>98</ele>
        <time>2019-01-08T09:13:01Z</time>
      </trkpt>
      <trkpt lat="43.53297" lon="3.51987">
        <ele>97.9</ele>
        <time>2019-01-08T09:13:04Z</time>
      </trkpt>
      <trkpt lat="43.53295" lon="3.51991">
        <ele>97.8</ele>
        <time>2019-01-08T09:13:07Z</time>
      </trkpt>
      <trkpt lat="43.53293" lon="3.51995">
        <ele>97.7</ele>
        <time>2019-01-08T09:13:10Z</time>
      </trkpt>
      <trkpt lat="43.53291" lon="3.51998">
        <ele>97.7</ele>
        <time>2019-01-08T09:13:12Z</time>
      </trkpt>
      <trkpt lat="43.53289" lon="3.52001">
        <ele>97.7</ele>
        <time>2019-01-08T09:13:14Z</time>
      </trkpt>
      <trkpt lat="43.53287" lon="3.52004">
        <ele>97.5</ele>
        <time>2019-01-08T09:13:16Z</time>
      </trkpt>
      <trkpt lat="43.53284" lon="3.52008">
        <ele>97.6</ele>
        <time>2019-01-08T09:13:19Z</time>
      </trkpt>
      <trkpt lat="43.53282" lon="3.52011">
        <ele>97.4</ele>
        <time>2019-01-08T09:13:22Z</time>
      </trkpt>
      <trkpt lat="43.53279" lon="3.52015">
        <ele>97.3</ele>
        <time>2019-01-08T09:13:25Z</time>
      </trkpt>
      <trkpt lat="43.53277" lon="3.52017">
        <ele>97.1</ele>
        <time>2019-01-08T09:13:27Z</time>
      </trkpt>
      <trkpt lat="43.53275" lon="3.5202">
        <ele>97.1</ele>
        <time>2019-01-08T09:13:29Z</time>
      </trkpt>
      <trkpt lat="43.53272" lon="3.52023">
        <ele>96.9</ele>
        <time>2019-01-08T09:13:31Z</time>
      </trkpt>
      <trkpt lat="43.5327" lon="3.52024">
        <ele>96.7</ele>
        <time>2019-01-08T09:13:33Z</time>
      </trkpt>
      <trkpt lat="43.53267" lon="3.52026">
        <ele>96.5</ele>
        <time>2019-01-08T09:13:35Z</time>
      </trkpt>
      <trkpt lat="43.53264" lon="3.52026">
        <ele>96.3</ele>
        <time>2019-01-08T09:13:37Z</time>
      </trkpt>
      <trkpt lat="43.53261" lon="3.52025">
        <ele>96.1</ele>
        <time>2019-01-08T09:13:39Z</time>
      </trkpt>
      <trkpt lat="43.53258" lon="3.52025">
        <ele>95.9</ele>
        <time>2019-01-08T09:13:41Z</time>
      </trkpt>
      <trkpt lat="43.53254" lon="3.52026">
        <ele>95.8</ele>
        <time>2019-01-08T09:13:43Z</time>
      </trkpt>
      <trkpt lat="43.5325" lon="3.52026">
        <ele>95.6</ele>
        <time>2019-01-08T09:13:46Z</time>
      </trkpt>
      <trkpt lat="43.53247" lon="3.52024">
        <ele>95.5</ele>
        <time>2019-01-08T09:13:49Z</time>
      </trkpt>
      <trkpt lat="43.53244" lon="3.52022">
        <ele>95.3</ele>
        <time>2019-01-08T09:13:51Z</time>
      </trkpt>
      <trkpt lat="43.53241" lon="3.5202">
        <ele>95.2</ele>
        <time>2019-01-08T09:13:54Z</time>
      </trkpt>
      <trkpt lat="43.53238" lon="3.52018">
        <ele>95</ele>
        <time>2019-01-08T09:13:57Z</time>
      </trkpt>
      <trkpt lat="43.53235" lon="3.52018">
        <ele>94.9</ele>
        <time>2019-01-08T09:13:59Z</time>
      </trkpt>
      <trkpt lat="43.53232" lon="3.52017">
        <ele>94.7</ele>
        <time>2019-01-08T09:14:01Z</time>
      </trkpt>
      <trkpt lat="43.53229" lon="3.52015">
        <ele>94.5</ele>
        <time>2019-01-08T09:14:04Z</time>
      </trkpt>
      <trkpt lat="43.53225" lon="3.52014">
        <ele>94.3</ele>
        <time>2019-01-08T09:14:07Z</time>
      </trkpt>
      <trkpt lat="43.53222" lon="3.52012">
        <ele>94</ele>
        <time>2019-01-08T09:14:10Z</time>
      </trkpt>
      <trkpt lat="43.53219" lon="3.52012">
        <ele>93.8</ele>
        <time>2019-01-08T09:14:13Z</time>
      </trkpt>
      <trkpt lat="43.53216" lon="3.52012">
        <ele>93.6</ele>
        <time>2019-01-08T09:14:16Z</time>
      </trkpt>
      <trkpt lat="43.53213" lon="3.52013">
        <ele>93.4</ele>
        <time>2019-01-08T09:14:18Z</time>
      </trkpt>
      <trkpt lat="43.5321" lon="3.52014">
        <ele>93.2</ele>
        <time>2019-01-08T09:14:20Z</time>
      </trkpt>
      <trkpt lat="43.53208" lon="3.52015">
        <ele>93.1</ele>
        <time>2019-01-08T09:14:22Z</time>
      </trkpt>
      <trkpt lat="43.53204" lon="3.52018">
        <ele>92.9</ele>
        <time>2019-01-08T09:14:25Z</time>
      </trkpt>
      <trkpt lat="43.53201" lon="3.5202">
        <ele>92.7</ele>
        <time>2019-01-08T09:14:28Z</time>
      </trkpt>
      <trkpt lat="43.53197" lon="3.52021">
        <ele>92.5</ele>
        <time>2019-01-08T09:14:30Z</time>
      </trkpt>
      <trkpt lat="43.53194" lon="3.52022">
        <ele>92.4</ele>
        <time>2019-01-08T09:14:32Z</time>
      </trkpt>
      <trkpt lat="43.53192" lon="3.52024">
        <ele>92.3</ele>
        <time>2019-01-08T09:14:34Z</time>
      </trkpt>
      <trkpt lat="43.53189" lon="3.52025">
        <ele>92.1</ele>
        <time>2019-01-08T09:14:36Z</time>
      </trkpt>
      <trkpt lat="43.53185" lon="3.52028">
        <ele>92</ele>
        <time>2019-01-08T09:14:39Z</time>
      </trkpt>
      <trkpt lat="43.53183" lon="3.5203">
        <ele>91.9</ele>
        <time>2019-01-08T09:14:41Z</time>
      </trkpt>
      <trkpt lat="43.5318" lon="3.52032">
        <ele>91.8</ele>
        <time>2019-01-08T09:14:43Z</time>
      </trkpt>
      <trkpt lat="43.53177" lon="3.52034">
        <ele>91.7</ele>
        <time>2019-01-08T09:14:45Z</time>
      </trkpt>
      <trkpt lat="43.53174" lon="3.52036">
        <ele>91.7</ele>
        <time>2019-01-08T09:14:47Z</time>
      </trkpt>
      <trkpt lat="43.53171" lon="3.52037">
        <ele>91.5</ele>
        <time>2019-01-08T09:14:49Z</time>
      </trkpt>
      <trkpt lat="43.53167" lon="3.52037">
        <ele>91.4</ele>
        <time>2019-01-08T09:14:52Z</time>
      </trkpt>
      <trkpt lat="43.53164" lon="3.52037">
        <ele>91.3</ele>
        <time>2019-01-08T09:14:55Z</time>
      </trkpt>
      <trkpt lat="43.5316" lon="3.52034">
        <ele>91</ele>
        <time>2019-01-08T09:14:58Z</time>
      </trkpt>
      <trkpt lat="43.53157" lon="3.52033">
        <ele>90.9</ele>
        <time>2019-01-08T09:15:00Z</time>
      </trkpt>
      <trkpt lat="43.53155" lon="3.52032">
        <ele>90.8</ele>
        <time>2019-01-08T09:15:02Z</time>
      </trkpt>
      <trkpt lat="43.53151" lon="3.52031">
        <ele>90.6</ele>
        <time>2019-01-08T09:15:04Z</time>
      </trkpt>
      <trkpt lat="43.53148" lon="3.5203">
        <ele>90.5</ele>
        <time>2019-01-08T09:15:06Z</time>
      </trkpt>
      <trkpt lat="43.53144" lon="3.5203">
        <ele>90.2</ele>
        <time>2019-01-08T09:15:09Z</time>
      </trkpt>
      <trkpt lat="43.53142" lon="3.52029">
        <ele>90.1</ele>
        <time>2019-01-08T09:15:11Z</time>
      </trkpt>
      <trkpt lat="43.53138" lon="3.52026">
        <ele>89.9</ele>
        <time>2019-01-08T09:15:14Z</time>
      </trkpt>
      <trkpt lat="43.53136" lon="3.52026">
        <ele>89.8</ele>
        <time>2019-01-08T09:15:16Z</time>
      </trkpt>
      <trkpt lat="43.53133" lon="3.52027">
        <ele>89.6</ele>
        <time>2019-01-08T09:15:18Z</time>
      </trkpt>
      <trkpt lat="43.53129" lon="3.52027">
        <ele>89.5</ele>
        <time>2019-01-08T09:15:21Z</time>
      </trkpt>
      <trkpt lat="43.53125" lon="3.52025">
        <ele>89.3</ele>
        <time>2019-01-08T09:15:24Z</time>
      </trkpt>
      <trkpt lat="43.53122" lon="3.52022">
        <ele>89.1</ele>
        <time>2019-01-08T09:15:27Z</time>
      </trkpt>
      <trkpt lat="43.5312" lon="3.52019">
        <ele>89</ele>
        <time>2019-01-08T09:15:30Z</time>
      </trkpt>
      <trkpt lat="43.53119" lon="3.52015">
        <ele>88.9</ele>
        <time>2019-01-08T09:15:33Z</time>
      </trkpt>
      <trkpt lat="43.53118" lon="3.5201">
        <ele>88.8</ele>
        <time>2019-01-08T09:15:36Z</time>
      </trkpt>
      <trkpt lat="43.53116" lon="3.52005">
        <ele>88.7</ele>
        <time>2019-01-08T09:15:39Z</time>
      </trkpt>
      <trkpt lat="43.53114" lon="3.52001">
        <ele>88.5</ele>
        <time>2019-01-08T09:15:41Z</time>
      </trkpt>
      <trkpt lat="43.53111" lon="3.51998">
        <ele>88.3</ele>
        <time>2019-01-08T09:15:44Z</time>
      </trkpt>
      <trkpt lat="43.53108" lon="3.51995">
        <ele>88.2</ele>
        <time>2019-01-08T09:15:47Z</time>
      </trkpt>
      <trkpt lat="43.53106" lon="3.51992">
        <ele>88.1</ele>
        <time>2019-01-08T09:15:49Z</time>
      </trkpt>
      <trkpt lat="43.53103" lon="3.5199">
        <ele>87.9</ele>
        <time>2019-01-08T09:15:52Z</time>
      </trkpt>
      <trkpt lat="43.53099" lon="3.51989">
        <ele>87.8</ele>
        <time>2019-01-08T09:15:55Z</time>
      </trkpt>
      <trkpt lat="43.53096" lon="3.51987">
        <ele>87.7</ele>
        <time>2019-01-08T09:15:57Z</time>
      </trkpt>
      <trkpt lat="43.53093" lon="3.51986">
        <ele>87.6</ele>
        <time>2019-01-08T09:15:59Z</time>
      </trkpt>
      <trkpt lat="43.53091" lon="3.51987">
        <ele>87.5</ele>
        <time>2019-01-08T09:16:01Z</time>
      </trkpt>
      <trkpt lat="43.53087" lon="3.51987">
        <ele>87.4</ele>
        <time>2019-01-08T09:16:04Z</time>
      </trkpt>
      <trkpt lat="43.53084" lon="3.51985">
        <ele>87.2</ele>
        <time>2019-01-08T09:16:07Z</time>
      </trkpt>
      <trkpt lat="43.53081" lon="3.51982">
        <ele>87.1</ele>
        <time>2019-01-08T09:16:10Z</time>
      </trkpt>
      <trkpt lat="43.53078" lon="3.51979">
        <ele>87</ele>
        <time>2019-01-08T09:16:13Z</time>
      </trkpt>
      <trkpt lat="43.53075" lon="3.51976">
        <ele>86.9</ele>
        <time>2019-01-08T09:16:16Z</time>
      </trkpt>
      <trkpt lat="43.53073" lon="3.51973">
        <ele>86.9</ele>
        <time>2019-01-08T09:16:18Z</time>
      </trkpt>
      <trkpt lat="43.53071" lon="3.51971">
        <ele>86.8</ele>
        <time>2019-01-08T09:16:20Z</time>
      </trkpt>
      <trkpt lat="43.53068" lon="3.51969">
        <ele>86.8</ele>
        <time>2019-01-08T09:16:23Z</time>
      </trkpt>
      <trkpt lat="43.53066" lon="3.51966">
        <ele>86.7</ele>
        <time>2019-01-08T09:16:26Z</time>
      </trkpt>
      <trkpt lat="43.53063" lon="3.51963">
        <ele>86.6</ele>
        <time>2019-01-08T09:16:29Z</time>
      </trkpt>
      <trkpt lat="43.5306" lon="3.51961">
        <ele>86.5</ele>
        <time>2019-01-08T09:16:32Z</time>
      </trkpt>
      <trkpt lat="43.53057" lon="3.51959">
        <ele>86.4</ele>
        <time>2019-01-08T09:16:34Z</time>
      </trkpt>
      <trkpt lat="43.53053" lon="3.51957">
        <ele>86.3</ele>
        <time>2019-01-08T09:16:36Z</time>
      </trkpt>
      <trkpt lat="43.53051" lon="3.51956">
        <ele>86.3</ele>
        <time>2019-01-08T09:16:38Z</time>
      </trkpt>
      <trkpt lat="43.53048" lon="3.51957">
        <ele>86.2</ele>
        <time>2019-01-08T09:16:40Z</time>
      </trkpt>
      <trkpt lat="43.53045" lon="3.51958">
        <ele>86.2</ele>
        <time>2019-01-08T09:16:42Z</time>
      </trkpt>
      <trkpt lat="43.53043" lon="3.5196">
        <ele>86.1</ele>
        <time>2019-01-08T09:16:44Z</time>
      </trkpt>
      <trkpt lat="43.5304" lon="3.51962">
        <ele>86.1</ele>
        <time>2019-01-08T09:16:46Z</time>
      </trkpt>
      <trkpt lat="43.53037" lon="3.51965">
        <ele>86</ele>
        <time>2019-01-08T09:16:49Z</time>
      </trkpt>
      <trkpt lat="43.53034" lon="3.51968">
        <ele>86</ele>
        <time>2019-01-08T09:16:51Z</time>
      </trkpt>
      <trkpt lat="43.53032" lon="3.5197">
        <ele>86</ele>
        <time>2019-01-08T09:16:53Z</time>
      </trkpt>
      <trkpt lat="43.5303" lon="3.51973">
        <ele>86.1</ele>
        <time>2019-01-08T09:16:55Z</time>
      </trkpt>
      <trkpt lat="43.53028" lon="3.51976">
        <ele>86.1</ele>
        <time>2019-01-08T09:16:57Z</time>
      </trkpt>
      <trkpt lat="43.53026" lon="3.51978">
        <ele>86.1</ele>
        <time>2019-01-08T09:16:59Z</time>
      </trkpt>
      <trkpt lat="43.53024" lon="3.5198">
        <ele>86.1</ele>
        <time>2019-01-08T09:17:01Z</time>
      </trkpt>
      <trkpt lat="43.53021" lon="3.51983">
        <ele>86.1</ele>
        <time>2019-01-08T09:17:03Z</time>
      </trkpt>
      <trkpt lat="43.53019" lon="3.51986">
        <ele>86.1</ele>
        <time>2019-01-08T09:17:05Z</time>
      </trkpt>
      <trkpt lat="43.53017" lon="3.51989">
        <ele>86.2</ele>
        <time>2019-01-08T09:17:07Z</time>
      </trkpt>
      <trkpt lat="43.53014" lon="3.51992">
        <ele>86.2</ele>
        <time>2019-01-08T09:17:09Z</time>
      </trkpt>
      <trkpt lat="43.53011" lon="3.51994">
        <ele>86.3</ele>
        <time>2019-01-08T09:17:11Z</time>
      </trkpt>
      <trkpt lat="43.53009" lon="3.51995">
        <ele>86.2</ele>
        <time>2019-01-08T09:17:15Z</time>
      </trkpt>
      <trkpt lat="43.53005" lon="3.51995">
        <ele>86.2</ele>
        <time>2019-01-08T09:17:18Z</time>
      </trkpt>
      <trkpt lat="43.53002" lon="3.51995">
        <ele>86.2</ele>
        <time>2019-01-08T09:17:20Z</time>
      </trkpt>
      <trkpt lat="43.52998" lon="3.51993">
        <ele>86.2</ele>
        <time>2019-01-08T09:17:23Z</time>
      </trkpt>
      <trkpt lat="43.52995" lon="3.51991">
        <ele>86.1</ele>
        <time>2019-01-08T09:17:26Z</time>
      </trkpt>
      <trkpt lat="43.52991" lon="3.51991">
        <ele>86.1</ele>
        <time>2019-01-08T09:17:28Z</time>
      </trkpt>
      <trkpt lat="43.52988" lon="3.51993">
        <ele>86.2</ele>
        <time>2019-01-08T09:17:31Z</time>
      </trkpt>
      <trkpt lat="43.52984" lon="3.51994">
        <ele>86.2</ele>
        <time>2019-01-08T09:17:34Z</time>
      </trkpt>
      <trkpt lat="43.52981" lon="3.51996">
        <ele>86.3</ele>
        <time>2019-01-08T09:17:36Z</time>
      </trkpt>
      <trkpt lat="43.52978" lon="3.51997">
        <ele>86.3</ele>
        <time>2019-01-08T09:17:39Z</time>
      </trkpt>
      <trkpt lat="43.52976" lon="3.51993">
        <ele>86.3</ele>
        <time>2019-01-08T09:17:42Z</time>
      </trkpt>
      <trkpt lat="43.52973" lon="3.5199">
        <ele>86.2</ele>
        <time>2019-01-08T09:17:45Z</time>
      </trkpt>
      <trkpt lat="43.5297" lon="3.51989">
        <ele>86.2</ele>
        <time>2019-01-08T09:17:47Z</time>
      </trkpt>
      <trkpt lat="43.52966" lon="3.5199">
        <ele>86.2</ele>
        <time>2019-01-08T09:17:50Z</time>
      </trkpt>
      <trkpt lat="43.52963" lon="3.51989">
        <ele>86.3</ele>
        <time>2019-01-08T09:17:53Z</time>
      </trkpt>
      <trkpt lat="43.5296" lon="3.51986">
        <ele>86.2</ele>
        <time>2019-01-08T09:17:55Z</time>
      </trkpt>
      <trkpt lat="43.52958" lon="3.51983">
        <ele>86.2</ele>
        <time>2019-01-08T09:17:57Z</time>
      </trkpt>
      <trkpt lat="43.52956" lon="3.5198">
        <ele>86.1</ele>
        <time>2019-01-08T09:17:59Z</time>
      </trkpt>
      <trkpt lat="43.52954" lon="3.51977">
        <ele>86.1</ele>
        <time>2019-01-08T09:18:01Z</time>
      </trkpt>
      <trkpt lat="43.52951" lon="3.51975">
        <ele>86.1</ele>
        <time>2019-01-08T09:18:03Z</time>
      </trkpt>
      <trkpt lat="43.52948" lon="3.51973">
        <ele>86</ele>
        <time>2019-01-08T09:18:06Z</time>
      </trkpt>
      <trkpt lat="43.52944" lon="3.51973">
        <ele>86</ele>
        <time>2019-01-08T09:18:10Z</time>
      </trkpt>
      <trkpt lat="43.52941" lon="3.51976">
        <ele>86.1</ele>
        <time>2019-01-08T09:18:13Z</time>
      </trkpt>
      <trkpt lat="43.52938" lon="3.51977">
        <ele>86.2</ele>
        <time>2019-01-08T09:18:15Z</time>
      </trkpt>
      <trkpt lat="43.52935" lon="3.51979">
        <ele>86.2</ele>
        <time>2019-01-08T09:18:17Z</time>
      </trkpt>
      <trkpt lat="43.52931" lon="3.5198">
        <ele>86.3</ele>
        <time>2019-01-08T09:18:19Z</time>
      </trkpt>
      <trkpt lat="43.52927" lon="3.5198">
        <ele>86.4</ele>
        <time>2019-01-08T09:18:21Z</time>
      </trkpt>
      <trkpt lat="43.52923" lon="3.5198">
        <ele>86.5</ele>
        <time>2019-01-08T09:18:23Z</time>
      </trkpt>
      <trkpt lat="43.5292" lon="3.51979">
        <ele>86.5</ele>
        <time>2019-01-08T09:18:25Z</time>
      </trkpt>
      <trkpt lat="43.52918" lon="3.51976">
        <ele>86.4</ele>
        <time>2019-01-08T09:18:27Z</time>
      </trkpt>
      <trkpt lat="43.52916" lon="3.51973">
        <ele>86.4</ele>
        <time>2019-01-08T09:18:29Z</time>
      </trkpt>
      <trkpt lat="43.52913" lon="3.5197">
        <ele>86.3</ele>
        <time>2019-01-08T09:18:31Z</time>
      </trkpt>
      <trkpt lat="43.52911" lon="3.51967">
        <ele>86.2</ele>
        <time>2019-01-08T09:18:33Z</time>
      </trkpt>
      <trkpt lat="43.5291" lon="3.51963">
        <ele>86.1</ele>
        <time>2019-01-08T09:18:35Z</time>
      </trkpt>
      <trkpt lat="43.52908" lon="3.51966">
        <ele>86.1</ele>
        <time>2019-01-08T09:18:44Z</time>
      </trkpt>
      <trkpt lat="43.52903" lon="3.51969">
        <ele>86.1</ele>
        <time>2019-01-08T09:18:46Z</time>
      </trkpt>
      <trkpt lat="43.52901" lon="3.51972">
        <ele>86.1</ele>
        <time>2019-01-08T09:18:48Z</time>
      </trkpt>
      <trkpt lat="43.52897" lon="3.51977">
        <ele>86.2</ele>
        <time>2019-01-08T09:18:50Z</time>
      </trkpt>
      <trkpt lat="43.52894" lon="3.51979">
        <ele>86.2</ele>
        <time>2019-01-08T09:18:52Z</time>
      </trkpt>
      <trkpt lat="43.52891" lon="3.51981">
        <ele>86.3</ele>
        <time>2019-01-08T09:18:56Z</time>
      </trkpt>
      <trkpt lat="43.5289" lon="3.51984">
        <ele>86.3</ele>
        <time>2019-01-08T09:18:59Z</time>
      </trkpt>
      <trkpt lat="43.52889" lon="3.51989">
        <ele>86.3</ele>
        <time>2019-01-08T09:19:05Z</time>
      </trkpt>
      <trkpt lat="43.52887" lon="3.51991">
        <ele>86.3</ele>
        <time>2019-01-08T09:19:09Z</time>
      </trkpt>
      <trkpt lat="43.52884" lon="3.51988">
        <ele>86.3</ele>
        <time>2019-01-08T09:19:11Z</time>
      </trkpt>
      <trkpt lat="43.5288" lon="3.51986">
        <ele>86.3</ele>
        <time>2019-01-08T09:19:13Z</time>
      </trkpt>
      <trkpt lat="43.52876" lon="3.51985">
        <ele>86.3</ele>
        <time>2019-01-08T09:19:15Z</time>
      </trkpt>
      <trkpt lat="43.52871" lon="3.51983">
        <ele>86.3</ele>
        <time>2019-01-08T09:19:17Z</time>
      </trkpt>
      <trkpt lat="43.52867" lon="3.51981">
        <ele>86</ele>
        <time>2019-01-08T09:19:19Z</time>
      </trkpt>
      <trkpt lat="43.52863" lon="3.51979">
        <ele>85.9</ele>
        <time>2019-01-08T09:19:21Z</time>
      </trkpt>
      <trkpt lat="43.5286" lon="3.5198">
        <ele>85.9</ele>
        <time>2019-01-08T09:19:22Z</time>
      </trkpt>
      <trkpt lat="43.52857" lon="3.51978">
        <ele>85.8</ele>
        <time>2019-01-08T09:19:24Z</time>
      </trkpt>
      <trkpt lat="43.52856" lon="3.51974">
        <ele>85.7</ele>
        <time>2019-01-08T09:19:26Z</time>
      </trkpt>
      <trkpt lat="43.52852" lon="3.51974">
        <ele>85.5</ele>
        <time>2019-01-08T09:19:29Z</time>
      </trkpt>
      <trkpt lat="43.52849" lon="3.51976">
        <ele>85.5</ele>
        <time>2019-01-08T09:19:31Z</time>
      </trkpt>
      <trkpt lat="43.52841" lon="3.51977">
        <ele>85.5</ele>
        <time>2019-01-08T09:19:33Z</time>
      </trkpt>
      <trkpt lat="43.52837" lon="3.51977">
        <ele>85.5</ele>
        <time>2019-01-08T09:19:35Z</time>
      </trkpt>
      <trkpt lat="43.52832" lon="3.51976">
        <ele>85.5</ele>
        <time>2019-01-08T09:19:37Z</time>
      </trkpt>
      <trkpt lat="43.52828" lon="3.51976">
        <ele>85.5</ele>
        <time>2019-01-08T09:19:40Z</time>
      </trkpt>
      <trkpt lat="43.52823" lon="3.51976">
        <ele>85.5</ele>
        <time>2019-01-08T09:19:42Z</time>
      </trkpt>
      <trkpt lat="43.52818" lon="3.51975">
        <ele>85.5</ele>
        <time>2019-01-08T09:20:40Z</time>
      </trkpt>
      <trkpt lat="43.52814" lon="3.51975">
        <ele>85.5</ele>
        <time>2019-01-08T09:20:41Z</time>
      </trkpt>
      <trkpt lat="43.52821" lon="3.51982">
        <ele>85.5</ele>
        <time>2019-01-08T09:20:42Z</time>
      </trkpt>
      <trkpt lat="43.5283" lon="3.51987">
        <ele>85.5</ele>
        <time>2019-01-08T09:20:43Z</time>
      </trkpt>
      <trkpt lat="43.52839" lon="3.51984">
        <ele>85.5</ele>
        <time>2019-01-08T09:20:44Z</time>
      </trkpt>
      <trkpt lat="43.52838" lon="3.51992">
        <ele>85.5</ele>
        <time>2019-01-08T09:20:45Z</time>
      </trkpt>
      <trkpt lat="43.52833" lon="3.51996">
        <ele>85.5</ele>
        <time>2019-01-08T09:20:46Z</time>
      </trkpt>
      <trkpt lat="43.52829" lon="3.52001">
        <ele>85.5</ele>
        <time>2019-01-08T09:20:47Z</time>
      </trkpt>
      <trkpt lat="43.52826" lon="3.52002">
        <ele>85.5</ele>
        <time>2019-01-08T09:20:54Z</time>
      </trkpt>
      <trkpt lat="43.52822" lon="3.52003">
        <ele>85.5</ele>
        <time>2019-01-08T09:20:55Z</time>
      </trkpt>
      <trkpt lat="43.52817" lon="3.52002">
        <ele>85.5</ele>
        <time>2019-01-08T09:20:57Z</time>
      </trkpt>
      <trkpt lat="43.52812" lon="3.52002">
        <ele>85.5</ele>
        <time>2019-01-08T09:20:59Z</time>
      </trkpt>
      <trkpt lat="43.52808" lon="3.52">
        <ele>85.5</ele>
        <time>2019-01-08T09:21:01Z</time>
      </trkpt>
      <trkpt lat="43.52806" lon="3.51997">
        <ele>85.5</ele>
        <time>2019-01-08T09:21:03Z</time>
      </trkpt>
      <trkpt lat="43.52803" lon="3.51996">
        <ele>85.5</ele>
        <time>2019-01-08T09:21:05Z</time>
      </trkpt>
      <trkpt lat="43.528" lon="3.51994">
        <ele>85.5</ele>
        <time>2019-01-08T09:21:07Z</time>
      </trkpt>
      <trkpt lat="43.52796" lon="3.51993">
        <ele>85.5</ele>
        <time>2019-01-08T09:21:09Z</time>
      </trkpt>
      <trkpt lat="43.52794" lon="3.51991">
        <ele>85.4</ele>
        <time>2019-01-08T09:21:11Z</time>
      </trkpt>
      <trkpt lat="43.52791" lon="3.51987">
        <ele>85.4</ele>
        <time>2019-01-08T09:21:14Z</time>
      </trkpt>
      <trkpt lat="43.52795" lon="3.51985">
        <ele>85.4</ele>
        <time>2019-01-08T09:21:18Z</time>
      </trkpt>
      <trkpt lat="43.52797" lon="3.51983">
        <ele>85.3</ele>
        <time>2019-01-08T09:21:21Z</time>
      </trkpt>
      <trkpt lat="43.52796" lon="3.51986">
        <ele>85.3</ele>
        <time>2019-01-08T09:21:24Z</time>
      </trkpt>
      <trkpt lat="43.52799" lon="3.51983">
        <ele>85.3</ele>
        <time>2019-01-08T09:21:29Z</time>
      </trkpt>
      <trkpt lat="43.52803" lon="3.51982">
        <ele>85.2</ele>
        <time>2019-01-08T09:21:31Z</time>
      </trkpt>
      <trkpt lat="43.52807" lon="3.51978">
        <ele>85.2</ele>
        <time>2019-01-08T09:21:33Z</time>
      </trkpt>
      <trkpt lat="43.52809" lon="3.51973">
        <ele>85.1</ele>
        <time>2019-01-08T09:21:35Z</time>
      </trkpt>
      <trkpt lat="43.52811" lon="3.5197">
        <ele>85.1</ele>
        <time>2019-01-08T09:21:37Z</time>
      </trkpt>
      <trkpt lat="43.52814" lon="3.51967">
        <ele>85</ele>
        <time>2019-01-08T09:21:40Z</time>
      </trkpt>
      <trkpt lat="43.52817" lon="3.51964">
        <ele>85</ele>
        <time>2019-01-08T09:21:42Z</time>
      </trkpt>
      <trkpt lat="43.5282" lon="3.5196">
        <ele>85</ele>
        <time>2019-01-08T09:21:44Z</time>
      </trkpt>
      <trkpt lat="43.52821" lon="3.51956">
        <ele>84.8</ele>
        <time>2019-01-08T09:21:46Z</time>
      </trkpt>
      <trkpt lat="43.52823" lon="3.51953">
        <ele>84.7</ele>
        <time>2019-01-08T09:21:48Z</time>
      </trkpt>
      <trkpt lat="43.52825" lon="3.5195">
        <ele>84.7</ele>
        <time>2019-01-08T09:21:50Z</time>
      </trkpt>
      <trkpt lat="43.52827" lon="3.51945">
        <ele>84.6</ele>
        <time>2019-01-08T09:21:53Z</time>
      </trkpt>
      <trkpt lat="43.52829" lon="3.51941">
        <ele>84.5</ele>
        <time>2019-01-08T09:21:55Z</time>
      </trkpt>
      <trkpt lat="43.52831" lon="3.51938">
        <ele>84.4</ele>
        <time>2019-01-08T09:21:57Z</time>
      </trkpt>
      <trkpt lat="43.52829" lon="3.51935">
        <ele>84.3</ele>
        <time>2019-01-08T09:22:02Z</time>
      </trkpt>
      <trkpt lat="43.52828" lon="3.5193">
        <ele>84.2</ele>
        <time>2019-01-08T09:22:04Z</time>
      </trkpt>
      <trkpt lat="43.52827" lon="3.51926">
        <ele>84.2</ele>
        <time>2019-01-08T09:22:05Z</time>
      </trkpt>
      <trkpt lat="43.52825" lon="3.51923">
        <ele>84.1</ele>
        <time>2019-01-08T09:22:06Z</time>
      </trkpt>
      <trkpt lat="43.52824" lon="3.51919">
        <ele>83.6</ele>
        <time>2019-01-08T09:22:08Z</time>
      </trkpt>
      <trkpt lat="43.52823" lon="3.51915">
        <ele>83.5</ele>
        <time>2019-01-08T09:22:10Z</time>
      </trkpt>
      <trkpt lat="43.52823" lon="3.51909">
        <ele>83.4</ele>
        <time>2019-01-08T09:22:12Z</time>
      </trkpt>
      <trkpt lat="43.52823" lon="3.51905">
        <ele>83.3</ele>
        <time>2019-01-08T09:22:14Z</time>
      </trkpt>
      <trkpt lat="43.52821" lon="3.51901">
        <ele>83.2</ele>
        <time>2019-01-08T09:22:17Z</time>
      </trkpt>
      <trkpt lat="43.52819" lon="3.51898">
        <ele>83.1</ele>
        <time>2019-01-08T09:22:21Z</time>
      </trkpt>
      <trkpt lat="43.52816" lon="3.51894">
        <ele>82.8</ele>
        <time>2019-01-08T09:22:24Z</time>
      </trkpt>
      <trkpt lat="43.52813" lon="3.51896">
        <ele>82.7</ele>
        <time>2019-01-08T09:22:25Z</time>
      </trkpt>
      <trkpt lat="43.52808" lon="3.51898">
        <ele>82.5</ele>
        <time>2019-01-08T09:22:27Z</time>
      </trkpt>
      <trkpt lat="43.52805" lon="3.51898">
        <ele>82.5</ele>
        <time>2019-01-08T09:22:28Z</time>
      </trkpt>
      <trkpt lat="43.52803" lon="3.51894">
        <ele>82.3</ele>
        <time>2019-01-08T09:22:30Z</time>
      </trkpt>
      <trkpt lat="43.52801" lon="3.5189">
        <ele>82.3</ele>
        <time>2019-01-08T09:22:32Z</time>
      </trkpt>
      <trkpt lat="43.52799" lon="3.51892">
        <ele>82.2</ele>
        <time>2019-01-08T09:22:35Z</time>
      </trkpt>
      <trkpt lat="43.52798" lon="3.51887">
        <ele>82.1</ele>
        <time>2019-01-08T09:22:38Z</time>
      </trkpt>
      <trkpt lat="43.52796" lon="3.51883">
        <ele>82</ele>
        <time>2019-01-08T09:22:40Z</time>
      </trkpt>
      <trkpt lat="43.52797" lon="3.51879">
        <ele>81.9</ele>
        <time>2019-01-08T09:22:42Z</time>
      </trkpt>
      <trkpt lat="43.52798" lon="3.51873">
        <ele>81.7</ele>
        <time>2019-01-08T09:22:44Z</time>
      </trkpt>
      <trkpt lat="43.52799" lon="3.51867">
        <ele>81.3</ele>
        <time>2019-01-08T09:22:46Z</time>
      </trkpt>
      <trkpt lat="43.528" lon="3.51863">
        <ele>81.2</ele>
        <time>2019-01-08T09:22:48Z</time>
      </trkpt>
      <trkpt lat="43.528" lon="3.51859">
        <ele>81.1</ele>
        <time>2019-01-08T09:22:51Z</time>
      </trkpt>
      <trkpt lat="43.528" lon="3.51854">
        <ele>81</ele>
        <time>2019-01-08T09:22:54Z</time>
      </trkpt>
      <trkpt lat="43.52801" lon="3.51849">
        <ele>80.8</ele>
        <time>2019-01-08T09:22:57Z</time>
      </trkpt>
      <trkpt lat="43.52803" lon="3.51845">
        <ele>80.7</ele>
        <time>2019-01-08T09:23:00Z</time>
      </trkpt>
      <trkpt lat="43.52804" lon="3.51841">
        <ele>80.6</ele>
        <time>2019-01-08T09:23:03Z</time>
      </trkpt>
      <trkpt lat="43.52804" lon="3.51837">
        <ele>80.5</ele>
        <time>2019-01-08T09:23:06Z</time>
      </trkpt>
      <trkpt lat="43.52804" lon="3.51833">
        <ele>80.4</ele>
        <time>2019-01-08T09:23:08Z</time>
      </trkpt>
      <trkpt lat="43.52803" lon="3.51828">
        <ele>80.3</ele>
        <time>2019-01-08T09:23:10Z</time>
      </trkpt>
      <trkpt lat="43.52804" lon="3.51823">
        <ele>80.2</ele>
        <time>2019-01-08T09:23:12Z</time>
      </trkpt>
      <trkpt lat="43.52804" lon="3.51819">
        <ele>80.1</ele>
        <time>2019-01-08T09:23:14Z</time>
      </trkpt>
      <trkpt lat="43.52804" lon="3.51814">
        <ele>79.9</ele>
        <time>2019-01-08T09:23:16Z</time>
      </trkpt>
      <trkpt lat="43.52804" lon="3.5181">
        <ele>79.8</ele>
        <time>2019-01-08T09:23:18Z</time>
      </trkpt>
      <trkpt lat="43.52804" lon="3.51804">
        <ele>79.6</ele>
        <time>2019-01-08T09:23:21Z</time>
      </trkpt>
      <trkpt lat="43.52805" lon="3.51799">
        <ele>79.6</ele>
        <time>2019-01-08T09:23:23Z</time>
      </trkpt>
      <trkpt lat="43.52804" lon="3.51795">
        <ele>79.4</ele>
        <time>2019-01-08T09:23:25Z</time>
      </trkpt>
      <trkpt lat="43.52803" lon="3.5179">
        <ele>79.2</ele>
        <time>2019-01-08T09:23:28Z</time>
      </trkpt>
      <trkpt lat="43.52804" lon="3.51786">
        <ele>79.1</ele>
        <time>2019-01-08T09:23:30Z</time>
      </trkpt>
      <trkpt lat="43.52806" lon="3.51783">
        <ele>79</ele>
        <time>2019-01-08T09:23:33Z</time>
      </trkpt>
      <trkpt lat="43.52809" lon="3.51779">
        <ele>78.9</ele>
        <time>2019-01-08T09:23:36Z</time>
      </trkpt>
      <trkpt lat="43.52811" lon="3.51776">
        <ele>78.8</ele>
        <time>2019-01-08T09:23:38Z</time>
      </trkpt>
      <trkpt lat="43.52814" lon="3.51773">
        <ele>78.8</ele>
        <time>2019-01-08T09:23:41Z</time>
      </trkpt>
      <trkpt lat="43.52815" lon="3.5177">
        <ele>78.9</ele>
        <time>2019-01-08T09:23:43Z</time>
      </trkpt>
      <trkpt lat="43.52819" lon="3.51767">
        <ele>79</ele>
        <time>2019-01-08T09:23:46Z</time>
      </trkpt>
      <trkpt lat="43.52822" lon="3.51764">
        <ele>79.1</ele>
        <time>2019-01-08T09:23:48Z</time>
      </trkpt>
      <trkpt lat="43.52824" lon="3.51762">
        <ele>79.2</ele>
        <time>2019-01-08T09:23:50Z</time>
      </trkpt>
      <trkpt lat="43.52828" lon="3.51759">
        <ele>79.2</ele>
        <time>2019-01-08T09:23:52Z</time>
      </trkpt>
      <trkpt lat="43.5283" lon="3.51757">
        <ele>79.3</ele>
        <time>2019-01-08T09:23:54Z</time>
      </trkpt>
      <trkpt lat="43.52832" lon="3.51754">
        <ele>79.4</ele>
        <time>2019-01-08T09:23:56Z</time>
      </trkpt>
      <trkpt lat="43.52834" lon="3.5175">
        <ele>79.5</ele>
        <time>2019-01-08T09:23:59Z</time>
      </trkpt>
      <trkpt lat="43.52833" lon="3.51744">
        <ele>79.8</ele>
        <time>2019-01-08T09:24:02Z</time>
      </trkpt>
      <trkpt lat="43.52832" lon="3.51738">
        <ele>79.9</ele>
        <time>2019-01-08T09:24:04Z</time>
      </trkpt>
      <trkpt lat="43.52831" lon="3.51732">
        <ele>79.9</ele>
        <time>2019-01-08T09:24:06Z</time>
      </trkpt>
      <trkpt lat="43.5283" lon="3.51728">
        <ele>79.8</ele>
        <time>2019-01-08T09:24:08Z</time>
      </trkpt>
      <trkpt lat="43.52828" lon="3.51725">
        <ele>79.8</ele>
        <time>2019-01-08T09:24:10Z</time>
      </trkpt>
      <trkpt lat="43.52825" lon="3.51722">
        <ele>79.8</ele>
        <time>2019-01-08T09:24:13Z</time>
      </trkpt>
      <trkpt lat="43.52824" lon="3.51717">
        <ele>79.8</ele>
        <time>2019-01-08T09:24:16Z</time>
      </trkpt>
      <trkpt lat="43.52824" lon="3.51713">
        <ele>79.7</ele>
        <time>2019-01-08T09:24:18Z</time>
      </trkpt>
      <trkpt lat="43.52822" lon="3.51709">
        <ele>79.7</ele>
        <time>2019-01-08T09:24:21Z</time>
      </trkpt>
      <trkpt lat="43.52819" lon="3.51707">
        <ele>79.7</ele>
        <time>2019-01-08T09:24:24Z</time>
      </trkpt>
      <trkpt lat="43.52816" lon="3.51705">
        <ele>79.7</ele>
        <time>2019-01-08T09:24:26Z</time>
      </trkpt>
      <trkpt lat="43.52814" lon="3.51703">
        <ele>79.6</ele>
        <time>2019-01-08T09:24:28Z</time>
      </trkpt>
      <trkpt lat="43.52811" lon="3.51702">
        <ele>79.6</ele>
        <time>2019-01-08T09:24:30Z</time>
      </trkpt>
      <trkpt lat="43.52808" lon="3.51699">
        <ele>79.6</ele>
        <time>2019-01-08T09:24:32Z</time>
      </trkpt>
      <trkpt lat="43.52806" lon="3.51695">
        <ele>79.5</ele>
        <time>2019-01-08T09:24:34Z</time>
      </trkpt>
      <trkpt lat="43.52804" lon="3.51691">
        <ele>79.5</ele>
        <time>2019-01-08T09:24:36Z</time>
      </trkpt>
      <trkpt lat="43.52802" lon="3.51687">
        <ele>79.4</ele>
        <time>2019-01-08T09:24:39Z</time>
      </trkpt>
      <trkpt lat="43.528" lon="3.51684">
        <ele>79.4</ele>
        <time>2019-01-08T09:24:41Z</time>
      </trkpt>
      <trkpt lat="43.52798" lon="3.51682">
        <ele>79.4</ele>
        <time>2019-01-08T09:24:43Z</time>
      </trkpt>
      <trkpt lat="43.52794" lon="3.5168">
        <ele>79.5</ele>
        <time>2019-01-08T09:24:46Z</time>
      </trkpt>
      <trkpt lat="43.52791" lon="3.51679">
        <ele>79.5</ele>
        <time>2019-01-08T09:24:48Z</time>
      </trkpt>
      <trkpt lat="43.52789" lon="3.51676">
        <ele>79.4</ele>
        <time>2019-01-08T09:24:51Z</time>
      </trkpt>
      <trkpt lat="43.52787" lon="3.51672">
        <ele>79.4</ele>
        <time>2019-01-08T09:24:53Z</time>
      </trkpt>
      <trkpt lat="43.52785" lon="3.51668">
        <ele>79.3</ele>
        <time>2019-01-08T09:24:56Z</time>
      </trkpt>
      <trkpt lat="43.52782" lon="3.51667">
        <ele>79.2</ele>
        <time>2019-01-08T09:24:58Z</time>
      </trkpt>
      <trkpt lat="43.52778" lon="3.51667">
        <ele>79.1</ele>
        <time>2019-01-08T09:25:01Z</time>
      </trkpt>
      <trkpt lat="43.52775" lon="3.51664">
        <ele>79.1</ele>
        <time>2019-01-08T09:25:03Z</time>
      </trkpt>
      <trkpt lat="43.52771" lon="3.51662">
        <ele>79</ele>
        <time>2019-01-08T09:25:05Z</time>
      </trkpt>
      <trkpt lat="43.52768" lon="3.51661">
        <ele>78.9</ele>
        <time>2019-01-08T09:25:07Z</time>
      </trkpt>
      <trkpt lat="43.52764" lon="3.51659">
        <ele>78.9</ele>
        <time>2019-01-08T09:25:09Z</time>
      </trkpt>
      <trkpt lat="43.5276" lon="3.51657">
        <ele>78.8</ele>
        <time>2019-01-08T09:25:11Z</time>
      </trkpt>
      <trkpt lat="43.52756" lon="3.51655">
        <ele>78.8</ele>
        <time>2019-01-08T09:25:13Z</time>
      </trkpt>
      <trkpt lat="43.52753" lon="3.51653">
        <ele>78.8</ele>
        <time>2019-01-08T09:25:15Z</time>
      </trkpt>
      <trkpt lat="43.52749" lon="3.51652">
        <ele>78.7</ele>
        <time>2019-01-08T09:25:17Z</time>
      </trkpt>
      <trkpt lat="43.52746" lon="3.51648">
        <ele>78.6</ele>
        <time>2019-01-08T09:25:20Z</time>
      </trkpt>
      <trkpt lat="43.52744" lon="3.51646">
        <ele>78.6</ele>
        <time>2019-01-08T09:25:22Z</time>
      </trkpt>
      <trkpt lat="43.52742" lon="3.51642">
        <ele>78.6</ele>
        <time>2019-01-08T09:25:25Z</time>
      </trkpt>
      <trkpt lat="43.52739" lon="3.51638">
        <ele>78.6</ele>
        <time>2019-01-08T09:25:28Z</time>
      </trkpt>
      <trkpt lat="43.52737" lon="3.51636">
        <ele>78.5</ele>
        <time>2019-01-08T09:25:30Z</time>
      </trkpt>
      <trkpt lat="43.52734" lon="3.51634">
        <ele>78.5</ele>
        <time>2019-01-08T09:25:32Z</time>
      </trkpt>
      <trkpt lat="43.52731" lon="3.51632">
        <ele>78.5</ele>
        <time>2019-01-08T09:25:34Z</time>
      </trkpt>
      <trkpt lat="43.52729" lon="3.51628">
        <ele>78.4</ele>
        <time>2019-01-08T09:25:37Z</time>
      </trkpt>
      <trkpt lat="43.52727" lon="3.51626">
        <ele>78.3</ele>
        <time>2019-01-08T09:25:39Z</time>
      </trkpt>
      <trkpt lat="43.52725" lon="3.51622">
        <ele>78.2</ele>
        <time>2019-01-08T09:25:41Z</time>
      </trkpt>
      <trkpt lat="43.52723" lon="3.5162">
        <ele>78.2</ele>
        <time>2019-01-08T09:25:43Z</time>
      </trkpt>
      <trkpt lat="43.52721" lon="3.51617">
        <ele>78.1</ele>
        <time>2019-01-08T09:25:45Z</time>
      </trkpt>
      <trkpt lat="43.52717" lon="3.51616">
        <ele>78</ele>
        <time>2019-01-08T09:25:48Z</time>
      </trkpt>
      <trkpt lat="43.52713" lon="3.51614">
        <ele>77.9</ele>
        <time>2019-01-08T09:25:50Z</time>
      </trkpt>
      <trkpt lat="43.52711" lon="3.5161">
        <ele>77.8</ele>
        <time>2019-01-08T09:25:52Z</time>
      </trkpt>
      <trkpt lat="43.52709" lon="3.51607">
        <ele>77.7</ele>
        <time>2019-01-08T09:25:54Z</time>
      </trkpt>
      <trkpt lat="43.52706" lon="3.51603">
        <ele>77.6</ele>
        <time>2019-01-08T09:25:57Z</time>
      </trkpt>
      <trkpt lat="43.52704" lon="3.516">
        <ele>77.5</ele>
        <time>2019-01-08T09:25:59Z</time>
      </trkpt>
      <trkpt lat="43.52701" lon="3.51597">
        <ele>77.3</ele>
        <time>2019-01-08T09:26:01Z</time>
      </trkpt>
      <trkpt lat="43.52698" lon="3.51594">
        <ele>77.2</ele>
        <time>2019-01-08T09:26:03Z</time>
      </trkpt>
      <trkpt lat="43.52695" lon="3.51593">
        <ele>77.1</ele>
        <time>2019-01-08T09:26:05Z</time>
      </trkpt>
      <trkpt lat="43.52693" lon="3.51589">
        <ele>77</ele>
        <time>2019-01-08T09:26:07Z</time>
      </trkpt>
      <trkpt lat="43.52691" lon="3.51585">
        <ele>76.9</ele>
        <time>2019-01-08T09:26:09Z</time>
      </trkpt>
      <trkpt lat="43.52689" lon="3.51583">
        <ele>76.8</ele>
        <time>2019-01-08T09:26:11Z</time>
      </trkpt>
      <trkpt lat="43.52686" lon="3.51579">
        <ele>76.7</ele>
        <time>2019-01-08T09:26:14Z</time>
      </trkpt>
      <trkpt lat="43.52684" lon="3.51578">
        <ele>76.6</ele>
        <time>2019-01-08T09:26:17Z</time>
      </trkpt>
      <trkpt lat="43.52682" lon="3.51574">
        <ele>76.5</ele>
        <time>2019-01-08T09:26:20Z</time>
      </trkpt>
      <trkpt lat="43.52679" lon="3.5157">
        <ele>76.3</ele>
        <time>2019-01-08T09:26:23Z</time>
      </trkpt>
      <trkpt lat="43.52677" lon="3.51566">
        <ele>76.2</ele>
        <time>2019-01-08T09:26:26Z</time>
      </trkpt>
      <trkpt lat="43.52676" lon="3.51562">
        <ele>76.1</ele>
        <time>2019-01-08T09:26:29Z</time>
      </trkpt>
      <trkpt lat="43.52674" lon="3.51557">
        <ele>76.1</ele>
        <time>2019-01-08T09:26:32Z</time>
      </trkpt>
      <trkpt lat="43.52673" lon="3.51553">
        <ele>76.1</ele>
        <time>2019-01-08T09:26:34Z</time>
      </trkpt>
      <trkpt lat="43.52671" lon="3.51548">
        <ele>76</ele>
        <time>2019-01-08T09:26:38Z</time>
      </trkpt>
      <trkpt lat="43.52671" lon="3.51543">
        <ele>76</ele>
        <time>2019-01-08T09:26:40Z</time>
      </trkpt>
      <trkpt lat="43.52672" lon="3.51538">
        <ele>75.9</ele>
        <time>2019-01-08T09:26:42Z</time>
      </trkpt>
      <trkpt lat="43.5267" lon="3.51539">
        <ele>75.9</ele>
        <time>2019-01-08T09:26:46Z</time>
      </trkpt>
      <trkpt lat="43.52666" lon="3.51538">
        <ele>75.9</ele>
        <time>2019-01-08T09:26:48Z</time>
      </trkpt>
      <trkpt lat="43.52662" lon="3.51535">
        <ele>75.8</ele>
        <time>2019-01-08T09:26:50Z</time>
      </trkpt>
      <trkpt lat="43.52658" lon="3.51532">
        <ele>75.6</ele>
        <time>2019-01-08T09:26:52Z</time>
      </trkpt>
      <trkpt lat="43.52654" lon="3.51529">
        <ele>75.5</ele>
        <time>2019-01-08T09:26:54Z</time>
      </trkpt>
      <trkpt lat="43.52652" lon="3.51525">
        <ele>75.4</ele>
        <time>2019-01-08T09:26:56Z</time>
      </trkpt>
      <trkpt lat="43.52649" lon="3.51522">
        <ele>75.3</ele>
        <time>2019-01-08T09:26:58Z</time>
      </trkpt>
      <trkpt lat="43.52647" lon="3.51518">
        <ele>75.2</ele>
        <time>2019-01-08T09:27:00Z</time>
      </trkpt>
      <trkpt lat="43.52645" lon="3.51515">
        <ele>75</ele>
        <time>2019-01-08T09:27:03Z</time>
      </trkpt>
      <trkpt lat="43.52643" lon="3.51512">
        <ele>74.9</ele>
        <time>2019-01-08T09:27:06Z</time>
      </trkpt>
      <trkpt lat="43.5264" lon="3.5151">
        <ele>74.7</ele>
        <time>2019-01-08T09:27:08Z</time>
      </trkpt>
      <trkpt lat="43.52638" lon="3.51507">
        <ele>74.6</ele>
        <time>2019-01-08T09:27:10Z</time>
      </trkpt>
      <trkpt lat="43.52635" lon="3.51505">
        <ele>74.4</ele>
        <time>2019-01-08T09:27:13Z</time>
      </trkpt>
      <trkpt lat="43.52632" lon="3.51503">
        <ele>74.3</ele>
        <time>2019-01-08T09:27:15Z</time>
      </trkpt>
      <trkpt lat="43.52629" lon="3.51501">
        <ele>74.1</ele>
        <time>2019-01-08T09:27:17Z</time>
      </trkpt>
      <trkpt lat="43.52626" lon="3.51499">
        <ele>73.9</ele>
        <time>2019-01-08T09:27:19Z</time>
      </trkpt>
      <trkpt lat="43.52624" lon="3.51496">
        <ele>73.8</ele>
        <time>2019-01-08T09:27:22Z</time>
      </trkpt>
      <trkpt lat="43.52621" lon="3.51494">
        <ele>73.6</ele>
        <time>2019-01-08T09:27:24Z</time>
      </trkpt>
      <trkpt lat="43.52618" lon="3.51491">
        <ele>73.5</ele>
        <time>2019-01-08T09:27:26Z</time>
      </trkpt>
      <trkpt lat="43.52615" lon="3.51488">
        <ele>73.4</ele>
        <time>2019-01-08T09:27:28Z</time>
      </trkpt>
      <trkpt lat="43.52614" lon="3.51484">
        <ele>73.3</ele>
        <time>2019-01-08T09:27:30Z</time>
      </trkpt>
      <trkpt lat="43.52612" lon="3.51481">
        <ele>73.2</ele>
        <time>2019-01-08T09:27:33Z</time>
      </trkpt>
      <trkpt lat="43.5261" lon="3.51478">
        <ele>73.1</ele>
        <time>2019-01-08T09:27:36Z</time>
      </trkpt>
      <trkpt lat="43.52608" lon="3.51476">
        <ele>73</ele>
        <time>2019-01-08T09:27:37Z</time>
      </trkpt>
      <trkpt lat="43.52605" lon="3.51472">
        <ele>72.9</ele>
        <time>2019-01-08T09:27:40Z</time>
      </trkpt>
      <trkpt lat="43.52602" lon="3.51469">
        <ele>72.9</ele>
        <time>2019-01-08T09:27:43Z</time>
      </trkpt>
      <trkpt lat="43.52599" lon="3.51467">
        <ele>72.9</ele>
        <time>2019-01-08T09:27:45Z</time>
      </trkpt>
      <trkpt lat="43.52597" lon="3.51464">
        <ele>72.9</ele>
        <time>2019-01-08T09:27:47Z</time>
      </trkpt>
      <trkpt lat="43.52595" lon="3.51462">
        <ele>72.8</ele>
        <time>2019-01-08T09:27:49Z</time>
      </trkpt>
      <trkpt lat="43.52593" lon="3.5146">
        <ele>72.7</ele>
        <time>2019-01-08T09:27:51Z</time>
      </trkpt>
      <trkpt lat="43.52589" lon="3.51458">
        <ele>72.6</ele>
        <time>2019-01-08T09:27:53Z</time>
      </trkpt>
      <trkpt lat="43.52587" lon="3.51455">
        <ele>72.4</ele>
        <time>2019-01-08T09:27:55Z</time>
      </trkpt>
      <trkpt lat="43.52584" lon="3.51453">
        <ele>72.3</ele>
        <time>2019-01-08T09:27:57Z</time>
      </trkpt>
      <trkpt lat="43.52581" lon="3.51451">
        <ele>72.3</ele>
        <time>2019-01-08T09:27:59Z</time>
      </trkpt>
      <trkpt lat="43.52578" lon="3.51449">
        <ele>72.3</ele>
        <time>2019-01-08T09:28:01Z</time>
      </trkpt>
      <trkpt lat="43.52575" lon="3.51447">
        <ele>72.1</ele>
        <time>2019-01-08T09:28:03Z</time>
      </trkpt>
      <trkpt lat="43.52571" lon="3.51445">
        <ele>71.9</ele>
        <time>2019-01-08T09:28:05Z</time>
      </trkpt>
      <trkpt lat="43.52567" lon="3.51444">
        <ele>71.8</ele>
        <time>2019-01-08T09:28:07Z</time>
      </trkpt>
      <trkpt lat="43.52564" lon="3.51442">
        <ele>71.8</ele>
        <time>2019-01-08T09:28:09Z</time>
      </trkpt>
      <trkpt lat="43.5256" lon="3.51438">
        <ele>71.8</ele>
        <time>2019-01-08T09:28:12Z</time>
      </trkpt>
      <trkpt lat="43.52558" lon="3.51435">
        <ele>71.8</ele>
        <time>2019-01-08T09:28:14Z</time>
      </trkpt>
      <trkpt lat="43.52555" lon="3.51432">
        <ele>71.8</ele>
        <time>2019-01-08T09:28:16Z</time>
      </trkpt>
      <trkpt lat="43.52554" lon="3.51428">
        <ele>71.8</ele>
        <time>2019-01-08T09:28:18Z</time>
      </trkpt>
      <trkpt lat="43.52553" lon="3.51424">
        <ele>71.8</ele>
        <time>2019-01-08T09:28:20Z</time>
      </trkpt>
      <trkpt lat="43.52552" lon="3.51421">
        <ele>71.8</ele>
        <time>2019-01-08T09:28:22Z</time>
      </trkpt>
      <trkpt lat="43.52552" lon="3.51417">
        <ele>71.8</ele>
        <time>2019-01-08T09:28:24Z</time>
      </trkpt>
      <trkpt lat="43.52552" lon="3.51412">
        <ele>71.9</ele>
        <time>2019-01-08T09:28:27Z</time>
      </trkpt>
      <trkpt lat="43.52551" lon="3.51407">
        <ele>71.9</ele>
        <time>2019-01-08T09:28:29Z</time>
      </trkpt>
      <trkpt lat="43.52553" lon="3.51402">
        <ele>72</ele>
        <time>2019-01-08T09:28:31Z</time>
      </trkpt>
      <trkpt lat="43.52554" lon="3.51397">
        <ele>72</ele>
        <time>2019-01-08T09:28:33Z</time>
      </trkpt>
      <trkpt lat="43.52555" lon="3.51392">
        <ele>72</ele>
        <time>2019-01-08T09:28:35Z</time>
      </trkpt>
      <trkpt lat="43.52555" lon="3.51388">
        <ele>72</ele>
        <time>2019-01-08T09:28:37Z</time>
      </trkpt>
      <trkpt lat="43.52556" lon="3.51384">
        <ele>72</ele>
        <time>2019-01-08T09:28:39Z</time>
      </trkpt>
      <trkpt lat="43.52557" lon="3.51379">
        <ele>72.1</ele>
        <time>2019-01-08T09:28:41Z</time>
      </trkpt>
      <trkpt lat="43.52559" lon="3.51376">
        <ele>72.1</ele>
        <time>2019-01-08T09:28:43Z</time>
      </trkpt>
      <trkpt lat="43.52559" lon="3.51372">
        <ele>72.1</ele>
        <time>2019-01-08T09:28:45Z</time>
      </trkpt>
      <trkpt lat="43.52559" lon="3.51368">
        <ele>72.1</ele>
        <time>2019-01-08T09:28:47Z</time>
      </trkpt>
      <trkpt lat="43.52559" lon="3.51364">
        <ele>72.1</ele>
        <time>2019-01-08T09:28:49Z</time>
      </trkpt>
      <trkpt lat="43.52559" lon="3.51359">
        <ele>72</ele>
        <time>2019-01-08T09:28:51Z</time>
      </trkpt>
      <trkpt lat="43.52558" lon="3.51355">
        <ele>72</ele>
        <time>2019-01-08T09:28:53Z</time>
      </trkpt>
      <trkpt lat="43.52558" lon="3.51351">
        <ele>72</ele>
        <time>2019-01-08T09:28:55Z</time>
      </trkpt>
      <trkpt lat="43.52556" lon="3.51347">
        <ele>71.9</ele>
        <time>2019-01-08T09:28:57Z</time>
      </trkpt>
      <trkpt lat="43.52556" lon="3.51343">
        <ele>71.9</ele>
        <time>2019-01-08T09:29:00Z</time>
      </trkpt>
      <trkpt lat="43.52556" lon="3.51337">
        <ele>71.9</ele>
        <time>2019-01-08T09:29:03Z</time>
      </trkpt>
      <trkpt lat="43.52558" lon="3.51332">
        <ele>71.9</ele>
        <time>2019-01-08T09:29:06Z</time>
      </trkpt>
      <trkpt lat="43.52559" lon="3.51329">
        <ele>71.8</ele>
        <time>2019-01-08T09:29:08Z</time>
      </trkpt>
      <trkpt lat="43.52559" lon="3.51325">
        <ele>71.8</ele>
        <time>2019-01-08T09:29:10Z</time>
      </trkpt>
      <trkpt lat="43.5256" lon="3.51321">
        <ele>71.8</ele>
        <time>2019-01-08T09:29:12Z</time>
      </trkpt>
      <trkpt lat="43.5256" lon="3.51317">
        <ele>71.8</ele>
        <time>2019-01-08T09:29:14Z</time>
      </trkpt>
      <trkpt lat="43.5256" lon="3.51313">
        <ele>71.8</ele>
        <time>2019-01-08T09:29:16Z</time>
      </trkpt>
      <trkpt lat="43.52561" lon="3.51309">
        <ele>71.8</ele>
        <time>2019-01-08T09:29:18Z</time>
      </trkpt>
      <trkpt lat="43.52561" lon="3.51304">
        <ele>71.8</ele>
        <time>2019-01-08T09:29:21Z</time>
      </trkpt>
      <trkpt lat="43.52562" lon="3.513">
        <ele>71.8</ele>
        <time>2019-01-08T09:29:23Z</time>
      </trkpt>
      <trkpt lat="43.52562" lon="3.51296">
        <ele>71.7</ele>
        <time>2019-01-08T09:29:25Z</time>
      </trkpt>
      <trkpt lat="43.52562" lon="3.51291">
        <ele>71.7</ele>
        <time>2019-01-08T09:29:27Z</time>
      </trkpt>
      <trkpt lat="43.52563" lon="3.51287">
        <ele>71.6</ele>
        <time>2019-01-08T09:29:29Z</time>
      </trkpt>
      <trkpt lat="43.52563" lon="3.51283">
        <ele>71.6</ele>
        <time>2019-01-08T09:29:31Z</time>
      </trkpt>
      <trkpt lat="43.52564" lon="3.51278">
        <ele>71.5</ele>
        <time>2019-01-08T09:29:34Z</time>
      </trkpt>
      <trkpt lat="43.52565" lon="3.51274">
        <ele>71.3</ele>
        <time>2019-01-08T09:29:37Z</time>
      </trkpt>
      <trkpt lat="43.52564" lon="3.51268">
        <ele>71.2</ele>
        <time>2019-01-08T09:29:40Z</time>
      </trkpt>
      <trkpt lat="43.52564" lon="3.51263">
        <ele>71.1</ele>
        <time>2019-01-08T09:29:42Z</time>
      </trkpt>
      <trkpt lat="43.52564" lon="3.51259">
        <ele>71</ele>
        <time>2019-01-08T09:29:44Z</time>
      </trkpt>
      <trkpt lat="43.52564" lon="3.51254">
        <ele>70.8</ele>
        <time>2019-01-08T09:29:46Z</time>
      </trkpt>
      <trkpt lat="43.52565" lon="3.51249">
        <ele>70.7</ele>
        <time>2019-01-08T09:29:48Z</time>
      </trkpt>
      <trkpt lat="43.52564" lon="3.51244">
        <ele>70.5</ele>
        <time>2019-01-08T09:29:51Z</time>
      </trkpt>
      <trkpt lat="43.52565" lon="3.51239">
        <ele>70.2</ele>
        <time>2019-01-08T09:29:54Z</time>
      </trkpt>
      <trkpt lat="43.52565" lon="3.51235">
        <ele>70.1</ele>
        <time>2019-01-08T09:29:56Z</time>
      </trkpt>
      <trkpt lat="43.52566" lon="3.51229">
        <ele>69.9</ele>
        <time>2019-01-08T09:29:59Z</time>
      </trkpt>
      <trkpt lat="43.52568" lon="3.51225">
        <ele>69.7</ele>
        <time>2019-01-08T09:30:01Z</time>
      </trkpt>
      <trkpt lat="43.52568" lon="3.51219">
        <ele>69.5</ele>
        <time>2019-01-08T09:30:04Z</time>
      </trkpt>
      <trkpt lat="43.52568" lon="3.51215">
        <ele>69.3</ele>
        <time>2019-01-08T09:30:06Z</time>
      </trkpt>
      <trkpt lat="43.52569" lon="3.5121">
        <ele>69</ele>
        <time>2019-01-08T09:30:09Z</time>
      </trkpt>
      <trkpt lat="43.5257" lon="3.51205">
        <ele>68.9</ele>
        <time>2019-01-08T09:30:12Z</time>
      </trkpt>
      <trkpt lat="43.52571" lon="3.512">
        <ele>68.8</ele>
        <time>2019-01-08T09:30:15Z</time>
      </trkpt>
      <trkpt lat="43.52572" lon="3.51196">
        <ele>68.7</ele>
        <time>2019-01-08T09:30:17Z</time>
      </trkpt>
      <trkpt lat="43.52572" lon="3.51192">
        <ele>68.5</ele>
        <time>2019-01-08T09:30:19Z</time>
      </trkpt>
      <trkpt lat="43.52572" lon="3.51187">
        <ele>68.3</ele>
        <time>2019-01-08T09:30:21Z</time>
      </trkpt>
      <trkpt lat="43.52573" lon="3.51183">
        <ele>68.2</ele>
        <time>2019-01-08T09:30:23Z</time>
      </trkpt>
      <trkpt lat="43.52573" lon="3.51178">
        <ele>68</ele>
        <time>2019-01-08T09:30:25Z</time>
      </trkpt>
      <trkpt lat="43.52574" lon="3.51174">
        <ele>68</ele>
        <time>2019-01-08T09:30:27Z</time>
      </trkpt>
      <trkpt lat="43.52576" lon="3.5117">
        <ele>68</ele>
        <time>2019-01-08T09:30:29Z</time>
      </trkpt>
      <trkpt lat="43.52577" lon="3.51165">
        <ele>67.9</ele>
        <time>2019-01-08T09:30:32Z</time>
      </trkpt>
      <trkpt lat="43.52577" lon="3.51161">
        <ele>67.7</ele>
        <time>2019-01-08T09:30:34Z</time>
      </trkpt>
      <trkpt lat="43.52578" lon="3.51156">
        <ele>67.5</ele>
        <time>2019-01-08T09:30:37Z</time>
      </trkpt>
      <trkpt lat="43.52578" lon="3.51152">
        <ele>67.3</ele>
        <time>2019-01-08T09:30:39Z</time>
      </trkpt>
      <trkpt lat="43.52578" lon="3.51147">
        <ele>67.1</ele>
        <time>2019-01-08T09:30:41Z</time>
      </trkpt>
      <trkpt lat="43.52579" lon="3.51143">
        <ele>66.9</ele>
        <time>2019-01-08T09:30:43Z</time>
      </trkpt>
      <trkpt lat="43.52578" lon="3.5114">
        <ele>66.7</ele>
        <time>2019-01-08T09:30:45Z</time>
      </trkpt>
      <trkpt lat="43.52578" lon="3.51134">
        <ele>66.4</ele>
        <time>2019-01-08T09:30:48Z</time>
      </trkpt>
      <trkpt lat="43.52578" lon="3.51131">
        <ele>66.1</ele>
        <time>2019-01-08T09:30:50Z</time>
      </trkpt>
      <trkpt lat="43.52578" lon="3.51127">
        <ele>65.9</ele>
        <time>2019-01-08T09:30:52Z</time>
      </trkpt>
      <trkpt lat="43.52578" lon="3.51122">
        <ele>65.7</ele>
        <time>2019-01-08T09:30:54Z</time>
      </trkpt>
      <trkpt lat="43.52578" lon="3.51119">
        <ele>65.5</ele>
        <time>2019-01-08T09:30:56Z</time>
      </trkpt>
      <trkpt lat="43.52578" lon="3.51113">
        <ele>65.2</ele>
        <time>2019-01-08T09:30:59Z</time>
      </trkpt>
      <trkpt lat="43.52578" lon="3.51109">
        <ele>65</ele>
        <time>2019-01-08T09:31:01Z</time>
      </trkpt>
      <trkpt lat="43.52577" lon="3.51105">
        <ele>64.7</ele>
        <time>2019-01-08T09:31:03Z</time>
      </trkpt>
      <trkpt lat="43.52577" lon="3.51101">
        <ele>64.5</ele>
        <time>2019-01-08T09:31:05Z</time>
      </trkpt>
      <trkpt lat="43.52577" lon="3.51096">
        <ele>64.3</ele>
        <time>2019-01-08T09:31:08Z</time>
      </trkpt>
      <trkpt lat="43.52576" lon="3.51091">
        <ele>64.1</ele>
        <time>2019-01-08T09:31:11Z</time>
      </trkpt>
      <trkpt lat="43.52576" lon="3.51087">
        <ele>63.9</ele>
        <time>2019-01-08T09:31:13Z</time>
      </trkpt>
      <trkpt lat="43.52576" lon="3.51083">
        <ele>63.8</ele>
        <time>2019-01-08T09:31:15Z</time>
      </trkpt>
      <trkpt lat="43.52576" lon="3.51078">
        <ele>63.6</ele>
        <time>2019-01-08T09:31:17Z</time>
      </trkpt>
      <trkpt lat="43.52576" lon="3.51074">
        <ele>63.5</ele>
        <time>2019-01-08T09:31:19Z</time>
      </trkpt>
      <trkpt lat="43.52576" lon="3.51069">
        <ele>63.4</ele>
        <time>2019-01-08T09:31:21Z</time>
      </trkpt>
      <trkpt lat="43.52576" lon="3.51065">
        <ele>63.3</ele>
        <time>2019-01-08T09:31:23Z</time>
      </trkpt>
      <trkpt lat="43.52575" lon="3.51061">
        <ele>63.2</ele>
        <time>2019-01-08T09:31:25Z</time>
      </trkpt>
      <trkpt lat="43.52575" lon="3.51057">
        <ele>63</ele>
        <time>2019-01-08T09:31:27Z</time>
      </trkpt>
      <trkpt lat="43.52575" lon="3.51053">
        <ele>62.9</ele>
        <time>2019-01-08T09:31:29Z</time>
      </trkpt>
      <trkpt lat="43.52574" lon="3.51047">
        <ele>62.8</ele>
        <time>2019-01-08T09:31:32Z</time>
      </trkpt>
      <trkpt lat="43.52575" lon="3.51044">
        <ele>62.7</ele>
        <time>2019-01-08T09:31:34Z</time>
      </trkpt>
      <trkpt lat="43.52575" lon="3.51039">
        <ele>62.6</ele>
        <time>2019-01-08T09:31:36Z</time>
      </trkpt>
      <trkpt lat="43.52574" lon="3.51035">
        <ele>62.4</ele>
        <time>2019-01-08T09:31:38Z</time>
      </trkpt>
      <trkpt lat="43.52574" lon="3.5103">
        <ele>62.3</ele>
        <time>2019-01-08T09:31:40Z</time>
      </trkpt>
      <trkpt lat="43.52574" lon="3.51026">
        <ele>62.2</ele>
        <time>2019-01-08T09:31:42Z</time>
      </trkpt>
      <trkpt lat="43.52573" lon="3.51021">
        <ele>62.1</ele>
        <time>2019-01-08T09:31:44Z</time>
      </trkpt>
      <trkpt lat="43.52573" lon="3.51016">
        <ele>62</ele>
        <time>2019-01-08T09:31:46Z</time>
      </trkpt>
      <trkpt lat="43.52573" lon="3.51012">
        <ele>61.9</ele>
        <time>2019-01-08T09:31:48Z</time>
      </trkpt>
      <trkpt lat="43.52573" lon="3.51008">
        <ele>61.7</ele>
        <time>2019-01-08T09:31:50Z</time>
      </trkpt>
      <trkpt lat="43.52574" lon="3.51004">
        <ele>61.6</ele>
        <time>2019-01-08T09:31:52Z</time>
      </trkpt>
      <trkpt lat="43.52574" lon="3.51">
        <ele>61.4</ele>
        <time>2019-01-08T09:31:54Z</time>
      </trkpt>
      <trkpt lat="43.52573" lon="3.50995">
        <ele>61.3</ele>
        <time>2019-01-08T09:31:57Z</time>
      </trkpt>
      <trkpt lat="43.52573" lon="3.50989">
        <ele>61.1</ele>
        <time>2019-01-08T09:32:00Z</time>
      </trkpt>
      <trkpt lat="43.52573" lon="3.50986">
        <ele>61</ele>
        <time>2019-01-08T09:32:02Z</time>
      </trkpt>
      <trkpt lat="43.52573" lon="3.50981">
        <ele>60.8</ele>
        <time>2019-01-08T09:32:04Z</time>
      </trkpt>
      <trkpt lat="43.52573" lon="3.50977">
        <ele>60.6</ele>
        <time>2019-01-08T09:32:06Z</time>
      </trkpt>
      <trkpt lat="43.52573" lon="3.50972">
        <ele>60.5</ele>
        <time>2019-01-08T09:32:08Z</time>
      </trkpt>
      <trkpt lat="43.52574" lon="3.50968">
        <ele>60.5</ele>
        <time>2019-01-08T09:32:10Z</time>
      </trkpt>
      <trkpt lat="43.52574" lon="3.50963">
        <ele>60.5</ele>
        <time>2019-01-08T09:32:12Z</time>
      </trkpt>
      <trkpt lat="43.52575" lon="3.50959">
        <ele>60.3</ele>
        <time>2019-01-08T09:32:14Z</time>
      </trkpt>
      <trkpt lat="43.52576" lon="3.50954">
        <ele>60.2</ele>
        <time>2019-01-08T09:32:16Z</time>
      </trkpt>
      <trkpt lat="43.52577" lon="3.5095">
        <ele>60</ele>
        <time>2019-01-08T09:32:18Z</time>
      </trkpt>
      <trkpt lat="43.52578" lon="3.50946">
        <ele>60</ele>
        <time>2019-01-08T09:32:20Z</time>
      </trkpt>
      <trkpt lat="43.52579" lon="3.50942">
        <ele>59.9</ele>
        <time>2019-01-08T09:32:22Z</time>
      </trkpt>
      <trkpt lat="43.52581" lon="3.50939">
        <ele>59.8</ele>
        <time>2019-01-08T09:32:24Z</time>
      </trkpt>
      <trkpt lat="43.52583" lon="3.50934">
        <ele>59.7</ele>
        <time>2019-01-08T09:32:27Z</time>
      </trkpt>
      <trkpt lat="43.52584" lon="3.50931">
        <ele>59.7</ele>
        <time>2019-01-08T09:32:29Z</time>
      </trkpt>
      <trkpt lat="43.52586" lon="3.50927">
        <ele>59.7</ele>
        <time>2019-01-08T09:32:32Z</time>
      </trkpt>
      <trkpt lat="43.52587" lon="3.50923">
        <ele>59.6</ele>
        <time>2019-01-08T09:32:34Z</time>
      </trkpt>
      <trkpt lat="43.52588" lon="3.50919">
        <ele>59.5</ele>
        <time>2019-01-08T09:32:36Z</time>
      </trkpt>
      <trkpt lat="43.5259" lon="3.50915">
        <ele>59.4</ele>
        <time>2019-01-08T09:32:38Z</time>
      </trkpt>
      <trkpt lat="43.52591" lon="3.50911">
        <ele>59.3</ele>
        <time>2019-01-08T09:32:40Z</time>
      </trkpt>
      <trkpt lat="43.52592" lon="3.50908">
        <ele>59.1</ele>
        <time>2019-01-08T09:32:42Z</time>
      </trkpt>
      <trkpt lat="43.52593" lon="3.50904">
        <ele>59</ele>
        <time>2019-01-08T09:32:44Z</time>
      </trkpt>
      <trkpt lat="43.52594" lon="3.50899">
        <ele>58.9</ele>
        <time>2019-01-08T09:32:47Z</time>
      </trkpt>
      <trkpt lat="43.52596" lon="3.50895">
        <ele>58.8</ele>
        <time>2019-01-08T09:32:50Z</time>
      </trkpt>
      <trkpt lat="43.52597" lon="3.50891">
        <ele>58.7</ele>
        <time>2019-01-08T09:32:53Z</time>
      </trkpt>
      <trkpt lat="43.52598" lon="3.50886">
        <ele>58.5</ele>
        <time>2019-01-08T09:32:56Z</time>
      </trkpt>
      <trkpt lat="43.52599" lon="3.50881">
        <ele>58.4</ele>
        <time>2019-01-08T09:32:59Z</time>
      </trkpt>
      <trkpt lat="43.52601" lon="3.50876">
        <ele>58.3</ele>
        <time>2019-01-08T09:33:02Z</time>
      </trkpt>
      <trkpt lat="43.52602" lon="3.50872">
        <ele>58.2</ele>
        <time>2019-01-08T09:33:04Z</time>
      </trkpt>
      <trkpt lat="43.52603" lon="3.50869">
        <ele>58.1</ele>
        <time>2019-01-08T09:33:06Z</time>
      </trkpt>
      <trkpt lat="43.52604" lon="3.50865">
        <ele>58</ele>
        <time>2019-01-08T09:33:08Z</time>
      </trkpt>
      <trkpt lat="43.52605" lon="3.50861">
        <ele>57.9</ele>
        <time>2019-01-08T09:33:10Z</time>
      </trkpt>
      <trkpt lat="43.52606" lon="3.50857">
        <ele>57.8</ele>
        <time>2019-01-08T09:33:12Z</time>
      </trkpt>
      <trkpt lat="43.52607" lon="3.50853">
        <ele>57.7</ele>
        <time>2019-01-08T09:33:14Z</time>
      </trkpt>
      <trkpt lat="43.52608" lon="3.50849">
        <ele>57.7</ele>
        <time>2019-01-08T09:33:16Z</time>
      </trkpt>
      <trkpt lat="43.52609" lon="3.50845">
        <ele>57.6</ele>
        <time>2019-01-08T09:33:18Z</time>
      </trkpt>
      <trkpt lat="43.5261" lon="3.50841">
        <ele>57.5</ele>
        <time>2019-01-08T09:33:20Z</time>
      </trkpt>
      <trkpt lat="43.52611" lon="3.50837">
        <ele>57.5</ele>
        <time>2019-01-08T09:33:22Z</time>
      </trkpt>
      <trkpt lat="43.52612" lon="3.50833">
        <ele>57.4</ele>
        <time>2019-01-08T09:33:24Z</time>
      </trkpt>
      <trkpt lat="43.52613" lon="3.50829">
        <ele>57.4</ele>
        <time>2019-01-08T09:33:26Z</time>
      </trkpt>
      <trkpt lat="43.52613" lon="3.50825">
        <ele>57.3</ele>
        <time>2019-01-08T09:33:28Z</time>
      </trkpt>
      <trkpt lat="43.52614" lon="3.5082">
        <ele>57.3</ele>
        <time>2019-01-08T09:33:31Z</time>
      </trkpt>
      <trkpt lat="43.52615" lon="3.50816">
        <ele>57.2</ele>
        <time>2019-01-08T09:33:33Z</time>
      </trkpt>
      <trkpt lat="43.52616" lon="3.50812">
        <ele>57.1</ele>
        <time>2019-01-08T09:33:35Z</time>
      </trkpt>
      <trkpt lat="43.52618" lon="3.50809">
        <ele>57</ele>
        <time>2019-01-08T09:33:37Z</time>
      </trkpt>
      <trkpt lat="43.52619" lon="3.50805">
        <ele>57</ele>
        <time>2019-01-08T09:33:39Z</time>
      </trkpt>
      <trkpt lat="43.52621" lon="3.508">
        <ele>56.9</ele>
        <time>2019-01-08T09:33:42Z</time>
      </trkpt>
      <trkpt lat="43.52622" lon="3.50796">
        <ele>56.9</ele>
        <time>2019-01-08T09:33:44Z</time>
      </trkpt>
      <trkpt lat="43.52623" lon="3.50791">
        <ele>56.8</ele>
        <time>2019-01-08T09:33:46Z</time>
      </trkpt>
      <trkpt lat="43.52624" lon="3.50786">
        <ele>56.7</ele>
        <time>2019-01-08T09:33:49Z</time>
      </trkpt>
      <trkpt lat="43.52625" lon="3.50783">
        <ele>56.6</ele>
        <time>2019-01-08T09:33:51Z</time>
      </trkpt>
      <trkpt lat="43.52626" lon="3.50778">
        <ele>56.5</ele>
        <time>2019-01-08T09:33:54Z</time>
      </trkpt>
      <trkpt lat="43.52627" lon="3.50773">
        <ele>56.4</ele>
        <time>2019-01-08T09:33:57Z</time>
      </trkpt>
      <trkpt lat="43.52628" lon="3.50768">
        <ele>56.4</ele>
        <time>2019-01-08T09:34:00Z</time>
      </trkpt>
      <trkpt lat="43.52629" lon="3.50763">
        <ele>56.4</ele>
        <time>2019-01-08T09:34:03Z</time>
      </trkpt>
      <trkpt lat="43.52631" lon="3.50758">
        <ele>56.3</ele>
        <time>2019-01-08T09:34:06Z</time>
      </trkpt>
      <trkpt lat="43.52632" lon="3.50755">
        <ele>56.3</ele>
        <time>2019-01-08T09:34:08Z</time>
      </trkpt>
      <trkpt lat="43.52633" lon="3.5075">
        <ele>56.3</ele>
        <time>2019-01-08T09:34:11Z</time>
      </trkpt>
      <trkpt lat="43.52634" lon="3.50745">
        <ele>56.3</ele>
        <time>2019-01-08T09:34:14Z</time>
      </trkpt>
      <trkpt lat="43.52635" lon="3.50741">
        <ele>56.3</ele>
        <time>2019-01-08T09:34:16Z</time>
      </trkpt>
      <trkpt lat="43.52635" lon="3.50737">
        <ele>56.4</ele>
        <time>2019-01-08T09:34:18Z</time>
      </trkpt>
      <trkpt lat="43.52636" lon="3.50733">
        <ele>56.4</ele>
        <time>2019-01-08T09:34:20Z</time>
      </trkpt>
      <trkpt lat="43.52637" lon="3.50729">
        <ele>56.5</ele>
        <time>2019-01-08T09:34:22Z</time>
      </trkpt>
      <trkpt lat="43.52638" lon="3.50724">
        <ele>56.6</ele>
        <time>2019-01-08T09:34:24Z</time>
      </trkpt>
      <trkpt lat="43.52639" lon="3.50721">
        <ele>56.6</ele>
        <time>2019-01-08T09:34:26Z</time>
      </trkpt>
      <trkpt lat="43.5264" lon="3.50717">
        <ele>56.6</ele>
        <time>2019-01-08T09:34:28Z</time>
      </trkpt>
      <trkpt lat="43.52642" lon="3.50713">
        <ele>56.7</ele>
        <time>2019-01-08T09:34:30Z</time>
      </trkpt>
      <trkpt lat="43.52643" lon="3.50709">
        <ele>56.7</ele>
        <time>2019-01-08T09:34:32Z</time>
      </trkpt>
      <trkpt lat="43.52644" lon="3.50705">
        <ele>56.8</ele>
        <time>2019-01-08T09:34:34Z</time>
      </trkpt>
      <trkpt lat="43.52645" lon="3.50701">
        <ele>56.8</ele>
        <time>2019-01-08T09:34:36Z</time>
      </trkpt>
      <trkpt lat="43.52647" lon="3.50697">
        <ele>56.8</ele>
        <time>2019-01-08T09:34:38Z</time>
      </trkpt>
      <trkpt lat="43.52648" lon="3.50692">
        <ele>56.8</ele>
        <time>2019-01-08T09:34:41Z</time>
      </trkpt>
      <trkpt lat="43.5265" lon="3.50686">
        <ele>56.8</ele>
        <time>2019-01-08T09:34:44Z</time>
      </trkpt>
      <trkpt lat="43.52651" lon="3.50682">
        <ele>56.8</ele>
        <time>2019-01-08T09:34:47Z</time>
      </trkpt>
      <trkpt lat="43.52653" lon="3.50677">
        <ele>56.8</ele>
        <time>2019-01-08T09:34:50Z</time>
      </trkpt>
      <trkpt lat="43.52654" lon="3.50674">
        <ele>56.8</ele>
        <time>2019-01-08T09:34:52Z</time>
      </trkpt>
      <trkpt lat="43.52655" lon="3.5067">
        <ele>56.7</ele>
        <time>2019-01-08T09:34:54Z</time>
      </trkpt>
      <trkpt lat="43.52656" lon="3.50666">
        <ele>56.7</ele>
        <time>2019-01-08T09:34:56Z</time>
      </trkpt>
      <trkpt lat="43.52657" lon="3.50662">
        <ele>56.6</ele>
        <time>2019-01-08T09:34:58Z</time>
      </trkpt>
      <trkpt lat="43.52658" lon="3.50659">
        <ele>56.6</ele>
        <time>2019-01-08T09:35:00Z</time>
      </trkpt>
      <trkpt lat="43.5266" lon="3.50656">
        <ele>56.5</ele>
        <time>2019-01-08T09:35:02Z</time>
      </trkpt>
      <trkpt lat="43.52662" lon="3.50652">
        <ele>56.4</ele>
        <time>2019-01-08T09:35:04Z</time>
      </trkpt>
      <trkpt lat="43.52663" lon="3.50649">
        <ele>56.3</ele>
        <time>2019-01-08T09:35:06Z</time>
      </trkpt>
      <trkpt lat="43.52665" lon="3.50645">
        <ele>56.2</ele>
        <time>2019-01-08T09:35:08Z</time>
      </trkpt>
      <trkpt lat="43.52666" lon="3.50642">
        <ele>56.1</ele>
        <time>2019-01-08T09:35:10Z</time>
      </trkpt>
      <trkpt lat="43.52667" lon="3.50638">
        <ele>56</ele>
        <time>2019-01-08T09:35:12Z</time>
      </trkpt>
      <trkpt lat="43.52668" lon="3.50634">
        <ele>56</ele>
        <time>2019-01-08T09:35:14Z</time>
      </trkpt>
      <trkpt lat="43.5267" lon="3.50631">
        <ele>55.9</ele>
        <time>2019-01-08T09:35:16Z</time>
      </trkpt>
      <trkpt lat="43.52672" lon="3.50627">
        <ele>55.8</ele>
        <time>2019-01-08T09:35:19Z</time>
      </trkpt>
      <trkpt lat="43.52674" lon="3.50623">
        <ele>55.7</ele>
        <time>2019-01-08T09:35:22Z</time>
      </trkpt>
      <trkpt lat="43.52676" lon="3.50618">
        <ele>55.6</ele>
        <time>2019-01-08T09:35:25Z</time>
      </trkpt>
      <trkpt lat="43.52678" lon="3.50614">
        <ele>55.5</ele>
        <time>2019-01-08T09:35:27Z</time>
      </trkpt>
      <trkpt lat="43.5268" lon="3.5061">
        <ele>55.3</ele>
        <time>2019-01-08T09:35:29Z</time>
      </trkpt>
      <trkpt lat="43.52682" lon="3.50606">
        <ele>55.2</ele>
        <time>2019-01-08T09:35:31Z</time>
      </trkpt>
      <trkpt lat="43.52683" lon="3.50602">
        <ele>55.1</ele>
        <time>2019-01-08T09:35:33Z</time>
      </trkpt>
      <trkpt lat="43.52685" lon="3.50599">
        <ele>55.1</ele>
        <time>2019-01-08T09:35:35Z</time>
      </trkpt>
      <trkpt lat="43.52687" lon="3.50595">
        <ele>55</ele>
        <time>2019-01-08T09:35:37Z</time>
      </trkpt>
      <trkpt lat="43.52689" lon="3.50592">
        <ele>54.9</ele>
        <time>2019-01-08T09:35:39Z</time>
      </trkpt>
      <trkpt lat="43.52691" lon="3.50588">
        <ele>54.8</ele>
        <time>2019-01-08T09:35:41Z</time>
      </trkpt>
      <trkpt lat="43.52692" lon="3.50585">
        <ele>54.7</ele>
        <time>2019-01-08T09:35:43Z</time>
      </trkpt>
      <trkpt lat="43.52693" lon="3.50581">
        <ele>54.6</ele>
        <time>2019-01-08T09:35:45Z</time>
      </trkpt>
      <trkpt lat="43.52695" lon="3.50578">
        <ele>54.6</ele>
        <time>2019-01-08T09:35:47Z</time>
      </trkpt>
      <trkpt lat="43.52697" lon="3.50575">
        <ele>54.5</ele>
        <time>2019-01-08T09:35:49Z</time>
      </trkpt>
      <trkpt lat="43.52698" lon="3.50571">
        <ele>54.4</ele>
        <time>2019-01-08T09:35:51Z</time>
      </trkpt>
      <trkpt lat="43.527" lon="3.50566">
        <ele>54.3</ele>
        <time>2019-01-08T09:35:53Z</time>
      </trkpt>
      <trkpt lat="43.52701" lon="3.50562">
        <ele>54.2</ele>
        <time>2019-01-08T09:35:55Z</time>
      </trkpt>
      <trkpt lat="43.52703" lon="3.50558">
        <ele>54.2</ele>
        <time>2019-01-08T09:35:57Z</time>
      </trkpt>
      <trkpt lat="43.52704" lon="3.50555">
        <ele>54.1</ele>
        <time>2019-01-08T09:35:59Z</time>
      </trkpt>
      <trkpt lat="43.52707" lon="3.50552">
        <ele>54.1</ele>
        <time>2019-01-08T09:36:01Z</time>
      </trkpt>
      <trkpt lat="43.52709" lon="3.50549">
        <ele>54</ele>
        <time>2019-01-08T09:36:03Z</time>
      </trkpt>
      <trkpt lat="43.5271" lon="3.50545">
        <ele>54</ele>
        <time>2019-01-08T09:36:05Z</time>
      </trkpt>
      <trkpt lat="43.52712" lon="3.50542">
        <ele>54</ele>
        <time>2019-01-08T09:36:07Z</time>
      </trkpt>
      <trkpt lat="43.52714" lon="3.50539">
        <ele>53.9</ele>
        <time>2019-01-08T09:36:09Z</time>
      </trkpt>
      <trkpt lat="43.52716" lon="3.50535">
        <ele>53.9</ele>
        <time>2019-01-08T09:36:11Z</time>
      </trkpt>
      <trkpt lat="43.52718" lon="3.50532">
        <ele>53.9</ele>
        <time>2019-01-08T09:36:13Z</time>
      </trkpt>
      <trkpt lat="43.5272" lon="3.50528">
        <ele>53.9</ele>
        <time>2019-01-08T09:36:15Z</time>
      </trkpt>
      <trkpt lat="43.52721" lon="3.50525">
        <ele>53.9</ele>
        <time>2019-01-08T09:36:17Z</time>
      </trkpt>
      <trkpt lat="43.52723" lon="3.50522">
        <ele>53.9</ele>
        <time>2019-01-08T09:36:19Z</time>
      </trkpt>
      <trkpt lat="43.52726" lon="3.50518">
        <ele>53.8</ele>
        <time>2019-01-08T09:36:22Z</time>
      </trkpt>
      <trkpt lat="43.52727" lon="3.50513">
        <ele>53.9</ele>
        <time>2019-01-08T09:36:25Z</time>
      </trkpt>
      <trkpt lat="43.52729" lon="3.5051">
        <ele>53.9</ele>
        <time>2019-01-08T09:36:27Z</time>
      </trkpt>
      <trkpt lat="43.5273" lon="3.50506">
        <ele>53.9</ele>
        <time>2019-01-08T09:36:29Z</time>
      </trkpt>
      <trkpt lat="43.52731" lon="3.50502">
        <ele>53.9</ele>
        <time>2019-01-08T09:36:31Z</time>
      </trkpt>
      <trkpt lat="43.52732" lon="3.50498">
        <ele>53.8</ele>
        <time>2019-01-08T09:36:33Z</time>
      </trkpt>
      <trkpt lat="43.52733" lon="3.50494">
        <ele>53.8</ele>
        <time>2019-01-08T09:36:35Z</time>
      </trkpt>
      <trkpt lat="43.52733" lon="3.5049">
        <ele>53.8</ele>
        <time>2019-01-08T09:36:37Z</time>
      </trkpt>
      <trkpt lat="43.52733" lon="3.50486">
        <ele>53.8</ele>
        <time>2019-01-08T09:36:39Z</time>
      </trkpt>
      <trkpt lat="43.52733" lon="3.50482">
        <ele>53.8</ele>
        <time>2019-01-08T09:36:41Z</time>
      </trkpt>
      <trkpt lat="43.52734" lon="3.50478">
        <ele>53.7</ele>
        <time>2019-01-08T09:36:43Z</time>
      </trkpt>
      <trkpt lat="43.52734" lon="3.50473">
        <ele>53.7</ele>
        <time>2019-01-08T09:36:45Z</time>
      </trkpt>
      <trkpt lat="43.52734" lon="3.50469">
        <ele>53.7</ele>
        <time>2019-01-08T09:36:47Z</time>
      </trkpt>
      <trkpt lat="43.52734" lon="3.50465">
        <ele>53.7</ele>
        <time>2019-01-08T09:36:49Z</time>
      </trkpt>
      <trkpt lat="43.52734" lon="3.5046">
        <ele>53.6</ele>
        <time>2019-01-08T09:36:51Z</time>
      </trkpt>
      <trkpt lat="43.52734" lon="3.50455">
        <ele>53.6</ele>
        <time>2019-01-08T09:36:54Z</time>
      </trkpt>
      <trkpt lat="43.52737" lon="3.50452">
        <ele>53.5</ele>
        <time>2019-01-08T09:36:57Z</time>
      </trkpt>
      <trkpt lat="43.5274" lon="3.5045">
        <ele>53.5</ele>
        <time>2019-01-08T09:36:59Z</time>
      </trkpt>
      <trkpt lat="43.52743" lon="3.50448">
        <ele>53.5</ele>
        <time>2019-01-08T09:37:01Z</time>
      </trkpt>
      <trkpt lat="43.52746" lon="3.50445">
        <ele>53.5</ele>
        <time>2019-01-08T09:37:04Z</time>
      </trkpt>
      <trkpt lat="43.52748" lon="3.50443">
        <ele>53.5</ele>
        <time>2019-01-08T09:37:06Z</time>
      </trkpt>
      <trkpt lat="43.52752" lon="3.50443">
        <ele>53.5</ele>
        <time>2019-01-08T09:37:09Z</time>
      </trkpt>
      <trkpt lat="43.52754" lon="3.50445">
        <ele>53.6</ele>
        <time>2019-01-08T09:37:11Z</time>
      </trkpt>
      <trkpt lat="43.52757" lon="3.50447">
        <ele>53.7</ele>
        <time>2019-01-08T09:37:13Z</time>
      </trkpt>
      <trkpt lat="43.5276" lon="3.50448">
        <ele>53.8</ele>
        <time>2019-01-08T09:37:15Z</time>
      </trkpt>
      <trkpt lat="43.52763" lon="3.50449">
        <ele>53.9</ele>
        <time>2019-01-08T09:37:17Z</time>
      </trkpt>
      <trkpt lat="43.52766" lon="3.50451">
        <ele>54</ele>
        <time>2019-01-08T09:37:19Z</time>
      </trkpt>
      <trkpt lat="43.52768" lon="3.50453">
        <ele>54.1</ele>
        <time>2019-01-08T09:37:21Z</time>
      </trkpt>
      <trkpt lat="43.52771" lon="3.50454">
        <ele>54.2</ele>
        <time>2019-01-08T09:37:23Z</time>
      </trkpt>
      <trkpt lat="43.52774" lon="3.50455">
        <ele>54.4</ele>
        <time>2019-01-08T09:37:25Z</time>
      </trkpt>
      <trkpt lat="43.52777" lon="3.50457">
        <ele>54.4</ele>
        <time>2019-01-08T09:37:27Z</time>
      </trkpt>
      <trkpt lat="43.52779" lon="3.50458">
        <ele>54.5</ele>
        <time>2019-01-08T09:37:29Z</time>
      </trkpt>
      <trkpt lat="43.52782" lon="3.5046">
        <ele>54.7</ele>
        <time>2019-01-08T09:37:31Z</time>
      </trkpt>
      <trkpt lat="43.52784" lon="3.50462">
        <ele>54.8</ele>
        <time>2019-01-08T09:37:33Z</time>
      </trkpt>
      <trkpt lat="43.52787" lon="3.50463">
        <ele>54.8</ele>
        <time>2019-01-08T09:37:35Z</time>
      </trkpt>
      <trkpt lat="43.5279" lon="3.50465">
        <ele>55.1</ele>
        <time>2019-01-08T09:37:37Z</time>
      </trkpt>
      <trkpt lat="43.52793" lon="3.50465">
        <ele>55.2</ele>
        <time>2019-01-08T09:37:39Z</time>
      </trkpt>
      <trkpt lat="43.52796" lon="3.50465">
        <ele>55.3</ele>
        <time>2019-01-08T09:37:41Z</time>
      </trkpt>
      <trkpt lat="43.52799" lon="3.50465">
        <ele>55.4</ele>
        <time>2019-01-08T09:37:43Z</time>
      </trkpt>
      <trkpt lat="43.52803" lon="3.50464">
        <ele>55.5</ele>
        <time>2019-01-08T09:37:45Z</time>
      </trkpt>
      <trkpt lat="43.52807" lon="3.50464">
        <ele>55.4</ele>
        <time>2019-01-08T09:37:47Z</time>
      </trkpt>
      <trkpt lat="43.52811" lon="3.50461">
        <ele>55.5</ele>
        <time>2019-01-08T09:37:50Z</time>
      </trkpt>
      <trkpt lat="43.52814" lon="3.5046">
        <ele>55.6</ele>
        <time>2019-01-08T09:37:52Z</time>
      </trkpt>
      <trkpt lat="43.52817" lon="3.50458">
        <ele>55.6</ele>
        <time>2019-01-08T09:37:55Z</time>
      </trkpt>
      <trkpt lat="43.5282" lon="3.50456">
        <ele>55.6</ele>
        <time>2019-01-08T09:37:57Z</time>
      </trkpt>
      <trkpt lat="43.52823" lon="3.50454">
        <ele>55.5</ele>
        <time>2019-01-08T09:37:59Z</time>
      </trkpt>
      <trkpt lat="43.52825" lon="3.50452">
        <ele>55.6</ele>
        <time>2019-01-08T09:38:01Z</time>
      </trkpt>
      <trkpt lat="43.52828" lon="3.50449">
        <ele>55.5</ele>
        <time>2019-01-08T09:38:04Z</time>
      </trkpt>
      <trkpt lat="43.52828" lon="3.50445">
        <ele>55.2</ele>
        <time>2019-01-08T09:38:06Z</time>
      </trkpt>
      <trkpt lat="43.52829" lon="3.50441">
        <ele>55</ele>
        <time>2019-01-08T09:38:08Z</time>
      </trkpt>
      <trkpt lat="43.5283" lon="3.50436">
        <ele>54.9</ele>
        <time>2019-01-08T09:38:11Z</time>
      </trkpt>
      <trkpt lat="43.52831" lon="3.50431">
        <ele>54.7</ele>
        <time>2019-01-08T09:38:14Z</time>
      </trkpt>
      <trkpt lat="43.52832" lon="3.50427">
        <ele>54.4</ele>
        <time>2019-01-08T09:38:17Z</time>
      </trkpt>
      <trkpt lat="43.52834" lon="3.50422">
        <ele>54.3</ele>
        <time>2019-01-08T09:38:20Z</time>
      </trkpt>
      <trkpt lat="43.52836" lon="3.50417">
        <ele>54</ele>
        <time>2019-01-08T09:38:23Z</time>
      </trkpt>
      <trkpt lat="43.52837" lon="3.50413">
        <ele>53.8</ele>
        <time>2019-01-08T09:38:26Z</time>
      </trkpt>
      <trkpt lat="43.52838" lon="3.50409">
        <ele>53.5</ele>
        <time>2019-01-08T09:38:28Z</time>
      </trkpt>
      <trkpt lat="43.52839" lon="3.50405">
        <ele>53.2</ele>
        <time>2019-01-08T09:38:30Z</time>
      </trkpt>
      <trkpt lat="43.5284" lon="3.50401">
        <ele>52.9</ele>
        <time>2019-01-08T09:38:32Z</time>
      </trkpt>
      <trkpt lat="43.52842" lon="3.50397">
        <ele>52.6</ele>
        <time>2019-01-08T09:38:34Z</time>
      </trkpt>
      <trkpt lat="43.52843" lon="3.50394">
        <ele>52.3</ele>
        <time>2019-01-08T09:38:36Z</time>
      </trkpt>
      <trkpt lat="43.52846" lon="3.50391">
        <ele>52.3</ele>
        <time>2019-01-08T09:38:38Z</time>
      </trkpt>
      <trkpt lat="43.52848" lon="3.50388">
        <ele>51.9</ele>
        <time>2019-01-08T09:38:40Z</time>
      </trkpt>
      <trkpt lat="43.5285" lon="3.50385">
        <ele>51.6</ele>
        <time>2019-01-08T09:38:42Z</time>
      </trkpt>
      <trkpt lat="43.52852" lon="3.50382">
        <ele>51.3</ele>
        <time>2019-01-08T09:38:44Z</time>
      </trkpt>
      <trkpt lat="43.52854" lon="3.50378">
        <ele>50.9</ele>
        <time>2019-01-08T09:38:47Z</time>
      </trkpt>
      <trkpt lat="43.52856" lon="3.50374">
        <ele>50.8</ele>
        <time>2019-01-08T09:38:50Z</time>
      </trkpt>
      <trkpt lat="43.52857" lon="3.5037">
        <ele>50.5</ele>
        <time>2019-01-08T09:38:52Z</time>
      </trkpt>
      <trkpt lat="43.52858" lon="3.50366">
        <ele>50</ele>
        <time>2019-01-08T09:38:54Z</time>
      </trkpt>
      <trkpt lat="43.52856" lon="3.50362">
        <ele>49.8</ele>
        <time>2019-01-08T09:38:56Z</time>
      </trkpt>
      <trkpt lat="43.52854" lon="3.5036">
        <ele>49.6</ele>
        <time>2019-01-08T09:38:58Z</time>
      </trkpt>
      <trkpt lat="43.5285" lon="3.50359">
        <ele>49.7</ele>
        <time>2019-01-08T09:39:01Z</time>
      </trkpt>
      <trkpt lat="43.52846" lon="3.50361">
        <ele>50.1</ele>
        <time>2019-01-08T09:39:04Z</time>
      </trkpt>
      <trkpt lat="43.52844" lon="3.50363">
        <ele>50.2</ele>
        <time>2019-01-08T09:39:06Z</time>
      </trkpt>
      <trkpt lat="43.52841" lon="3.50364">
        <ele>50.3</ele>
        <time>2019-01-08T09:39:08Z</time>
      </trkpt>
      <trkpt lat="43.52838" lon="3.50366">
        <ele>50.7</ele>
        <time>2019-01-08T09:39:11Z</time>
      </trkpt>
      <trkpt lat="43.52835" lon="3.50368">
        <ele>50.7</ele>
        <time>2019-01-08T09:39:14Z</time>
      </trkpt>
      <trkpt lat="43.52832" lon="3.50369">
        <ele>50.7</ele>
        <time>2019-01-08T09:39:17Z</time>
      </trkpt>
      <trkpt lat="43.52829" lon="3.50371">
        <ele>51</ele>
        <time>2019-01-08T09:39:20Z</time>
      </trkpt>
      <trkpt lat="43.52826" lon="3.50373">
        <ele>51</ele>
        <time>2019-01-08T09:39:22Z</time>
      </trkpt>
      <trkpt lat="43.52824" lon="3.50374">
        <ele>51.3</ele>
        <time>2019-01-08T09:39:24Z</time>
      </trkpt>
      <trkpt lat="43.52821" lon="3.50376">
        <ele>51.3</ele>
        <time>2019-01-08T09:39:26Z</time>
      </trkpt>
      <trkpt lat="43.52818" lon="3.50377">
        <ele>51.3</ele>
        <time>2019-01-08T09:39:28Z</time>
      </trkpt>
      <trkpt lat="43.52815" lon="3.50379">
        <ele>51.5</ele>
        <time>2019-01-08T09:39:30Z</time>
      </trkpt>
      <trkpt lat="43.52812" lon="3.5038">
        <ele>51.5</ele>
        <time>2019-01-08T09:39:32Z</time>
      </trkpt>
      <trkpt lat="43.5281" lon="3.50382">
        <ele>51.5</ele>
        <time>2019-01-08T09:39:34Z</time>
      </trkpt>
      <trkpt lat="43.52807" lon="3.50383">
        <ele>51.7</ele>
        <time>2019-01-08T09:39:36Z</time>
      </trkpt>
      <trkpt lat="43.52804" lon="3.50385">
        <ele>51.7</ele>
        <time>2019-01-08T09:39:38Z</time>
      </trkpt>
      <trkpt lat="43.52801" lon="3.50387">
        <ele>51.9</ele>
        <time>2019-01-08T09:39:40Z</time>
      </trkpt>
      <trkpt lat="43.52798" lon="3.50389">
        <ele>51.9</ele>
        <time>2019-01-08T09:39:42Z</time>
      </trkpt>
      <trkpt lat="43.52795" lon="3.50391">
        <ele>52.1</ele>
        <time>2019-01-08T09:39:44Z</time>
      </trkpt>
      <trkpt lat="43.52792" lon="3.50393">
        <ele>52.1</ele>
        <time>2019-01-08T09:39:46Z</time>
      </trkpt>
      <trkpt lat="43.5279" lon="3.50395">
        <ele>52.1</ele>
        <time>2019-01-08T09:39:48Z</time>
      </trkpt>
      <trkpt lat="43.52787" lon="3.50397">
        <ele>52.4</ele>
        <time>2019-01-08T09:39:50Z</time>
      </trkpt>
      <trkpt lat="43.52784" lon="3.50399">
        <ele>52.4</ele>
        <time>2019-01-08T09:39:52Z</time>
      </trkpt>
      <trkpt lat="43.5278" lon="3.50402">
        <ele>52.6</ele>
        <time>2019-01-08T09:39:54Z</time>
      </trkpt>
      <trkpt lat="43.52777" lon="3.50404">
        <ele>52.6</ele>
        <time>2019-01-08T09:39:56Z</time>
      </trkpt>
      <trkpt lat="43.52774" lon="3.50405">
        <ele>52.8</ele>
        <time>2019-01-08T09:39:58Z</time>
      </trkpt>
      <trkpt lat="43.52771" lon="3.50407">
        <ele>52.7</ele>
        <time>2019-01-08T09:40:00Z</time>
      </trkpt>
      <trkpt lat="43.52769" lon="3.50409">
        <ele>52.9</ele>
        <time>2019-01-08T09:40:02Z</time>
      </trkpt>
      <trkpt lat="43.52766" lon="3.50412">
        <ele>52.9</ele>
        <time>2019-01-08T09:40:04Z</time>
      </trkpt>
      <trkpt lat="43.52763" lon="3.50414">
        <ele>53</ele>
        <time>2019-01-08T09:40:06Z</time>
      </trkpt>
      <trkpt lat="43.52761" lon="3.50417">
        <ele>53.2</ele>
        <time>2019-01-08T09:40:08Z</time>
      </trkpt>
      <trkpt lat="43.52759" lon="3.5042">
        <ele>53.2</ele>
        <time>2019-01-08T09:40:10Z</time>
      </trkpt>
      <trkpt lat="43.52757" lon="3.50423">
        <ele>53.3</ele>
        <time>2019-01-08T09:40:12Z</time>
      </trkpt>
      <trkpt lat="43.52755" lon="3.50427">
        <ele>53.4</ele>
        <time>2019-01-08T09:40:14Z</time>
      </trkpt>
      <trkpt lat="43.52753" lon="3.5043">
        <ele>53.5</ele>
        <time>2019-01-08T09:40:16Z</time>
      </trkpt>
      <trkpt lat="43.52751" lon="3.50433">
        <ele>53.4</ele>
        <time>2019-01-08T09:40:18Z</time>
      </trkpt>
      <trkpt lat="43.52749" lon="3.50436">
        <ele>53.5</ele>
        <time>2019-01-08T09:40:20Z</time>
      </trkpt>
      <trkpt lat="43.52746" lon="3.50438">
        <ele>53.6</ele>
        <time>2019-01-08T09:40:22Z</time>
      </trkpt>
      <trkpt lat="43.52744" lon="3.50441">
        <ele>53.5</ele>
        <time>2019-01-08T09:40:24Z</time>
      </trkpt>
      <trkpt lat="43.52742" lon="3.50444">
        <ele>53.5</ele>
        <time>2019-01-08T09:40:27Z</time>
      </trkpt>
      <trkpt lat="43.52739" lon="3.50447">
        <ele>53.5</ele>
        <time>2019-01-08T09:40:30Z</time>
      </trkpt>
      <trkpt lat="43.52736" lon="3.50447">
        <ele>53.5</ele>
        <time>2019-01-08T09:40:32Z</time>
      </trkpt>
      <trkpt lat="43.52733" lon="3.50447">
        <ele>53.5</ele>
        <time>2019-01-08T09:40:34Z</time>
      </trkpt>
      <trkpt lat="43.5273" lon="3.50445">
        <ele>53.4</ele>
        <time>2019-01-08T09:40:36Z</time>
      </trkpt>
      <trkpt lat="43.52727" lon="3.50443">
        <ele>53.3</ele>
        <time>2019-01-08T09:40:38Z</time>
      </trkpt>
      <trkpt lat="43.52725" lon="3.50439">
        <ele>53.2</ele>
        <time>2019-01-08T09:40:40Z</time>
      </trkpt>
      <trkpt lat="43.52724" lon="3.50436">
        <ele>53.2</ele>
        <time>2019-01-08T09:40:42Z</time>
      </trkpt>
      <trkpt lat="43.52725" lon="3.50431">
        <ele>52.8</ele>
        <time>2019-01-08T09:40:45Z</time>
      </trkpt>
      <trkpt lat="43.52727" lon="3.50429">
        <ele>52.7</ele>
        <time>2019-01-08T09:40:47Z</time>
      </trkpt>
      <trkpt lat="43.5273" lon="3.50426">
        <ele>52.6</ele>
        <time>2019-01-08T09:40:50Z</time>
      </trkpt>
      <trkpt lat="43.52733" lon="3.50423">
        <ele>52.5</ele>
        <time>2019-01-08T09:40:53Z</time>
      </trkpt>
      <trkpt lat="43.52736" lon="3.50421">
        <ele>52.3</ele>
        <time>2019-01-08T09:40:56Z</time>
      </trkpt>
      <trkpt lat="43.52738" lon="3.50418">
        <ele>52.1</ele>
        <time>2019-01-08T09:40:58Z</time>
      </trkpt>
      <trkpt lat="43.5274" lon="3.50414">
        <ele>52</ele>
        <time>2019-01-08T09:41:00Z</time>
      </trkpt>
      <trkpt lat="43.52742" lon="3.50411">
        <ele>51.8</ele>
        <time>2019-01-08T09:41:02Z</time>
      </trkpt>
      <trkpt lat="43.52744" lon="3.50408">
        <ele>51.7</ele>
        <time>2019-01-08T09:41:04Z</time>
      </trkpt>
      <trkpt lat="43.52746" lon="3.50405">
        <ele>51.6</ele>
        <time>2019-01-08T09:41:06Z</time>
      </trkpt>
      <trkpt lat="43.52748" lon="3.50401">
        <ele>51.4</ele>
        <time>2019-01-08T09:41:08Z</time>
      </trkpt>
      <trkpt lat="43.52749" lon="3.50396">
        <ele>51.2</ele>
        <time>2019-01-08T09:41:11Z</time>
      </trkpt>
      <trkpt lat="43.52751" lon="3.50392">
        <ele>50.9</ele>
        <time>2019-01-08T09:41:14Z</time>
      </trkpt>
      <trkpt lat="43.52751" lon="3.50386">
        <ele>50.6</ele>
        <time>2019-01-08T09:41:17Z</time>
      </trkpt>
      <trkpt lat="43.52752" lon="3.50382">
        <ele>50.5</ele>
        <time>2019-01-08T09:41:19Z</time>
      </trkpt>
      <trkpt lat="43.52753" lon="3.50378">
        <ele>50.3</ele>
        <time>2019-01-08T09:41:21Z</time>
      </trkpt>
      <trkpt lat="43.52754" lon="3.50374">
        <ele>50.2</ele>
        <time>2019-01-08T09:41:23Z</time>
      </trkpt>
      <trkpt lat="43.52754" lon="3.5037">
        <ele>50</ele>
        <time>2019-01-08T09:41:25Z</time>
      </trkpt>
      <trkpt lat="43.52755" lon="3.50364">
        <ele>49.8</ele>
        <time>2019-01-08T09:41:28Z</time>
      </trkpt>
      <trkpt lat="43.52756" lon="3.50361">
        <ele>49.7</ele>
        <time>2019-01-08T09:41:30Z</time>
      </trkpt>
      <trkpt lat="43.52756" lon="3.50356">
        <ele>49.5</ele>
        <time>2019-01-08T09:41:32Z</time>
      </trkpt>
      <trkpt lat="43.52757" lon="3.50352">
        <ele>49.4</ele>
        <time>2019-01-08T09:41:34Z</time>
      </trkpt>
      <trkpt lat="43.52757" lon="3.50348">
        <ele>49.2</ele>
        <time>2019-01-08T09:41:36Z</time>
      </trkpt>
      <trkpt lat="43.52758" lon="3.50344">
        <ele>49</ele>
        <time>2019-01-08T09:41:38Z</time>
      </trkpt>
      <trkpt lat="43.52758" lon="3.5034">
        <ele>48.9</ele>
        <time>2019-01-08T09:41:40Z</time>
      </trkpt>
      <trkpt lat="43.52759" lon="3.50336">
        <ele>48.7</ele>
        <time>2019-01-08T09:41:42Z</time>
      </trkpt>
      <trkpt lat="43.52761" lon="3.50331">
        <ele>48.5</ele>
        <time>2019-01-08T09:41:44Z</time>
      </trkpt>
      <trkpt lat="43.52762" lon="3.50327">
        <ele>48.3</ele>
        <time>2019-01-08T09:41:46Z</time>
      </trkpt>
      <trkpt lat="43.52763" lon="3.50323">
        <ele>48.1</ele>
        <time>2019-01-08T09:41:48Z</time>
      </trkpt>
      <trkpt lat="43.52764" lon="3.50318">
        <ele>47.8</ele>
        <time>2019-01-08T09:41:51Z</time>
      </trkpt>
      <trkpt lat="43.52765" lon="3.50313">
        <ele>47.6</ele>
        <time>2019-01-08T09:41:54Z</time>
      </trkpt>
      <trkpt lat="43.52766" lon="3.50307">
        <ele>47.4</ele>
        <time>2019-01-08T09:41:57Z</time>
      </trkpt>
      <trkpt lat="43.52767" lon="3.50304">
        <ele>47.2</ele>
        <time>2019-01-08T09:41:59Z</time>
      </trkpt>
      <trkpt lat="43.52768" lon="3.503">
        <ele>47.1</ele>
        <time>2019-01-08T09:42:01Z</time>
      </trkpt>
      <trkpt lat="43.5277" lon="3.50297">
        <ele>47</ele>
        <time>2019-01-08T09:42:03Z</time>
      </trkpt>
      <trkpt lat="43.52771" lon="3.50293">
        <ele>46.8</ele>
        <time>2019-01-08T09:42:05Z</time>
      </trkpt>
      <trkpt lat="43.52772" lon="3.50289">
        <ele>46.7</ele>
        <time>2019-01-08T09:42:07Z</time>
      </trkpt>
      <trkpt lat="43.52773" lon="3.50285">
        <ele>46.5</ele>
        <time>2019-01-08T09:42:09Z</time>
      </trkpt>
      <trkpt lat="43.52775" lon="3.5028">
        <ele>46.3</ele>
        <time>2019-01-08T09:42:11Z</time>
      </trkpt>
      <trkpt lat="43.52776" lon="3.50276">
        <ele>46.2</ele>
        <time>2019-01-08T09:42:13Z</time>
      </trkpt>
      <trkpt lat="43.52777" lon="3.50272">
        <ele>46</ele>
        <time>2019-01-08T09:42:15Z</time>
      </trkpt>
      <trkpt lat="43.52778" lon="3.50268">
        <ele>45.9</ele>
        <time>2019-01-08T09:42:17Z</time>
      </trkpt>
      <trkpt lat="43.5278" lon="3.50264">
        <ele>45.8</ele>
        <time>2019-01-08T09:42:19Z</time>
      </trkpt>
      <trkpt lat="43.52781" lon="3.5026">
        <ele>45.7</ele>
        <time>2019-01-08T09:42:21Z</time>
      </trkpt>
      <trkpt lat="43.52783" lon="3.50257">
        <ele>45.6</ele>
        <time>2019-01-08T09:42:23Z</time>
      </trkpt>
      <trkpt lat="43.52785" lon="3.50252">
        <ele>45.5</ele>
        <time>2019-01-08T09:42:26Z</time>
      </trkpt>
      <trkpt lat="43.52786" lon="3.50248">
        <ele>45.4</ele>
        <time>2019-01-08T09:42:29Z</time>
      </trkpt>
      <trkpt lat="43.52787" lon="3.50242">
        <ele>45.3</ele>
        <time>2019-01-08T09:42:32Z</time>
      </trkpt>
      <trkpt lat="43.52789" lon="3.50239">
        <ele>45.2</ele>
        <time>2019-01-08T09:42:34Z</time>
      </trkpt>
      <trkpt lat="43.5279" lon="3.50235">
        <ele>45.1</ele>
        <time>2019-01-08T09:42:36Z</time>
      </trkpt>
      <trkpt lat="43.52792" lon="3.50231">
        <ele>45.1</ele>
        <time>2019-01-08T09:42:38Z</time>
      </trkpt>
      <trkpt lat="43.52794" lon="3.50227">
        <ele>45</ele>
        <time>2019-01-08T09:42:40Z</time>
      </trkpt>
      <trkpt lat="43.52796" lon="3.50223">
        <ele>44.9</ele>
        <time>2019-01-08T09:42:42Z</time>
      </trkpt>
      <trkpt lat="43.52797" lon="3.5022">
        <ele>44.8</ele>
        <time>2019-01-08T09:42:44Z</time>
      </trkpt>
      <trkpt lat="43.52799" lon="3.50216">
        <ele>44.8</ele>
        <time>2019-01-08T09:42:46Z</time>
      </trkpt>
      <trkpt lat="43.52801" lon="3.50212">
        <ele>44.7</ele>
        <time>2019-01-08T09:42:48Z</time>
      </trkpt>
      <trkpt lat="43.52802" lon="3.50208">
        <ele>44.6</ele>
        <time>2019-01-08T09:42:50Z</time>
      </trkpt>
      <trkpt lat="43.52804" lon="3.50204">
        <ele>44.6</ele>
        <time>2019-01-08T09:42:52Z</time>
      </trkpt>
      <trkpt lat="43.52806" lon="3.502">
        <ele>44.5</ele>
        <time>2019-01-08T09:42:54Z</time>
      </trkpt>
      <trkpt lat="43.52807" lon="3.50196">
        <ele>44.4</ele>
        <time>2019-01-08T09:42:56Z</time>
      </trkpt>
      <trkpt lat="43.52808" lon="3.50192">
        <ele>44.4</ele>
        <time>2019-01-08T09:42:58Z</time>
      </trkpt>
      <trkpt lat="43.52809" lon="3.50189">
        <ele>44.3</ele>
        <time>2019-01-08T09:43:00Z</time>
      </trkpt>
      <trkpt lat="43.52811" lon="3.50185">
        <ele>44.3</ele>
        <time>2019-01-08T09:43:02Z</time>
      </trkpt>
      <trkpt lat="43.52813" lon="3.5018">
        <ele>44.2</ele>
        <time>2019-01-08T09:43:04Z</time>
      </trkpt>
      <trkpt lat="43.52815" lon="3.50176">
        <ele>44.1</ele>
        <time>2019-01-08T09:43:06Z</time>
      </trkpt>
      <trkpt lat="43.52816" lon="3.50173">
        <ele>44</ele>
        <time>2019-01-08T09:43:08Z</time>
      </trkpt>
      <trkpt lat="43.52818" lon="3.50169">
        <ele>43.9</ele>
        <time>2019-01-08T09:43:10Z</time>
      </trkpt>
      <trkpt lat="43.52819" lon="3.50165">
        <ele>43.9</ele>
        <time>2019-01-08T09:43:12Z</time>
      </trkpt>
      <trkpt lat="43.5282" lon="3.50161">
        <ele>43.8</ele>
        <time>2019-01-08T09:43:14Z</time>
      </trkpt>
      <trkpt lat="43.52822" lon="3.50159">
        <ele>43.7</ele>
        <time>2019-01-08T09:43:16Z</time>
      </trkpt>
      <trkpt lat="43.52824" lon="3.50154">
        <ele>43.6</ele>
        <time>2019-01-08T09:43:19Z</time>
      </trkpt>
      <trkpt lat="43.52826" lon="3.50151">
        <ele>43.5</ele>
        <time>2019-01-08T09:43:21Z</time>
      </trkpt>
      <trkpt lat="43.52828" lon="3.50146">
        <ele>43.4</ele>
        <time>2019-01-08T09:43:24Z</time>
      </trkpt>
      <trkpt lat="43.52829" lon="3.50143">
        <ele>43.4</ele>
        <time>2019-01-08T09:43:26Z</time>
      </trkpt>
      <trkpt lat="43.5283" lon="3.50139">
        <ele>43.3</ele>
        <time>2019-01-08T09:43:28Z</time>
      </trkpt>
      <trkpt lat="43.52832" lon="3.50135">
        <ele>43.2</ele>
        <time>2019-01-08T09:43:30Z</time>
      </trkpt>
      <trkpt lat="43.52833" lon="3.50131">
        <ele>43.1</ele>
        <time>2019-01-08T09:43:32Z</time>
      </trkpt>
      <trkpt lat="43.52836" lon="3.50127">
        <ele>43</ele>
        <time>2019-01-08T09:43:34Z</time>
      </trkpt>
      <trkpt lat="43.52838" lon="3.50124">
        <ele>42.9</ele>
        <time>2019-01-08T09:43:36Z</time>
      </trkpt>
      <trkpt lat="43.52839" lon="3.5012">
        <ele>42.8</ele>
        <time>2019-01-08T09:43:38Z</time>
      </trkpt>
      <trkpt lat="43.52841" lon="3.50116">
        <ele>42.7</ele>
        <time>2019-01-08T09:43:40Z</time>
      </trkpt>
      <trkpt lat="43.52843" lon="3.50113">
        <ele>42.6</ele>
        <time>2019-01-08T09:43:42Z</time>
      </trkpt>
      <trkpt lat="43.52845" lon="3.5011">
        <ele>42.5</ele>
        <time>2019-01-08T09:43:44Z</time>
      </trkpt>
      <trkpt lat="43.52846" lon="3.50106">
        <ele>42.3</ele>
        <time>2019-01-08T09:43:46Z</time>
      </trkpt>
      <trkpt lat="43.52848" lon="3.50103">
        <ele>42.2</ele>
        <time>2019-01-08T09:43:48Z</time>
      </trkpt>
      <trkpt lat="43.5285" lon="3.501">
        <ele>42.1</ele>
        <time>2019-01-08T09:43:50Z</time>
      </trkpt>
      <trkpt lat="43.52852" lon="3.50096">
        <ele>42</ele>
        <time>2019-01-08T09:43:52Z</time>
      </trkpt>
      <trkpt lat="43.52854" lon="3.50093">
        <ele>41.9</ele>
        <time>2019-01-08T09:43:54Z</time>
      </trkpt>
      <trkpt lat="43.52855" lon="3.5009">
        <ele>41.8</ele>
        <time>2019-01-08T09:43:56Z</time>
      </trkpt>
      <trkpt lat="43.52857" lon="3.50086">
        <ele>41.7</ele>
        <time>2019-01-08T09:43:58Z</time>
      </trkpt>
      <trkpt lat="43.5286" lon="3.50082">
        <ele>41.5</ele>
        <time>2019-01-08T09:44:01Z</time>
      </trkpt>
      <trkpt lat="43.52861" lon="3.50078">
        <ele>41.4</ele>
        <time>2019-01-08T09:44:03Z</time>
      </trkpt>
      <trkpt lat="43.52863" lon="3.50074">
        <ele>41.3</ele>
        <time>2019-01-08T09:44:05Z</time>
      </trkpt>
      <trkpt lat="43.52866" lon="3.5007">
        <ele>41.2</ele>
        <time>2019-01-08T09:44:07Z</time>
      </trkpt>
      <trkpt lat="43.52869" lon="3.50068">
        <ele>40.9</ele>
        <time>2019-01-08T09:44:09Z</time>
      </trkpt>
      <trkpt lat="43.52872" lon="3.50067">
        <ele>40.9</ele>
        <time>2019-01-08T09:44:11Z</time>
      </trkpt>
      <trkpt lat="43.52875" lon="3.50066">
        <ele>40.8</ele>
        <time>2019-01-08T09:44:13Z</time>
      </trkpt>
      <trkpt lat="43.52878" lon="3.50066">
        <ele>40.8</ele>
        <time>2019-01-08T09:44:15Z</time>
      </trkpt>
      <trkpt lat="43.52881" lon="3.50065">
        <ele>40.8</ele>
        <time>2019-01-08T09:44:17Z</time>
      </trkpt>
      <trkpt lat="43.52884" lon="3.50064">
        <ele>40.7</ele>
        <time>2019-01-08T09:44:19Z</time>
      </trkpt>
      <trkpt lat="43.52888" lon="3.50063">
        <ele>40.7</ele>
        <time>2019-01-08T09:44:22Z</time>
      </trkpt>
      <trkpt lat="43.52891" lon="3.50062">
        <ele>40.7</ele>
        <time>2019-01-08T09:44:24Z</time>
      </trkpt>
      <trkpt lat="43.52894" lon="3.50061">
        <ele>40.7</ele>
        <time>2019-01-08T09:44:26Z</time>
      </trkpt>
      <trkpt lat="43.52897" lon="3.5006">
        <ele>40.6</ele>
        <time>2019-01-08T09:44:28Z</time>
      </trkpt>
      <trkpt lat="43.529" lon="3.50059">
        <ele>40.6</ele>
        <time>2019-01-08T09:44:30Z</time>
      </trkpt>
      <trkpt lat="43.52903" lon="3.50059">
        <ele>40.6</ele>
        <time>2019-01-08T09:44:32Z</time>
      </trkpt>
      <trkpt lat="43.52906" lon="3.50058">
        <ele>40.6</ele>
        <time>2019-01-08T09:44:34Z</time>
      </trkpt>
      <trkpt lat="43.52909" lon="3.50058">
        <ele>40.5</ele>
        <time>2019-01-08T09:44:36Z</time>
      </trkpt>
      <trkpt lat="43.52912" lon="3.50057">
        <ele>40.5</ele>
        <time>2019-01-08T09:44:38Z</time>
      </trkpt>
      <trkpt lat="43.52916" lon="3.50057">
        <ele>40.5</ele>
        <time>2019-01-08T09:44:41Z</time>
      </trkpt>
      <trkpt lat="43.52919" lon="3.50056">
        <ele>40.5</ele>
        <time>2019-01-08T09:44:43Z</time>
      </trkpt>
      <trkpt lat="43.52922" lon="3.50055">
        <ele>40.4</ele>
        <time>2019-01-08T09:44:45Z</time>
      </trkpt>
      <trkpt lat="43.52925" lon="3.50054">
        <ele>40.4</ele>
        <time>2019-01-08T09:44:47Z</time>
      </trkpt>
      <trkpt lat="43.52928" lon="3.50054">
        <ele>40.4</ele>
        <time>2019-01-08T09:44:49Z</time>
      </trkpt>
      <trkpt lat="43.52932" lon="3.50053">
        <ele>40.3</ele>
        <time>2019-01-08T09:44:51Z</time>
      </trkpt>
      <trkpt lat="43.52936" lon="3.50052">
        <ele>40.3</ele>
        <time>2019-01-08T09:44:53Z</time>
      </trkpt>
      <trkpt lat="43.52939" lon="3.50049">
        <ele>40.3</ele>
        <time>2019-01-08T09:44:55Z</time>
      </trkpt>
      <trkpt lat="43.52943" lon="3.50048">
        <ele>40.2</ele>
        <time>2019-01-08T09:44:57Z</time>
      </trkpt>
      <trkpt lat="43.52945" lon="3.50046">
        <ele>40.2</ele>
        <time>2019-01-08T09:44:59Z</time>
      </trkpt>
      <trkpt lat="43.52948" lon="3.50044">
        <ele>40.1</ele>
        <time>2019-01-08T09:45:01Z</time>
      </trkpt>
      <trkpt lat="43.52951" lon="3.50044">
        <ele>40.1</ele>
        <time>2019-01-08T09:45:03Z</time>
      </trkpt>
      <trkpt lat="43.52956" lon="3.50043">
        <ele>40</ele>
        <time>2019-01-08T09:45:05Z</time>
      </trkpt>
      <trkpt lat="43.52961" lon="3.50042">
        <ele>39.9</ele>
        <time>2019-01-08T09:45:07Z</time>
      </trkpt>
      <trkpt lat="43.52964" lon="3.50043">
        <ele>39.8</ele>
        <time>2019-01-08T09:45:09Z</time>
      </trkpt>
      <trkpt lat="43.52967" lon="3.50044">
        <ele>39.8</ele>
        <time>2019-01-08T09:45:12Z</time>
      </trkpt>
      <trkpt lat="43.52971" lon="3.50045">
        <ele>39.7</ele>
        <time>2019-01-08T09:45:15Z</time>
      </trkpt>
      <trkpt lat="43.52974" lon="3.50046">
        <ele>39.6</ele>
        <time>2019-01-08T09:45:17Z</time>
      </trkpt>
      <trkpt lat="43.52978" lon="3.50048">
        <ele>39.5</ele>
        <time>2019-01-08T09:45:20Z</time>
      </trkpt>
      <trkpt lat="43.52982" lon="3.5005">
        <ele>39.4</ele>
        <time>2019-01-08T09:45:23Z</time>
      </trkpt>
      <trkpt lat="43.52985" lon="3.50052">
        <ele>39.3</ele>
        <time>2019-01-08T09:45:25Z</time>
      </trkpt>
      <trkpt lat="43.52988" lon="3.50052">
        <ele>39.3</ele>
        <time>2019-01-08T09:45:27Z</time>
      </trkpt>
      <trkpt lat="43.52991" lon="3.50054">
        <ele>39.2</ele>
        <time>2019-01-08T09:45:29Z</time>
      </trkpt>
      <trkpt lat="43.52995" lon="3.50055">
        <ele>39.1</ele>
        <time>2019-01-08T09:45:32Z</time>
      </trkpt>
      <trkpt lat="43.52998" lon="3.50057">
        <ele>39.1</ele>
        <time>2019-01-08T09:45:35Z</time>
      </trkpt>
      <trkpt lat="43.53002" lon="3.50058">
        <ele>39</ele>
        <time>2019-01-08T09:45:38Z</time>
      </trkpt>
      <trkpt lat="43.53005" lon="3.50059">
        <ele>39</ele>
        <time>2019-01-08T09:45:42Z</time>
      </trkpt>
      <trkpt lat="43.53008" lon="3.50057">
        <ele>38.9</ele>
        <time>2019-01-08T09:45:45Z</time>
      </trkpt>
      <trkpt lat="43.53011" lon="3.50057">
        <ele>38.9</ele>
        <time>2019-01-08T09:45:48Z</time>
      </trkpt>
      <trkpt lat="43.53014" lon="3.50057">
        <ele>38.9</ele>
        <time>2019-01-08T09:45:51Z</time>
      </trkpt>
      <trkpt lat="43.53017" lon="3.50059">
        <ele>38.9</ele>
        <time>2019-01-08T09:45:53Z</time>
      </trkpt>
      <trkpt lat="43.5302" lon="3.50061">
        <ele>38.9</ele>
        <time>2019-01-08T09:45:55Z</time>
      </trkpt>
      <trkpt lat="43.53024" lon="3.50063">
        <ele>38.8</ele>
        <time>2019-01-08T09:45:57Z</time>
      </trkpt>
      <trkpt lat="43.53028" lon="3.50064">
        <ele>38.8</ele>
        <time>2019-01-08T09:45:59Z</time>
      </trkpt>
      <trkpt lat="43.53031" lon="3.50065">
        <ele>38.8</ele>
        <time>2019-01-08T09:46:01Z</time>
      </trkpt>
      <trkpt lat="43.53035" lon="3.50066">
        <ele>38.8</ele>
        <time>2019-01-08T09:46:03Z</time>
      </trkpt>
      <trkpt lat="43.53037" lon="3.50068">
        <ele>38.8</ele>
        <time>2019-01-08T09:46:04Z</time>
      </trkpt>
      <trkpt lat="43.53041" lon="3.5007">
        <ele>38.9</ele>
        <time>2019-01-08T09:46:06Z</time>
      </trkpt>
      <trkpt lat="43.53044" lon="3.50071">
        <ele>38.9</ele>
        <time>2019-01-08T09:46:08Z</time>
      </trkpt>
      <trkpt lat="43.53048" lon="3.50073">
        <ele>38.9</ele>
        <time>2019-01-08T09:46:11Z</time>
      </trkpt>
      <trkpt lat="43.53051" lon="3.50073">
        <ele>38.9</ele>
        <time>2019-01-08T09:46:13Z</time>
      </trkpt>
      <trkpt lat="43.53054" lon="3.50074">
        <ele>38.9</ele>
        <time>2019-01-08T09:46:15Z</time>
      </trkpt>
      <trkpt lat="43.53057" lon="3.50075">
        <ele>39</ele>
        <time>2019-01-08T09:46:17Z</time>
      </trkpt>
      <trkpt lat="43.5306" lon="3.50076">
        <ele>39</ele>
        <time>2019-01-08T09:46:19Z</time>
      </trkpt>
      <trkpt lat="43.53063" lon="3.50079">
        <ele>39</ele>
        <time>2019-01-08T09:46:21Z</time>
      </trkpt>
      <trkpt lat="43.53066" lon="3.50081">
        <ele>39.1</ele>
        <time>2019-01-08T09:46:23Z</time>
      </trkpt>
      <trkpt lat="43.53068" lon="3.50083">
        <ele>39.1</ele>
        <time>2019-01-08T09:46:25Z</time>
      </trkpt>
      <trkpt lat="43.53072" lon="3.50086">
        <ele>39.1</ele>
        <time>2019-01-08T09:46:28Z</time>
      </trkpt>
      <trkpt lat="43.53075" lon="3.50088">
        <ele>39.2</ele>
        <time>2019-01-08T09:46:30Z</time>
      </trkpt>
      <trkpt lat="43.53078" lon="3.5009">
        <ele>39.2</ele>
        <time>2019-01-08T09:46:32Z</time>
      </trkpt>
      <trkpt lat="43.53081" lon="3.50093">
        <ele>39.3</ele>
        <time>2019-01-08T09:46:34Z</time>
      </trkpt>
      <trkpt lat="43.53081" lon="3.50097">
        <ele>39.3</ele>
        <time>2019-01-08T09:46:37Z</time>
      </trkpt>
      <trkpt lat="43.53084" lon="3.501">
        <ele>39.4</ele>
        <time>2019-01-08T09:46:38Z</time>
      </trkpt>
      <trkpt lat="43.53086" lon="3.50106">
        <ele>39.4</ele>
        <time>2019-01-08T09:46:40Z</time>
      </trkpt>
      <trkpt lat="43.53088" lon="3.5011">
        <ele>39.4</ele>
        <time>2019-01-08T09:46:42Z</time>
      </trkpt>
      <trkpt lat="43.5309" lon="3.50113">
        <ele>39.4</ele>
        <time>2019-01-08T09:46:44Z</time>
      </trkpt>
      <trkpt lat="43.53092" lon="3.50116">
        <ele>39.5</ele>
        <time>2019-01-08T09:46:46Z</time>
      </trkpt>
      <trkpt lat="43.53094" lon="3.50121">
        <ele>39.5</ele>
        <time>2019-01-08T09:46:49Z</time>
      </trkpt>
      <trkpt lat="43.53097" lon="3.50125">
        <ele>39.5</ele>
        <time>2019-01-08T09:46:52Z</time>
      </trkpt>
      <trkpt lat="43.53099" lon="3.50128">
        <ele>39.5</ele>
        <time>2019-01-08T09:46:54Z</time>
      </trkpt>
      <trkpt lat="43.53102" lon="3.50131">
        <ele>39.5</ele>
        <time>2019-01-08T09:46:56Z</time>
      </trkpt>
      <trkpt lat="43.53103" lon="3.50135">
        <ele>39.5</ele>
        <time>2019-01-08T09:46:58Z</time>
      </trkpt>
      <trkpt lat="43.53105" lon="3.50139">
        <ele>39.5</ele>
        <time>2019-01-08T09:47:01Z</time>
      </trkpt>
      <trkpt lat="43.53107" lon="3.50142">
        <ele>39.5</ele>
        <time>2019-01-08T09:47:04Z</time>
      </trkpt>
      <trkpt lat="43.5311" lon="3.50144">
        <ele>39.5</ele>
        <time>2019-01-08T09:47:06Z</time>
      </trkpt>
      <trkpt lat="43.53113" lon="3.50146">
        <ele>39.5</ele>
        <time>2019-01-08T09:47:08Z</time>
      </trkpt>
      <trkpt lat="43.53117" lon="3.50147">
        <ele>39.5</ele>
        <time>2019-01-08T09:47:10Z</time>
      </trkpt>
      <trkpt lat="43.5312" lon="3.50146">
        <ele>39.5</ele>
        <time>2019-01-08T09:47:13Z</time>
      </trkpt>
      <trkpt lat="43.53123" lon="3.50145">
        <ele>39.5</ele>
        <time>2019-01-08T09:47:15Z</time>
      </trkpt>
      <trkpt lat="43.53126" lon="3.50144">
        <ele>39.4</ele>
        <time>2019-01-08T09:47:17Z</time>
      </trkpt>
      <trkpt lat="43.5313" lon="3.50142">
        <ele>39.4</ele>
        <time>2019-01-08T09:47:19Z</time>
      </trkpt>
      <trkpt lat="43.53133" lon="3.5014">
        <ele>39.4</ele>
        <time>2019-01-08T09:47:21Z</time>
      </trkpt>
      <trkpt lat="43.53135" lon="3.50138">
        <ele>39.4</ele>
        <time>2019-01-08T09:47:23Z</time>
      </trkpt>
      <trkpt lat="43.53138" lon="3.50135">
        <ele>39.4</ele>
        <time>2019-01-08T09:47:25Z</time>
      </trkpt>
      <trkpt lat="43.53141" lon="3.50133">
        <ele>39.3</ele>
        <time>2019-01-08T09:47:28Z</time>
      </trkpt>
      <trkpt lat="43.53144" lon="3.5013">
        <ele>39.3</ele>
        <time>2019-01-08T09:47:30Z</time>
      </trkpt>
      <trkpt lat="43.53147" lon="3.50127">
        <ele>39.3</ele>
        <time>2019-01-08T09:47:32Z</time>
      </trkpt>
      <trkpt lat="43.5315" lon="3.50124">
        <ele>39.3</ele>
        <time>2019-01-08T09:47:34Z</time>
      </trkpt>
      <trkpt lat="43.53152" lon="3.50121">
        <ele>39.3</ele>
        <time>2019-01-08T09:47:36Z</time>
      </trkpt>
      <trkpt lat="43.53156" lon="3.50119">
        <ele>39.2</ele>
        <time>2019-01-08T09:47:39Z</time>
      </trkpt>
      <trkpt lat="43.53159" lon="3.50116">
        <ele>39.2</ele>
        <time>2019-01-08T09:47:42Z</time>
      </trkpt>
      <trkpt lat="43.53161" lon="3.50113">
        <ele>39.2</ele>
        <time>2019-01-08T09:47:44Z</time>
      </trkpt>
      <trkpt lat="43.53164" lon="3.5011">
        <ele>39.2</ele>
        <time>2019-01-08T09:47:46Z</time>
      </trkpt>
      <trkpt lat="43.53166" lon="3.50107">
        <ele>39.2</ele>
        <time>2019-01-08T09:47:48Z</time>
      </trkpt>
      <trkpt lat="43.53169" lon="3.50105">
        <ele>39.2</ele>
        <time>2019-01-08T09:47:51Z</time>
      </trkpt>
      <trkpt lat="43.53172" lon="3.50102">
        <ele>39.1</ele>
        <time>2019-01-08T09:47:53Z</time>
      </trkpt>
      <trkpt lat="43.53175" lon="3.50099">
        <ele>39.1</ele>
        <time>2019-01-08T09:47:55Z</time>
      </trkpt>
      <trkpt lat="43.53178" lon="3.50096">
        <ele>39.1</ele>
        <time>2019-01-08T09:47:57Z</time>
      </trkpt>
      <trkpt lat="43.5318" lon="3.50094">
        <ele>39.1</ele>
        <time>2019-01-08T09:47:59Z</time>
      </trkpt>
      <trkpt lat="43.53183" lon="3.50091">
        <ele>39.1</ele>
        <time>2019-01-08T09:48:02Z</time>
      </trkpt>
      <trkpt lat="43.53186" lon="3.50089">
        <ele>39.1</ele>
        <time>2019-01-08T09:48:04Z</time>
      </trkpt>
      <trkpt lat="43.53189" lon="3.50087">
        <ele>39</ele>
        <time>2019-01-08T09:48:06Z</time>
      </trkpt>
      <trkpt lat="43.53191" lon="3.50084">
        <ele>39</ele>
        <time>2019-01-08T09:48:08Z</time>
      </trkpt>
      <trkpt lat="43.53193" lon="3.50082">
        <ele>39</ele>
        <time>2019-01-08T09:48:10Z</time>
      </trkpt>
      <trkpt lat="43.53195" lon="3.50079">
        <ele>39</ele>
        <time>2019-01-08T09:48:12Z</time>
      </trkpt>
      <trkpt lat="43.53198" lon="3.50077">
        <ele>39</ele>
        <time>2019-01-08T09:48:14Z</time>
      </trkpt>
      <trkpt lat="43.532" lon="3.50074">
        <ele>39</ele>
        <time>2019-01-08T09:48:16Z</time>
      </trkpt>
      <trkpt lat="43.53203" lon="3.50072">
        <ele>38.9</ele>
        <time>2019-01-08T09:48:18Z</time>
      </trkpt>
      <trkpt lat="43.53206" lon="3.5007">
        <ele>38.9</ele>
        <time>2019-01-08T09:48:20Z</time>
      </trkpt>
      <trkpt lat="43.53209" lon="3.50067">
        <ele>38.9</ele>
        <time>2019-01-08T09:48:23Z</time>
      </trkpt>
      <trkpt lat="43.53211" lon="3.50065">
        <ele>38.9</ele>
        <time>2019-01-08T09:48:25Z</time>
      </trkpt>
      <trkpt lat="43.53214" lon="3.50062">
        <ele>38.9</ele>
        <time>2019-01-08T09:48:27Z</time>
      </trkpt>
      <trkpt lat="43.53217" lon="3.50059">
        <ele>38.8</ele>
        <time>2019-01-08T09:48:29Z</time>
      </trkpt>
      <trkpt lat="43.5322" lon="3.50057">
        <ele>38.8</ele>
        <time>2019-01-08T09:48:31Z</time>
      </trkpt>
      <trkpt lat="43.53222" lon="3.50055">
        <ele>38.8</ele>
        <time>2019-01-08T09:48:34Z</time>
      </trkpt>
      <trkpt lat="43.53225" lon="3.50052">
        <ele>38.8</ele>
        <time>2019-01-08T09:48:37Z</time>
      </trkpt>
      <trkpt lat="43.53228" lon="3.50049">
        <ele>38.7</ele>
        <time>2019-01-08T09:48:39Z</time>
      </trkpt>
      <trkpt lat="43.5323" lon="3.50046">
        <ele>38.7</ele>
        <time>2019-01-08T09:48:41Z</time>
      </trkpt>
      <trkpt lat="43.53232" lon="3.50043">
        <ele>38.7</ele>
        <time>2019-01-08T09:48:43Z</time>
      </trkpt>
      <trkpt lat="43.53235" lon="3.5004">
        <ele>38.7</ele>
        <time>2019-01-08T09:48:46Z</time>
      </trkpt>
      <trkpt lat="43.53237" lon="3.50037">
        <ele>38.6</ele>
        <time>2019-01-08T09:48:48Z</time>
      </trkpt>
      <trkpt lat="43.53238" lon="3.50032">
        <ele>38.6</ele>
        <time>2019-01-08T09:48:50Z</time>
      </trkpt>
      <trkpt lat="43.53239" lon="3.50028">
        <ele>38.5</ele>
        <time>2019-01-08T09:48:52Z</time>
      </trkpt>
      <trkpt lat="43.53239" lon="3.50023">
        <ele>38.5</ele>
        <time>2019-01-08T09:48:55Z</time>
      </trkpt>
      <trkpt lat="43.53239" lon="3.50018">
        <ele>38.5</ele>
        <time>2019-01-08T09:48:58Z</time>
      </trkpt>
      <trkpt lat="43.5324" lon="3.50012">
        <ele>38.4</ele>
        <time>2019-01-08T09:49:01Z</time>
      </trkpt>
      <trkpt lat="43.53241" lon="3.50007">
        <ele>38.4</ele>
        <time>2019-01-08T09:49:03Z</time>
      </trkpt>
      <trkpt lat="43.53244" lon="3.50004">
        <ele>38.3</ele>
        <time>2019-01-08T09:49:05Z</time>
      </trkpt>
      <trkpt lat="43.53247" lon="3.50001">
        <ele>38.3</ele>
        <time>2019-01-08T09:49:07Z</time>
      </trkpt>
      <trkpt lat="43.5325" lon="3.49999">
        <ele>38.3</ele>
        <time>2019-01-08T09:49:10Z</time>
      </trkpt>
      <trkpt lat="43.53253" lon="3.49997">
        <ele>38.2</ele>
        <time>2019-01-08T09:49:12Z</time>
      </trkpt>
      <trkpt lat="43.53256" lon="3.49995">
        <ele>38.2</ele>
        <time>2019-01-08T09:49:14Z</time>
      </trkpt>
      <trkpt lat="43.53259" lon="3.49993">
        <ele>38.2</ele>
        <time>2019-01-08T09:49:16Z</time>
      </trkpt>
      <trkpt lat="43.53263" lon="3.49992">
        <ele>38.2</ele>
        <time>2019-01-08T09:49:18Z</time>
      </trkpt>
      <trkpt lat="43.53265" lon="3.4999">
        <ele>38.1</ele>
        <time>2019-01-08T09:49:20Z</time>
      </trkpt>
      <trkpt lat="43.53268" lon="3.49988">
        <ele>38.1</ele>
        <time>2019-01-08T09:49:23Z</time>
      </trkpt>
      <trkpt lat="43.53271" lon="3.49986">
        <ele>38.1</ele>
        <time>2019-01-08T09:49:25Z</time>
      </trkpt>
      <trkpt lat="43.53274" lon="3.49984">
        <ele>38.1</ele>
        <time>2019-01-08T09:49:27Z</time>
      </trkpt>
      <trkpt lat="43.53277" lon="3.49982">
        <ele>38.1</ele>
        <time>2019-01-08T09:49:29Z</time>
      </trkpt>
      <trkpt lat="43.53281" lon="3.49979">
        <ele>38.1</ele>
        <time>2019-01-08T09:49:32Z</time>
      </trkpt>
      <trkpt lat="43.53284" lon="3.49977">
        <ele>38</ele>
        <time>2019-01-08T09:49:35Z</time>
      </trkpt>
      <trkpt lat="43.53287" lon="3.49976">
        <ele>38</ele>
        <time>2019-01-08T09:49:37Z</time>
      </trkpt>
      <trkpt lat="43.53291" lon="3.49974">
        <ele>38</ele>
        <time>2019-01-08T09:49:39Z</time>
      </trkpt>
      <trkpt lat="43.53294" lon="3.49973">
        <ele>38</ele>
        <time>2019-01-08T09:49:41Z</time>
      </trkpt>
      <trkpt lat="43.53297" lon="3.49971">
        <ele>38</ele>
        <time>2019-01-08T09:49:44Z</time>
      </trkpt>
      <trkpt lat="43.53301" lon="3.4997">
        <ele>38</ele>
        <time>2019-01-08T09:49:47Z</time>
      </trkpt>
      <trkpt lat="43.53305" lon="3.49969">
        <ele>38</ele>
        <time>2019-01-08T09:49:49Z</time>
      </trkpt>
      <trkpt lat="43.53308" lon="3.49968">
        <ele>38</ele>
        <time>2019-01-08T09:49:51Z</time>
      </trkpt>
      <trkpt lat="43.53311" lon="3.49966">
        <ele>38</ele>
        <time>2019-01-08T09:49:53Z</time>
      </trkpt>
      <trkpt lat="43.53313" lon="3.49965">
        <ele>38</ele>
        <time>2019-01-08T09:49:55Z</time>
      </trkpt>
      <trkpt lat="43.53316" lon="3.49964">
        <ele>38</ele>
        <time>2019-01-08T09:49:58Z</time>
      </trkpt>
      <trkpt lat="43.53319" lon="3.49963">
        <ele>38</ele>
        <time>2019-01-08T09:50:00Z</time>
      </trkpt>
      <trkpt lat="43.53323" lon="3.49962">
        <ele>38</ele>
        <time>2019-01-08T09:50:02Z</time>
      </trkpt>
      <trkpt lat="43.53326" lon="3.49962">
        <ele>38</ele>
        <time>2019-01-08T09:50:04Z</time>
      </trkpt>
      <trkpt lat="43.53329" lon="3.49962">
        <ele>38</ele>
        <time>2019-01-08T09:50:06Z</time>
      </trkpt>
      <trkpt lat="43.53333" lon="3.49961">
        <ele>38</ele>
        <time>2019-01-08T09:50:09Z</time>
      </trkpt>
      <trkpt lat="43.53336" lon="3.49962">
        <ele>38</ele>
        <time>2019-01-08T09:50:12Z</time>
      </trkpt>
      <trkpt lat="43.5334" lon="3.49961">
        <ele>38.1</ele>
        <time>2019-01-08T09:50:14Z</time>
      </trkpt>
      <trkpt lat="43.53343" lon="3.4996">
        <ele>38.1</ele>
        <time>2019-01-08T09:50:16Z</time>
      </trkpt>
      <trkpt lat="43.53346" lon="3.4996">
        <ele>38.1</ele>
        <time>2019-01-08T09:50:18Z</time>
      </trkpt>
      <trkpt lat="43.53349" lon="3.49959">
        <ele>38.1</ele>
        <time>2019-01-08T09:50:20Z</time>
      </trkpt>
      <trkpt lat="43.53352" lon="3.4996">
        <ele>38.1</ele>
        <time>2019-01-08T09:50:23Z</time>
      </trkpt>
      <trkpt lat="43.53355" lon="3.4996">
        <ele>38.1</ele>
        <time>2019-01-08T09:50:25Z</time>
      </trkpt>
      <trkpt lat="43.53359" lon="3.49959">
        <ele>38.1</ele>
        <time>2019-01-08T09:50:27Z</time>
      </trkpt>
      <trkpt lat="43.53363" lon="3.49958">
        <ele>38.1</ele>
        <time>2019-01-08T09:50:29Z</time>
      </trkpt>
      <trkpt lat="43.53366" lon="3.49958">
        <ele>38</ele>
        <time>2019-01-08T09:50:31Z</time>
      </trkpt>
      <trkpt lat="43.53369" lon="3.49958">
        <ele>38</ele>
        <time>2019-01-08T09:50:33Z</time>
      </trkpt>
      <trkpt lat="43.53372" lon="3.49958">
        <ele>38</ele>
        <time>2019-01-08T09:50:35Z</time>
      </trkpt>
      <trkpt lat="43.53375" lon="3.49957">
        <ele>38</ele>
        <time>2019-01-08T09:50:37Z</time>
      </trkpt>
      <trkpt lat="43.53378" lon="3.49955">
        <ele>37.9</ele>
        <time>2019-01-08T09:50:39Z</time>
      </trkpt>
      <trkpt lat="43.53382" lon="3.49953">
        <ele>37.9</ele>
        <time>2019-01-08T09:50:41Z</time>
      </trkpt>
      <trkpt lat="43.53385" lon="3.49951">
        <ele>37.9</ele>
        <time>2019-01-08T09:50:43Z</time>
      </trkpt>
      <trkpt lat="43.53388" lon="3.49949">
        <ele>37.9</ele>
        <time>2019-01-08T09:50:45Z</time>
      </trkpt>
      <trkpt lat="43.53391" lon="3.49947">
        <ele>37.8</ele>
        <time>2019-01-08T09:50:47Z</time>
      </trkpt>
      <trkpt lat="43.53394" lon="3.49944">
        <ele>37.8</ele>
        <time>2019-01-08T09:50:50Z</time>
      </trkpt>
      <trkpt lat="43.53396" lon="3.49942">
        <ele>37.8</ele>
        <time>2019-01-08T09:50:52Z</time>
      </trkpt>
      <trkpt lat="43.53399" lon="3.49939">
        <ele>37.8</ele>
        <time>2019-01-08T09:50:54Z</time>
      </trkpt>
      <trkpt lat="43.53401" lon="3.49937">
        <ele>37.8</ele>
        <time>2019-01-08T09:50:56Z</time>
      </trkpt>
      <trkpt lat="43.53404" lon="3.49934">
        <ele>37.7</ele>
        <time>2019-01-08T09:50:58Z</time>
      </trkpt>
      <trkpt lat="43.53406" lon="3.49931">
        <ele>37.7</ele>
        <time>2019-01-08T09:51:00Z</time>
      </trkpt>
      <trkpt lat="43.53408" lon="3.49929">
        <ele>37.7</ele>
        <time>2019-01-08T09:51:02Z</time>
      </trkpt>
      <trkpt lat="43.53412" lon="3.49926">
        <ele>37.7</ele>
        <time>2019-01-08T09:51:05Z</time>
      </trkpt>
      <trkpt lat="43.53414" lon="3.49923">
        <ele>37.6</ele>
        <time>2019-01-08T09:51:07Z</time>
      </trkpt>
      <trkpt lat="43.53417" lon="3.4992">
        <ele>37.6</ele>
        <time>2019-01-08T09:51:09Z</time>
      </trkpt>
      <trkpt lat="43.53419" lon="3.49916">
        <ele>37.6</ele>
        <time>2019-01-08T09:51:11Z</time>
      </trkpt>
      <trkpt lat="43.53421" lon="3.49913">
        <ele>37.6</ele>
        <time>2019-01-08T09:51:13Z</time>
      </trkpt>
      <trkpt lat="43.53424" lon="3.4991">
        <ele>37.6</ele>
        <time>2019-01-08T09:51:16Z</time>
      </trkpt>
      <trkpt lat="43.53426" lon="3.49908">
        <ele>37.6</ele>
        <time>2019-01-08T09:51:18Z</time>
      </trkpt>
      <trkpt lat="43.53429" lon="3.49905">
        <ele>37.6</ele>
        <time>2019-01-08T09:51:20Z</time>
      </trkpt>
      <trkpt lat="43.53431" lon="3.49902">
        <ele>37.5</ele>
        <time>2019-01-08T09:51:22Z</time>
      </trkpt>
      <trkpt lat="43.53434" lon="3.49899">
        <ele>37.5</ele>
        <time>2019-01-08T09:51:24Z</time>
      </trkpt>
      <trkpt lat="43.53437" lon="3.49896">
        <ele>37.5</ele>
        <time>2019-01-08T09:51:27Z</time>
      </trkpt>
      <trkpt lat="43.53439" lon="3.49894">
        <ele>37.5</ele>
        <time>2019-01-08T09:51:29Z</time>
      </trkpt>
      <trkpt lat="43.53442" lon="3.49892">
        <ele>37.5</ele>
        <time>2019-01-08T09:51:31Z</time>
      </trkpt>
      <trkpt lat="43.53445" lon="3.49889">
        <ele>37.5</ele>
        <time>2019-01-08T09:51:33Z</time>
      </trkpt>
      <trkpt lat="43.53449" lon="3.49886">
        <ele>37.5</ele>
        <time>2019-01-08T09:51:35Z</time>
      </trkpt>
      <trkpt lat="43.53451" lon="3.49884">
        <ele>37.4</ele>
        <time>2019-01-08T09:51:37Z</time>
      </trkpt>
      <trkpt lat="43.53453" lon="3.49881">
        <ele>37.4</ele>
        <time>2019-01-08T09:51:39Z</time>
      </trkpt>
      <trkpt lat="43.53456" lon="3.49877">
        <ele>37.4</ele>
        <time>2019-01-08T09:51:42Z</time>
      </trkpt>
      <trkpt lat="43.53458" lon="3.49874">
        <ele>37.3</ele>
        <time>2019-01-08T09:51:44Z</time>
      </trkpt>
      <trkpt lat="43.53461" lon="3.49872">
        <ele>37.3</ele>
        <time>2019-01-08T09:51:46Z</time>
      </trkpt>
      <trkpt lat="43.53463" lon="3.49869">
        <ele>37.3</ele>
        <time>2019-01-08T09:51:48Z</time>
      </trkpt>
      <trkpt lat="43.53466" lon="3.49867">
        <ele>37.3</ele>
        <time>2019-01-08T09:51:50Z</time>
      </trkpt>
      <trkpt lat="43.53469" lon="3.49866">
        <ele>37.2</ele>
        <time>2019-01-08T09:51:52Z</time>
      </trkpt>
      <trkpt lat="43.53472" lon="3.49867">
        <ele>37.7</ele>
        <time>2019-01-08T09:51:54Z</time>
      </trkpt>
      <trkpt lat="43.53475" lon="3.4987">
        <ele>38</ele>
        <time>2019-01-08T09:51:57Z</time>
      </trkpt>
      <trkpt lat="43.53478" lon="3.49874">
        <ele>38.2</ele>
        <time>2019-01-08T09:52:00Z</time>
      </trkpt>
      <trkpt lat="43.53479" lon="3.49877">
        <ele>38.4</ele>
        <time>2019-01-08T09:52:02Z</time>
      </trkpt>
      <trkpt lat="43.53481" lon="3.49879">
        <ele>38.6</ele>
        <time>2019-01-08T09:52:04Z</time>
      </trkpt>
      <trkpt lat="43.53483" lon="3.49882">
        <ele>38.8</ele>
        <time>2019-01-08T09:52:06Z</time>
      </trkpt>
      <trkpt lat="43.53486" lon="3.49886">
        <ele>39</ele>
        <time>2019-01-08T09:52:09Z</time>
      </trkpt>
      <trkpt lat="43.53488" lon="3.49889">
        <ele>39.2</ele>
        <time>2019-01-08T09:52:11Z</time>
      </trkpt>
      <trkpt lat="43.53491" lon="3.49893">
        <ele>39.4</ele>
        <time>2019-01-08T09:52:13Z</time>
      </trkpt>
      <trkpt lat="43.53493" lon="3.49896">
        <ele>39.6</ele>
        <time>2019-01-08T09:52:15Z</time>
      </trkpt>
      <trkpt lat="43.53495" lon="3.49898">
        <ele>39.7</ele>
        <time>2019-01-08T09:52:17Z</time>
      </trkpt>
      <trkpt lat="43.53497" lon="3.49903">
        <ele>39.8</ele>
        <time>2019-01-08T09:52:20Z</time>
      </trkpt>
      <trkpt lat="43.53499" lon="3.49907">
        <ele>40</ele>
        <time>2019-01-08T09:52:22Z</time>
      </trkpt>
      <trkpt lat="43.53501" lon="3.49911">
        <ele>40.2</ele>
        <time>2019-01-08T09:52:24Z</time>
      </trkpt>
      <trkpt lat="43.53503" lon="3.49915">
        <ele>40.3</ele>
        <time>2019-01-08T09:52:26Z</time>
      </trkpt>
      <trkpt lat="43.53503" lon="3.49919">
        <ele>40.3</ele>
        <time>2019-01-08T09:52:28Z</time>
      </trkpt>
      <trkpt lat="43.53502" lon="3.49922">
        <ele>40.3</ele>
        <time>2019-01-08T09:52:30Z</time>
      </trkpt>
      <trkpt lat="43.53501" lon="3.49926">
        <ele>40.2</ele>
        <time>2019-01-08T09:52:32Z</time>
      </trkpt>
      <trkpt lat="43.53499" lon="3.49929">
        <ele>40.1</ele>
        <time>2019-01-08T09:52:34Z</time>
      </trkpt>
      <trkpt lat="43.53497" lon="3.49933">
        <ele>40.1</ele>
        <time>2019-01-08T09:52:36Z</time>
      </trkpt>
      <trkpt lat="43.53496" lon="3.49937">
        <ele>40.1</ele>
        <time>2019-01-08T09:52:38Z</time>
      </trkpt>
      <trkpt lat="43.53494" lon="3.4994">
        <ele>40</ele>
        <time>2019-01-08T09:52:40Z</time>
      </trkpt>
      <trkpt lat="43.53491" lon="3.49944">
        <ele>40</ele>
        <time>2019-01-08T09:52:43Z</time>
      </trkpt>
      <trkpt lat="43.53489" lon="3.49947">
        <ele>39.9</ele>
        <time>2019-01-08T09:52:45Z</time>
      </trkpt>
      <trkpt lat="43.53486" lon="3.49949">
        <ele>39.9</ele>
        <time>2019-01-08T09:52:47Z</time>
      </trkpt>
      <trkpt lat="43.53483" lon="3.49952">
        <ele>39.8</ele>
        <time>2019-01-08T09:52:49Z</time>
      </trkpt>
      <trkpt lat="43.5348" lon="3.49955">
        <ele>39.8</ele>
        <time>2019-01-08T09:52:51Z</time>
      </trkpt>
      <trkpt lat="43.53477" lon="3.49958">
        <ele>39.7</ele>
        <time>2019-01-08T09:52:53Z</time>
      </trkpt>
      <trkpt lat="43.53475" lon="3.4996">
        <ele>39.7</ele>
        <time>2019-01-08T09:52:55Z</time>
      </trkpt>
      <trkpt lat="43.53472" lon="3.49964">
        <ele>39.6</ele>
        <time>2019-01-08T09:52:58Z</time>
      </trkpt>
      <trkpt lat="43.5347" lon="3.49967">
        <ele>39.6</ele>
        <time>2019-01-08T09:53:00Z</time>
      </trkpt>
      <trkpt lat="43.53469" lon="3.49971">
        <ele>39.5</ele>
        <time>2019-01-08T09:53:02Z</time>
      </trkpt>
      <trkpt lat="43.53467" lon="3.49975">
        <ele>39.5</ele>
        <time>2019-01-08T09:53:04Z</time>
      </trkpt>
      <trkpt lat="43.53464" lon="3.49978">
        <ele>39.5</ele>
        <time>2019-01-08T09:53:06Z</time>
      </trkpt>
      <trkpt lat="43.53462" lon="3.49981">
        <ele>39.4</ele>
        <time>2019-01-08T09:53:08Z</time>
      </trkpt>
      <trkpt lat="43.5346" lon="3.49983">
        <ele>39.4</ele>
        <time>2019-01-08T09:53:10Z</time>
      </trkpt>
      <trkpt lat="43.53458" lon="3.49987">
        <ele>39.3</ele>
        <time>2019-01-08T09:53:12Z</time>
      </trkpt>
      <trkpt lat="43.53456" lon="3.4999">
        <ele>39.3</ele>
        <time>2019-01-08T09:53:14Z</time>
      </trkpt>
      <trkpt lat="43.53454" lon="3.49994">
        <ele>39.3</ele>
        <time>2019-01-08T09:53:16Z</time>
      </trkpt>
      <trkpt lat="43.53451" lon="3.49997">
        <ele>39.3</ele>
        <time>2019-01-08T09:53:18Z</time>
      </trkpt>
      <trkpt lat="43.53448" lon="3.5">
        <ele>39.3</ele>
        <time>2019-01-08T09:53:20Z</time>
      </trkpt>
      <trkpt lat="43.53446" lon="3.50003">
        <ele>39.3</ele>
        <time>2019-01-08T09:53:22Z</time>
      </trkpt>
      <trkpt lat="43.53444" lon="3.50006">
        <ele>39.3</ele>
        <time>2019-01-08T09:53:25Z</time>
      </trkpt>
      <trkpt lat="43.53442" lon="3.50008">
        <ele>39.3</ele>
        <time>2019-01-08T09:53:27Z</time>
      </trkpt>
      <trkpt lat="43.53439" lon="3.50012">
        <ele>39.3</ele>
        <time>2019-01-08T09:53:29Z</time>
      </trkpt>
      <trkpt lat="43.53437" lon="3.50015">
        <ele>39.3</ele>
        <time>2019-01-08T09:53:31Z</time>
      </trkpt>
      <trkpt lat="43.53433" lon="3.50017">
        <ele>39.3</ele>
        <time>2019-01-08T09:53:34Z</time>
      </trkpt>
      <trkpt lat="43.5343" lon="3.50021">
        <ele>39.3</ele>
        <time>2019-01-08T09:53:39Z</time>
      </trkpt>
      <trkpt lat="43.53429" lon="3.50024">
        <ele>39.3</ele>
        <time>2019-01-08T09:53:41Z</time>
      </trkpt>
      <trkpt lat="43.53426" lon="3.50027">
        <ele>39.3</ele>
        <time>2019-01-08T09:53:43Z</time>
      </trkpt>
      <trkpt lat="43.53424" lon="3.5003">
        <ele>39.3</ele>
        <time>2019-01-08T09:53:45Z</time>
      </trkpt>
      <trkpt lat="43.53422" lon="3.50033">
        <ele>39.3</ele>
        <time>2019-01-08T09:53:47Z</time>
      </trkpt>
      <trkpt lat="43.53419" lon="3.50037">
        <ele>39.3</ele>
        <time>2019-01-08T09:53:50Z</time>
      </trkpt>
      <trkpt lat="43.53417" lon="3.50039">
        <ele>39.3</ele>
        <time>2019-01-08T09:53:52Z</time>
      </trkpt>
      <trkpt lat="43.53415" lon="3.50042">
        <ele>39.3</ele>
        <time>2019-01-08T09:53:54Z</time>
      </trkpt>
      <trkpt lat="43.53412" lon="3.50045">
        <ele>39.3</ele>
        <time>2019-01-08T09:53:56Z</time>
      </trkpt>
      <trkpt lat="43.53409" lon="3.50048">
        <ele>39.3</ele>
        <time>2019-01-08T09:53:58Z</time>
      </trkpt>
      <trkpt lat="43.53407" lon="3.50052">
        <ele>39.3</ele>
        <time>2019-01-08T09:54:00Z</time>
      </trkpt>
      <trkpt lat="43.53406" lon="3.50056">
        <ele>39.3</ele>
        <time>2019-01-08T09:54:02Z</time>
      </trkpt>
      <trkpt lat="43.53403" lon="3.5006">
        <ele>39.3</ele>
        <time>2019-01-08T09:54:05Z</time>
      </trkpt>
      <trkpt lat="43.53401" lon="3.50064">
        <ele>39.4</ele>
        <time>2019-01-08T09:54:07Z</time>
      </trkpt>
      <trkpt lat="43.53399" lon="3.50068">
        <ele>39.4</ele>
        <time>2019-01-08T09:54:09Z</time>
      </trkpt>
      <trkpt lat="43.53397" lon="3.50072">
        <ele>39.4</ele>
        <time>2019-01-08T09:54:11Z</time>
      </trkpt>
      <trkpt lat="43.53394" lon="3.50075">
        <ele>39.5</ele>
        <time>2019-01-08T09:54:13Z</time>
      </trkpt>
      <trkpt lat="43.53393" lon="3.50078">
        <ele>39.5</ele>
        <time>2019-01-08T09:54:15Z</time>
      </trkpt>
      <trkpt lat="43.5339" lon="3.50082">
        <ele>39.6</ele>
        <time>2019-01-08T09:54:18Z</time>
      </trkpt>
      <trkpt lat="43.53388" lon="3.50086">
        <ele>39.7</ele>
        <time>2019-01-08T09:54:20Z</time>
      </trkpt>
      <trkpt lat="43.53386" lon="3.50089">
        <ele>39.8</ele>
        <time>2019-01-08T09:54:22Z</time>
      </trkpt>
      <trkpt lat="43.53383" lon="3.50091">
        <ele>39.8</ele>
        <time>2019-01-08T09:54:24Z</time>
      </trkpt>
      <trkpt lat="43.5338" lon="3.50093">
        <ele>40</ele>
        <time>2019-01-08T09:54:27Z</time>
      </trkpt>
      <trkpt lat="43.53377" lon="3.50097">
        <ele>40.1</ele>
        <time>2019-01-08T09:54:30Z</time>
      </trkpt>
      <trkpt lat="43.53374" lon="3.50099">
        <ele>40.2</ele>
        <time>2019-01-08T09:54:32Z</time>
      </trkpt>
      <trkpt lat="43.53371" lon="3.50102">
        <ele>40.4</ele>
        <time>2019-01-08T09:54:34Z</time>
      </trkpt>
      <trkpt lat="43.53369" lon="3.50105">
        <ele>40.5</ele>
        <time>2019-01-08T09:54:36Z</time>
      </trkpt>
      <trkpt lat="43.53366" lon="3.50107">
        <ele>40.6</ele>
        <time>2019-01-08T09:54:38Z</time>
      </trkpt>
      <trkpt lat="43.53364" lon="3.5011">
        <ele>40.7</ele>
        <time>2019-01-08T09:54:40Z</time>
      </trkpt>
      <trkpt lat="43.53362" lon="3.50113">
        <ele>40.8</ele>
        <time>2019-01-08T09:54:42Z</time>
      </trkpt>
      <trkpt lat="43.5336" lon="3.50117">
        <ele>40.9</ele>
        <time>2019-01-08T09:54:44Z</time>
      </trkpt>
      <trkpt lat="43.53357" lon="3.5012">
        <ele>41</ele>
        <time>2019-01-08T09:54:46Z</time>
      </trkpt>
      <trkpt lat="43.53355" lon="3.50123">
        <ele>41.1</ele>
        <time>2019-01-08T09:54:48Z</time>
      </trkpt>
      <trkpt lat="43.53353" lon="3.50127">
        <ele>41.1</ele>
        <time>2019-01-08T09:54:50Z</time>
      </trkpt>
      <trkpt lat="43.53351" lon="3.5013">
        <ele>41.2</ele>
        <time>2019-01-08T09:54:52Z</time>
      </trkpt>
      <trkpt lat="43.5335" lon="3.50133">
        <ele>41.2</ele>
        <time>2019-01-08T09:54:54Z</time>
      </trkpt>
      <trkpt lat="43.53348" lon="3.50136">
        <ele>41.2</ele>
        <time>2019-01-08T09:54:56Z</time>
      </trkpt>
      <trkpt lat="43.53345" lon="3.50139">
        <ele>41.3</ele>
        <time>2019-01-08T09:54:58Z</time>
      </trkpt>
      <trkpt lat="43.53342" lon="3.50143">
        <ele>41.3</ele>
        <time>2019-01-08T09:55:00Z</time>
      </trkpt>
      <trkpt lat="43.5334" lon="3.50146">
        <ele>41.3</ele>
        <time>2019-01-08T09:55:02Z</time>
      </trkpt>
      <trkpt lat="43.53337" lon="3.50149">
        <ele>41.3</ele>
        <time>2019-01-08T09:55:05Z</time>
      </trkpt>
      <trkpt lat="43.53337" lon="3.50154">
        <ele>41.3</ele>
        <time>2019-01-08T09:55:08Z</time>
      </trkpt>
      <trkpt lat="43.53339" lon="3.50159">
        <ele>41.6</ele>
        <time>2019-01-08T09:55:10Z</time>
      </trkpt>
      <trkpt lat="43.5334" lon="3.50164">
        <ele>41.7</ele>
        <time>2019-01-08T09:55:12Z</time>
      </trkpt>
      <trkpt lat="43.53342" lon="3.50168">
        <ele>41.8</ele>
        <time>2019-01-08T09:55:14Z</time>
      </trkpt>
      <trkpt lat="43.53344" lon="3.50173">
        <ele>41.9</ele>
        <time>2019-01-08T09:55:17Z</time>
      </trkpt>
      <trkpt lat="43.53345" lon="3.50177">
        <ele>42.1</ele>
        <time>2019-01-08T09:55:19Z</time>
      </trkpt>
      <trkpt lat="43.53346" lon="3.5018">
        <ele>42.2</ele>
        <time>2019-01-08T09:55:21Z</time>
      </trkpt>
      <trkpt lat="43.53347" lon="3.50184">
        <ele>42.4</ele>
        <time>2019-01-08T09:55:23Z</time>
      </trkpt>
      <trkpt lat="43.53349" lon="3.50189">
        <ele>42.5</ele>
        <time>2019-01-08T09:55:25Z</time>
      </trkpt>
      <trkpt lat="43.5335" lon="3.50193">
        <ele>42.6</ele>
        <time>2019-01-08T09:55:27Z</time>
      </trkpt>
      <trkpt lat="43.53351" lon="3.50197">
        <ele>42.7</ele>
        <time>2019-01-08T09:55:29Z</time>
      </trkpt>
      <trkpt lat="43.53352" lon="3.50201">
        <ele>42.9</ele>
        <time>2019-01-08T09:55:31Z</time>
      </trkpt>
      <trkpt lat="43.53353" lon="3.50206">
        <ele>43.1</ele>
        <time>2019-01-08T09:55:33Z</time>
      </trkpt>
      <trkpt lat="43.53354" lon="3.50211">
        <ele>43.2</ele>
        <time>2019-01-08T09:55:35Z</time>
      </trkpt>
      <trkpt lat="43.53355" lon="3.50215">
        <ele>43.3</ele>
        <time>2019-01-08T09:55:37Z</time>
      </trkpt>
      <trkpt lat="43.53356" lon="3.50219">
        <ele>43.5</ele>
        <time>2019-01-08T09:55:40Z</time>
      </trkpt>
      <trkpt lat="43.53357" lon="3.50223">
        <ele>43.6</ele>
        <time>2019-01-08T09:55:42Z</time>
      </trkpt>
      <trkpt lat="43.53359" lon="3.50228">
        <ele>43.8</ele>
        <time>2019-01-08T09:55:44Z</time>
      </trkpt>
      <trkpt lat="43.5336" lon="3.50232">
        <ele>44</ele>
        <time>2019-01-08T09:55:46Z</time>
      </trkpt>
      <trkpt lat="43.53362" lon="3.50235">
        <ele>44.1</ele>
        <time>2019-01-08T09:55:48Z</time>
      </trkpt>
      <trkpt lat="43.53363" lon="3.50239">
        <ele>44.2</ele>
        <time>2019-01-08T09:55:51Z</time>
      </trkpt>
      <trkpt lat="43.53365" lon="3.50244">
        <ele>44.4</ele>
        <time>2019-01-08T09:55:54Z</time>
      </trkpt>
      <trkpt lat="43.53367" lon="3.50248">
        <ele>44.7</ele>
        <time>2019-01-08T09:55:57Z</time>
      </trkpt>
      <trkpt lat="43.53369" lon="3.50252">
        <ele>44.8</ele>
        <time>2019-01-08T09:56:00Z</time>
      </trkpt>
      <trkpt lat="43.53371" lon="3.50255">
        <ele>45</ele>
        <time>2019-01-08T09:56:02Z</time>
      </trkpt>
      <trkpt lat="43.53372" lon="3.50259">
        <ele>45.1</ele>
        <time>2019-01-08T09:56:04Z</time>
      </trkpt>
      <trkpt lat="43.53374" lon="3.50263">
        <ele>45.3</ele>
        <time>2019-01-08T09:56:06Z</time>
      </trkpt>
      <trkpt lat="43.53376" lon="3.50268">
        <ele>45.5</ele>
        <time>2019-01-08T09:56:09Z</time>
      </trkpt>
      <trkpt lat="43.53377" lon="3.50272">
        <ele>45.7</ele>
        <time>2019-01-08T09:56:11Z</time>
      </trkpt>
      <trkpt lat="43.53378" lon="3.50276">
        <ele>45.8</ele>
        <time>2019-01-08T09:56:13Z</time>
      </trkpt>
      <trkpt lat="43.5338" lon="3.5028">
        <ele>46</ele>
        <time>2019-01-08T09:56:15Z</time>
      </trkpt>
      <trkpt lat="43.53382" lon="3.50284">
        <ele>46.2</ele>
        <time>2019-01-08T09:56:17Z</time>
      </trkpt>
      <trkpt lat="43.53383" lon="3.50287">
        <ele>46.3</ele>
        <time>2019-01-08T09:56:19Z</time>
      </trkpt>
      <trkpt lat="43.53385" lon="3.5029">
        <ele>46.6</ele>
        <time>2019-01-08T09:56:21Z</time>
      </trkpt>
      <trkpt lat="43.53387" lon="3.50295">
        <ele>46.8</ele>
        <time>2019-01-08T09:56:23Z</time>
      </trkpt>
      <trkpt lat="43.53388" lon="3.50298">
        <ele>47</ele>
        <time>2019-01-08T09:56:25Z</time>
      </trkpt>
      <trkpt lat="43.5339" lon="3.50302">
        <ele>47.1</ele>
        <time>2019-01-08T09:56:28Z</time>
      </trkpt>
      <trkpt lat="43.53392" lon="3.50308">
        <ele>47.1</ele>
        <time>2019-01-08T09:56:31Z</time>
      </trkpt>
      <trkpt lat="43.53394" lon="3.50311">
        <ele>47.1</ele>
        <time>2019-01-08T09:56:33Z</time>
      </trkpt>
      <trkpt lat="43.53397" lon="3.50309">
        <ele>47.1</ele>
        <time>2019-01-08T09:56:36Z</time>
      </trkpt>
      <trkpt lat="43.53401" lon="3.50307">
        <ele>47.1</ele>
        <time>2019-01-08T09:56:39Z</time>
      </trkpt>
      <trkpt lat="43.53404" lon="3.50305">
        <ele>47.1</ele>
        <time>2019-01-08T09:56:41Z</time>
      </trkpt>
      <trkpt lat="43.53407" lon="3.50303">
        <ele>47.1</ele>
        <time>2019-01-08T09:56:43Z</time>
      </trkpt>
      <trkpt lat="43.53409" lon="3.50301">
        <ele>47.1</ele>
        <time>2019-01-08T09:56:45Z</time>
      </trkpt>
      <trkpt lat="43.53412" lon="3.50298">
        <ele>47.1</ele>
        <time>2019-01-08T09:56:47Z</time>
      </trkpt>
      <trkpt lat="43.53414" lon="3.50296">
        <ele>47.1</ele>
        <time>2019-01-08T09:56:49Z</time>
      </trkpt>
      <trkpt lat="43.53416" lon="3.50293">
        <ele>47.1</ele>
        <time>2019-01-08T09:56:51Z</time>
      </trkpt>
      <trkpt lat="43.53419" lon="3.5029">
        <ele>47</ele>
        <time>2019-01-08T09:56:53Z</time>
      </trkpt>
      <trkpt lat="43.5342" lon="3.50287">
        <ele>47</ele>
        <time>2019-01-08T09:56:55Z</time>
      </trkpt>
      <trkpt lat="43.53421" lon="3.50282">
        <ele>46.7</ele>
        <time>2019-01-08T09:56:57Z</time>
      </trkpt>
      <trkpt lat="43.53421" lon="3.50278">
        <ele>46.5</ele>
        <time>2019-01-08T09:56:59Z</time>
      </trkpt>
      <trkpt lat="43.5342" lon="3.50274">
        <ele>46.3</ele>
        <time>2019-01-08T09:57:01Z</time>
      </trkpt>
      <trkpt lat="43.53419" lon="3.5027">
        <ele>46.1</ele>
        <time>2019-01-08T09:57:03Z</time>
      </trkpt>
      <trkpt lat="43.53417" lon="3.50266">
        <ele>45.9</ele>
        <time>2019-01-08T09:57:05Z</time>
      </trkpt>
      <trkpt lat="43.53416" lon="3.50261">
        <ele>45.6</ele>
        <time>2019-01-08T09:57:08Z</time>
      </trkpt>
      <trkpt lat="43.53415" lon="3.50257">
        <ele>45.5</ele>
        <time>2019-01-08T09:57:10Z</time>
      </trkpt>
      <trkpt lat="43.53414" lon="3.50253">
        <ele>45.3</ele>
        <time>2019-01-08T09:57:12Z</time>
      </trkpt>
      <trkpt lat="43.53413" lon="3.50248">
        <ele>45.1</ele>
        <time>2019-01-08T09:57:14Z</time>
      </trkpt>
      <trkpt lat="43.53413" lon="3.50244">
        <ele>45</ele>
        <time>2019-01-08T09:57:16Z</time>
      </trkpt>
      <trkpt lat="43.53411" lon="3.5024">
        <ele>44.8</ele>
        <time>2019-01-08T09:57:18Z</time>
      </trkpt>
      <trkpt lat="43.5341" lon="3.50236">
        <ele>44.7</ele>
        <time>2019-01-08T09:57:20Z</time>
      </trkpt>
      <trkpt lat="43.53409" lon="3.50232">
        <ele>44.6</ele>
        <time>2019-01-08T09:57:22Z</time>
      </trkpt>
      <trkpt lat="43.53407" lon="3.50229">
        <ele>44.4</ele>
        <time>2019-01-08T09:57:24Z</time>
      </trkpt>
      <trkpt lat="43.53405" lon="3.50224">
        <ele>44.2</ele>
        <time>2019-01-08T09:57:27Z</time>
      </trkpt>
      <trkpt lat="43.53404" lon="3.5022">
        <ele>44</ele>
        <time>2019-01-08T09:57:30Z</time>
      </trkpt>
      <trkpt lat="43.53401" lon="3.50216">
        <ele>43.8</ele>
        <time>2019-01-08T09:57:32Z</time>
      </trkpt>
      <trkpt lat="43.53399" lon="3.50212">
        <ele>43.7</ele>
        <time>2019-01-08T09:57:34Z</time>
      </trkpt>
      <trkpt lat="43.53396" lon="3.50209">
        <ele>43.7</ele>
        <time>2019-01-08T09:57:36Z</time>
      </trkpt>
      <trkpt lat="43.53394" lon="3.50206">
        <ele>43.7</ele>
        <time>2019-01-08T09:57:38Z</time>
      </trkpt>
      <trkpt lat="43.53392" lon="3.50203">
        <ele>43.7</ele>
        <time>2019-01-08T09:57:40Z</time>
      </trkpt>
    </trkseg>
  </trk>
</gpx>